<?xml version="1.0" encoding="UTF-8" standalone="no" ?>
<gpx xmlns="http://www.topografix.com/GPX/1/1" xmlns:xsi="http://www.w3.org/2001/XMLSchema-instance" xsi:schemaLocation="http://www.topografix.com/GPX/1/1 http://www.topografix.com/GPX/1/1/gpx.xsd" version="1.1" creator="VisuGPX - https://www.visugpx.com">
  <metadata>
    <name>Les Cimes du Chateau de Valon</name>
    <desc><![CDATA[trace roulée en aout 2024
descente progressive et roulante vers le chateau de Valon en surplombant la vallée
montée longue qui necessite une bonne forme physique mais pas technique, c'est une piste 4x4 bien large]]></desc>
  </metadata>
  <trk>
    <name><![CDATA[Les Cimes du Chateau de Valon_1]]></name>
    <trkseg>
      <trkpt lat="44.77954" lon="2.63735">
        <ele>771.7</ele>
        <time>2024-08-16T07:50:18Z</time>
      </trkpt>
      <trkpt lat="44.77954" lon="2.63735">
        <ele>771.7</ele>
        <time>2024-08-16T07:50:19Z</time>
      </trkpt>
      <trkpt lat="44.77943" lon="2.63742">
        <ele>771.7</ele>
        <time>2024-08-16T07:51:39Z</time>
      </trkpt>
      <trkpt lat="44.77943" lon="2.63745">
        <ele>771.7</ele>
        <time>2024-08-16T07:51:40Z</time>
      </trkpt>
      <trkpt lat="44.77945" lon="2.63752">
        <ele>771.6</ele>
        <time>2024-08-16T07:51:42Z</time>
      </trkpt>
      <trkpt lat="44.77946" lon="2.6376">
        <ele>771.6</ele>
        <time>2024-08-16T07:51:44Z</time>
      </trkpt>
      <trkpt lat="44.77945" lon="2.63768">
        <ele>771.6</ele>
        <time>2024-08-16T07:51:46Z</time>
      </trkpt>
      <trkpt lat="44.77943" lon="2.63776">
        <ele>771.6</ele>
        <time>2024-08-16T07:51:48Z</time>
      </trkpt>
      <trkpt lat="44.77942" lon="2.63782">
        <ele>771.6</ele>
        <time>2024-08-16T07:51:50Z</time>
      </trkpt>
      <trkpt lat="44.77941" lon="2.63788">
        <ele>771.6</ele>
        <time>2024-08-16T07:51:52Z</time>
      </trkpt>
      <trkpt lat="44.7794" lon="2.63791">
        <ele>771.7</ele>
        <time>2024-08-16T07:51:53Z</time>
      </trkpt>
      <trkpt lat="44.7794" lon="2.63794">
        <ele>771.7</ele>
        <time>2024-08-16T07:51:54Z</time>
      </trkpt>
      <trkpt lat="44.7794" lon="2.638">
        <ele>771.7</ele>
        <time>2024-08-16T07:51:56Z</time>
      </trkpt>
      <trkpt lat="44.77938" lon="2.63807">
        <ele>771.7</ele>
        <time>2024-08-16T07:51:58Z</time>
      </trkpt>
      <trkpt lat="44.77937" lon="2.63814">
        <ele>771.7</ele>
        <time>2024-08-16T07:52:00Z</time>
      </trkpt>
      <trkpt lat="44.77937" lon="2.63822">
        <ele>771.7</ele>
        <time>2024-08-16T07:52:02Z</time>
      </trkpt>
      <trkpt lat="44.77936" lon="2.6383">
        <ele>771.6</ele>
        <time>2024-08-16T07:52:04Z</time>
      </trkpt>
      <trkpt lat="44.77935" lon="2.63837">
        <ele>771.6</ele>
        <time>2024-08-16T07:52:06Z</time>
      </trkpt>
      <trkpt lat="44.77934" lon="2.63844">
        <ele>771.6</ele>
        <time>2024-08-16T07:52:08Z</time>
      </trkpt>
      <trkpt lat="44.77933" lon="2.63852">
        <ele>771.6</ele>
        <time>2024-08-16T07:52:10Z</time>
      </trkpt>
      <trkpt lat="44.77933" lon="2.63861">
        <ele>771.6</ele>
        <time>2024-08-16T07:52:12Z</time>
      </trkpt>
      <trkpt lat="44.77932" lon="2.6387">
        <ele>771.5</ele>
        <time>2024-08-16T07:52:14Z</time>
      </trkpt>
      <trkpt lat="44.77931" lon="2.63879">
        <ele>771.5</ele>
        <time>2024-08-16T07:52:16Z</time>
      </trkpt>
      <trkpt lat="44.77928" lon="2.63889">
        <ele>771.4</ele>
        <time>2024-08-16T07:52:18Z</time>
      </trkpt>
      <trkpt lat="44.77927" lon="2.63898">
        <ele>771.3</ele>
        <time>2024-08-16T07:52:20Z</time>
      </trkpt>
      <trkpt lat="44.77926" lon="2.63908">
        <ele>771.2</ele>
        <time>2024-08-16T07:52:22Z</time>
      </trkpt>
      <trkpt lat="44.77924" lon="2.63917">
        <ele>771.1</ele>
        <time>2024-08-16T07:52:24Z</time>
      </trkpt>
      <trkpt lat="44.77923" lon="2.63927">
        <ele>771</ele>
        <time>2024-08-16T07:52:26Z</time>
      </trkpt>
      <trkpt lat="44.77922" lon="2.63936">
        <ele>770.9</ele>
        <time>2024-08-16T07:52:28Z</time>
      </trkpt>
      <trkpt lat="44.77921" lon="2.63945">
        <ele>770.8</ele>
        <time>2024-08-16T07:52:30Z</time>
      </trkpt>
      <trkpt lat="44.7792" lon="2.63954">
        <ele>770.7</ele>
        <time>2024-08-16T07:52:32Z</time>
      </trkpt>
      <trkpt lat="44.7792" lon="2.63963">
        <ele>770.6</ele>
        <time>2024-08-16T07:52:34Z</time>
      </trkpt>
      <trkpt lat="44.77919" lon="2.63972">
        <ele>770.5</ele>
        <time>2024-08-16T07:52:36Z</time>
      </trkpt>
      <trkpt lat="44.77918" lon="2.63983">
        <ele>770.4</ele>
        <time>2024-08-16T07:52:38Z</time>
      </trkpt>
      <trkpt lat="44.77918" lon="2.63988">
        <ele>770.2</ele>
        <time>2024-08-16T07:52:39Z</time>
      </trkpt>
      <trkpt lat="44.77917" lon="2.63993">
        <ele>770.1</ele>
        <time>2024-08-16T07:52:40Z</time>
      </trkpt>
      <trkpt lat="44.77916" lon="2.64003">
        <ele>769.9</ele>
        <time>2024-08-16T07:52:42Z</time>
      </trkpt>
      <trkpt lat="44.77915" lon="2.64013">
        <ele>769.6</ele>
        <time>2024-08-16T07:52:44Z</time>
      </trkpt>
      <trkpt lat="44.77915" lon="2.64019">
        <ele>769.4</ele>
        <time>2024-08-16T07:52:45Z</time>
      </trkpt>
      <trkpt lat="44.77914" lon="2.64024">
        <ele>769.3</ele>
        <time>2024-08-16T07:52:46Z</time>
      </trkpt>
      <trkpt lat="44.77913" lon="2.64031">
        <ele>769.1</ele>
        <time>2024-08-16T07:52:48Z</time>
      </trkpt>
      <trkpt lat="44.77909" lon="2.64032">
        <ele>769</ele>
        <time>2024-08-16T07:52:50Z</time>
      </trkpt>
      <trkpt lat="44.77905" lon="2.64031">
        <ele>768.8</ele>
        <time>2024-08-16T07:52:52Z</time>
      </trkpt>
      <trkpt lat="44.77902" lon="2.6403">
        <ele>768.7</ele>
        <time>2024-08-16T07:52:54Z</time>
      </trkpt>
      <trkpt lat="44.77901" lon="2.64031">
        <ele>768.7</ele>
        <time>2024-08-16T07:52:55Z</time>
      </trkpt>
      <trkpt lat="44.7788" lon="2.64034">
        <ele>768.3</ele>
        <time>2024-08-16T07:53:10Z</time>
      </trkpt>
      <trkpt lat="44.77877" lon="2.64034">
        <ele>768.3</ele>
        <time>2024-08-16T07:53:11Z</time>
      </trkpt>
      <trkpt lat="44.77875" lon="2.64034">
        <ele>768.2</ele>
        <time>2024-08-16T07:53:12Z</time>
      </trkpt>
      <trkpt lat="44.77869" lon="2.64032">
        <ele>768.1</ele>
        <time>2024-08-16T07:53:14Z</time>
      </trkpt>
      <trkpt lat="44.77864" lon="2.64029">
        <ele>768.1</ele>
        <time>2024-08-16T07:53:16Z</time>
      </trkpt>
      <trkpt lat="44.77858" lon="2.64025">
        <ele>768</ele>
        <time>2024-08-16T07:53:18Z</time>
      </trkpt>
      <trkpt lat="44.77854" lon="2.64023">
        <ele>767.9</ele>
        <time>2024-08-16T07:53:20Z</time>
      </trkpt>
      <trkpt lat="44.77851" lon="2.64021">
        <ele>767.9</ele>
        <time>2024-08-16T07:53:21Z</time>
      </trkpt>
      <trkpt lat="44.77849" lon="2.64021">
        <ele>767.9</ele>
        <time>2024-08-16T07:53:22Z</time>
      </trkpt>
      <trkpt lat="44.77844" lon="2.64016">
        <ele>767.7</ele>
        <time>2024-08-16T07:53:24Z</time>
      </trkpt>
      <trkpt lat="44.77841" lon="2.64014">
        <ele>767.6</ele>
        <time>2024-08-16T07:53:25Z</time>
      </trkpt>
      <trkpt lat="44.77838" lon="2.64014">
        <ele>767.5</ele>
        <time>2024-08-16T07:53:26Z</time>
      </trkpt>
      <trkpt lat="44.77832" lon="2.64011">
        <ele>767.2</ele>
        <time>2024-08-16T07:53:28Z</time>
      </trkpt>
      <trkpt lat="44.77829" lon="2.64009">
        <ele>767.1</ele>
        <time>2024-08-16T07:53:29Z</time>
      </trkpt>
      <trkpt lat="44.77825" lon="2.64007">
        <ele>766.8</ele>
        <time>2024-08-16T07:53:30Z</time>
      </trkpt>
      <trkpt lat="44.77818" lon="2.64002">
        <ele>766.4</ele>
        <time>2024-08-16T07:53:32Z</time>
      </trkpt>
      <trkpt lat="44.77812" lon="2.63996">
        <ele>766.1</ele>
        <time>2024-08-16T07:53:33Z</time>
      </trkpt>
      <trkpt lat="44.77808" lon="2.63992">
        <ele>765.8</ele>
        <time>2024-08-16T07:53:34Z</time>
      </trkpt>
      <trkpt lat="44.77798" lon="2.63985">
        <ele>765.5</ele>
        <time>2024-08-16T07:53:36Z</time>
      </trkpt>
      <trkpt lat="44.77793" lon="2.63981">
        <ele>765.5</ele>
        <time>2024-08-16T07:53:37Z</time>
      </trkpt>
      <trkpt lat="44.77788" lon="2.63978">
        <ele>765.4</ele>
        <time>2024-08-16T07:53:38Z</time>
      </trkpt>
      <trkpt lat="44.77779" lon="2.63974">
        <ele>765.3</ele>
        <time>2024-08-16T07:53:40Z</time>
      </trkpt>
      <trkpt lat="44.77775" lon="2.63971">
        <ele>765.2</ele>
        <time>2024-08-16T07:53:41Z</time>
      </trkpt>
      <trkpt lat="44.77771" lon="2.63969">
        <ele>765.2</ele>
        <time>2024-08-16T07:53:42Z</time>
      </trkpt>
      <trkpt lat="44.77763" lon="2.63963">
        <ele>765</ele>
        <time>2024-08-16T07:53:44Z</time>
      </trkpt>
      <trkpt lat="44.7776" lon="2.6396">
        <ele>765</ele>
        <time>2024-08-16T07:53:45Z</time>
      </trkpt>
      <trkpt lat="44.77756" lon="2.63957">
        <ele>764.9</ele>
        <time>2024-08-16T07:53:46Z</time>
      </trkpt>
      <trkpt lat="44.77752" lon="2.63951">
        <ele>764.8</ele>
        <time>2024-08-16T07:53:47Z</time>
      </trkpt>
      <trkpt lat="44.77748" lon="2.63946">
        <ele>764.8</ele>
        <time>2024-08-16T07:53:48Z</time>
      </trkpt>
      <trkpt lat="44.77743" lon="2.63941">
        <ele>764.7</ele>
        <time>2024-08-16T07:53:49Z</time>
      </trkpt>
      <trkpt lat="44.77738" lon="2.63936">
        <ele>764.6</ele>
        <time>2024-08-16T07:53:50Z</time>
      </trkpt>
      <trkpt lat="44.77734" lon="2.63931">
        <ele>764.5</ele>
        <time>2024-08-16T07:53:51Z</time>
      </trkpt>
      <trkpt lat="44.77729" lon="2.63926">
        <ele>764.4</ele>
        <time>2024-08-16T07:53:52Z</time>
      </trkpt>
      <trkpt lat="44.77721" lon="2.63916">
        <ele>764.1</ele>
        <time>2024-08-16T07:53:54Z</time>
      </trkpt>
      <trkpt lat="44.77717" lon="2.63911">
        <ele>764</ele>
        <time>2024-08-16T07:53:55Z</time>
      </trkpt>
      <trkpt lat="44.77713" lon="2.63907">
        <ele>763.9</ele>
        <time>2024-08-16T07:53:56Z</time>
      </trkpt>
      <trkpt lat="44.77708" lon="2.63905">
        <ele>763.9</ele>
        <time>2024-08-16T07:53:57Z</time>
      </trkpt>
      <trkpt lat="44.77703" lon="2.63902">
        <ele>763.9</ele>
        <time>2024-08-16T07:53:58Z</time>
      </trkpt>
      <trkpt lat="44.77693" lon="2.63899">
        <ele>763.8</ele>
        <time>2024-08-16T07:54:00Z</time>
      </trkpt>
      <trkpt lat="44.77688" lon="2.63897">
        <ele>763.7</ele>
        <time>2024-08-16T07:54:01Z</time>
      </trkpt>
      <trkpt lat="44.77684" lon="2.63897">
        <ele>763.6</ele>
        <time>2024-08-16T07:54:02Z</time>
      </trkpt>
      <trkpt lat="44.77674" lon="2.63896">
        <ele>763.3</ele>
        <time>2024-08-16T07:54:04Z</time>
      </trkpt>
      <trkpt lat="44.77665" lon="2.63891">
        <ele>762.8</ele>
        <time>2024-08-16T07:54:06Z</time>
      </trkpt>
      <trkpt lat="44.77655" lon="2.63884">
        <ele>762.4</ele>
        <time>2024-08-16T07:54:08Z</time>
      </trkpt>
      <trkpt lat="44.77646" lon="2.63877">
        <ele>762.3</ele>
        <time>2024-08-16T07:54:10Z</time>
      </trkpt>
      <trkpt lat="44.77642" lon="2.63874">
        <ele>762.4</ele>
        <time>2024-08-16T07:54:11Z</time>
      </trkpt>
      <trkpt lat="44.77637" lon="2.63872">
        <ele>762.4</ele>
        <time>2024-08-16T07:54:12Z</time>
      </trkpt>
      <trkpt lat="44.7763" lon="2.63869">
        <ele>762.5</ele>
        <time>2024-08-16T07:54:14Z</time>
      </trkpt>
      <trkpt lat="44.77627" lon="2.63867">
        <ele>762.5</ele>
        <time>2024-08-16T07:54:15Z</time>
      </trkpt>
      <trkpt lat="44.77624" lon="2.63863">
        <ele>762.5</ele>
        <time>2024-08-16T07:54:16Z</time>
      </trkpt>
      <trkpt lat="44.77617" lon="2.63858">
        <ele>762.4</ele>
        <time>2024-08-16T07:54:18Z</time>
      </trkpt>
      <trkpt lat="44.77614" lon="2.63855">
        <ele>762.2</ele>
        <time>2024-08-16T07:54:19Z</time>
      </trkpt>
      <trkpt lat="44.7761" lon="2.63854">
        <ele>762.1</ele>
        <time>2024-08-16T07:54:20Z</time>
      </trkpt>
      <trkpt lat="44.77602" lon="2.63852">
        <ele>761.6</ele>
        <time>2024-08-16T07:54:22Z</time>
      </trkpt>
      <trkpt lat="44.77598" lon="2.63852">
        <ele>761.3</ele>
        <time>2024-08-16T07:54:23Z</time>
      </trkpt>
      <trkpt lat="44.77594" lon="2.63852">
        <ele>761</ele>
        <time>2024-08-16T07:54:24Z</time>
      </trkpt>
      <trkpt lat="44.77585" lon="2.63853">
        <ele>760.5</ele>
        <time>2024-08-16T07:54:26Z</time>
      </trkpt>
      <trkpt lat="44.7758" lon="2.63853">
        <ele>760.1</ele>
        <time>2024-08-16T07:54:27Z</time>
      </trkpt>
      <trkpt lat="44.77574" lon="2.63853">
        <ele>759.7</ele>
        <time>2024-08-16T07:54:28Z</time>
      </trkpt>
      <trkpt lat="44.77561" lon="2.63851">
        <ele>758.7</ele>
        <time>2024-08-16T07:54:30Z</time>
      </trkpt>
      <trkpt lat="44.77555" lon="2.6385">
        <ele>758</ele>
        <time>2024-08-16T07:54:31Z</time>
      </trkpt>
      <trkpt lat="44.77548" lon="2.6385">
        <ele>757.2</ele>
        <time>2024-08-16T07:54:32Z</time>
      </trkpt>
      <trkpt lat="44.77533" lon="2.63849">
        <ele>755.4</ele>
        <time>2024-08-16T07:54:34Z</time>
      </trkpt>
      <trkpt lat="44.77518" lon="2.63847">
        <ele>753.8</ele>
        <time>2024-08-16T07:54:36Z</time>
      </trkpt>
      <trkpt lat="44.77504" lon="2.63847">
        <ele>752.6</ele>
        <time>2024-08-16T07:54:38Z</time>
      </trkpt>
      <trkpt lat="44.77499" lon="2.63849">
        <ele>752.3</ele>
        <time>2024-08-16T07:54:39Z</time>
      </trkpt>
      <trkpt lat="44.77494" lon="2.63852">
        <ele>751.9</ele>
        <time>2024-08-16T07:54:40Z</time>
      </trkpt>
      <trkpt lat="44.77487" lon="2.63862">
        <ele>751.3</ele>
        <time>2024-08-16T07:54:42Z</time>
      </trkpt>
      <trkpt lat="44.77483" lon="2.63868">
        <ele>750.9</ele>
        <time>2024-08-16T07:54:43Z</time>
      </trkpt>
      <trkpt lat="44.7748" lon="2.63875">
        <ele>750.6</ele>
        <time>2024-08-16T07:54:44Z</time>
      </trkpt>
      <trkpt lat="44.77478" lon="2.63882">
        <ele>750.3</ele>
        <time>2024-08-16T07:54:45Z</time>
      </trkpt>
      <trkpt lat="44.77477" lon="2.63889">
        <ele>749.9</ele>
        <time>2024-08-16T07:54:46Z</time>
      </trkpt>
      <trkpt lat="44.77475" lon="2.63897">
        <ele>749.5</ele>
        <time>2024-08-16T07:54:47Z</time>
      </trkpt>
      <trkpt lat="44.77472" lon="2.63904">
        <ele>748.8</ele>
        <time>2024-08-16T07:54:48Z</time>
      </trkpt>
      <trkpt lat="44.77468" lon="2.63911">
        <ele>748.1</ele>
        <time>2024-08-16T07:54:49Z</time>
      </trkpt>
      <trkpt lat="44.77464" lon="2.63917">
        <ele>747.4</ele>
        <time>2024-08-16T07:54:50Z</time>
      </trkpt>
      <trkpt lat="44.77457" lon="2.63929">
        <ele>745.6</ele>
        <time>2024-08-16T07:54:52Z</time>
      </trkpt>
      <trkpt lat="44.77445" lon="2.63935">
        <ele>743.5</ele>
        <time>2024-08-16T07:54:54Z</time>
      </trkpt>
      <trkpt lat="44.77432" lon="2.63937">
        <ele>741.1</ele>
        <time>2024-08-16T07:54:56Z</time>
      </trkpt>
      <trkpt lat="44.77421" lon="2.63933">
        <ele>739</ele>
        <time>2024-08-16T07:54:58Z</time>
      </trkpt>
      <trkpt lat="44.77414" lon="2.63923">
        <ele>737.3</ele>
        <time>2024-08-16T07:55:00Z</time>
      </trkpt>
      <trkpt lat="44.77411" lon="2.63918">
        <ele>736.5</ele>
        <time>2024-08-16T07:55:01Z</time>
      </trkpt>
      <trkpt lat="44.77407" lon="2.63913">
        <ele>735.6</ele>
        <time>2024-08-16T07:55:02Z</time>
      </trkpt>
      <trkpt lat="44.77397" lon="2.63903">
        <ele>734</ele>
        <time>2024-08-16T07:55:04Z</time>
      </trkpt>
      <trkpt lat="44.77392" lon="2.63897">
        <ele>733.2</ele>
        <time>2024-08-16T07:55:05Z</time>
      </trkpt>
      <trkpt lat="44.77387" lon="2.63892">
        <ele>732.4</ele>
        <time>2024-08-16T07:55:06Z</time>
      </trkpt>
      <trkpt lat="44.77379" lon="2.63882">
        <ele>731.6</ele>
        <time>2024-08-16T07:55:08Z</time>
      </trkpt>
      <trkpt lat="44.77376" lon="2.63878">
        <ele>731.4</ele>
        <time>2024-08-16T07:55:09Z</time>
      </trkpt>
      <trkpt lat="44.77374" lon="2.63875">
        <ele>731.4</ele>
        <time>2024-08-16T07:55:10Z</time>
      </trkpt>
      <trkpt lat="44.77372" lon="2.63873">
        <ele>731.5</ele>
        <time>2024-08-16T07:55:12Z</time>
      </trkpt>
      <trkpt lat="44.77371" lon="2.63873">
        <ele>731.5</ele>
        <time>2024-08-16T07:55:13Z</time>
      </trkpt>
      <trkpt lat="44.77369" lon="2.63872">
        <ele>731.5</ele>
        <time>2024-08-16T07:55:14Z</time>
      </trkpt>
      <trkpt lat="44.77367" lon="2.63872">
        <ele>731.5</ele>
        <time>2024-08-16T07:55:15Z</time>
      </trkpt>
      <trkpt lat="44.77366" lon="2.63873">
        <ele>731.2</ele>
        <time>2024-08-16T07:55:16Z</time>
      </trkpt>
      <trkpt lat="44.77365" lon="2.63874">
        <ele>731.1</ele>
        <time>2024-08-16T07:55:17Z</time>
      </trkpt>
      <trkpt lat="44.77365" lon="2.63876">
        <ele>730.9</ele>
        <time>2024-08-16T07:55:18Z</time>
      </trkpt>
      <trkpt lat="44.77364" lon="2.63882">
        <ele>730.4</ele>
        <time>2024-08-16T07:55:20Z</time>
      </trkpt>
      <trkpt lat="44.77364" lon="2.63891">
        <ele>729.8</ele>
        <time>2024-08-16T07:55:22Z</time>
      </trkpt>
      <trkpt lat="44.77366" lon="2.639">
        <ele>729.2</ele>
        <time>2024-08-16T07:55:24Z</time>
      </trkpt>
      <trkpt lat="44.77369" lon="2.6391">
        <ele>728.5</ele>
        <time>2024-08-16T07:55:26Z</time>
      </trkpt>
      <trkpt lat="44.7737" lon="2.63915">
        <ele>728.1</ele>
        <time>2024-08-16T07:55:27Z</time>
      </trkpt>
      <trkpt lat="44.77372" lon="2.63921">
        <ele>727.8</ele>
        <time>2024-08-16T07:55:28Z</time>
      </trkpt>
      <trkpt lat="44.77375" lon="2.63932">
        <ele>727.2</ele>
        <time>2024-08-16T07:55:30Z</time>
      </trkpt>
      <trkpt lat="44.77376" lon="2.63938">
        <ele>726.8</ele>
        <time>2024-08-16T07:55:31Z</time>
      </trkpt>
      <trkpt lat="44.77375" lon="2.63944">
        <ele>726.5</ele>
        <time>2024-08-16T07:55:32Z</time>
      </trkpt>
      <trkpt lat="44.77369" lon="2.63956">
        <ele>725.8</ele>
        <time>2024-08-16T07:55:34Z</time>
      </trkpt>
      <trkpt lat="44.7736" lon="2.63966">
        <ele>725</ele>
        <time>2024-08-16T07:55:36Z</time>
      </trkpt>
      <trkpt lat="44.77354" lon="2.63968">
        <ele>724.7</ele>
        <time>2024-08-16T07:55:37Z</time>
      </trkpt>
      <trkpt lat="44.77349" lon="2.63969">
        <ele>724.5</ele>
        <time>2024-08-16T07:55:38Z</time>
      </trkpt>
      <trkpt lat="44.77339" lon="2.63968">
        <ele>724.3</ele>
        <time>2024-08-16T07:55:40Z</time>
      </trkpt>
      <trkpt lat="44.77334" lon="2.63967">
        <ele>724.3</ele>
        <time>2024-08-16T07:55:41Z</time>
      </trkpt>
      <trkpt lat="44.7733" lon="2.63964">
        <ele>724.4</ele>
        <time>2024-08-16T07:55:42Z</time>
      </trkpt>
      <trkpt lat="44.77321" lon="2.63958">
        <ele>724.6</ele>
        <time>2024-08-16T07:55:44Z</time>
      </trkpt>
      <trkpt lat="44.77314" lon="2.63955">
        <ele>724.9</ele>
        <time>2024-08-16T07:55:46Z</time>
      </trkpt>
      <trkpt lat="44.77307" lon="2.63952">
        <ele>725.3</ele>
        <time>2024-08-16T07:55:48Z</time>
      </trkpt>
      <trkpt lat="44.77304" lon="2.6395">
        <ele>725.5</ele>
        <time>2024-08-16T07:55:49Z</time>
      </trkpt>
      <trkpt lat="44.77302" lon="2.6395">
        <ele>725.7</ele>
        <time>2024-08-16T07:55:50Z</time>
      </trkpt>
      <trkpt lat="44.77297" lon="2.63948">
        <ele>726</ele>
        <time>2024-08-16T07:55:52Z</time>
      </trkpt>
      <trkpt lat="44.77293" lon="2.63946">
        <ele>726.4</ele>
        <time>2024-08-16T07:55:54Z</time>
      </trkpt>
      <trkpt lat="44.77291" lon="2.63945">
        <ele>726.6</ele>
        <time>2024-08-16T07:55:55Z</time>
      </trkpt>
      <trkpt lat="44.77289" lon="2.63944">
        <ele>726.7</ele>
        <time>2024-08-16T07:55:56Z</time>
      </trkpt>
      <trkpt lat="44.77285" lon="2.63943">
        <ele>727</ele>
        <time>2024-08-16T07:55:58Z</time>
      </trkpt>
      <trkpt lat="44.77283" lon="2.63943">
        <ele>727.3</ele>
        <time>2024-08-16T07:56:00Z</time>
      </trkpt>
      <trkpt lat="44.77279" lon="2.63942">
        <ele>727.6</ele>
        <time>2024-08-16T07:56:02Z</time>
      </trkpt>
      <trkpt lat="44.77275" lon="2.63941">
        <ele>727.9</ele>
        <time>2024-08-16T07:56:04Z</time>
      </trkpt>
      <trkpt lat="44.77271" lon="2.63939">
        <ele>728.2</ele>
        <time>2024-08-16T07:56:06Z</time>
      </trkpt>
      <trkpt lat="44.77267" lon="2.63938">
        <ele>728.6</ele>
        <time>2024-08-16T07:56:08Z</time>
      </trkpt>
      <trkpt lat="44.77263" lon="2.63937">
        <ele>729</ele>
        <time>2024-08-16T07:56:10Z</time>
      </trkpt>
      <trkpt lat="44.77261" lon="2.63936">
        <ele>729.1</ele>
        <time>2024-08-16T07:56:11Z</time>
      </trkpt>
      <trkpt lat="44.77259" lon="2.63935">
        <ele>729.3</ele>
        <time>2024-08-16T07:56:12Z</time>
      </trkpt>
      <trkpt lat="44.77255" lon="2.63933">
        <ele>729.7</ele>
        <time>2024-08-16T07:56:14Z</time>
      </trkpt>
      <trkpt lat="44.77251" lon="2.63931">
        <ele>730.1</ele>
        <time>2024-08-16T07:56:16Z</time>
      </trkpt>
      <trkpt lat="44.77247" lon="2.63929">
        <ele>730.4</ele>
        <time>2024-08-16T07:56:18Z</time>
      </trkpt>
      <trkpt lat="44.77243" lon="2.63927">
        <ele>730.8</ele>
        <time>2024-08-16T07:56:20Z</time>
      </trkpt>
      <trkpt lat="44.77241" lon="2.63925">
        <ele>731</ele>
        <time>2024-08-16T07:56:21Z</time>
      </trkpt>
      <trkpt lat="44.77239" lon="2.63924">
        <ele>731.2</ele>
        <time>2024-08-16T07:56:22Z</time>
      </trkpt>
      <trkpt lat="44.77235" lon="2.63921">
        <ele>731.5</ele>
        <time>2024-08-16T07:56:24Z</time>
      </trkpt>
      <trkpt lat="44.77234" lon="2.63921">
        <ele>731.7</ele>
        <time>2024-08-16T07:56:25Z</time>
      </trkpt>
      <trkpt lat="44.77232" lon="2.6392">
        <ele>731.8</ele>
        <time>2024-08-16T07:56:26Z</time>
      </trkpt>
      <trkpt lat="44.77228" lon="2.63918">
        <ele>732.1</ele>
        <time>2024-08-16T07:56:28Z</time>
      </trkpt>
      <trkpt lat="44.77224" lon="2.63916">
        <ele>732.4</ele>
        <time>2024-08-16T07:56:30Z</time>
      </trkpt>
      <trkpt lat="44.77223" lon="2.63915">
        <ele>732.6</ele>
        <time>2024-08-16T07:56:31Z</time>
      </trkpt>
      <trkpt lat="44.77221" lon="2.63915">
        <ele>732.7</ele>
        <time>2024-08-16T07:56:32Z</time>
      </trkpt>
      <trkpt lat="44.77217" lon="2.63915">
        <ele>733</ele>
        <time>2024-08-16T07:56:34Z</time>
      </trkpt>
      <trkpt lat="44.77213" lon="2.63915">
        <ele>733.3</ele>
        <time>2024-08-16T07:56:36Z</time>
      </trkpt>
      <trkpt lat="44.7721" lon="2.63914">
        <ele>733.6</ele>
        <time>2024-08-16T07:56:38Z</time>
      </trkpt>
      <trkpt lat="44.77206" lon="2.63913">
        <ele>733.9</ele>
        <time>2024-08-16T07:56:40Z</time>
      </trkpt>
      <trkpt lat="44.77204" lon="2.63914">
        <ele>734.1</ele>
        <time>2024-08-16T07:56:41Z</time>
      </trkpt>
      <trkpt lat="44.77202" lon="2.63914">
        <ele>734.2</ele>
        <time>2024-08-16T07:56:42Z</time>
      </trkpt>
      <trkpt lat="44.772" lon="2.63915">
        <ele>734.4</ele>
        <time>2024-08-16T07:56:43Z</time>
      </trkpt>
      <trkpt lat="44.77198" lon="2.63915">
        <ele>734.6</ele>
        <time>2024-08-16T07:56:44Z</time>
      </trkpt>
      <trkpt lat="44.77196" lon="2.63916">
        <ele>734.7</ele>
        <time>2024-08-16T07:56:45Z</time>
      </trkpt>
      <trkpt lat="44.77194" lon="2.63917">
        <ele>734.9</ele>
        <time>2024-08-16T07:56:46Z</time>
      </trkpt>
      <trkpt lat="44.77192" lon="2.63918">
        <ele>735.1</ele>
        <time>2024-08-16T07:56:47Z</time>
      </trkpt>
      <trkpt lat="44.7719" lon="2.6392">
        <ele>735.2</ele>
        <time>2024-08-16T07:56:48Z</time>
      </trkpt>
      <trkpt lat="44.77186" lon="2.63922">
        <ele>735.6</ele>
        <time>2024-08-16T07:56:50Z</time>
      </trkpt>
      <trkpt lat="44.77182" lon="2.63924">
        <ele>735.9</ele>
        <time>2024-08-16T07:56:52Z</time>
      </trkpt>
      <trkpt lat="44.77179" lon="2.63927">
        <ele>736.1</ele>
        <time>2024-08-16T07:56:54Z</time>
      </trkpt>
      <trkpt lat="44.77178" lon="2.63929">
        <ele>736.3</ele>
        <time>2024-08-16T07:56:55Z</time>
      </trkpt>
      <trkpt lat="44.77176" lon="2.6393">
        <ele>736.4</ele>
        <time>2024-08-16T07:56:56Z</time>
      </trkpt>
      <trkpt lat="44.77173" lon="2.63933">
        <ele>736.7</ele>
        <time>2024-08-16T07:56:58Z</time>
      </trkpt>
      <trkpt lat="44.7717" lon="2.63937">
        <ele>737</ele>
        <time>2024-08-16T07:57:00Z</time>
      </trkpt>
      <trkpt lat="44.77166" lon="2.63941">
        <ele>737.3</ele>
        <time>2024-08-16T07:57:02Z</time>
      </trkpt>
      <trkpt lat="44.77165" lon="2.63943">
        <ele>737.5</ele>
        <time>2024-08-16T07:57:03Z</time>
      </trkpt>
      <trkpt lat="44.77164" lon="2.63945">
        <ele>737.6</ele>
        <time>2024-08-16T07:57:04Z</time>
      </trkpt>
      <trkpt lat="44.77162" lon="2.6395">
        <ele>737.9</ele>
        <time>2024-08-16T07:57:06Z</time>
      </trkpt>
      <trkpt lat="44.77161" lon="2.63955">
        <ele>738.2</ele>
        <time>2024-08-16T07:57:08Z</time>
      </trkpt>
      <trkpt lat="44.77158" lon="2.63959">
        <ele>738.5</ele>
        <time>2024-08-16T07:57:10Z</time>
      </trkpt>
      <trkpt lat="44.77156" lon="2.63964">
        <ele>738.8</ele>
        <time>2024-08-16T07:57:12Z</time>
      </trkpt>
      <trkpt lat="44.77153" lon="2.63968">
        <ele>739.1</ele>
        <time>2024-08-16T07:57:14Z</time>
      </trkpt>
      <trkpt lat="44.77151" lon="2.63973">
        <ele>739.4</ele>
        <time>2024-08-16T07:57:16Z</time>
      </trkpt>
      <trkpt lat="44.7715" lon="2.63975">
        <ele>739.5</ele>
        <time>2024-08-16T07:57:17Z</time>
      </trkpt>
      <trkpt lat="44.77149" lon="2.63977">
        <ele>739.6</ele>
        <time>2024-08-16T07:57:18Z</time>
      </trkpt>
      <trkpt lat="44.77147" lon="2.63982">
        <ele>739.9</ele>
        <time>2024-08-16T07:57:20Z</time>
      </trkpt>
      <trkpt lat="44.77145" lon="2.63987">
        <ele>740.1</ele>
        <time>2024-08-16T07:57:22Z</time>
      </trkpt>
      <trkpt lat="44.77144" lon="2.63989">
        <ele>740.3</ele>
        <time>2024-08-16T07:57:23Z</time>
      </trkpt>
      <trkpt lat="44.77143" lon="2.63992">
        <ele>740.4</ele>
        <time>2024-08-16T07:57:24Z</time>
      </trkpt>
      <trkpt lat="44.7714" lon="2.63997">
        <ele>740.7</ele>
        <time>2024-08-16T07:57:26Z</time>
      </trkpt>
      <trkpt lat="44.77139" lon="2.63999">
        <ele>740.8</ele>
        <time>2024-08-16T07:57:27Z</time>
      </trkpt>
      <trkpt lat="44.77138" lon="2.64002">
        <ele>740.9</ele>
        <time>2024-08-16T07:57:28Z</time>
      </trkpt>
      <trkpt lat="44.77135" lon="2.64006">
        <ele>741.2</ele>
        <time>2024-08-16T07:57:30Z</time>
      </trkpt>
      <trkpt lat="44.77132" lon="2.64011">
        <ele>741.5</ele>
        <time>2024-08-16T07:57:32Z</time>
      </trkpt>
      <trkpt lat="44.77129" lon="2.64016">
        <ele>741.7</ele>
        <time>2024-08-16T07:57:34Z</time>
      </trkpt>
      <trkpt lat="44.77126" lon="2.64021">
        <ele>742</ele>
        <time>2024-08-16T07:57:36Z</time>
      </trkpt>
      <trkpt lat="44.77123" lon="2.64025">
        <ele>742.3</ele>
        <time>2024-08-16T07:57:38Z</time>
      </trkpt>
      <trkpt lat="44.7712" lon="2.64029">
        <ele>742.5</ele>
        <time>2024-08-16T07:57:40Z</time>
      </trkpt>
      <trkpt lat="44.77117" lon="2.64032">
        <ele>742.8</ele>
        <time>2024-08-16T07:57:42Z</time>
      </trkpt>
      <trkpt lat="44.77113" lon="2.64035">
        <ele>743</ele>
        <time>2024-08-16T07:57:44Z</time>
      </trkpt>
      <trkpt lat="44.77109" lon="2.64039">
        <ele>743.3</ele>
        <time>2024-08-16T07:57:46Z</time>
      </trkpt>
      <trkpt lat="44.77105" lon="2.64041">
        <ele>743.5</ele>
        <time>2024-08-16T07:57:48Z</time>
      </trkpt>
      <trkpt lat="44.77103" lon="2.64042">
        <ele>743.6</ele>
        <time>2024-08-16T07:57:49Z</time>
      </trkpt>
      <trkpt lat="44.77101" lon="2.64043">
        <ele>743.7</ele>
        <time>2024-08-16T07:57:50Z</time>
      </trkpt>
      <trkpt lat="44.77097" lon="2.64046">
        <ele>744</ele>
        <time>2024-08-16T07:57:52Z</time>
      </trkpt>
      <trkpt lat="44.77093" lon="2.64048">
        <ele>744.3</ele>
        <time>2024-08-16T07:57:54Z</time>
      </trkpt>
      <trkpt lat="44.77089" lon="2.64051">
        <ele>744.5</ele>
        <time>2024-08-16T07:57:56Z</time>
      </trkpt>
      <trkpt lat="44.77087" lon="2.64052">
        <ele>744.7</ele>
        <time>2024-08-16T07:57:57Z</time>
      </trkpt>
      <trkpt lat="44.77085" lon="2.64053">
        <ele>744.8</ele>
        <time>2024-08-16T07:57:58Z</time>
      </trkpt>
      <trkpt lat="44.77081" lon="2.64056">
        <ele>745.1</ele>
        <time>2024-08-16T07:58:00Z</time>
      </trkpt>
      <trkpt lat="44.77077" lon="2.64059">
        <ele>745.4</ele>
        <time>2024-08-16T07:58:02Z</time>
      </trkpt>
      <trkpt lat="44.77073" lon="2.64062">
        <ele>745.6</ele>
        <time>2024-08-16T07:58:04Z</time>
      </trkpt>
      <trkpt lat="44.77069" lon="2.64064">
        <ele>745.9</ele>
        <time>2024-08-16T07:58:06Z</time>
      </trkpt>
      <trkpt lat="44.77068" lon="2.64066">
        <ele>746</ele>
        <time>2024-08-16T07:58:07Z</time>
      </trkpt>
      <trkpt lat="44.77066" lon="2.64067">
        <ele>746.2</ele>
        <time>2024-08-16T07:58:08Z</time>
      </trkpt>
      <trkpt lat="44.77064" lon="2.64068">
        <ele>746.3</ele>
        <time>2024-08-16T07:58:09Z</time>
      </trkpt>
      <trkpt lat="44.77062" lon="2.6407">
        <ele>746.4</ele>
        <time>2024-08-16T07:58:10Z</time>
      </trkpt>
      <trkpt lat="44.77058" lon="2.64073">
        <ele>746.7</ele>
        <time>2024-08-16T07:58:12Z</time>
      </trkpt>
      <trkpt lat="44.77054" lon="2.64076">
        <ele>747</ele>
        <time>2024-08-16T07:58:14Z</time>
      </trkpt>
      <trkpt lat="44.77051" lon="2.6408">
        <ele>747.2</ele>
        <time>2024-08-16T07:58:16Z</time>
      </trkpt>
      <trkpt lat="44.77047" lon="2.64084">
        <ele>747.5</ele>
        <time>2024-08-16T07:58:18Z</time>
      </trkpt>
      <trkpt lat="44.77043" lon="2.64088">
        <ele>747.7</ele>
        <time>2024-08-16T07:58:20Z</time>
      </trkpt>
      <trkpt lat="44.7704" lon="2.64091">
        <ele>748</ele>
        <time>2024-08-16T07:58:22Z</time>
      </trkpt>
      <trkpt lat="44.77036" lon="2.64094">
        <ele>748.2</ele>
        <time>2024-08-16T07:58:24Z</time>
      </trkpt>
      <trkpt lat="44.77032" lon="2.64097">
        <ele>748.4</ele>
        <time>2024-08-16T07:58:26Z</time>
      </trkpt>
      <trkpt lat="44.77028" lon="2.641">
        <ele>748.7</ele>
        <time>2024-08-16T07:58:28Z</time>
      </trkpt>
      <trkpt lat="44.77026" lon="2.64102">
        <ele>748.8</ele>
        <time>2024-08-16T07:58:29Z</time>
      </trkpt>
      <trkpt lat="44.77024" lon="2.64103">
        <ele>749</ele>
        <time>2024-08-16T07:58:30Z</time>
      </trkpt>
      <trkpt lat="44.7702" lon="2.64107">
        <ele>749.3</ele>
        <time>2024-08-16T07:58:32Z</time>
      </trkpt>
      <trkpt lat="44.77016" lon="2.64111">
        <ele>749.6</ele>
        <time>2024-08-16T07:58:34Z</time>
      </trkpt>
      <trkpt lat="44.77012" lon="2.64115">
        <ele>749.8</ele>
        <time>2024-08-16T07:58:36Z</time>
      </trkpt>
      <trkpt lat="44.77008" lon="2.64119">
        <ele>750.1</ele>
        <time>2024-08-16T07:58:38Z</time>
      </trkpt>
      <trkpt lat="44.77005" lon="2.64123">
        <ele>750.3</ele>
        <time>2024-08-16T07:58:40Z</time>
      </trkpt>
      <trkpt lat="44.77001" lon="2.64127">
        <ele>750.6</ele>
        <time>2024-08-16T07:58:42Z</time>
      </trkpt>
      <trkpt lat="44.76999" lon="2.64129">
        <ele>750.7</ele>
        <time>2024-08-16T07:58:43Z</time>
      </trkpt>
      <trkpt lat="44.76998" lon="2.6413">
        <ele>750.8</ele>
        <time>2024-08-16T07:58:44Z</time>
      </trkpt>
      <trkpt lat="44.76994" lon="2.64134">
        <ele>751</ele>
        <time>2024-08-16T07:58:46Z</time>
      </trkpt>
      <trkpt lat="44.7699" lon="2.64137">
        <ele>751.2</ele>
        <time>2024-08-16T07:58:48Z</time>
      </trkpt>
      <trkpt lat="44.76987" lon="2.6414">
        <ele>751.4</ele>
        <time>2024-08-16T07:58:50Z</time>
      </trkpt>
      <trkpt lat="44.76982" lon="2.64143">
        <ele>751.6</ele>
        <time>2024-08-16T07:58:52Z</time>
      </trkpt>
      <trkpt lat="44.76979" lon="2.64146">
        <ele>751.8</ele>
        <time>2024-08-16T07:58:54Z</time>
      </trkpt>
      <trkpt lat="44.76977" lon="2.64149">
        <ele>751.9</ele>
        <time>2024-08-16T07:58:55Z</time>
      </trkpt>
      <trkpt lat="44.76975" lon="2.6415">
        <ele>752</ele>
        <time>2024-08-16T07:58:56Z</time>
      </trkpt>
      <trkpt lat="44.7697" lon="2.64153">
        <ele>752.2</ele>
        <time>2024-08-16T07:58:58Z</time>
      </trkpt>
      <trkpt lat="44.76966" lon="2.64156">
        <ele>752.3</ele>
        <time>2024-08-16T07:59:00Z</time>
      </trkpt>
      <trkpt lat="44.76964" lon="2.64158">
        <ele>752.4</ele>
        <time>2024-08-16T07:59:01Z</time>
      </trkpt>
      <trkpt lat="44.76962" lon="2.64159">
        <ele>752.5</ele>
        <time>2024-08-16T07:59:02Z</time>
      </trkpt>
      <trkpt lat="44.76959" lon="2.64161">
        <ele>752.5</ele>
        <time>2024-08-16T07:59:03Z</time>
      </trkpt>
      <trkpt lat="44.76957" lon="2.64161">
        <ele>752.6</ele>
        <time>2024-08-16T07:59:04Z</time>
      </trkpt>
      <trkpt lat="44.76954" lon="2.64162">
        <ele>752.7</ele>
        <time>2024-08-16T07:59:05Z</time>
      </trkpt>
      <trkpt lat="44.76952" lon="2.64165">
        <ele>752.7</ele>
        <time>2024-08-16T07:59:06Z</time>
      </trkpt>
      <trkpt lat="44.76948" lon="2.6417">
        <ele>752.8</ele>
        <time>2024-08-16T07:59:08Z</time>
      </trkpt>
      <trkpt lat="44.76944" lon="2.64174">
        <ele>753</ele>
        <time>2024-08-16T07:59:10Z</time>
      </trkpt>
      <trkpt lat="44.76939" lon="2.64177">
        <ele>753.1</ele>
        <time>2024-08-16T07:59:12Z</time>
      </trkpt>
      <trkpt lat="44.76935" lon="2.64183">
        <ele>753.2</ele>
        <time>2024-08-16T07:59:14Z</time>
      </trkpt>
      <trkpt lat="44.76932" lon="2.6419">
        <ele>753.3</ele>
        <time>2024-08-16T07:59:16Z</time>
      </trkpt>
      <trkpt lat="44.76928" lon="2.64195">
        <ele>753.4</ele>
        <time>2024-08-16T07:59:18Z</time>
      </trkpt>
      <trkpt lat="44.76926" lon="2.64198">
        <ele>753.4</ele>
        <time>2024-08-16T07:59:19Z</time>
      </trkpt>
      <trkpt lat="44.76924" lon="2.64202">
        <ele>753.5</ele>
        <time>2024-08-16T07:59:20Z</time>
      </trkpt>
      <trkpt lat="44.7692" lon="2.64207">
        <ele>753.5</ele>
        <time>2024-08-16T07:59:22Z</time>
      </trkpt>
      <trkpt lat="44.76918" lon="2.64209">
        <ele>753.5</ele>
        <time>2024-08-16T07:59:23Z</time>
      </trkpt>
      <trkpt lat="44.76916" lon="2.64212">
        <ele>753.6</ele>
        <time>2024-08-16T07:59:24Z</time>
      </trkpt>
      <trkpt lat="44.76912" lon="2.6422">
        <ele>753.6</ele>
        <time>2024-08-16T07:59:26Z</time>
      </trkpt>
      <trkpt lat="44.76909" lon="2.64227">
        <ele>753.6</ele>
        <time>2024-08-16T07:59:28Z</time>
      </trkpt>
      <trkpt lat="44.76905" lon="2.64234">
        <ele>753.6</ele>
        <time>2024-08-16T07:59:30Z</time>
      </trkpt>
      <trkpt lat="44.76901" lon="2.64241">
        <ele>753.6</ele>
        <time>2024-08-16T07:59:32Z</time>
      </trkpt>
      <trkpt lat="44.76898" lon="2.64247">
        <ele>753.6</ele>
        <time>2024-08-16T07:59:34Z</time>
      </trkpt>
      <trkpt lat="44.76894" lon="2.64255">
        <ele>753.6</ele>
        <time>2024-08-16T07:59:36Z</time>
      </trkpt>
      <trkpt lat="44.7689" lon="2.64263">
        <ele>753.6</ele>
        <time>2024-08-16T07:59:38Z</time>
      </trkpt>
      <trkpt lat="44.76887" lon="2.64267">
        <ele>753.5</ele>
        <time>2024-08-16T07:59:39Z</time>
      </trkpt>
      <trkpt lat="44.76885" lon="2.64271">
        <ele>753.5</ele>
        <time>2024-08-16T07:59:40Z</time>
      </trkpt>
      <trkpt lat="44.7688" lon="2.64277">
        <ele>753.4</ele>
        <time>2024-08-16T07:59:42Z</time>
      </trkpt>
      <trkpt lat="44.76875" lon="2.64285">
        <ele>753.3</ele>
        <time>2024-08-16T07:59:44Z</time>
      </trkpt>
      <trkpt lat="44.7687" lon="2.64292">
        <ele>753.1</ele>
        <time>2024-08-16T07:59:46Z</time>
      </trkpt>
      <trkpt lat="44.76865" lon="2.64299">
        <ele>753</ele>
        <time>2024-08-16T07:59:48Z</time>
      </trkpt>
      <trkpt lat="44.76859" lon="2.64305">
        <ele>752.8</ele>
        <time>2024-08-16T07:59:50Z</time>
      </trkpt>
      <trkpt lat="44.76857" lon="2.64309">
        <ele>752.6</ele>
        <time>2024-08-16T07:59:51Z</time>
      </trkpt>
      <trkpt lat="44.76854" lon="2.64313">
        <ele>752.5</ele>
        <time>2024-08-16T07:59:52Z</time>
      </trkpt>
      <trkpt lat="44.76848" lon="2.6432">
        <ele>752.3</ele>
        <time>2024-08-16T07:59:54Z</time>
      </trkpt>
      <trkpt lat="44.76842" lon="2.64327">
        <ele>752.1</ele>
        <time>2024-08-16T07:59:56Z</time>
      </trkpt>
      <trkpt lat="44.76835" lon="2.64334">
        <ele>751.8</ele>
        <time>2024-08-16T07:59:58Z</time>
      </trkpt>
      <trkpt lat="44.76832" lon="2.64337">
        <ele>751.7</ele>
        <time>2024-08-16T07:59:59Z</time>
      </trkpt>
      <trkpt lat="44.76829" lon="2.64341">
        <ele>751.6</ele>
        <time>2024-08-16T08:00:00Z</time>
      </trkpt>
      <trkpt lat="44.76826" lon="2.64344">
        <ele>751.4</ele>
        <time>2024-08-16T08:00:01Z</time>
      </trkpt>
      <trkpt lat="44.76822" lon="2.64348">
        <ele>751.3</ele>
        <time>2024-08-16T08:00:02Z</time>
      </trkpt>
      <trkpt lat="44.76815" lon="2.64354">
        <ele>751</ele>
        <time>2024-08-16T08:00:04Z</time>
      </trkpt>
      <trkpt lat="44.76809" lon="2.6436">
        <ele>750.8</ele>
        <time>2024-08-16T08:00:06Z</time>
      </trkpt>
      <trkpt lat="44.76805" lon="2.64364">
        <ele>750.6</ele>
        <time>2024-08-16T08:00:07Z</time>
      </trkpt>
      <trkpt lat="44.76802" lon="2.64368">
        <ele>750.4</ele>
        <time>2024-08-16T08:00:08Z</time>
      </trkpt>
      <trkpt lat="44.76796" lon="2.64376">
        <ele>750.1</ele>
        <time>2024-08-16T08:00:10Z</time>
      </trkpt>
      <trkpt lat="44.76792" lon="2.6438">
        <ele>749.9</ele>
        <time>2024-08-16T08:00:11Z</time>
      </trkpt>
      <trkpt lat="44.76789" lon="2.64384">
        <ele>749.7</ele>
        <time>2024-08-16T08:00:12Z</time>
      </trkpt>
      <trkpt lat="44.76785" lon="2.64388">
        <ele>749.5</ele>
        <time>2024-08-16T08:00:13Z</time>
      </trkpt>
      <trkpt lat="44.76782" lon="2.64393">
        <ele>749.3</ele>
        <time>2024-08-16T08:00:14Z</time>
      </trkpt>
      <trkpt lat="44.76775" lon="2.64402">
        <ele>748.8</ele>
        <time>2024-08-16T08:00:16Z</time>
      </trkpt>
      <trkpt lat="44.76767" lon="2.64411">
        <ele>748.2</ele>
        <time>2024-08-16T08:00:18Z</time>
      </trkpt>
      <trkpt lat="44.76763" lon="2.64416">
        <ele>747.9</ele>
        <time>2024-08-16T08:00:19Z</time>
      </trkpt>
      <trkpt lat="44.76759" lon="2.64421">
        <ele>747.5</ele>
        <time>2024-08-16T08:00:20Z</time>
      </trkpt>
      <trkpt lat="44.76751" lon="2.64432">
        <ele>746.8</ele>
        <time>2024-08-16T08:00:22Z</time>
      </trkpt>
      <trkpt lat="44.76747" lon="2.64437">
        <ele>746.3</ele>
        <time>2024-08-16T08:00:23Z</time>
      </trkpt>
      <trkpt lat="44.76744" lon="2.64443">
        <ele>745.9</ele>
        <time>2024-08-16T08:00:24Z</time>
      </trkpt>
      <trkpt lat="44.7674" lon="2.64448">
        <ele>745.5</ele>
        <time>2024-08-16T08:00:25Z</time>
      </trkpt>
      <trkpt lat="44.76736" lon="2.64454">
        <ele>745.2</ele>
        <time>2024-08-16T08:00:26Z</time>
      </trkpt>
      <trkpt lat="44.76729" lon="2.64463">
        <ele>744.4</ele>
        <time>2024-08-16T08:00:28Z</time>
      </trkpt>
      <trkpt lat="44.76725" lon="2.64468">
        <ele>744.1</ele>
        <time>2024-08-16T08:00:29Z</time>
      </trkpt>
      <trkpt lat="44.76721" lon="2.64472">
        <ele>743.7</ele>
        <time>2024-08-16T08:00:30Z</time>
      </trkpt>
      <trkpt lat="44.76713" lon="2.64478">
        <ele>743.3</ele>
        <time>2024-08-16T08:00:32Z</time>
      </trkpt>
      <trkpt lat="44.76704" lon="2.64479">
        <ele>742.4</ele>
        <time>2024-08-16T08:00:34Z</time>
      </trkpt>
      <trkpt lat="44.76693" lon="2.64477">
        <ele>741.3</ele>
        <time>2024-08-16T08:00:36Z</time>
      </trkpt>
      <trkpt lat="44.76687" lon="2.64476">
        <ele>740.8</ele>
        <time>2024-08-16T08:00:37Z</time>
      </trkpt>
      <trkpt lat="44.76681" lon="2.64476">
        <ele>740.2</ele>
        <time>2024-08-16T08:00:38Z</time>
      </trkpt>
      <trkpt lat="44.76667" lon="2.64478">
        <ele>738.9</ele>
        <time>2024-08-16T08:00:40Z</time>
      </trkpt>
      <trkpt lat="44.76651" lon="2.64479">
        <ele>737.6</ele>
        <time>2024-08-16T08:00:42Z</time>
      </trkpt>
      <trkpt lat="44.76642" lon="2.64477">
        <ele>736.9</ele>
        <time>2024-08-16T08:00:43Z</time>
      </trkpt>
      <trkpt lat="44.76633" lon="2.64474">
        <ele>736.2</ele>
        <time>2024-08-16T08:00:44Z</time>
      </trkpt>
      <trkpt lat="44.76616" lon="2.6447">
        <ele>734.9</ele>
        <time>2024-08-16T08:00:46Z</time>
      </trkpt>
      <trkpt lat="44.76608" lon="2.64472">
        <ele>734.4</ele>
        <time>2024-08-16T08:00:47Z</time>
      </trkpt>
      <trkpt lat="44.76601" lon="2.64477">
        <ele>733.8</ele>
        <time>2024-08-16T08:00:48Z</time>
      </trkpt>
      <trkpt lat="44.7659" lon="2.64493">
        <ele>732.6</ele>
        <time>2024-08-16T08:00:50Z</time>
      </trkpt>
      <trkpt lat="44.76586" lon="2.64502">
        <ele>732.1</ele>
        <time>2024-08-16T08:00:51Z</time>
      </trkpt>
      <trkpt lat="44.76583" lon="2.64512">
        <ele>731.5</ele>
        <time>2024-08-16T08:00:52Z</time>
      </trkpt>
      <trkpt lat="44.76581" lon="2.64521">
        <ele>731</ele>
        <time>2024-08-16T08:00:53Z</time>
      </trkpt>
      <trkpt lat="44.7658" lon="2.6453">
        <ele>730.4</ele>
        <time>2024-08-16T08:00:54Z</time>
      </trkpt>
      <trkpt lat="44.76577" lon="2.64547">
        <ele>729.4</ele>
        <time>2024-08-16T08:00:56Z</time>
      </trkpt>
      <trkpt lat="44.76573" lon="2.64565">
        <ele>728.3</ele>
        <time>2024-08-16T08:00:58Z</time>
      </trkpt>
      <trkpt lat="44.76564" lon="2.64582">
        <ele>727.3</ele>
        <time>2024-08-16T08:01:00Z</time>
      </trkpt>
      <trkpt lat="44.76552" lon="2.64597">
        <ele>726.4</ele>
        <time>2024-08-16T08:01:02Z</time>
      </trkpt>
      <trkpt lat="44.76541" lon="2.64612">
        <ele>725.8</ele>
        <time>2024-08-16T08:01:04Z</time>
      </trkpt>
      <trkpt lat="44.7653" lon="2.64625">
        <ele>725.5</ele>
        <time>2024-08-16T08:01:06Z</time>
      </trkpt>
      <trkpt lat="44.76519" lon="2.64638">
        <ele>725.4</ele>
        <time>2024-08-16T08:01:08Z</time>
      </trkpt>
      <trkpt lat="44.76515" lon="2.64644">
        <ele>725.5</ele>
        <time>2024-08-16T08:01:09Z</time>
      </trkpt>
      <trkpt lat="44.7651" lon="2.64649">
        <ele>725.5</ele>
        <time>2024-08-16T08:01:10Z</time>
      </trkpt>
      <trkpt lat="44.76503" lon="2.64659">
        <ele>725.8</ele>
        <time>2024-08-16T08:01:12Z</time>
      </trkpt>
      <trkpt lat="44.76501" lon="2.64664">
        <ele>725.9</ele>
        <time>2024-08-16T08:01:13Z</time>
      </trkpt>
      <trkpt lat="44.76499" lon="2.64669">
        <ele>726.1</ele>
        <time>2024-08-16T08:01:14Z</time>
      </trkpt>
      <trkpt lat="44.76496" lon="2.64678">
        <ele>726.5</ele>
        <time>2024-08-16T08:01:16Z</time>
      </trkpt>
      <trkpt lat="44.76494" lon="2.64687">
        <ele>727</ele>
        <time>2024-08-16T08:01:18Z</time>
      </trkpt>
      <trkpt lat="44.76492" lon="2.64695">
        <ele>727.3</ele>
        <time>2024-08-16T08:01:20Z</time>
      </trkpt>
      <trkpt lat="44.7649" lon="2.64702">
        <ele>727.7</ele>
        <time>2024-08-16T08:01:22Z</time>
      </trkpt>
      <trkpt lat="44.76489" lon="2.6471">
        <ele>728.1</ele>
        <time>2024-08-16T08:01:24Z</time>
      </trkpt>
      <trkpt lat="44.76489" lon="2.64717">
        <ele>728.5</ele>
        <time>2024-08-16T08:01:26Z</time>
      </trkpt>
      <trkpt lat="44.76488" lon="2.64725">
        <ele>728.9</ele>
        <time>2024-08-16T08:01:28Z</time>
      </trkpt>
      <trkpt lat="44.76487" lon="2.64729">
        <ele>729.1</ele>
        <time>2024-08-16T08:01:29Z</time>
      </trkpt>
      <trkpt lat="44.76487" lon="2.64733">
        <ele>729.3</ele>
        <time>2024-08-16T08:01:30Z</time>
      </trkpt>
      <trkpt lat="44.76486" lon="2.6474">
        <ele>729.6</ele>
        <time>2024-08-16T08:01:32Z</time>
      </trkpt>
      <trkpt lat="44.76485" lon="2.64747">
        <ele>730</ele>
        <time>2024-08-16T08:01:34Z</time>
      </trkpt>
      <trkpt lat="44.76485" lon="2.64751">
        <ele>730.3</ele>
        <time>2024-08-16T08:01:35Z</time>
      </trkpt>
      <trkpt lat="44.76485" lon="2.64755">
        <ele>730.5</ele>
        <time>2024-08-16T08:01:36Z</time>
      </trkpt>
      <trkpt lat="44.76485" lon="2.64759">
        <ele>730.7</ele>
        <time>2024-08-16T08:01:37Z</time>
      </trkpt>
      <trkpt lat="44.76485" lon="2.64762">
        <ele>730.9</ele>
        <time>2024-08-16T08:01:38Z</time>
      </trkpt>
      <trkpt lat="44.76484" lon="2.64766">
        <ele>731.1</ele>
        <time>2024-08-16T08:01:39Z</time>
      </trkpt>
      <trkpt lat="44.76483" lon="2.6477">
        <ele>731.3</ele>
        <time>2024-08-16T08:01:40Z</time>
      </trkpt>
      <trkpt lat="44.76482" lon="2.64773">
        <ele>731.5</ele>
        <time>2024-08-16T08:01:41Z</time>
      </trkpt>
      <trkpt lat="44.76481" lon="2.64777">
        <ele>731.7</ele>
        <time>2024-08-16T08:01:42Z</time>
      </trkpt>
      <trkpt lat="44.7648" lon="2.64781">
        <ele>732</ele>
        <time>2024-08-16T08:01:43Z</time>
      </trkpt>
      <trkpt lat="44.76479" lon="2.64784">
        <ele>732.2</ele>
        <time>2024-08-16T08:01:44Z</time>
      </trkpt>
      <trkpt lat="44.76478" lon="2.64787">
        <ele>732.4</ele>
        <time>2024-08-16T08:01:45Z</time>
      </trkpt>
      <trkpt lat="44.76476" lon="2.6479">
        <ele>732.6</ele>
        <time>2024-08-16T08:01:46Z</time>
      </trkpt>
      <trkpt lat="44.76473" lon="2.64796">
        <ele>733.1</ele>
        <time>2024-08-16T08:01:48Z</time>
      </trkpt>
      <trkpt lat="44.76471" lon="2.64799">
        <ele>733.3</ele>
        <time>2024-08-16T08:01:49Z</time>
      </trkpt>
      <trkpt lat="44.76469" lon="2.64801">
        <ele>733.5</ele>
        <time>2024-08-16T08:01:50Z</time>
      </trkpt>
      <trkpt lat="44.76465" lon="2.64806">
        <ele>734</ele>
        <time>2024-08-16T08:01:52Z</time>
      </trkpt>
      <trkpt lat="44.76463" lon="2.64808">
        <ele>734.2</ele>
        <time>2024-08-16T08:01:53Z</time>
      </trkpt>
      <trkpt lat="44.76461" lon="2.6481">
        <ele>734.4</ele>
        <time>2024-08-16T08:01:54Z</time>
      </trkpt>
      <trkpt lat="44.76456" lon="2.64814">
        <ele>734.9</ele>
        <time>2024-08-16T08:01:56Z</time>
      </trkpt>
      <trkpt lat="44.76452" lon="2.64817">
        <ele>735.3</ele>
        <time>2024-08-16T08:01:58Z</time>
      </trkpt>
      <trkpt lat="44.76447" lon="2.6482">
        <ele>735.7</ele>
        <time>2024-08-16T08:02:00Z</time>
      </trkpt>
      <trkpt lat="44.76442" lon="2.64822">
        <ele>736.2</ele>
        <time>2024-08-16T08:02:02Z</time>
      </trkpt>
      <trkpt lat="44.7644" lon="2.64823">
        <ele>736.4</ele>
        <time>2024-08-16T08:02:03Z</time>
      </trkpt>
      <trkpt lat="44.76438" lon="2.64825">
        <ele>736.6</ele>
        <time>2024-08-16T08:02:04Z</time>
      </trkpt>
      <trkpt lat="44.76436" lon="2.64827">
        <ele>736.8</ele>
        <time>2024-08-16T08:02:05Z</time>
      </trkpt>
      <trkpt lat="44.76434" lon="2.64827">
        <ele>737</ele>
        <time>2024-08-16T08:02:06Z</time>
      </trkpt>
      <trkpt lat="44.76431" lon="2.64827">
        <ele>737.2</ele>
        <time>2024-08-16T08:02:07Z</time>
      </trkpt>
      <trkpt lat="44.76428" lon="2.64828">
        <ele>737.4</ele>
        <time>2024-08-16T08:02:08Z</time>
      </trkpt>
      <trkpt lat="44.76423" lon="2.64829">
        <ele>737.8</ele>
        <time>2024-08-16T08:02:10Z</time>
      </trkpt>
      <trkpt lat="44.76418" lon="2.64831">
        <ele>738.1</ele>
        <time>2024-08-16T08:02:12Z</time>
      </trkpt>
      <trkpt lat="44.76415" lon="2.64832">
        <ele>738.3</ele>
        <time>2024-08-16T08:02:13Z</time>
      </trkpt>
      <trkpt lat="44.76412" lon="2.64833">
        <ele>738.5</ele>
        <time>2024-08-16T08:02:14Z</time>
      </trkpt>
      <trkpt lat="44.76406" lon="2.64836">
        <ele>738.7</ele>
        <time>2024-08-16T08:02:16Z</time>
      </trkpt>
      <trkpt lat="44.764" lon="2.64838">
        <ele>738.9</ele>
        <time>2024-08-16T08:02:18Z</time>
      </trkpt>
      <trkpt lat="44.76398" lon="2.64839">
        <ele>739</ele>
        <time>2024-08-16T08:02:19Z</time>
      </trkpt>
      <trkpt lat="44.76395" lon="2.64841">
        <ele>739</ele>
        <time>2024-08-16T08:02:20Z</time>
      </trkpt>
      <trkpt lat="44.76388" lon="2.64843">
        <ele>739.2</ele>
        <time>2024-08-16T08:02:22Z</time>
      </trkpt>
      <trkpt lat="44.76381" lon="2.64847">
        <ele>739.3</ele>
        <time>2024-08-16T08:02:24Z</time>
      </trkpt>
      <trkpt lat="44.76375" lon="2.64851">
        <ele>739.4</ele>
        <time>2024-08-16T08:02:26Z</time>
      </trkpt>
      <trkpt lat="44.76368" lon="2.64855">
        <ele>739.4</ele>
        <time>2024-08-16T08:02:28Z</time>
      </trkpt>
      <trkpt lat="44.76361" lon="2.64858">
        <ele>739.5</ele>
        <time>2024-08-16T08:02:30Z</time>
      </trkpt>
      <trkpt lat="44.76354" lon="2.64862">
        <ele>739.6</ele>
        <time>2024-08-16T08:02:32Z</time>
      </trkpt>
      <trkpt lat="44.76351" lon="2.64865">
        <ele>739.6</ele>
        <time>2024-08-16T08:02:33Z</time>
      </trkpt>
      <trkpt lat="44.76347" lon="2.64867">
        <ele>739.7</ele>
        <time>2024-08-16T08:02:34Z</time>
      </trkpt>
      <trkpt lat="44.76341" lon="2.64873">
        <ele>739.7</ele>
        <time>2024-08-16T08:02:36Z</time>
      </trkpt>
      <trkpt lat="44.76338" lon="2.64876">
        <ele>739.8</ele>
        <time>2024-08-16T08:02:37Z</time>
      </trkpt>
      <trkpt lat="44.76336" lon="2.6488">
        <ele>739.8</ele>
        <time>2024-08-16T08:02:38Z</time>
      </trkpt>
      <trkpt lat="44.76333" lon="2.64884">
        <ele>739.9</ele>
        <time>2024-08-16T08:02:39Z</time>
      </trkpt>
      <trkpt lat="44.76331" lon="2.64888">
        <ele>739.9</ele>
        <time>2024-08-16T08:02:40Z</time>
      </trkpt>
      <trkpt lat="44.76328" lon="2.64899">
        <ele>740</ele>
        <time>2024-08-16T08:02:42Z</time>
      </trkpt>
      <trkpt lat="44.76326" lon="2.64909">
        <ele>740.1</ele>
        <time>2024-08-16T08:02:44Z</time>
      </trkpt>
      <trkpt lat="44.76326" lon="2.64919">
        <ele>740.2</ele>
        <time>2024-08-16T08:02:46Z</time>
      </trkpt>
      <trkpt lat="44.76327" lon="2.6493">
        <ele>740.2</ele>
        <time>2024-08-16T08:02:48Z</time>
      </trkpt>
      <trkpt lat="44.76327" lon="2.6494">
        <ele>740.3</ele>
        <time>2024-08-16T08:02:50Z</time>
      </trkpt>
      <trkpt lat="44.76328" lon="2.64951">
        <ele>740.3</ele>
        <time>2024-08-16T08:02:52Z</time>
      </trkpt>
      <trkpt lat="44.76328" lon="2.64961">
        <ele>740.4</ele>
        <time>2024-08-16T08:02:54Z</time>
      </trkpt>
      <trkpt lat="44.76328" lon="2.64967">
        <ele>740.4</ele>
        <time>2024-08-16T08:02:55Z</time>
      </trkpt>
      <trkpt lat="44.76329" lon="2.64972">
        <ele>740.4</ele>
        <time>2024-08-16T08:02:56Z</time>
      </trkpt>
      <trkpt lat="44.76329" lon="2.64983">
        <ele>740.4</ele>
        <time>2024-08-16T08:02:58Z</time>
      </trkpt>
      <trkpt lat="44.7633" lon="2.64993">
        <ele>740.5</ele>
        <time>2024-08-16T08:03:00Z</time>
      </trkpt>
      <trkpt lat="44.76329" lon="2.64996">
        <ele>740.5</ele>
        <time>2024-08-16T08:03:01Z</time>
      </trkpt>
      <trkpt lat="44.76329" lon="2.64997">
        <ele>740.5</ele>
        <time>2024-08-16T08:03:02Z</time>
      </trkpt>
      <trkpt lat="44.76327" lon="2.65001">
        <ele>740.5</ele>
        <time>2024-08-16T08:03:04Z</time>
      </trkpt>
      <trkpt lat="44.76324" lon="2.65006">
        <ele>740.6</ele>
        <time>2024-08-16T08:03:06Z</time>
      </trkpt>
      <trkpt lat="44.76319" lon="2.6501">
        <ele>740.6</ele>
        <time>2024-08-16T08:03:08Z</time>
      </trkpt>
      <trkpt lat="44.76313" lon="2.65013">
        <ele>740.7</ele>
        <time>2024-08-16T08:03:10Z</time>
      </trkpt>
      <trkpt lat="44.7631" lon="2.65015">
        <ele>740.7</ele>
        <time>2024-08-16T08:03:11Z</time>
      </trkpt>
      <trkpt lat="44.76307" lon="2.65017">
        <ele>740.7</ele>
        <time>2024-08-16T08:03:12Z</time>
      </trkpt>
      <trkpt lat="44.763" lon="2.65021">
        <ele>740.8</ele>
        <time>2024-08-16T08:03:14Z</time>
      </trkpt>
      <trkpt lat="44.76294" lon="2.65024">
        <ele>740.8</ele>
        <time>2024-08-16T08:03:16Z</time>
      </trkpt>
      <trkpt lat="44.76287" lon="2.65027">
        <ele>740.9</ele>
        <time>2024-08-16T08:03:18Z</time>
      </trkpt>
      <trkpt lat="44.76283" lon="2.65028">
        <ele>740.9</ele>
        <time>2024-08-16T08:03:19Z</time>
      </trkpt>
      <trkpt lat="44.7628" lon="2.6503">
        <ele>741</ele>
        <time>2024-08-16T08:03:20Z</time>
      </trkpt>
      <trkpt lat="44.76273" lon="2.65034">
        <ele>741</ele>
        <time>2024-08-16T08:03:22Z</time>
      </trkpt>
      <trkpt lat="44.76265" lon="2.65037">
        <ele>741</ele>
        <time>2024-08-16T08:03:24Z</time>
      </trkpt>
      <trkpt lat="44.76261" lon="2.65039">
        <ele>741</ele>
        <time>2024-08-16T08:03:25Z</time>
      </trkpt>
      <trkpt lat="44.76258" lon="2.65041">
        <ele>741</ele>
        <time>2024-08-16T08:03:26Z</time>
      </trkpt>
      <trkpt lat="44.7625" lon="2.65046">
        <ele>741.1</ele>
        <time>2024-08-16T08:03:28Z</time>
      </trkpt>
      <trkpt lat="44.76243" lon="2.65051">
        <ele>741.2</ele>
        <time>2024-08-16T08:03:30Z</time>
      </trkpt>
      <trkpt lat="44.76236" lon="2.65058">
        <ele>741.3</ele>
        <time>2024-08-16T08:03:32Z</time>
      </trkpt>
      <trkpt lat="44.7623" lon="2.65065">
        <ele>741.6</ele>
        <time>2024-08-16T08:03:34Z</time>
      </trkpt>
      <trkpt lat="44.76224" lon="2.65072">
        <ele>741.8</ele>
        <time>2024-08-16T08:03:36Z</time>
      </trkpt>
      <trkpt lat="44.76219" lon="2.6508">
        <ele>742.1</ele>
        <time>2024-08-16T08:03:38Z</time>
      </trkpt>
      <trkpt lat="44.76215" lon="2.65088">
        <ele>742.4</ele>
        <time>2024-08-16T08:03:40Z</time>
      </trkpt>
      <trkpt lat="44.7621" lon="2.65094">
        <ele>742.7</ele>
        <time>2024-08-16T08:03:42Z</time>
      </trkpt>
      <trkpt lat="44.76204" lon="2.65097">
        <ele>743</ele>
        <time>2024-08-16T08:03:44Z</time>
      </trkpt>
      <trkpt lat="44.76197" lon="2.65099">
        <ele>743.3</ele>
        <time>2024-08-16T08:03:46Z</time>
      </trkpt>
      <trkpt lat="44.76191" lon="2.65102">
        <ele>743.6</ele>
        <time>2024-08-16T08:03:48Z</time>
      </trkpt>
      <trkpt lat="44.76185" lon="2.65105">
        <ele>743.9</ele>
        <time>2024-08-16T08:03:50Z</time>
      </trkpt>
      <trkpt lat="44.76178" lon="2.65107">
        <ele>744.2</ele>
        <time>2024-08-16T08:03:52Z</time>
      </trkpt>
      <trkpt lat="44.76172" lon="2.65111">
        <ele>744.5</ele>
        <time>2024-08-16T08:03:54Z</time>
      </trkpt>
      <trkpt lat="44.76169" lon="2.65113">
        <ele>744.6</ele>
        <time>2024-08-16T08:03:55Z</time>
      </trkpt>
      <trkpt lat="44.76166" lon="2.65115">
        <ele>744.7</ele>
        <time>2024-08-16T08:03:56Z</time>
      </trkpt>
      <trkpt lat="44.76161" lon="2.6512">
        <ele>744.9</ele>
        <time>2024-08-16T08:03:58Z</time>
      </trkpt>
      <trkpt lat="44.76155" lon="2.65124">
        <ele>745.2</ele>
        <time>2024-08-16T08:04:00Z</time>
      </trkpt>
      <trkpt lat="44.7615" lon="2.65129">
        <ele>745.4</ele>
        <time>2024-08-16T08:04:02Z</time>
      </trkpt>
      <trkpt lat="44.76147" lon="2.65132">
        <ele>745.5</ele>
        <time>2024-08-16T08:04:03Z</time>
      </trkpt>
      <trkpt lat="44.76145" lon="2.65135">
        <ele>745.5</ele>
        <time>2024-08-16T08:04:04Z</time>
      </trkpt>
      <trkpt lat="44.7614" lon="2.6514">
        <ele>745.7</ele>
        <time>2024-08-16T08:04:06Z</time>
      </trkpt>
      <trkpt lat="44.76135" lon="2.65145">
        <ele>745.9</ele>
        <time>2024-08-16T08:04:08Z</time>
      </trkpt>
      <trkpt lat="44.76129" lon="2.6515">
        <ele>746.2</ele>
        <time>2024-08-16T08:04:10Z</time>
      </trkpt>
      <trkpt lat="44.76127" lon="2.65153">
        <ele>746.3</ele>
        <time>2024-08-16T08:04:11Z</time>
      </trkpt>
      <trkpt lat="44.76124" lon="2.65156">
        <ele>746.5</ele>
        <time>2024-08-16T08:04:12Z</time>
      </trkpt>
      <trkpt lat="44.76119" lon="2.65162">
        <ele>746.7</ele>
        <time>2024-08-16T08:04:14Z</time>
      </trkpt>
      <trkpt lat="44.76113" lon="2.65167">
        <ele>747</ele>
        <time>2024-08-16T08:04:16Z</time>
      </trkpt>
      <trkpt lat="44.76109" lon="2.65173">
        <ele>747.4</ele>
        <time>2024-08-16T08:04:18Z</time>
      </trkpt>
      <trkpt lat="44.76106" lon="2.65175">
        <ele>747.6</ele>
        <time>2024-08-16T08:04:19Z</time>
      </trkpt>
      <trkpt lat="44.76103" lon="2.65178">
        <ele>747.7</ele>
        <time>2024-08-16T08:04:20Z</time>
      </trkpt>
      <trkpt lat="44.76098" lon="2.65183">
        <ele>748</ele>
        <time>2024-08-16T08:04:22Z</time>
      </trkpt>
      <trkpt lat="44.76093" lon="2.65188">
        <ele>748.2</ele>
        <time>2024-08-16T08:04:24Z</time>
      </trkpt>
      <trkpt lat="44.76088" lon="2.65193">
        <ele>748.4</ele>
        <time>2024-08-16T08:04:26Z</time>
      </trkpt>
      <trkpt lat="44.76084" lon="2.65198">
        <ele>748.6</ele>
        <time>2024-08-16T08:04:28Z</time>
      </trkpt>
      <trkpt lat="44.76079" lon="2.65202">
        <ele>748.7</ele>
        <time>2024-08-16T08:04:30Z</time>
      </trkpt>
      <trkpt lat="44.76074" lon="2.65206">
        <ele>748.8</ele>
        <time>2024-08-16T08:04:32Z</time>
      </trkpt>
      <trkpt lat="44.76072" lon="2.65208">
        <ele>748.8</ele>
        <time>2024-08-16T08:04:33Z</time>
      </trkpt>
      <trkpt lat="44.76069" lon="2.6521">
        <ele>748.9</ele>
        <time>2024-08-16T08:04:34Z</time>
      </trkpt>
      <trkpt lat="44.76063" lon="2.65212">
        <ele>748.9</ele>
        <time>2024-08-16T08:04:36Z</time>
      </trkpt>
      <trkpt lat="44.7606" lon="2.65214">
        <ele>748.9</ele>
        <time>2024-08-16T08:04:37Z</time>
      </trkpt>
      <trkpt lat="44.76057" lon="2.65215">
        <ele>748.9</ele>
        <time>2024-08-16T08:04:38Z</time>
      </trkpt>
      <trkpt lat="44.76051" lon="2.65218">
        <ele>748.9</ele>
        <time>2024-08-16T08:04:40Z</time>
      </trkpt>
      <trkpt lat="44.76044" lon="2.65219">
        <ele>748.9</ele>
        <time>2024-08-16T08:04:42Z</time>
      </trkpt>
      <trkpt lat="44.76038" lon="2.65223">
        <ele>748.9</ele>
        <time>2024-08-16T08:04:44Z</time>
      </trkpt>
      <trkpt lat="44.76031" lon="2.65227">
        <ele>748.9</ele>
        <time>2024-08-16T08:04:46Z</time>
      </trkpt>
      <trkpt lat="44.76025" lon="2.6523">
        <ele>748.9</ele>
        <time>2024-08-16T08:04:48Z</time>
      </trkpt>
      <trkpt lat="44.7602" lon="2.65236">
        <ele>748.9</ele>
        <time>2024-08-16T08:04:50Z</time>
      </trkpt>
      <trkpt lat="44.76016" lon="2.65243">
        <ele>748.9</ele>
        <time>2024-08-16T08:04:52Z</time>
      </trkpt>
      <trkpt lat="44.76013" lon="2.65245">
        <ele>748.9</ele>
        <time>2024-08-16T08:04:53Z</time>
      </trkpt>
      <trkpt lat="44.7601" lon="2.65247">
        <ele>748.9</ele>
        <time>2024-08-16T08:04:54Z</time>
      </trkpt>
      <trkpt lat="44.76003" lon="2.65247">
        <ele>748.9</ele>
        <time>2024-08-16T08:04:56Z</time>
      </trkpt>
      <trkpt lat="44.76" lon="2.65246">
        <ele>748.9</ele>
        <time>2024-08-16T08:04:57Z</time>
      </trkpt>
      <trkpt lat="44.75997" lon="2.65245">
        <ele>748.9</ele>
        <time>2024-08-16T08:04:58Z</time>
      </trkpt>
      <trkpt lat="44.75991" lon="2.65241">
        <ele>748.9</ele>
        <time>2024-08-16T08:05:00Z</time>
      </trkpt>
      <trkpt lat="44.75984" lon="2.65239">
        <ele>748.9</ele>
        <time>2024-08-16T08:05:02Z</time>
      </trkpt>
      <trkpt lat="44.75977" lon="2.65237">
        <ele>749</ele>
        <time>2024-08-16T08:05:04Z</time>
      </trkpt>
      <trkpt lat="44.7597" lon="2.65232">
        <ele>749</ele>
        <time>2024-08-16T08:05:06Z</time>
      </trkpt>
      <trkpt lat="44.75963" lon="2.65228">
        <ele>749</ele>
        <time>2024-08-16T08:05:08Z</time>
      </trkpt>
      <trkpt lat="44.75956" lon="2.65224">
        <ele>749</ele>
        <time>2024-08-16T08:05:10Z</time>
      </trkpt>
      <trkpt lat="44.75948" lon="2.65221">
        <ele>749.1</ele>
        <time>2024-08-16T08:05:12Z</time>
      </trkpt>
      <trkpt lat="44.75941" lon="2.65219">
        <ele>749.2</ele>
        <time>2024-08-16T08:05:14Z</time>
      </trkpt>
      <trkpt lat="44.75934" lon="2.65216">
        <ele>749.3</ele>
        <time>2024-08-16T08:05:16Z</time>
      </trkpt>
      <trkpt lat="44.7593" lon="2.65216">
        <ele>749.4</ele>
        <time>2024-08-16T08:05:17Z</time>
      </trkpt>
      <trkpt lat="44.75927" lon="2.65215">
        <ele>749.5</ele>
        <time>2024-08-16T08:05:18Z</time>
      </trkpt>
      <trkpt lat="44.7592" lon="2.65214">
        <ele>749.8</ele>
        <time>2024-08-16T08:05:20Z</time>
      </trkpt>
      <trkpt lat="44.75914" lon="2.65212">
        <ele>750</ele>
        <time>2024-08-16T08:05:22Z</time>
      </trkpt>
      <trkpt lat="44.75908" lon="2.6521">
        <ele>750.3</ele>
        <time>2024-08-16T08:05:24Z</time>
      </trkpt>
      <trkpt lat="44.75902" lon="2.65207">
        <ele>750.6</ele>
        <time>2024-08-16T08:05:26Z</time>
      </trkpt>
      <trkpt lat="44.75897" lon="2.65204">
        <ele>751</ele>
        <time>2024-08-16T08:05:28Z</time>
      </trkpt>
      <trkpt lat="44.75892" lon="2.65201">
        <ele>751.3</ele>
        <time>2024-08-16T08:05:30Z</time>
      </trkpt>
      <trkpt lat="44.75889" lon="2.65198">
        <ele>751.6</ele>
        <time>2024-08-16T08:05:32Z</time>
      </trkpt>
      <trkpt lat="44.75885" lon="2.65195">
        <ele>751.9</ele>
        <time>2024-08-16T08:05:34Z</time>
      </trkpt>
      <trkpt lat="44.75881" lon="2.6519">
        <ele>752.2</ele>
        <time>2024-08-16T08:05:36Z</time>
      </trkpt>
      <trkpt lat="44.75879" lon="2.65185">
        <ele>752.6</ele>
        <time>2024-08-16T08:05:38Z</time>
      </trkpt>
      <trkpt lat="44.75876" lon="2.65181">
        <ele>752.9</ele>
        <time>2024-08-16T08:05:40Z</time>
      </trkpt>
      <trkpt lat="44.75874" lon="2.65177">
        <ele>753.2</ele>
        <time>2024-08-16T08:05:42Z</time>
      </trkpt>
      <trkpt lat="44.75871" lon="2.65173">
        <ele>753.5</ele>
        <time>2024-08-16T08:05:44Z</time>
      </trkpt>
      <trkpt lat="44.75868" lon="2.65168">
        <ele>753.9</ele>
        <time>2024-08-16T08:05:46Z</time>
      </trkpt>
      <trkpt lat="44.75865" lon="2.65165">
        <ele>754.2</ele>
        <time>2024-08-16T08:05:48Z</time>
      </trkpt>
      <trkpt lat="44.75861" lon="2.65162">
        <ele>754.6</ele>
        <time>2024-08-16T08:05:50Z</time>
      </trkpt>
      <trkpt lat="44.75858" lon="2.6516">
        <ele>754.9</ele>
        <time>2024-08-16T08:05:52Z</time>
      </trkpt>
      <trkpt lat="44.75853" lon="2.65158">
        <ele>755.3</ele>
        <time>2024-08-16T08:05:54Z</time>
      </trkpt>
      <trkpt lat="44.75849" lon="2.65156">
        <ele>755.6</ele>
        <time>2024-08-16T08:05:56Z</time>
      </trkpt>
      <trkpt lat="44.75844" lon="2.65154">
        <ele>755.9</ele>
        <time>2024-08-16T08:05:58Z</time>
      </trkpt>
      <trkpt lat="44.7584" lon="2.65153">
        <ele>756.2</ele>
        <time>2024-08-16T08:06:00Z</time>
      </trkpt>
      <trkpt lat="44.75836" lon="2.65153">
        <ele>756.6</ele>
        <time>2024-08-16T08:06:02Z</time>
      </trkpt>
      <trkpt lat="44.75832" lon="2.65153">
        <ele>757</ele>
        <time>2024-08-16T08:06:04Z</time>
      </trkpt>
      <trkpt lat="44.75828" lon="2.65154">
        <ele>757.4</ele>
        <time>2024-08-16T08:06:06Z</time>
      </trkpt>
      <trkpt lat="44.75826" lon="2.65154">
        <ele>757.6</ele>
        <time>2024-08-16T08:06:07Z</time>
      </trkpt>
      <trkpt lat="44.75824" lon="2.65154">
        <ele>757.8</ele>
        <time>2024-08-16T08:06:08Z</time>
      </trkpt>
      <trkpt lat="44.75822" lon="2.65153">
        <ele>758.1</ele>
        <time>2024-08-16T08:06:10Z</time>
      </trkpt>
      <trkpt lat="44.75819" lon="2.65154">
        <ele>758.3</ele>
        <time>2024-08-16T08:06:12Z</time>
      </trkpt>
      <trkpt lat="44.75818" lon="2.65154">
        <ele>758.4</ele>
        <time>2024-08-16T08:06:13Z</time>
      </trkpt>
      <trkpt lat="44.75817" lon="2.65154">
        <ele>758.4</ele>
        <time>2024-08-16T08:06:14Z</time>
      </trkpt>
      <trkpt lat="44.75815" lon="2.65155">
        <ele>758.5</ele>
        <time>2024-08-16T08:06:16Z</time>
      </trkpt>
      <trkpt lat="44.75813" lon="2.6516">
        <ele>758.6</ele>
        <time>2024-08-16T08:06:18Z</time>
      </trkpt>
      <trkpt lat="44.7581" lon="2.65164">
        <ele>758.8</ele>
        <time>2024-08-16T08:06:20Z</time>
      </trkpt>
      <trkpt lat="44.75807" lon="2.65167">
        <ele>758.9</ele>
        <time>2024-08-16T08:06:22Z</time>
      </trkpt>
      <trkpt lat="44.75804" lon="2.65171">
        <ele>758.9</ele>
        <time>2024-08-16T08:06:24Z</time>
      </trkpt>
      <trkpt lat="44.75802" lon="2.65173">
        <ele>759</ele>
        <time>2024-08-16T08:06:25Z</time>
      </trkpt>
      <trkpt lat="44.758" lon="2.65175">
        <ele>759</ele>
        <time>2024-08-16T08:06:26Z</time>
      </trkpt>
      <trkpt lat="44.75797" lon="2.6518">
        <ele>759</ele>
        <time>2024-08-16T08:06:28Z</time>
      </trkpt>
      <trkpt lat="44.75793" lon="2.65185">
        <ele>759.1</ele>
        <time>2024-08-16T08:06:30Z</time>
      </trkpt>
      <trkpt lat="44.75789" lon="2.6519">
        <ele>759.2</ele>
        <time>2024-08-16T08:06:32Z</time>
      </trkpt>
      <trkpt lat="44.75786" lon="2.65192">
        <ele>759.2</ele>
        <time>2024-08-16T08:06:33Z</time>
      </trkpt>
      <trkpt lat="44.75784" lon="2.65195">
        <ele>759.2</ele>
        <time>2024-08-16T08:06:34Z</time>
      </trkpt>
      <trkpt lat="44.7578" lon="2.652">
        <ele>759.2</ele>
        <time>2024-08-16T08:06:36Z</time>
      </trkpt>
      <trkpt lat="44.75775" lon="2.65205">
        <ele>759.3</ele>
        <time>2024-08-16T08:06:38Z</time>
      </trkpt>
      <trkpt lat="44.7577" lon="2.65211">
        <ele>759.3</ele>
        <time>2024-08-16T08:06:40Z</time>
      </trkpt>
      <trkpt lat="44.75768" lon="2.65214">
        <ele>759.3</ele>
        <time>2024-08-16T08:06:41Z</time>
      </trkpt>
      <trkpt lat="44.75765" lon="2.65216">
        <ele>759.2</ele>
        <time>2024-08-16T08:06:42Z</time>
      </trkpt>
      <trkpt lat="44.7576" lon="2.65222">
        <ele>759.1</ele>
        <time>2024-08-16T08:06:44Z</time>
      </trkpt>
      <trkpt lat="44.75754" lon="2.65228">
        <ele>759</ele>
        <time>2024-08-16T08:06:46Z</time>
      </trkpt>
      <trkpt lat="44.75749" lon="2.65234">
        <ele>759</ele>
        <time>2024-08-16T08:06:48Z</time>
      </trkpt>
      <trkpt lat="44.75746" lon="2.65237">
        <ele>758.9</ele>
        <time>2024-08-16T08:06:49Z</time>
      </trkpt>
      <trkpt lat="44.75743" lon="2.65241">
        <ele>758.9</ele>
        <time>2024-08-16T08:06:50Z</time>
      </trkpt>
      <trkpt lat="44.75737" lon="2.65247">
        <ele>758.8</ele>
        <time>2024-08-16T08:06:52Z</time>
      </trkpt>
      <trkpt lat="44.75731" lon="2.65254">
        <ele>758.6</ele>
        <time>2024-08-16T08:06:54Z</time>
      </trkpt>
      <trkpt lat="44.75728" lon="2.65258">
        <ele>758.5</ele>
        <time>2024-08-16T08:06:55Z</time>
      </trkpt>
      <trkpt lat="44.75724" lon="2.65261">
        <ele>758.4</ele>
        <time>2024-08-16T08:06:56Z</time>
      </trkpt>
      <trkpt lat="44.75718" lon="2.65269">
        <ele>758.2</ele>
        <time>2024-08-16T08:06:58Z</time>
      </trkpt>
      <trkpt lat="44.75711" lon="2.65277">
        <ele>757.9</ele>
        <time>2024-08-16T08:07:00Z</time>
      </trkpt>
      <trkpt lat="44.75705" lon="2.65285">
        <ele>757.6</ele>
        <time>2024-08-16T08:07:02Z</time>
      </trkpt>
      <trkpt lat="44.75699" lon="2.65293">
        <ele>757.4</ele>
        <time>2024-08-16T08:07:04Z</time>
      </trkpt>
      <trkpt lat="44.75692" lon="2.653">
        <ele>757.1</ele>
        <time>2024-08-16T08:07:06Z</time>
      </trkpt>
      <trkpt lat="44.75686" lon="2.65308">
        <ele>756.9</ele>
        <time>2024-08-16T08:07:08Z</time>
      </trkpt>
      <trkpt lat="44.75681" lon="2.65315">
        <ele>755.2</ele>
        <time>2024-08-16T08:07:10Z</time>
      </trkpt>
      <trkpt lat="44.75679" lon="2.65323">
        <ele>753.8</ele>
        <time>2024-08-16T08:07:12Z</time>
      </trkpt>
      <trkpt lat="44.75679" lon="2.65326">
        <ele>753.2</ele>
        <time>2024-08-16T08:07:13Z</time>
      </trkpt>
      <trkpt lat="44.75679" lon="2.65329">
        <ele>752.7</ele>
        <time>2024-08-16T08:07:14Z</time>
      </trkpt>
      <trkpt lat="44.75679" lon="2.6533">
        <ele>752.6</ele>
        <time>2024-08-16T08:07:15Z</time>
      </trkpt>
      <trkpt lat="44.75679" lon="2.6533">
        <ele>752.6</ele>
        <time>2024-08-16T08:07:16Z</time>
      </trkpt>
      <trkpt lat="44.75679" lon="2.65327">
        <ele>752.4</ele>
        <time>2024-08-16T08:10:58Z</time>
      </trkpt>
      <trkpt lat="44.75678" lon="2.65324">
        <ele>752.8</ele>
        <time>2024-08-16T08:10:59Z</time>
      </trkpt>
      <trkpt lat="44.75678" lon="2.6532">
        <ele>753.3</ele>
        <time>2024-08-16T08:11:00Z</time>
      </trkpt>
      <trkpt lat="44.7568" lon="2.65313">
        <ele>754.5</ele>
        <time>2024-08-16T08:11:02Z</time>
      </trkpt>
      <trkpt lat="44.75682" lon="2.6531">
        <ele>755.3</ele>
        <time>2024-08-16T08:11:03Z</time>
      </trkpt>
      <trkpt lat="44.75684" lon="2.65308">
        <ele>756.1</ele>
        <time>2024-08-16T08:11:04Z</time>
      </trkpt>
      <trkpt lat="44.75689" lon="2.65304">
        <ele>756.9</ele>
        <time>2024-08-16T08:11:06Z</time>
      </trkpt>
      <trkpt lat="44.75693" lon="2.65299">
        <ele>757.1</ele>
        <time>2024-08-16T08:11:08Z</time>
      </trkpt>
      <trkpt lat="44.75698" lon="2.65294">
        <ele>757.3</ele>
        <time>2024-08-16T08:11:10Z</time>
      </trkpt>
      <trkpt lat="44.757" lon="2.65291">
        <ele>757.4</ele>
        <time>2024-08-16T08:11:11Z</time>
      </trkpt>
      <trkpt lat="44.75702" lon="2.65288">
        <ele>757.5</ele>
        <time>2024-08-16T08:11:12Z</time>
      </trkpt>
      <trkpt lat="44.75704" lon="2.65285">
        <ele>757.6</ele>
        <time>2024-08-16T08:11:13Z</time>
      </trkpt>
      <trkpt lat="44.75707" lon="2.65282">
        <ele>757.7</ele>
        <time>2024-08-16T08:11:14Z</time>
      </trkpt>
      <trkpt lat="44.75709" lon="2.65279">
        <ele>757.8</ele>
        <time>2024-08-16T08:11:15Z</time>
      </trkpt>
      <trkpt lat="44.75712" lon="2.65276">
        <ele>758</ele>
        <time>2024-08-16T08:11:16Z</time>
      </trkpt>
      <trkpt lat="44.75717" lon="2.6527">
        <ele>758.2</ele>
        <time>2024-08-16T08:11:18Z</time>
      </trkpt>
      <trkpt lat="44.75723" lon="2.65264">
        <ele>758.4</ele>
        <time>2024-08-16T08:11:20Z</time>
      </trkpt>
      <trkpt lat="44.75728" lon="2.65257">
        <ele>758.6</ele>
        <time>2024-08-16T08:11:22Z</time>
      </trkpt>
      <trkpt lat="44.75734" lon="2.6525">
        <ele>758.7</ele>
        <time>2024-08-16T08:11:24Z</time>
      </trkpt>
      <trkpt lat="44.7574" lon="2.65243">
        <ele>758.9</ele>
        <time>2024-08-16T08:11:26Z</time>
      </trkpt>
      <trkpt lat="44.75743" lon="2.6524">
        <ele>758.9</ele>
        <time>2024-08-16T08:11:27Z</time>
      </trkpt>
      <trkpt lat="44.75747" lon="2.65237">
        <ele>759</ele>
        <time>2024-08-16T08:11:28Z</time>
      </trkpt>
      <trkpt lat="44.7575" lon="2.65233">
        <ele>759</ele>
        <time>2024-08-16T08:11:29Z</time>
      </trkpt>
      <trkpt lat="44.75753" lon="2.6523">
        <ele>759.1</ele>
        <time>2024-08-16T08:11:30Z</time>
      </trkpt>
      <trkpt lat="44.7576" lon="2.65222">
        <ele>759.2</ele>
        <time>2024-08-16T08:11:32Z</time>
      </trkpt>
      <trkpt lat="44.75767" lon="2.65214">
        <ele>759.3</ele>
        <time>2024-08-16T08:11:34Z</time>
      </trkpt>
      <trkpt lat="44.75774" lon="2.65206">
        <ele>759.3</ele>
        <time>2024-08-16T08:11:36Z</time>
      </trkpt>
      <trkpt lat="44.75781" lon="2.65198">
        <ele>759.2</ele>
        <time>2024-08-16T08:11:38Z</time>
      </trkpt>
      <trkpt lat="44.75788" lon="2.65189">
        <ele>759.1</ele>
        <time>2024-08-16T08:11:40Z</time>
      </trkpt>
      <trkpt lat="44.75796" lon="2.6518">
        <ele>759</ele>
        <time>2024-08-16T08:11:42Z</time>
      </trkpt>
      <trkpt lat="44.75799" lon="2.65176">
        <ele>758.9</ele>
        <time>2024-08-16T08:11:43Z</time>
      </trkpt>
      <trkpt lat="44.75803" lon="2.65171">
        <ele>758.8</ele>
        <time>2024-08-16T08:11:44Z</time>
      </trkpt>
      <trkpt lat="44.7581" lon="2.65163">
        <ele>758.5</ele>
        <time>2024-08-16T08:11:46Z</time>
      </trkpt>
      <trkpt lat="44.75811" lon="2.65158">
        <ele>758.4</ele>
        <time>2024-08-16T08:11:47Z</time>
      </trkpt>
      <trkpt lat="44.75811" lon="2.65154">
        <ele>758.7</ele>
        <time>2024-08-16T08:11:48Z</time>
      </trkpt>
      <trkpt lat="44.7581" lon="2.65149">
        <ele>758.8</ele>
        <time>2024-08-16T08:11:49Z</time>
      </trkpt>
      <trkpt lat="44.75807" lon="2.65147">
        <ele>758.9</ele>
        <time>2024-08-16T08:11:50Z</time>
      </trkpt>
      <trkpt lat="44.75804" lon="2.65145">
        <ele>759</ele>
        <time>2024-08-16T08:11:51Z</time>
      </trkpt>
      <trkpt lat="44.758" lon="2.65144">
        <ele>759.1</ele>
        <time>2024-08-16T08:11:52Z</time>
      </trkpt>
      <trkpt lat="44.75792" lon="2.65141">
        <ele>759.4</ele>
        <time>2024-08-16T08:11:54Z</time>
      </trkpt>
      <trkpt lat="44.75785" lon="2.65138">
        <ele>759.5</ele>
        <time>2024-08-16T08:11:56Z</time>
      </trkpt>
      <trkpt lat="44.75777" lon="2.65135">
        <ele>759.7</ele>
        <time>2024-08-16T08:11:58Z</time>
      </trkpt>
      <trkpt lat="44.75769" lon="2.65134">
        <ele>759.9</ele>
        <time>2024-08-16T08:12:00Z</time>
      </trkpt>
      <trkpt lat="44.75761" lon="2.65134">
        <ele>760.1</ele>
        <time>2024-08-16T08:12:02Z</time>
      </trkpt>
      <trkpt lat="44.75754" lon="2.65133">
        <ele>760.3</ele>
        <time>2024-08-16T08:12:04Z</time>
      </trkpt>
      <trkpt lat="44.7575" lon="2.65132">
        <ele>760.3</ele>
        <time>2024-08-16T08:12:05Z</time>
      </trkpt>
      <trkpt lat="44.75747" lon="2.6513">
        <ele>760.4</ele>
        <time>2024-08-16T08:12:06Z</time>
      </trkpt>
      <trkpt lat="44.75741" lon="2.65125">
        <ele>760.3</ele>
        <time>2024-08-16T08:12:08Z</time>
      </trkpt>
      <trkpt lat="44.75735" lon="2.65119">
        <ele>760.3</ele>
        <time>2024-08-16T08:12:10Z</time>
      </trkpt>
      <trkpt lat="44.75729" lon="2.65112">
        <ele>760.2</ele>
        <time>2024-08-16T08:12:12Z</time>
      </trkpt>
      <trkpt lat="44.75724" lon="2.65104">
        <ele>760.2</ele>
        <time>2024-08-16T08:12:14Z</time>
      </trkpt>
      <trkpt lat="44.75719" lon="2.65096">
        <ele>760.1</ele>
        <time>2024-08-16T08:12:16Z</time>
      </trkpt>
      <trkpt lat="44.75716" lon="2.65092">
        <ele>760.1</ele>
        <time>2024-08-16T08:12:17Z</time>
      </trkpt>
      <trkpt lat="44.75714" lon="2.65088">
        <ele>760.1</ele>
        <time>2024-08-16T08:12:18Z</time>
      </trkpt>
      <trkpt lat="44.75708" lon="2.6508">
        <ele>760</ele>
        <time>2024-08-16T08:12:20Z</time>
      </trkpt>
      <trkpt lat="44.75703" lon="2.65072">
        <ele>760</ele>
        <time>2024-08-16T08:12:22Z</time>
      </trkpt>
      <trkpt lat="44.75698" lon="2.65064">
        <ele>760.1</ele>
        <time>2024-08-16T08:12:24Z</time>
      </trkpt>
      <trkpt lat="44.75695" lon="2.6506">
        <ele>760.1</ele>
        <time>2024-08-16T08:12:25Z</time>
      </trkpt>
      <trkpt lat="44.75692" lon="2.65057">
        <ele>760.1</ele>
        <time>2024-08-16T08:12:26Z</time>
      </trkpt>
      <trkpt lat="44.75687" lon="2.65049">
        <ele>760.2</ele>
        <time>2024-08-16T08:12:28Z</time>
      </trkpt>
      <trkpt lat="44.75681" lon="2.65041">
        <ele>760.2</ele>
        <time>2024-08-16T08:12:30Z</time>
      </trkpt>
      <trkpt lat="44.75676" lon="2.65033">
        <ele>760.1</ele>
        <time>2024-08-16T08:12:32Z</time>
      </trkpt>
      <trkpt lat="44.75672" lon="2.65023">
        <ele>760.1</ele>
        <time>2024-08-16T08:12:34Z</time>
      </trkpt>
      <trkpt lat="44.75671" lon="2.65018">
        <ele>760.1</ele>
        <time>2024-08-16T08:12:35Z</time>
      </trkpt>
      <trkpt lat="44.75669" lon="2.65012">
        <ele>760.1</ele>
        <time>2024-08-16T08:12:36Z</time>
      </trkpt>
      <trkpt lat="44.75666" lon="2.65001">
        <ele>760</ele>
        <time>2024-08-16T08:12:38Z</time>
      </trkpt>
      <trkpt lat="44.75663" lon="2.6499">
        <ele>760.1</ele>
        <time>2024-08-16T08:12:40Z</time>
      </trkpt>
      <trkpt lat="44.75659" lon="2.64978">
        <ele>760.1</ele>
        <time>2024-08-16T08:12:42Z</time>
      </trkpt>
      <trkpt lat="44.75652" lon="2.64968">
        <ele>760.2</ele>
        <time>2024-08-16T08:12:44Z</time>
      </trkpt>
      <trkpt lat="44.75646" lon="2.64959">
        <ele>760.3</ele>
        <time>2024-08-16T08:12:46Z</time>
      </trkpt>
      <trkpt lat="44.75639" lon="2.64951">
        <ele>760.3</ele>
        <time>2024-08-16T08:12:48Z</time>
      </trkpt>
      <trkpt lat="44.75633" lon="2.64942">
        <ele>760.1</ele>
        <time>2024-08-16T08:12:50Z</time>
      </trkpt>
      <trkpt lat="44.75629" lon="2.64932">
        <ele>759.8</ele>
        <time>2024-08-16T08:12:52Z</time>
      </trkpt>
      <trkpt lat="44.75625" lon="2.64923">
        <ele>759.5</ele>
        <time>2024-08-16T08:12:54Z</time>
      </trkpt>
      <trkpt lat="44.75622" lon="2.64918">
        <ele>759.3</ele>
        <time>2024-08-16T08:12:55Z</time>
      </trkpt>
      <trkpt lat="44.7562" lon="2.64912">
        <ele>759.2</ele>
        <time>2024-08-16T08:12:56Z</time>
      </trkpt>
      <trkpt lat="44.75615" lon="2.64901">
        <ele>759</ele>
        <time>2024-08-16T08:12:58Z</time>
      </trkpt>
      <trkpt lat="44.7561" lon="2.6489">
        <ele>759</ele>
        <time>2024-08-16T08:13:00Z</time>
      </trkpt>
      <trkpt lat="44.75603" lon="2.64879">
        <ele>759</ele>
        <time>2024-08-16T08:13:02Z</time>
      </trkpt>
      <trkpt lat="44.75596" lon="2.6487">
        <ele>759.1</ele>
        <time>2024-08-16T08:13:04Z</time>
      </trkpt>
      <trkpt lat="44.75593" lon="2.64866">
        <ele>759</ele>
        <time>2024-08-16T08:13:05Z</time>
      </trkpt>
      <trkpt lat="44.7559" lon="2.64862">
        <ele>759</ele>
        <time>2024-08-16T08:13:06Z</time>
      </trkpt>
      <trkpt lat="44.75587" lon="2.6485">
        <ele>758.9</ele>
        <time>2024-08-16T08:13:08Z</time>
      </trkpt>
      <trkpt lat="44.75587" lon="2.64838">
        <ele>758.8</ele>
        <time>2024-08-16T08:13:10Z</time>
      </trkpt>
      <trkpt lat="44.75588" lon="2.64828">
        <ele>758.6</ele>
        <time>2024-08-16T08:13:12Z</time>
      </trkpt>
      <trkpt lat="44.75589" lon="2.64818">
        <ele>758.5</ele>
        <time>2024-08-16T08:13:14Z</time>
      </trkpt>
      <trkpt lat="44.75589" lon="2.64812">
        <ele>758.5</ele>
        <time>2024-08-16T08:13:15Z</time>
      </trkpt>
      <trkpt lat="44.75589" lon="2.64806">
        <ele>758.4</ele>
        <time>2024-08-16T08:13:16Z</time>
      </trkpt>
      <trkpt lat="44.75588" lon="2.64796">
        <ele>758.4</ele>
        <time>2024-08-16T08:13:18Z</time>
      </trkpt>
      <trkpt lat="44.75586" lon="2.64784">
        <ele>758.6</ele>
        <time>2024-08-16T08:13:20Z</time>
      </trkpt>
      <trkpt lat="44.75583" lon="2.64773">
        <ele>758.8</ele>
        <time>2024-08-16T08:13:22Z</time>
      </trkpt>
      <trkpt lat="44.75584" lon="2.64762">
        <ele>759</ele>
        <time>2024-08-16T08:13:24Z</time>
      </trkpt>
      <trkpt lat="44.75585" lon="2.64751">
        <ele>759.2</ele>
        <time>2024-08-16T08:13:26Z</time>
      </trkpt>
      <trkpt lat="44.75584" lon="2.64746">
        <ele>759.3</ele>
        <time>2024-08-16T08:13:27Z</time>
      </trkpt>
      <trkpt lat="44.75582" lon="2.6474">
        <ele>759.4</ele>
        <time>2024-08-16T08:13:28Z</time>
      </trkpt>
      <trkpt lat="44.75577" lon="2.64729">
        <ele>759.6</ele>
        <time>2024-08-16T08:13:30Z</time>
      </trkpt>
      <trkpt lat="44.75573" lon="2.6472">
        <ele>759.8</ele>
        <time>2024-08-16T08:13:32Z</time>
      </trkpt>
      <trkpt lat="44.75569" lon="2.64709">
        <ele>759.9</ele>
        <time>2024-08-16T08:13:34Z</time>
      </trkpt>
      <trkpt lat="44.75568" lon="2.64703">
        <ele>760</ele>
        <time>2024-08-16T08:13:35Z</time>
      </trkpt>
      <trkpt lat="44.75566" lon="2.64697">
        <ele>760</ele>
        <time>2024-08-16T08:13:36Z</time>
      </trkpt>
      <trkpt lat="44.75565" lon="2.6469">
        <ele>760.1</ele>
        <time>2024-08-16T08:13:37Z</time>
      </trkpt>
      <trkpt lat="44.75564" lon="2.64684">
        <ele>760.2</ele>
        <time>2024-08-16T08:13:38Z</time>
      </trkpt>
      <trkpt lat="44.75563" lon="2.64677">
        <ele>760.3</ele>
        <time>2024-08-16T08:13:39Z</time>
      </trkpt>
      <trkpt lat="44.75561" lon="2.64671">
        <ele>760.3</ele>
        <time>2024-08-16T08:13:40Z</time>
      </trkpt>
      <trkpt lat="44.7556" lon="2.64658">
        <ele>760.4</ele>
        <time>2024-08-16T08:13:42Z</time>
      </trkpt>
      <trkpt lat="44.75558" lon="2.64645">
        <ele>760.5</ele>
        <time>2024-08-16T08:13:44Z</time>
      </trkpt>
      <trkpt lat="44.75557" lon="2.64638">
        <ele>760.6</ele>
        <time>2024-08-16T08:13:45Z</time>
      </trkpt>
      <trkpt lat="44.75557" lon="2.64632">
        <ele>760.7</ele>
        <time>2024-08-16T08:13:46Z</time>
      </trkpt>
      <trkpt lat="44.75557" lon="2.64625">
        <ele>760.8</ele>
        <time>2024-08-16T08:13:47Z</time>
      </trkpt>
      <trkpt lat="44.75558" lon="2.64618">
        <ele>760.9</ele>
        <time>2024-08-16T08:13:48Z</time>
      </trkpt>
      <trkpt lat="44.75558" lon="2.64604">
        <ele>761.1</ele>
        <time>2024-08-16T08:13:50Z</time>
      </trkpt>
      <trkpt lat="44.75559" lon="2.64591">
        <ele>761.3</ele>
        <time>2024-08-16T08:13:52Z</time>
      </trkpt>
      <trkpt lat="44.75559" lon="2.64585">
        <ele>761.4</ele>
        <time>2024-08-16T08:13:53Z</time>
      </trkpt>
      <trkpt lat="44.7556" lon="2.64578">
        <ele>761.5</ele>
        <time>2024-08-16T08:13:54Z</time>
      </trkpt>
      <trkpt lat="44.75561" lon="2.64566">
        <ele>761.8</ele>
        <time>2024-08-16T08:13:56Z</time>
      </trkpt>
      <trkpt lat="44.75563" lon="2.64554">
        <ele>762</ele>
        <time>2024-08-16T08:13:58Z</time>
      </trkpt>
      <trkpt lat="44.75567" lon="2.64542">
        <ele>762.3</ele>
        <time>2024-08-16T08:14:00Z</time>
      </trkpt>
      <trkpt lat="44.75569" lon="2.64537">
        <ele>762.4</ele>
        <time>2024-08-16T08:14:01Z</time>
      </trkpt>
      <trkpt lat="44.75571" lon="2.64532">
        <ele>762.6</ele>
        <time>2024-08-16T08:14:02Z</time>
      </trkpt>
      <trkpt lat="44.75573" lon="2.6452">
        <ele>762.8</ele>
        <time>2024-08-16T08:14:04Z</time>
      </trkpt>
      <trkpt lat="44.75573" lon="2.64514">
        <ele>762.9</ele>
        <time>2024-08-16T08:14:05Z</time>
      </trkpt>
      <trkpt lat="44.75573" lon="2.64508">
        <ele>763</ele>
        <time>2024-08-16T08:14:06Z</time>
      </trkpt>
      <trkpt lat="44.75569" lon="2.64498">
        <ele>763.2</ele>
        <time>2024-08-16T08:14:08Z</time>
      </trkpt>
      <trkpt lat="44.75565" lon="2.64489">
        <ele>763.4</ele>
        <time>2024-08-16T08:14:10Z</time>
      </trkpt>
      <trkpt lat="44.75563" lon="2.64479">
        <ele>763.5</ele>
        <time>2024-08-16T08:14:12Z</time>
      </trkpt>
      <trkpt lat="44.75562" lon="2.64469">
        <ele>763.6</ele>
        <time>2024-08-16T08:14:14Z</time>
      </trkpt>
      <trkpt lat="44.7556" lon="2.64457">
        <ele>763.7</ele>
        <time>2024-08-16T08:14:16Z</time>
      </trkpt>
      <trkpt lat="44.7556" lon="2.64452">
        <ele>763.7</ele>
        <time>2024-08-16T08:14:17Z</time>
      </trkpt>
      <trkpt lat="44.75559" lon="2.64446">
        <ele>763.8</ele>
        <time>2024-08-16T08:14:18Z</time>
      </trkpt>
      <trkpt lat="44.75556" lon="2.64434">
        <ele>763.8</ele>
        <time>2024-08-16T08:14:20Z</time>
      </trkpt>
      <trkpt lat="44.75553" lon="2.64423">
        <ele>763.8</ele>
        <time>2024-08-16T08:14:22Z</time>
      </trkpt>
      <trkpt lat="44.75551" lon="2.64412">
        <ele>763.9</ele>
        <time>2024-08-16T08:14:24Z</time>
      </trkpt>
      <trkpt lat="44.75549" lon="2.64406">
        <ele>763.9</ele>
        <time>2024-08-16T08:14:25Z</time>
      </trkpt>
      <trkpt lat="44.75548" lon="2.64401">
        <ele>763.9</ele>
        <time>2024-08-16T08:14:26Z</time>
      </trkpt>
      <trkpt lat="44.75544" lon="2.6439">
        <ele>764</ele>
        <time>2024-08-16T08:14:28Z</time>
      </trkpt>
      <trkpt lat="44.75542" lon="2.64379">
        <ele>764</ele>
        <time>2024-08-16T08:14:30Z</time>
      </trkpt>
      <trkpt lat="44.7554" lon="2.64368">
        <ele>764.1</ele>
        <time>2024-08-16T08:14:32Z</time>
      </trkpt>
      <trkpt lat="44.75536" lon="2.64358">
        <ele>764.2</ele>
        <time>2024-08-16T08:14:34Z</time>
      </trkpt>
      <trkpt lat="44.75532" lon="2.64348">
        <ele>764.3</ele>
        <time>2024-08-16T08:14:36Z</time>
      </trkpt>
      <trkpt lat="44.75528" lon="2.64339">
        <ele>764.3</ele>
        <time>2024-08-16T08:14:38Z</time>
      </trkpt>
      <trkpt lat="44.75524" lon="2.64331">
        <ele>764.2</ele>
        <time>2024-08-16T08:14:40Z</time>
      </trkpt>
      <trkpt lat="44.75521" lon="2.64323">
        <ele>764.2</ele>
        <time>2024-08-16T08:14:42Z</time>
      </trkpt>
      <trkpt lat="44.75516" lon="2.64315">
        <ele>764.1</ele>
        <time>2024-08-16T08:14:44Z</time>
      </trkpt>
      <trkpt lat="44.75511" lon="2.64306">
        <ele>763.9</ele>
        <time>2024-08-16T08:14:46Z</time>
      </trkpt>
      <trkpt lat="44.75507" lon="2.64297">
        <ele>763.8</ele>
        <time>2024-08-16T08:14:48Z</time>
      </trkpt>
      <trkpt lat="44.75503" lon="2.64288">
        <ele>763.6</ele>
        <time>2024-08-16T08:14:50Z</time>
      </trkpt>
      <trkpt lat="44.75498" lon="2.64277">
        <ele>763.4</ele>
        <time>2024-08-16T08:14:52Z</time>
      </trkpt>
      <trkpt lat="44.75493" lon="2.64266">
        <ele>763.3</ele>
        <time>2024-08-16T08:14:54Z</time>
      </trkpt>
      <trkpt lat="44.75489" lon="2.64255">
        <ele>763.1</ele>
        <time>2024-08-16T08:14:56Z</time>
      </trkpt>
      <trkpt lat="44.75485" lon="2.64244">
        <ele>763</ele>
        <time>2024-08-16T08:14:58Z</time>
      </trkpt>
      <trkpt lat="44.75481" lon="2.64231">
        <ele>762.8</ele>
        <time>2024-08-16T08:15:00Z</time>
      </trkpt>
      <trkpt lat="44.75476" lon="2.64219">
        <ele>762.7</ele>
        <time>2024-08-16T08:15:02Z</time>
      </trkpt>
      <trkpt lat="44.75472" lon="2.64209">
        <ele>762.6</ele>
        <time>2024-08-16T08:15:04Z</time>
      </trkpt>
      <trkpt lat="44.75468" lon="2.64201">
        <ele>762.6</ele>
        <time>2024-08-16T08:15:06Z</time>
      </trkpt>
      <trkpt lat="44.75466" lon="2.64198">
        <ele>762.6</ele>
        <time>2024-08-16T08:15:07Z</time>
      </trkpt>
      <trkpt lat="44.75463" lon="2.64195">
        <ele>762.4</ele>
        <time>2024-08-16T08:15:08Z</time>
      </trkpt>
      <trkpt lat="44.75461" lon="2.64195">
        <ele>762.3</ele>
        <time>2024-08-16T08:15:09Z</time>
      </trkpt>
      <trkpt lat="44.75458" lon="2.64195">
        <ele>762.1</ele>
        <time>2024-08-16T08:15:10Z</time>
      </trkpt>
      <trkpt lat="44.75452" lon="2.642">
        <ele>761.7</ele>
        <time>2024-08-16T08:15:12Z</time>
      </trkpt>
      <trkpt lat="44.75446" lon="2.64206">
        <ele>761.3</ele>
        <time>2024-08-16T08:15:14Z</time>
      </trkpt>
      <trkpt lat="44.75438" lon="2.64212">
        <ele>760.6</ele>
        <time>2024-08-16T08:15:16Z</time>
      </trkpt>
      <trkpt lat="44.75431" lon="2.6422">
        <ele>759.8</ele>
        <time>2024-08-16T08:15:18Z</time>
      </trkpt>
      <trkpt lat="44.75423" lon="2.6423">
        <ele>758.7</ele>
        <time>2024-08-16T08:15:20Z</time>
      </trkpt>
      <trkpt lat="44.75414" lon="2.64241">
        <ele>757.3</ele>
        <time>2024-08-16T08:15:22Z</time>
      </trkpt>
      <trkpt lat="44.75404" lon="2.64252">
        <ele>755.8</ele>
        <time>2024-08-16T08:15:24Z</time>
      </trkpt>
      <trkpt lat="44.75399" lon="2.64255">
        <ele>755.2</ele>
        <time>2024-08-16T08:15:25Z</time>
      </trkpt>
      <trkpt lat="44.75395" lon="2.64258">
        <ele>754.6</ele>
        <time>2024-08-16T08:15:26Z</time>
      </trkpt>
      <trkpt lat="44.75387" lon="2.64265">
        <ele>753.3</ele>
        <time>2024-08-16T08:15:28Z</time>
      </trkpt>
      <trkpt lat="44.75384" lon="2.6427">
        <ele>752.6</ele>
        <time>2024-08-16T08:15:29Z</time>
      </trkpt>
      <trkpt lat="44.75383" lon="2.64277">
        <ele>751.8</ele>
        <time>2024-08-16T08:15:30Z</time>
      </trkpt>
      <trkpt lat="44.75381" lon="2.64294">
        <ele>749.7</ele>
        <time>2024-08-16T08:15:32Z</time>
      </trkpt>
      <trkpt lat="44.75379" lon="2.64311">
        <ele>747.8</ele>
        <time>2024-08-16T08:15:34Z</time>
      </trkpt>
      <trkpt lat="44.7538" lon="2.64323">
        <ele>746.5</ele>
        <time>2024-08-16T08:15:36Z</time>
      </trkpt>
      <trkpt lat="44.7538" lon="2.64326">
        <ele>746.1</ele>
        <time>2024-08-16T08:15:37Z</time>
      </trkpt>
      <trkpt lat="44.75379" lon="2.64329">
        <ele>745.7</ele>
        <time>2024-08-16T08:15:38Z</time>
      </trkpt>
      <trkpt lat="44.75377" lon="2.64332">
        <ele>745.3</ele>
        <time>2024-08-16T08:15:39Z</time>
      </trkpt>
      <trkpt lat="44.75375" lon="2.64331">
        <ele>745</ele>
        <time>2024-08-16T08:15:40Z</time>
      </trkpt>
      <trkpt lat="44.75369" lon="2.64326">
        <ele>743.5</ele>
        <time>2024-08-16T08:15:42Z</time>
      </trkpt>
      <trkpt lat="44.75364" lon="2.6432">
        <ele>742.6</ele>
        <time>2024-08-16T08:15:43Z</time>
      </trkpt>
      <trkpt lat="44.75358" lon="2.64315">
        <ele>741.7</ele>
        <time>2024-08-16T08:15:44Z</time>
      </trkpt>
      <trkpt lat="44.75348" lon="2.64302">
        <ele>739.7</ele>
        <time>2024-08-16T08:15:46Z</time>
      </trkpt>
      <trkpt lat="44.75344" lon="2.64294">
        <ele>738.9</ele>
        <time>2024-08-16T08:15:47Z</time>
      </trkpt>
      <trkpt lat="44.7534" lon="2.64287">
        <ele>738.1</ele>
        <time>2024-08-16T08:15:48Z</time>
      </trkpt>
      <trkpt lat="44.75332" lon="2.64277">
        <ele>736.8</ele>
        <time>2024-08-16T08:15:50Z</time>
      </trkpt>
      <trkpt lat="44.75324" lon="2.64267">
        <ele>735.6</ele>
        <time>2024-08-16T08:15:52Z</time>
      </trkpt>
      <trkpt lat="44.75321" lon="2.64262">
        <ele>735</ele>
        <time>2024-08-16T08:15:53Z</time>
      </trkpt>
      <trkpt lat="44.75319" lon="2.64256">
        <ele>734.4</ele>
        <time>2024-08-16T08:15:54Z</time>
      </trkpt>
      <trkpt lat="44.75316" lon="2.6425">
        <ele>733.8</ele>
        <time>2024-08-16T08:15:55Z</time>
      </trkpt>
      <trkpt lat="44.75314" lon="2.64243">
        <ele>733.1</ele>
        <time>2024-08-16T08:15:56Z</time>
      </trkpt>
      <trkpt lat="44.75309" lon="2.64228">
        <ele>731.6</ele>
        <time>2024-08-16T08:15:58Z</time>
      </trkpt>
      <trkpt lat="44.75306" lon="2.6422">
        <ele>730.8</ele>
        <time>2024-08-16T08:15:59Z</time>
      </trkpt>
      <trkpt lat="44.75303" lon="2.64212">
        <ele>729.9</ele>
        <time>2024-08-16T08:16:00Z</time>
      </trkpt>
      <trkpt lat="44.75296" lon="2.64194">
        <ele>728.4</ele>
        <time>2024-08-16T08:16:02Z</time>
      </trkpt>
      <trkpt lat="44.75293" lon="2.64186">
        <ele>727.7</ele>
        <time>2024-08-16T08:16:03Z</time>
      </trkpt>
      <trkpt lat="44.75289" lon="2.64178">
        <ele>727.2</ele>
        <time>2024-08-16T08:16:04Z</time>
      </trkpt>
      <trkpt lat="44.7528" lon="2.64163">
        <ele>726.3</ele>
        <time>2024-08-16T08:16:06Z</time>
      </trkpt>
      <trkpt lat="44.75275" lon="2.64156">
        <ele>725.8</ele>
        <time>2024-08-16T08:16:07Z</time>
      </trkpt>
      <trkpt lat="44.7527" lon="2.64149">
        <ele>725.4</ele>
        <time>2024-08-16T08:16:08Z</time>
      </trkpt>
      <trkpt lat="44.75261" lon="2.64136">
        <ele>724.4</ele>
        <time>2024-08-16T08:16:10Z</time>
      </trkpt>
      <trkpt lat="44.7525" lon="2.64122">
        <ele>723.6</ele>
        <time>2024-08-16T08:16:12Z</time>
      </trkpt>
      <trkpt lat="44.75241" lon="2.64109">
        <ele>723.2</ele>
        <time>2024-08-16T08:16:14Z</time>
      </trkpt>
      <trkpt lat="44.75236" lon="2.64104">
        <ele>723.1</ele>
        <time>2024-08-16T08:16:15Z</time>
      </trkpt>
      <trkpt lat="44.75231" lon="2.64098">
        <ele>722.9</ele>
        <time>2024-08-16T08:16:16Z</time>
      </trkpt>
      <trkpt lat="44.75227" lon="2.64092">
        <ele>722.8</ele>
        <time>2024-08-16T08:16:17Z</time>
      </trkpt>
      <trkpt lat="44.75222" lon="2.64087">
        <ele>722.6</ele>
        <time>2024-08-16T08:16:18Z</time>
      </trkpt>
      <trkpt lat="44.75217" lon="2.64084">
        <ele>722.5</ele>
        <time>2024-08-16T08:16:19Z</time>
      </trkpt>
      <trkpt lat="44.75212" lon="2.64081">
        <ele>722.4</ele>
        <time>2024-08-16T08:16:20Z</time>
      </trkpt>
      <trkpt lat="44.75207" lon="2.64077">
        <ele>722.2</ele>
        <time>2024-08-16T08:16:21Z</time>
      </trkpt>
      <trkpt lat="44.75201" lon="2.64071">
        <ele>722</ele>
        <time>2024-08-16T08:16:22Z</time>
      </trkpt>
      <trkpt lat="44.75191" lon="2.64063">
        <ele>721.6</ele>
        <time>2024-08-16T08:16:24Z</time>
      </trkpt>
      <trkpt lat="44.75179" lon="2.64053">
        <ele>721.3</ele>
        <time>2024-08-16T08:16:26Z</time>
      </trkpt>
      <trkpt lat="44.75166" lon="2.64045">
        <ele>721.3</ele>
        <time>2024-08-16T08:16:28Z</time>
      </trkpt>
      <trkpt lat="44.75161" lon="2.64043">
        <ele>721.5</ele>
        <time>2024-08-16T08:16:29Z</time>
      </trkpt>
      <trkpt lat="44.75155" lon="2.64042">
        <ele>721.7</ele>
        <time>2024-08-16T08:16:30Z</time>
      </trkpt>
      <trkpt lat="44.75144" lon="2.64039">
        <ele>722.1</ele>
        <time>2024-08-16T08:16:32Z</time>
      </trkpt>
      <trkpt lat="44.75136" lon="2.64038">
        <ele>722.4</ele>
        <time>2024-08-16T08:16:34Z</time>
      </trkpt>
      <trkpt lat="44.75131" lon="2.64037">
        <ele>722.6</ele>
        <time>2024-08-16T08:16:35Z</time>
      </trkpt>
      <trkpt lat="44.75127" lon="2.64036">
        <ele>722.7</ele>
        <time>2024-08-16T08:16:36Z</time>
      </trkpt>
      <trkpt lat="44.75118" lon="2.64034">
        <ele>723</ele>
        <time>2024-08-16T08:16:38Z</time>
      </trkpt>
      <trkpt lat="44.75113" lon="2.64032">
        <ele>723.2</ele>
        <time>2024-08-16T08:16:39Z</time>
      </trkpt>
      <trkpt lat="44.75109" lon="2.64031">
        <ele>723.4</ele>
        <time>2024-08-16T08:16:40Z</time>
      </trkpt>
      <trkpt lat="44.75101" lon="2.6403">
        <ele>723.6</ele>
        <time>2024-08-16T08:16:42Z</time>
      </trkpt>
      <trkpt lat="44.75096" lon="2.6403">
        <ele>723.7</ele>
        <time>2024-08-16T08:16:43Z</time>
      </trkpt>
      <trkpt lat="44.75091" lon="2.64031">
        <ele>723.8</ele>
        <time>2024-08-16T08:16:44Z</time>
      </trkpt>
      <trkpt lat="44.75082" lon="2.64038">
        <ele>724</ele>
        <time>2024-08-16T08:16:46Z</time>
      </trkpt>
      <trkpt lat="44.75075" lon="2.6404">
        <ele>724.2</ele>
        <time>2024-08-16T08:16:48Z</time>
      </trkpt>
      <trkpt lat="44.7507" lon="2.6404">
        <ele>724.2</ele>
        <time>2024-08-16T08:16:50Z</time>
      </trkpt>
      <trkpt lat="44.7507" lon="2.6404">
        <ele>724.2</ele>
        <time>2024-08-16T08:16:51Z</time>
      </trkpt>
      <trkpt lat="44.75059" lon="2.64061">
        <ele>724.1</ele>
        <time>2024-08-16T08:20:48Z</time>
      </trkpt>
      <trkpt lat="44.75057" lon="2.6406">
        <ele>724</ele>
        <time>2024-08-16T08:20:49Z</time>
      </trkpt>
      <trkpt lat="44.75054" lon="2.6406">
        <ele>724</ele>
        <time>2024-08-16T08:20:50Z</time>
      </trkpt>
      <trkpt lat="44.75049" lon="2.64061">
        <ele>723.8</ele>
        <time>2024-08-16T08:20:52Z</time>
      </trkpt>
      <trkpt lat="44.75042" lon="2.64062">
        <ele>723.6</ele>
        <time>2024-08-16T08:20:54Z</time>
      </trkpt>
      <trkpt lat="44.75035" lon="2.64063">
        <ele>723.5</ele>
        <time>2024-08-16T08:20:56Z</time>
      </trkpt>
      <trkpt lat="44.75027" lon="2.64062">
        <ele>723.4</ele>
        <time>2024-08-16T08:20:58Z</time>
      </trkpt>
      <trkpt lat="44.75019" lon="2.64061">
        <ele>723.2</ele>
        <time>2024-08-16T08:21:00Z</time>
      </trkpt>
      <trkpt lat="44.75012" lon="2.64059">
        <ele>722.9</ele>
        <time>2024-08-16T08:21:02Z</time>
      </trkpt>
      <trkpt lat="44.75007" lon="2.64057">
        <ele>722.7</ele>
        <time>2024-08-16T08:21:03Z</time>
      </trkpt>
      <trkpt lat="44.75002" lon="2.64054">
        <ele>722.5</ele>
        <time>2024-08-16T08:21:04Z</time>
      </trkpt>
      <trkpt lat="44.74997" lon="2.64051">
        <ele>722.2</ele>
        <time>2024-08-16T08:21:05Z</time>
      </trkpt>
      <trkpt lat="44.74992" lon="2.64047">
        <ele>722</ele>
        <time>2024-08-16T08:21:06Z</time>
      </trkpt>
      <trkpt lat="44.74987" lon="2.64043">
        <ele>721.8</ele>
        <time>2024-08-16T08:21:07Z</time>
      </trkpt>
      <trkpt lat="44.74983" lon="2.64039">
        <ele>721.6</ele>
        <time>2024-08-16T08:21:08Z</time>
      </trkpt>
      <trkpt lat="44.74974" lon="2.6403">
        <ele>721.1</ele>
        <time>2024-08-16T08:21:10Z</time>
      </trkpt>
      <trkpt lat="44.74966" lon="2.6402">
        <ele>720.4</ele>
        <time>2024-08-16T08:21:12Z</time>
      </trkpt>
      <trkpt lat="44.74956" lon="2.6401">
        <ele>719.3</ele>
        <time>2024-08-16T08:21:14Z</time>
      </trkpt>
      <trkpt lat="44.74951" lon="2.64005">
        <ele>718.7</ele>
        <time>2024-08-16T08:21:15Z</time>
      </trkpt>
      <trkpt lat="44.74945" lon="2.64001">
        <ele>718</ele>
        <time>2024-08-16T08:21:16Z</time>
      </trkpt>
      <trkpt lat="44.74933" lon="2.63991">
        <ele>716.7</ele>
        <time>2024-08-16T08:21:18Z</time>
      </trkpt>
      <trkpt lat="44.74921" lon="2.6398">
        <ele>715.4</ele>
        <time>2024-08-16T08:21:20Z</time>
      </trkpt>
      <trkpt lat="44.74915" lon="2.63975">
        <ele>714.8</ele>
        <time>2024-08-16T08:21:21Z</time>
      </trkpt>
      <trkpt lat="44.74908" lon="2.6397">
        <ele>714.1</ele>
        <time>2024-08-16T08:21:22Z</time>
      </trkpt>
      <trkpt lat="44.74902" lon="2.63965">
        <ele>713.3</ele>
        <time>2024-08-16T08:21:23Z</time>
      </trkpt>
      <trkpt lat="44.74896" lon="2.6396">
        <ele>712.5</ele>
        <time>2024-08-16T08:21:24Z</time>
      </trkpt>
      <trkpt lat="44.7489" lon="2.63956">
        <ele>711.8</ele>
        <time>2024-08-16T08:21:25Z</time>
      </trkpt>
      <trkpt lat="44.74884" lon="2.63952">
        <ele>711</ele>
        <time>2024-08-16T08:21:26Z</time>
      </trkpt>
      <trkpt lat="44.74875" lon="2.63946">
        <ele>710</ele>
        <time>2024-08-16T08:21:28Z</time>
      </trkpt>
      <trkpt lat="44.74871" lon="2.63942">
        <ele>709.7</ele>
        <time>2024-08-16T08:21:29Z</time>
      </trkpt>
      <trkpt lat="44.74868" lon="2.63937">
        <ele>709.4</ele>
        <time>2024-08-16T08:21:30Z</time>
      </trkpt>
      <trkpt lat="44.74862" lon="2.63929">
        <ele>710</ele>
        <time>2024-08-16T08:21:32Z</time>
      </trkpt>
      <trkpt lat="44.74859" lon="2.63925">
        <ele>710.4</ele>
        <time>2024-08-16T08:21:33Z</time>
      </trkpt>
      <trkpt lat="44.74858" lon="2.63921">
        <ele>710.7</ele>
        <time>2024-08-16T08:21:34Z</time>
      </trkpt>
      <trkpt lat="44.74854" lon="2.63915">
        <ele>711.3</ele>
        <time>2024-08-16T08:21:36Z</time>
      </trkpt>
      <trkpt lat="44.74851" lon="2.6391">
        <ele>711.9</ele>
        <time>2024-08-16T08:21:38Z</time>
      </trkpt>
      <trkpt lat="44.7485" lon="2.63904">
        <ele>712.5</ele>
        <time>2024-08-16T08:21:40Z</time>
      </trkpt>
      <trkpt lat="44.74848" lon="2.639">
        <ele>712.9</ele>
        <time>2024-08-16T08:21:42Z</time>
      </trkpt>
      <trkpt lat="44.74846" lon="2.63895">
        <ele>713.3</ele>
        <time>2024-08-16T08:21:44Z</time>
      </trkpt>
      <trkpt lat="44.74846" lon="2.63892">
        <ele>713.5</ele>
        <time>2024-08-16T08:21:45Z</time>
      </trkpt>
      <trkpt lat="44.74845" lon="2.6389">
        <ele>713.8</ele>
        <time>2024-08-16T08:21:46Z</time>
      </trkpt>
      <trkpt lat="44.74844" lon="2.63884">
        <ele>714.3</ele>
        <time>2024-08-16T08:21:48Z</time>
      </trkpt>
      <trkpt lat="44.74842" lon="2.63877">
        <ele>714.9</ele>
        <time>2024-08-16T08:21:50Z</time>
      </trkpt>
      <trkpt lat="44.74841" lon="2.63874">
        <ele>715.2</ele>
        <time>2024-08-16T08:21:51Z</time>
      </trkpt>
      <trkpt lat="44.7484" lon="2.63871">
        <ele>715.5</ele>
        <time>2024-08-16T08:21:52Z</time>
      </trkpt>
      <trkpt lat="44.74839" lon="2.63864">
        <ele>716</ele>
        <time>2024-08-16T08:21:54Z</time>
      </trkpt>
      <trkpt lat="44.74836" lon="2.63857">
        <ele>716.7</ele>
        <time>2024-08-16T08:21:56Z</time>
      </trkpt>
      <trkpt lat="44.74834" lon="2.6385">
        <ele>717.3</ele>
        <time>2024-08-16T08:21:58Z</time>
      </trkpt>
      <trkpt lat="44.74832" lon="2.63846">
        <ele>717.7</ele>
        <time>2024-08-16T08:22:00Z</time>
      </trkpt>
      <trkpt lat="44.7483" lon="2.63844">
        <ele>717.9</ele>
        <time>2024-08-16T08:22:01Z</time>
      </trkpt>
      <trkpt lat="44.7483" lon="2.63842">
        <ele>718.1</ele>
        <time>2024-08-16T08:22:02Z</time>
      </trkpt>
      <trkpt lat="44.7483" lon="2.63838">
        <ele>718.4</ele>
        <time>2024-08-16T08:22:03Z</time>
      </trkpt>
      <trkpt lat="44.74829" lon="2.63835">
        <ele>718.6</ele>
        <time>2024-08-16T08:22:04Z</time>
      </trkpt>
      <trkpt lat="44.74827" lon="2.63829">
        <ele>719.1</ele>
        <time>2024-08-16T08:22:06Z</time>
      </trkpt>
      <trkpt lat="44.74826" lon="2.63823">
        <ele>719.5</ele>
        <time>2024-08-16T08:22:08Z</time>
      </trkpt>
      <trkpt lat="44.74824" lon="2.63817">
        <ele>719.9</ele>
        <time>2024-08-16T08:22:10Z</time>
      </trkpt>
      <trkpt lat="44.74821" lon="2.63812">
        <ele>720.3</ele>
        <time>2024-08-16T08:22:12Z</time>
      </trkpt>
      <trkpt lat="44.74819" lon="2.63807">
        <ele>720.7</ele>
        <time>2024-08-16T08:22:14Z</time>
      </trkpt>
      <trkpt lat="44.74817" lon="2.63803">
        <ele>721.1</ele>
        <time>2024-08-16T08:22:16Z</time>
      </trkpt>
      <trkpt lat="44.74815" lon="2.63798">
        <ele>721.5</ele>
        <time>2024-08-16T08:22:18Z</time>
      </trkpt>
      <trkpt lat="44.74812" lon="2.63793">
        <ele>721.9</ele>
        <time>2024-08-16T08:22:20Z</time>
      </trkpt>
      <trkpt lat="44.7481" lon="2.63788">
        <ele>722.3</ele>
        <time>2024-08-16T08:22:22Z</time>
      </trkpt>
      <trkpt lat="44.74808" lon="2.63784">
        <ele>722.6</ele>
        <time>2024-08-16T08:22:24Z</time>
      </trkpt>
      <trkpt lat="44.74805" lon="2.6378">
        <ele>723</ele>
        <time>2024-08-16T08:22:26Z</time>
      </trkpt>
      <trkpt lat="44.74802" lon="2.63775">
        <ele>723.4</ele>
        <time>2024-08-16T08:22:28Z</time>
      </trkpt>
      <trkpt lat="44.74799" lon="2.6377">
        <ele>723.7</ele>
        <time>2024-08-16T08:22:30Z</time>
      </trkpt>
      <trkpt lat="44.74796" lon="2.63765">
        <ele>724</ele>
        <time>2024-08-16T08:22:32Z</time>
      </trkpt>
      <trkpt lat="44.74793" lon="2.6376">
        <ele>724.4</ele>
        <time>2024-08-16T08:22:34Z</time>
      </trkpt>
      <trkpt lat="44.7479" lon="2.63755">
        <ele>724.7</ele>
        <time>2024-08-16T08:22:36Z</time>
      </trkpt>
      <trkpt lat="44.74787" lon="2.6375">
        <ele>725</ele>
        <time>2024-08-16T08:22:38Z</time>
      </trkpt>
      <trkpt lat="44.74784" lon="2.63747">
        <ele>725.2</ele>
        <time>2024-08-16T08:22:40Z</time>
      </trkpt>
      <trkpt lat="44.74781" lon="2.63742">
        <ele>725.5</ele>
        <time>2024-08-16T08:22:42Z</time>
      </trkpt>
      <trkpt lat="44.74777" lon="2.63738">
        <ele>725.7</ele>
        <time>2024-08-16T08:22:44Z</time>
      </trkpt>
      <trkpt lat="44.74774" lon="2.63735">
        <ele>725.9</ele>
        <time>2024-08-16T08:22:46Z</time>
      </trkpt>
      <trkpt lat="44.74771" lon="2.63731">
        <ele>726.2</ele>
        <time>2024-08-16T08:22:48Z</time>
      </trkpt>
      <trkpt lat="44.74767" lon="2.63728">
        <ele>726.4</ele>
        <time>2024-08-16T08:22:50Z</time>
      </trkpt>
      <trkpt lat="44.74763" lon="2.63724">
        <ele>726.7</ele>
        <time>2024-08-16T08:22:52Z</time>
      </trkpt>
      <trkpt lat="44.74759" lon="2.6372">
        <ele>726.9</ele>
        <time>2024-08-16T08:22:54Z</time>
      </trkpt>
      <trkpt lat="44.74756" lon="2.63716">
        <ele>727.1</ele>
        <time>2024-08-16T08:22:56Z</time>
      </trkpt>
      <trkpt lat="44.74752" lon="2.63712">
        <ele>727.3</ele>
        <time>2024-08-16T08:22:58Z</time>
      </trkpt>
      <trkpt lat="44.74748" lon="2.63708">
        <ele>727.5</ele>
        <time>2024-08-16T08:23:00Z</time>
      </trkpt>
      <trkpt lat="44.74745" lon="2.63704">
        <ele>727.7</ele>
        <time>2024-08-16T08:23:02Z</time>
      </trkpt>
      <trkpt lat="44.74742" lon="2.63699">
        <ele>727.8</ele>
        <time>2024-08-16T08:23:04Z</time>
      </trkpt>
      <trkpt lat="44.74739" lon="2.63694">
        <ele>727.9</ele>
        <time>2024-08-16T08:23:06Z</time>
      </trkpt>
      <trkpt lat="44.74736" lon="2.63689">
        <ele>728</ele>
        <time>2024-08-16T08:23:08Z</time>
      </trkpt>
      <trkpt lat="44.74734" lon="2.63683">
        <ele>728.1</ele>
        <time>2024-08-16T08:23:10Z</time>
      </trkpt>
      <trkpt lat="44.74733" lon="2.63676">
        <ele>728.2</ele>
        <time>2024-08-16T08:23:12Z</time>
      </trkpt>
      <trkpt lat="44.74732" lon="2.63673">
        <ele>728.2</ele>
        <time>2024-08-16T08:23:13Z</time>
      </trkpt>
      <trkpt lat="44.74732" lon="2.63669">
        <ele>728.2</ele>
        <time>2024-08-16T08:23:14Z</time>
      </trkpt>
      <trkpt lat="44.74733" lon="2.63662">
        <ele>728.3</ele>
        <time>2024-08-16T08:23:16Z</time>
      </trkpt>
      <trkpt lat="44.74734" lon="2.63656">
        <ele>728.3</ele>
        <time>2024-08-16T08:23:18Z</time>
      </trkpt>
      <trkpt lat="44.74735" lon="2.63653">
        <ele>728.3</ele>
        <time>2024-08-16T08:23:19Z</time>
      </trkpt>
      <trkpt lat="44.74736" lon="2.63649">
        <ele>728.3</ele>
        <time>2024-08-16T08:23:20Z</time>
      </trkpt>
      <trkpt lat="44.74739" lon="2.63643">
        <ele>728.2</ele>
        <time>2024-08-16T08:23:22Z</time>
      </trkpt>
      <trkpt lat="44.74743" lon="2.63636">
        <ele>728.2</ele>
        <time>2024-08-16T08:23:24Z</time>
      </trkpt>
      <trkpt lat="44.74745" lon="2.63632">
        <ele>728.2</ele>
        <time>2024-08-16T08:23:25Z</time>
      </trkpt>
      <trkpt lat="44.74748" lon="2.6363">
        <ele>728.1</ele>
        <time>2024-08-16T08:23:26Z</time>
      </trkpt>
      <trkpt lat="44.74753" lon="2.63624">
        <ele>728.1</ele>
        <time>2024-08-16T08:23:28Z</time>
      </trkpt>
      <trkpt lat="44.74759" lon="2.6362">
        <ele>728</ele>
        <time>2024-08-16T08:23:30Z</time>
      </trkpt>
      <trkpt lat="44.74765" lon="2.63615">
        <ele>727.9</ele>
        <time>2024-08-16T08:23:32Z</time>
      </trkpt>
      <trkpt lat="44.74771" lon="2.63611">
        <ele>727.8</ele>
        <time>2024-08-16T08:23:34Z</time>
      </trkpt>
      <trkpt lat="44.74776" lon="2.63606">
        <ele>727.7</ele>
        <time>2024-08-16T08:23:36Z</time>
      </trkpt>
      <trkpt lat="44.74782" lon="2.63602">
        <ele>727.6</ele>
        <time>2024-08-16T08:23:38Z</time>
      </trkpt>
      <trkpt lat="44.74785" lon="2.636">
        <ele>727.6</ele>
        <time>2024-08-16T08:23:39Z</time>
      </trkpt>
      <trkpt lat="44.74788" lon="2.63598">
        <ele>727.6</ele>
        <time>2024-08-16T08:23:40Z</time>
      </trkpt>
      <trkpt lat="44.74794" lon="2.63593">
        <ele>727.5</ele>
        <time>2024-08-16T08:23:42Z</time>
      </trkpt>
      <trkpt lat="44.74799" lon="2.63587">
        <ele>727.4</ele>
        <time>2024-08-16T08:23:44Z</time>
      </trkpt>
      <trkpt lat="44.74801" lon="2.63585">
        <ele>727.4</ele>
        <time>2024-08-16T08:23:45Z</time>
      </trkpt>
      <trkpt lat="44.74803" lon="2.63583">
        <ele>727</ele>
        <time>2024-08-16T08:23:46Z</time>
      </trkpt>
      <trkpt lat="44.74804" lon="2.63581">
        <ele>726.7</ele>
        <time>2024-08-16T08:23:47Z</time>
      </trkpt>
      <trkpt lat="44.74803" lon="2.63578">
        <ele>726.3</ele>
        <time>2024-08-16T08:23:48Z</time>
      </trkpt>
      <trkpt lat="44.74798" lon="2.63578">
        <ele>725.5</ele>
        <time>2024-08-16T08:23:50Z</time>
      </trkpt>
      <trkpt lat="44.74795" lon="2.63581">
        <ele>724.9</ele>
        <time>2024-08-16T08:23:51Z</time>
      </trkpt>
      <trkpt lat="44.74791" lon="2.63583">
        <ele>724.2</ele>
        <time>2024-08-16T08:23:52Z</time>
      </trkpt>
      <trkpt lat="44.74786" lon="2.63586">
        <ele>723.4</ele>
        <time>2024-08-16T08:23:53Z</time>
      </trkpt>
      <trkpt lat="44.7478" lon="2.63588">
        <ele>722.5</ele>
        <time>2024-08-16T08:23:54Z</time>
      </trkpt>
      <trkpt lat="44.74773" lon="2.6359">
        <ele>721.6</ele>
        <time>2024-08-16T08:23:55Z</time>
      </trkpt>
      <trkpt lat="44.74765" lon="2.63592">
        <ele>720.8</ele>
        <time>2024-08-16T08:23:56Z</time>
      </trkpt>
      <trkpt lat="44.74749" lon="2.63596">
        <ele>719.7</ele>
        <time>2024-08-16T08:23:58Z</time>
      </trkpt>
      <trkpt lat="44.7474" lon="2.63598">
        <ele>719.3</ele>
        <time>2024-08-16T08:23:59Z</time>
      </trkpt>
      <trkpt lat="44.74732" lon="2.63599">
        <ele>719</ele>
        <time>2024-08-16T08:24:00Z</time>
      </trkpt>
      <trkpt lat="44.74717" lon="2.63599">
        <ele>718.4</ele>
        <time>2024-08-16T08:24:02Z</time>
      </trkpt>
      <trkpt lat="44.74711" lon="2.63599">
        <ele>718.1</ele>
        <time>2024-08-16T08:24:03Z</time>
      </trkpt>
      <trkpt lat="44.74705" lon="2.636">
        <ele>717.6</ele>
        <time>2024-08-16T08:24:04Z</time>
      </trkpt>
      <trkpt lat="44.74699" lon="2.63602">
        <ele>717.2</ele>
        <time>2024-08-16T08:24:05Z</time>
      </trkpt>
      <trkpt lat="44.74693" lon="2.63606">
        <ele>716.6</ele>
        <time>2024-08-16T08:24:06Z</time>
      </trkpt>
      <trkpt lat="44.74681" lon="2.63613">
        <ele>715.2</ele>
        <time>2024-08-16T08:24:08Z</time>
      </trkpt>
      <trkpt lat="44.74674" lon="2.63616">
        <ele>714.5</ele>
        <time>2024-08-16T08:24:09Z</time>
      </trkpt>
      <trkpt lat="44.74668" lon="2.63618">
        <ele>713.5</ele>
        <time>2024-08-16T08:24:10Z</time>
      </trkpt>
      <trkpt lat="44.74662" lon="2.63619">
        <ele>712.7</ele>
        <time>2024-08-16T08:24:11Z</time>
      </trkpt>
      <trkpt lat="44.74656" lon="2.63621">
        <ele>711.9</ele>
        <time>2024-08-16T08:24:12Z</time>
      </trkpt>
      <trkpt lat="44.74646" lon="2.63625">
        <ele>710.4</ele>
        <time>2024-08-16T08:24:14Z</time>
      </trkpt>
      <trkpt lat="44.74641" lon="2.63628">
        <ele>709.7</ele>
        <time>2024-08-16T08:24:15Z</time>
      </trkpt>
      <trkpt lat="44.74636" lon="2.63632">
        <ele>709</ele>
        <time>2024-08-16T08:24:16Z</time>
      </trkpt>
      <trkpt lat="44.74626" lon="2.63641">
        <ele>707.7</ele>
        <time>2024-08-16T08:24:18Z</time>
      </trkpt>
      <trkpt lat="44.74615" lon="2.63649">
        <ele>706.4</ele>
        <time>2024-08-16T08:24:20Z</time>
      </trkpt>
      <trkpt lat="44.74609" lon="2.6366">
        <ele>705.2</ele>
        <time>2024-08-16T08:24:22Z</time>
      </trkpt>
      <trkpt lat="44.74609" lon="2.63664">
        <ele>704.8</ele>
        <time>2024-08-16T08:24:23Z</time>
      </trkpt>
      <trkpt lat="44.74609" lon="2.63668">
        <ele>704.5</ele>
        <time>2024-08-16T08:24:24Z</time>
      </trkpt>
      <trkpt lat="44.7461" lon="2.63674">
        <ele>704.2</ele>
        <time>2024-08-16T08:24:26Z</time>
      </trkpt>
      <trkpt lat="44.74611" lon="2.63675">
        <ele>704.1</ele>
        <time>2024-08-16T08:24:27Z</time>
      </trkpt>
      <trkpt lat="44.74612" lon="2.63676">
        <ele>704.1</ele>
        <time>2024-08-16T08:24:28Z</time>
      </trkpt>
      <trkpt lat="44.74612" lon="2.63676">
        <ele>704.1</ele>
        <time>2024-08-16T08:24:29Z</time>
      </trkpt>
      <trkpt lat="44.74613" lon="2.63678">
        <ele>703.9</ele>
        <time>2024-08-16T08:24:48Z</time>
      </trkpt>
      <trkpt lat="44.74615" lon="2.63681">
        <ele>703.7</ele>
        <time>2024-08-16T08:24:49Z</time>
      </trkpt>
      <trkpt lat="44.74617" lon="2.63685">
        <ele>703.5</ele>
        <time>2024-08-16T08:24:50Z</time>
      </trkpt>
      <trkpt lat="44.74624" lon="2.63695">
        <ele>702.8</ele>
        <time>2024-08-16T08:24:52Z</time>
      </trkpt>
      <trkpt lat="44.74628" lon="2.637">
        <ele>702.6</ele>
        <time>2024-08-16T08:24:53Z</time>
      </trkpt>
      <trkpt lat="44.74631" lon="2.63706">
        <ele>702.4</ele>
        <time>2024-08-16T08:24:54Z</time>
      </trkpt>
      <trkpt lat="44.74638" lon="2.63716">
        <ele>702</ele>
        <time>2024-08-16T08:24:56Z</time>
      </trkpt>
      <trkpt lat="44.74645" lon="2.63727">
        <ele>701.3</ele>
        <time>2024-08-16T08:24:58Z</time>
      </trkpt>
      <trkpt lat="44.74648" lon="2.63732">
        <ele>700.8</ele>
        <time>2024-08-16T08:24:59Z</time>
      </trkpt>
      <trkpt lat="44.74652" lon="2.63738">
        <ele>700.4</ele>
        <time>2024-08-16T08:25:00Z</time>
      </trkpt>
      <trkpt lat="44.7466" lon="2.63749">
        <ele>699.3</ele>
        <time>2024-08-16T08:25:02Z</time>
      </trkpt>
      <trkpt lat="44.74668" lon="2.63762">
        <ele>698.1</ele>
        <time>2024-08-16T08:25:04Z</time>
      </trkpt>
      <trkpt lat="44.74677" lon="2.63776">
        <ele>696.6</ele>
        <time>2024-08-16T08:25:06Z</time>
      </trkpt>
      <trkpt lat="44.74686" lon="2.6379">
        <ele>695.1</ele>
        <time>2024-08-16T08:25:08Z</time>
      </trkpt>
      <trkpt lat="44.74695" lon="2.63801">
        <ele>693.7</ele>
        <time>2024-08-16T08:25:10Z</time>
      </trkpt>
      <trkpt lat="44.747" lon="2.63806">
        <ele>693.1</ele>
        <time>2024-08-16T08:25:11Z</time>
      </trkpt>
      <trkpt lat="44.74704" lon="2.63811">
        <ele>692.6</ele>
        <time>2024-08-16T08:25:12Z</time>
      </trkpt>
      <trkpt lat="44.74708" lon="2.63815">
        <ele>692.1</ele>
        <time>2024-08-16T08:25:13Z</time>
      </trkpt>
      <trkpt lat="44.74713" lon="2.63817">
        <ele>691.6</ele>
        <time>2024-08-16T08:25:14Z</time>
      </trkpt>
      <trkpt lat="44.74717" lon="2.63818">
        <ele>691.2</ele>
        <time>2024-08-16T08:25:15Z</time>
      </trkpt>
      <trkpt lat="44.7472" lon="2.63821">
        <ele>691</ele>
        <time>2024-08-16T08:25:16Z</time>
      </trkpt>
      <trkpt lat="44.74719" lon="2.63824">
        <ele>690.4</ele>
        <time>2024-08-16T08:25:17Z</time>
      </trkpt>
      <trkpt lat="44.74717" lon="2.63827">
        <ele>689.8</ele>
        <time>2024-08-16T08:25:18Z</time>
      </trkpt>
      <trkpt lat="44.74713" lon="2.63826">
        <ele>688.8</ele>
        <time>2024-08-16T08:25:20Z</time>
      </trkpt>
      <trkpt lat="44.74709" lon="2.63824">
        <ele>687.7</ele>
        <time>2024-08-16T08:25:22Z</time>
      </trkpt>
      <trkpt lat="44.74701" lon="2.6382">
        <ele>686</ele>
        <time>2024-08-16T08:25:24Z</time>
      </trkpt>
      <trkpt lat="44.74693" lon="2.63817">
        <ele>683.9</ele>
        <time>2024-08-16T08:25:26Z</time>
      </trkpt>
      <trkpt lat="44.74682" lon="2.63813">
        <ele>681.3</ele>
        <time>2024-08-16T08:25:28Z</time>
      </trkpt>
      <trkpt lat="44.74676" lon="2.6381">
        <ele>679.7</ele>
        <time>2024-08-16T08:25:29Z</time>
      </trkpt>
      <trkpt lat="44.7467" lon="2.63807">
        <ele>678</ele>
        <time>2024-08-16T08:25:30Z</time>
      </trkpt>
      <trkpt lat="44.74656" lon="2.63803">
        <ele>674.5</ele>
        <time>2024-08-16T08:25:32Z</time>
      </trkpt>
      <trkpt lat="44.74648" lon="2.63799">
        <ele>672.6</ele>
        <time>2024-08-16T08:25:33Z</time>
      </trkpt>
      <trkpt lat="44.7464" lon="2.63794">
        <ele>670.5</ele>
        <time>2024-08-16T08:25:34Z</time>
      </trkpt>
      <trkpt lat="44.74625" lon="2.63785">
        <ele>666.4</ele>
        <time>2024-08-16T08:25:36Z</time>
      </trkpt>
      <trkpt lat="44.74608" lon="2.63778">
        <ele>662.3</ele>
        <time>2024-08-16T08:25:38Z</time>
      </trkpt>
      <trkpt lat="44.7459" lon="2.63777">
        <ele>657.6</ele>
        <time>2024-08-16T08:25:40Z</time>
      </trkpt>
      <trkpt lat="44.74581" lon="2.63778">
        <ele>655.3</ele>
        <time>2024-08-16T08:25:41Z</time>
      </trkpt>
      <trkpt lat="44.74572" lon="2.6378">
        <ele>653.1</ele>
        <time>2024-08-16T08:25:42Z</time>
      </trkpt>
      <trkpt lat="44.74563" lon="2.6378">
        <ele>650.9</ele>
        <time>2024-08-16T08:25:43Z</time>
      </trkpt>
      <trkpt lat="44.74553" lon="2.6378">
        <ele>648.6</ele>
        <time>2024-08-16T08:25:44Z</time>
      </trkpt>
      <trkpt lat="44.74543" lon="2.6378">
        <ele>646.4</ele>
        <time>2024-08-16T08:25:45Z</time>
      </trkpt>
      <trkpt lat="44.74533" lon="2.63781">
        <ele>644</ele>
        <time>2024-08-16T08:25:46Z</time>
      </trkpt>
      <trkpt lat="44.74514" lon="2.63782">
        <ele>639.7</ele>
        <time>2024-08-16T08:25:48Z</time>
      </trkpt>
      <trkpt lat="44.74504" lon="2.63782">
        <ele>637.8</ele>
        <time>2024-08-16T08:25:49Z</time>
      </trkpt>
      <trkpt lat="44.74494" lon="2.6378">
        <ele>635.8</ele>
        <time>2024-08-16T08:25:50Z</time>
      </trkpt>
      <trkpt lat="44.74474" lon="2.63771">
        <ele>632</ele>
        <time>2024-08-16T08:25:52Z</time>
      </trkpt>
      <trkpt lat="44.74455" lon="2.63763">
        <ele>628.5</ele>
        <time>2024-08-16T08:25:54Z</time>
      </trkpt>
      <trkpt lat="44.7444" lon="2.63754">
        <ele>625.1</ele>
        <time>2024-08-16T08:25:56Z</time>
      </trkpt>
      <trkpt lat="44.74426" lon="2.63746">
        <ele>621.5</ele>
        <time>2024-08-16T08:25:58Z</time>
      </trkpt>
      <trkpt lat="44.74418" lon="2.63742">
        <ele>619.8</ele>
        <time>2024-08-16T08:25:59Z</time>
      </trkpt>
      <trkpt lat="44.74411" lon="2.63738">
        <ele>618.3</ele>
        <time>2024-08-16T08:26:00Z</time>
      </trkpt>
      <trkpt lat="44.74396" lon="2.6373">
        <ele>615</ele>
        <time>2024-08-16T08:26:02Z</time>
      </trkpt>
      <trkpt lat="44.7438" lon="2.63723">
        <ele>612</ele>
        <time>2024-08-16T08:26:04Z</time>
      </trkpt>
      <trkpt lat="44.74372" lon="2.63719">
        <ele>610.6</ele>
        <time>2024-08-16T08:26:05Z</time>
      </trkpt>
      <trkpt lat="44.74363" lon="2.63717">
        <ele>609.1</ele>
        <time>2024-08-16T08:26:06Z</time>
      </trkpt>
      <trkpt lat="44.74346" lon="2.63717">
        <ele>606.2</ele>
        <time>2024-08-16T08:26:08Z</time>
      </trkpt>
      <trkpt lat="44.74338" lon="2.63719">
        <ele>604.8</ele>
        <time>2024-08-16T08:26:09Z</time>
      </trkpt>
      <trkpt lat="44.74329" lon="2.63722">
        <ele>603.5</ele>
        <time>2024-08-16T08:26:10Z</time>
      </trkpt>
      <trkpt lat="44.74311" lon="2.63726">
        <ele>601.2</ele>
        <time>2024-08-16T08:26:12Z</time>
      </trkpt>
      <trkpt lat="44.74303" lon="2.63727">
        <ele>600.2</ele>
        <time>2024-08-16T08:26:13Z</time>
      </trkpt>
      <trkpt lat="44.74295" lon="2.63726">
        <ele>599.1</ele>
        <time>2024-08-16T08:26:14Z</time>
      </trkpt>
      <trkpt lat="44.74288" lon="2.63724">
        <ele>597.8</ele>
        <time>2024-08-16T08:26:15Z</time>
      </trkpt>
      <trkpt lat="44.7428" lon="2.63721">
        <ele>596.1</ele>
        <time>2024-08-16T08:26:16Z</time>
      </trkpt>
      <trkpt lat="44.74266" lon="2.63715">
        <ele>592.7</ele>
        <time>2024-08-16T08:26:18Z</time>
      </trkpt>
      <trkpt lat="44.74254" lon="2.6371">
        <ele>589.5</ele>
        <time>2024-08-16T08:26:20Z</time>
      </trkpt>
      <trkpt lat="44.74248" lon="2.63707">
        <ele>587.9</ele>
        <time>2024-08-16T08:26:21Z</time>
      </trkpt>
      <trkpt lat="44.74242" lon="2.63705">
        <ele>586.3</ele>
        <time>2024-08-16T08:26:22Z</time>
      </trkpt>
      <trkpt lat="44.74231" lon="2.63701">
        <ele>583.2</ele>
        <time>2024-08-16T08:26:24Z</time>
      </trkpt>
      <trkpt lat="44.74218" lon="2.63696">
        <ele>579.7</ele>
        <time>2024-08-16T08:26:26Z</time>
      </trkpt>
      <trkpt lat="44.74206" lon="2.63691">
        <ele>576.3</ele>
        <time>2024-08-16T08:26:28Z</time>
      </trkpt>
      <trkpt lat="44.742" lon="2.63688">
        <ele>574.6</ele>
        <time>2024-08-16T08:26:29Z</time>
      </trkpt>
      <trkpt lat="44.74194" lon="2.63684">
        <ele>572.9</ele>
        <time>2024-08-16T08:26:30Z</time>
      </trkpt>
      <trkpt lat="44.74183" lon="2.63676">
        <ele>569.5</ele>
        <time>2024-08-16T08:26:32Z</time>
      </trkpt>
      <trkpt lat="44.74178" lon="2.63671">
        <ele>567.8</ele>
        <time>2024-08-16T08:26:33Z</time>
      </trkpt>
      <trkpt lat="44.74174" lon="2.63666">
        <ele>565.9</ele>
        <time>2024-08-16T08:26:34Z</time>
      </trkpt>
      <trkpt lat="44.74168" lon="2.6366">
        <ele>563.9</ele>
        <time>2024-08-16T08:26:35Z</time>
      </trkpt>
      <trkpt lat="44.74163" lon="2.63656">
        <ele>561.9</ele>
        <time>2024-08-16T08:26:36Z</time>
      </trkpt>
      <trkpt lat="44.74157" lon="2.63653">
        <ele>559.8</ele>
        <time>2024-08-16T08:26:37Z</time>
      </trkpt>
      <trkpt lat="44.74151" lon="2.63649">
        <ele>557.9</ele>
        <time>2024-08-16T08:26:38Z</time>
      </trkpt>
      <trkpt lat="44.74138" lon="2.63641">
        <ele>553.9</ele>
        <time>2024-08-16T08:26:40Z</time>
      </trkpt>
      <trkpt lat="44.74125" lon="2.63634">
        <ele>550.3</ele>
        <time>2024-08-16T08:26:42Z</time>
      </trkpt>
      <trkpt lat="44.74119" lon="2.63632">
        <ele>549.3</ele>
        <time>2024-08-16T08:26:43Z</time>
      </trkpt>
      <trkpt lat="44.74113" lon="2.6363">
        <ele>548.5</ele>
        <time>2024-08-16T08:26:44Z</time>
      </trkpt>
      <trkpt lat="44.74101" lon="2.63628">
        <ele>547</ele>
        <time>2024-08-16T08:26:46Z</time>
      </trkpt>
      <trkpt lat="44.74096" lon="2.63626">
        <ele>546.4</ele>
        <time>2024-08-16T08:26:47Z</time>
      </trkpt>
      <trkpt lat="44.74091" lon="2.63622">
        <ele>545.8</ele>
        <time>2024-08-16T08:26:48Z</time>
      </trkpt>
      <trkpt lat="44.74082" lon="2.63615">
        <ele>544.9</ele>
        <time>2024-08-16T08:26:50Z</time>
      </trkpt>
      <trkpt lat="44.74074" lon="2.63608">
        <ele>544</ele>
        <time>2024-08-16T08:26:52Z</time>
      </trkpt>
      <trkpt lat="44.74071" lon="2.63604">
        <ele>543.6</ele>
        <time>2024-08-16T08:26:53Z</time>
      </trkpt>
      <trkpt lat="44.74067" lon="2.63601">
        <ele>543.1</ele>
        <time>2024-08-16T08:26:54Z</time>
      </trkpt>
      <trkpt lat="44.7406" lon="2.63597">
        <ele>542.3</ele>
        <time>2024-08-16T08:26:56Z</time>
      </trkpt>
      <trkpt lat="44.74053" lon="2.63596">
        <ele>541.7</ele>
        <time>2024-08-16T08:26:58Z</time>
      </trkpt>
      <trkpt lat="44.74047" lon="2.63596">
        <ele>541.1</ele>
        <time>2024-08-16T08:27:00Z</time>
      </trkpt>
      <trkpt lat="44.74039" lon="2.63596">
        <ele>540.4</ele>
        <time>2024-08-16T08:27:02Z</time>
      </trkpt>
      <trkpt lat="44.74033" lon="2.63597">
        <ele>539.8</ele>
        <time>2024-08-16T08:27:04Z</time>
      </trkpt>
      <trkpt lat="44.7403" lon="2.63597">
        <ele>539.5</ele>
        <time>2024-08-16T08:27:05Z</time>
      </trkpt>
      <trkpt lat="44.74029" lon="2.63596">
        <ele>539.4</ele>
        <time>2024-08-16T08:27:06Z</time>
      </trkpt>
      <trkpt lat="44.74025" lon="2.63593">
        <ele>538.8</ele>
        <time>2024-08-16T08:27:08Z</time>
      </trkpt>
      <trkpt lat="44.74022" lon="2.63592">
        <ele>538.5</ele>
        <time>2024-08-16T08:27:09Z</time>
      </trkpt>
      <trkpt lat="44.7402" lon="2.6359">
        <ele>538.1</ele>
        <time>2024-08-16T08:27:10Z</time>
      </trkpt>
      <trkpt lat="44.74016" lon="2.63588">
        <ele>537.5</ele>
        <time>2024-08-16T08:27:12Z</time>
      </trkpt>
      <trkpt lat="44.74014" lon="2.63586">
        <ele>537.1</ele>
        <time>2024-08-16T08:27:14Z</time>
      </trkpt>
      <trkpt lat="44.74014" lon="2.63586">
        <ele>537.1</ele>
        <time>2024-08-16T08:27:15Z</time>
      </trkpt>
      <trkpt lat="44.74017" lon="2.63581">
        <ele>536.3</ele>
        <time>2024-08-16T08:28:39Z</time>
      </trkpt>
      <trkpt lat="44.74019" lon="2.63577">
        <ele>535.9</ele>
        <time>2024-08-16T08:28:40Z</time>
      </trkpt>
      <trkpt lat="44.74022" lon="2.63575">
        <ele>535.4</ele>
        <time>2024-08-16T08:28:41Z</time>
      </trkpt>
      <trkpt lat="44.74024" lon="2.63573">
        <ele>534.9</ele>
        <time>2024-08-16T08:28:42Z</time>
      </trkpt>
      <trkpt lat="44.74027" lon="2.63572">
        <ele>534.5</ele>
        <time>2024-08-16T08:28:43Z</time>
      </trkpt>
      <trkpt lat="44.74029" lon="2.63569">
        <ele>534</ele>
        <time>2024-08-16T08:28:44Z</time>
      </trkpt>
      <trkpt lat="44.74028" lon="2.63561">
        <ele>533.2</ele>
        <time>2024-08-16T08:28:46Z</time>
      </trkpt>
      <trkpt lat="44.74023" lon="2.63556">
        <ele>532.3</ele>
        <time>2024-08-16T08:28:48Z</time>
      </trkpt>
      <trkpt lat="44.7402" lon="2.63554">
        <ele>531.8</ele>
        <time>2024-08-16T08:28:50Z</time>
      </trkpt>
      <trkpt lat="44.74019" lon="2.63554">
        <ele>531.7</ele>
        <time>2024-08-16T08:28:52Z</time>
      </trkpt>
      <trkpt lat="44.74015" lon="2.63552">
        <ele>531.3</ele>
        <time>2024-08-16T08:29:37Z</time>
      </trkpt>
      <trkpt lat="44.74013" lon="2.6355">
        <ele>531</ele>
        <time>2024-08-16T08:29:38Z</time>
      </trkpt>
      <trkpt lat="44.74008" lon="2.63545">
        <ele>530.4</ele>
        <time>2024-08-16T08:29:40Z</time>
      </trkpt>
      <trkpt lat="44.74006" lon="2.63543">
        <ele>530.2</ele>
        <time>2024-08-16T08:29:41Z</time>
      </trkpt>
      <trkpt lat="44.74004" lon="2.63542">
        <ele>530</ele>
        <time>2024-08-16T08:29:42Z</time>
      </trkpt>
      <trkpt lat="44.74002" lon="2.6354">
        <ele>529.9</ele>
        <time>2024-08-16T08:29:44Z</time>
      </trkpt>
      <trkpt lat="44.74" lon="2.63544">
        <ele>529.7</ele>
        <time>2024-08-16T08:30:44Z</time>
      </trkpt>
      <trkpt lat="44.74" lon="2.63539">
        <ele>529.2</ele>
        <time>2024-08-16T08:30:46Z</time>
      </trkpt>
      <trkpt lat="44.73998" lon="2.63537">
        <ele>528.7</ele>
        <time>2024-08-16T08:30:47Z</time>
      </trkpt>
      <trkpt lat="44.73995" lon="2.63534">
        <ele>528.2</ele>
        <time>2024-08-16T08:30:48Z</time>
      </trkpt>
      <trkpt lat="44.73989" lon="2.63528">
        <ele>527.1</ele>
        <time>2024-08-16T08:30:50Z</time>
      </trkpt>
      <trkpt lat="44.73981" lon="2.63521">
        <ele>526</ele>
        <time>2024-08-16T08:30:52Z</time>
      </trkpt>
      <trkpt lat="44.73974" lon="2.63512">
        <ele>524.9</ele>
        <time>2024-08-16T08:30:54Z</time>
      </trkpt>
      <trkpt lat="44.73969" lon="2.63509">
        <ele>525.1</ele>
        <time>2024-08-16T08:30:55Z</time>
      </trkpt>
      <trkpt lat="44.73965" lon="2.63506">
        <ele>525.4</ele>
        <time>2024-08-16T08:30:56Z</time>
      </trkpt>
      <trkpt lat="44.7396" lon="2.63503">
        <ele>525.6</ele>
        <time>2024-08-16T08:30:57Z</time>
      </trkpt>
      <trkpt lat="44.73956" lon="2.63501">
        <ele>524.3</ele>
        <time>2024-08-16T08:30:58Z</time>
      </trkpt>
      <trkpt lat="44.73951" lon="2.63499">
        <ele>522.1</ele>
        <time>2024-08-16T08:30:59Z</time>
      </trkpt>
      <trkpt lat="44.73947" lon="2.63497">
        <ele>520.2</ele>
        <time>2024-08-16T08:31:00Z</time>
      </trkpt>
      <trkpt lat="44.73942" lon="2.63494">
        <ele>520.8</ele>
        <time>2024-08-16T08:31:01Z</time>
      </trkpt>
      <trkpt lat="44.73938" lon="2.63491">
        <ele>521.5</ele>
        <time>2024-08-16T08:31:02Z</time>
      </trkpt>
      <trkpt lat="44.73934" lon="2.63487">
        <ele>522.2</ele>
        <time>2024-08-16T08:31:03Z</time>
      </trkpt>
      <trkpt lat="44.73931" lon="2.63485">
        <ele>522.8</ele>
        <time>2024-08-16T08:31:04Z</time>
      </trkpt>
      <trkpt lat="44.73925" lon="2.63481">
        <ele>523.3</ele>
        <time>2024-08-16T08:31:06Z</time>
      </trkpt>
      <trkpt lat="44.73921" lon="2.63479">
        <ele>523.3</ele>
        <time>2024-08-16T08:31:08Z</time>
      </trkpt>
      <trkpt lat="44.73919" lon="2.63476">
        <ele>523.4</ele>
        <time>2024-08-16T08:31:10Z</time>
      </trkpt>
      <trkpt lat="44.73917" lon="2.63473">
        <ele>523.4</ele>
        <time>2024-08-16T08:31:12Z</time>
      </trkpt>
      <trkpt lat="44.73914" lon="2.63471">
        <ele>523.4</ele>
        <time>2024-08-16T08:31:14Z</time>
      </trkpt>
      <trkpt lat="44.73911" lon="2.63469">
        <ele>523.5</ele>
        <time>2024-08-16T08:31:16Z</time>
      </trkpt>
      <trkpt lat="44.73909" lon="2.63467">
        <ele>523.5</ele>
        <time>2024-08-16T08:31:18Z</time>
      </trkpt>
      <trkpt lat="44.73907" lon="2.63464">
        <ele>523.6</ele>
        <time>2024-08-16T08:31:20Z</time>
      </trkpt>
      <trkpt lat="44.73906" lon="2.63463">
        <ele>523.6</ele>
        <time>2024-08-16T08:31:21Z</time>
      </trkpt>
      <trkpt lat="44.73904" lon="2.63462">
        <ele>523.6</ele>
        <time>2024-08-16T08:31:22Z</time>
      </trkpt>
      <trkpt lat="44.73902" lon="2.63459">
        <ele>523.6</ele>
        <time>2024-08-16T08:31:24Z</time>
      </trkpt>
      <trkpt lat="44.739" lon="2.63457">
        <ele>523.7</ele>
        <time>2024-08-16T08:31:26Z</time>
      </trkpt>
      <trkpt lat="44.73897" lon="2.63455">
        <ele>523.7</ele>
        <time>2024-08-16T08:31:28Z</time>
      </trkpt>
      <trkpt lat="44.73895" lon="2.63453">
        <ele>523.8</ele>
        <time>2024-08-16T08:31:30Z</time>
      </trkpt>
      <trkpt lat="44.73892" lon="2.63451">
        <ele>523.8</ele>
        <time>2024-08-16T08:31:32Z</time>
      </trkpt>
      <trkpt lat="44.7389" lon="2.63448">
        <ele>523.9</ele>
        <time>2024-08-16T08:31:34Z</time>
      </trkpt>
      <trkpt lat="44.73888" lon="2.63445">
        <ele>524</ele>
        <time>2024-08-16T08:31:36Z</time>
      </trkpt>
      <trkpt lat="44.73885" lon="2.63443">
        <ele>524</ele>
        <time>2024-08-16T08:31:38Z</time>
      </trkpt>
      <trkpt lat="44.73883" lon="2.63441">
        <ele>524.1</ele>
        <time>2024-08-16T08:31:40Z</time>
      </trkpt>
      <trkpt lat="44.7388" lon="2.6344">
        <ele>524.2</ele>
        <time>2024-08-16T08:31:42Z</time>
      </trkpt>
      <trkpt lat="44.73878" lon="2.63439">
        <ele>524.2</ele>
        <time>2024-08-16T08:31:44Z</time>
      </trkpt>
      <trkpt lat="44.73876" lon="2.63437">
        <ele>524.3</ele>
        <time>2024-08-16T08:31:46Z</time>
      </trkpt>
      <trkpt lat="44.73874" lon="2.63436">
        <ele>524.4</ele>
        <time>2024-08-16T08:31:48Z</time>
      </trkpt>
      <trkpt lat="44.73872" lon="2.63435">
        <ele>524.4</ele>
        <time>2024-08-16T08:31:50Z</time>
      </trkpt>
      <trkpt lat="44.73871" lon="2.63434">
        <ele>524.4</ele>
        <time>2024-08-16T08:31:51Z</time>
      </trkpt>
      <trkpt lat="44.73871" lon="2.63433">
        <ele>524.5</ele>
        <time>2024-08-16T08:31:52Z</time>
      </trkpt>
      <trkpt lat="44.73869" lon="2.63431">
        <ele>524.5</ele>
        <time>2024-08-16T08:31:54Z</time>
      </trkpt>
      <trkpt lat="44.73868" lon="2.63429">
        <ele>524.6</ele>
        <time>2024-08-16T08:31:55Z</time>
      </trkpt>
      <trkpt lat="44.73867" lon="2.63429">
        <ele>524.6</ele>
        <time>2024-08-16T08:31:56Z</time>
      </trkpt>
      <trkpt lat="44.73867" lon="2.63427">
        <ele>524.6</ele>
        <time>2024-08-16T08:31:57Z</time>
      </trkpt>
      <trkpt lat="44.73866" lon="2.63426">
        <ele>524.6</ele>
        <time>2024-08-16T08:31:58Z</time>
      </trkpt>
      <trkpt lat="44.73866" lon="2.63424">
        <ele>524.7</ele>
        <time>2024-08-16T08:31:59Z</time>
      </trkpt>
      <trkpt lat="44.73866" lon="2.63423">
        <ele>524.7</ele>
        <time>2024-08-16T08:32:00Z</time>
      </trkpt>
      <trkpt lat="44.73866" lon="2.63422">
        <ele>524.7</ele>
        <time>2024-08-16T08:32:01Z</time>
      </trkpt>
      <trkpt lat="44.73865" lon="2.6342">
        <ele>524.8</ele>
        <time>2024-08-16T08:32:02Z</time>
      </trkpt>
      <trkpt lat="44.73864" lon="2.63419">
        <ele>524.8</ele>
        <time>2024-08-16T08:32:03Z</time>
      </trkpt>
      <trkpt lat="44.73866" lon="2.63425">
        <ele>524.9</ele>
        <time>2024-08-16T08:33:53Z</time>
      </trkpt>
      <trkpt lat="44.73865" lon="2.63423">
        <ele>525</ele>
        <time>2024-08-16T08:33:54Z</time>
      </trkpt>
      <trkpt lat="44.73862" lon="2.63419">
        <ele>525</ele>
        <time>2024-08-16T08:33:56Z</time>
      </trkpt>
      <trkpt lat="44.73859" lon="2.63417">
        <ele>525.1</ele>
        <time>2024-08-16T08:33:58Z</time>
      </trkpt>
      <trkpt lat="44.73855" lon="2.63414">
        <ele>525.1</ele>
        <time>2024-08-16T08:34:00Z</time>
      </trkpt>
      <trkpt lat="44.73852" lon="2.6341">
        <ele>525</ele>
        <time>2024-08-16T08:34:02Z</time>
      </trkpt>
      <trkpt lat="44.7385" lon="2.63408">
        <ele>525</ele>
        <time>2024-08-16T08:34:03Z</time>
      </trkpt>
      <trkpt lat="44.73849" lon="2.63405">
        <ele>524.9</ele>
        <time>2024-08-16T08:34:04Z</time>
      </trkpt>
      <trkpt lat="44.73846" lon="2.63399">
        <ele>524.8</ele>
        <time>2024-08-16T08:34:06Z</time>
      </trkpt>
      <trkpt lat="44.73845" lon="2.63396">
        <ele>524.8</ele>
        <time>2024-08-16T08:34:07Z</time>
      </trkpt>
      <trkpt lat="44.73843" lon="2.63392">
        <ele>524.7</ele>
        <time>2024-08-16T08:34:08Z</time>
      </trkpt>
      <trkpt lat="44.73841" lon="2.63388">
        <ele>524.6</ele>
        <time>2024-08-16T08:34:09Z</time>
      </trkpt>
      <trkpt lat="44.73839" lon="2.63385">
        <ele>524.6</ele>
        <time>2024-08-16T08:34:10Z</time>
      </trkpt>
      <trkpt lat="44.73836" lon="2.63382">
        <ele>524.6</ele>
        <time>2024-08-16T08:34:11Z</time>
      </trkpt>
      <trkpt lat="44.73834" lon="2.63379">
        <ele>524.6</ele>
        <time>2024-08-16T08:34:12Z</time>
      </trkpt>
      <trkpt lat="44.7383" lon="2.63374">
        <ele>524.7</ele>
        <time>2024-08-16T08:34:14Z</time>
      </trkpt>
      <trkpt lat="44.73828" lon="2.63372">
        <ele>524.8</ele>
        <time>2024-08-16T08:34:15Z</time>
      </trkpt>
      <trkpt lat="44.73825" lon="2.63369">
        <ele>524.9</ele>
        <time>2024-08-16T08:34:16Z</time>
      </trkpt>
      <trkpt lat="44.7382" lon="2.63365">
        <ele>525.3</ele>
        <time>2024-08-16T08:34:18Z</time>
      </trkpt>
      <trkpt lat="44.73815" lon="2.63361">
        <ele>525.7</ele>
        <time>2024-08-16T08:34:20Z</time>
      </trkpt>
      <trkpt lat="44.73811" lon="2.63359">
        <ele>526</ele>
        <time>2024-08-16T08:34:22Z</time>
      </trkpt>
      <trkpt lat="44.73809" lon="2.63358">
        <ele>526.1</ele>
        <time>2024-08-16T08:34:23Z</time>
      </trkpt>
      <trkpt lat="44.73808" lon="2.63357">
        <ele>526.1</ele>
        <time>2024-08-16T08:34:24Z</time>
      </trkpt>
      <trkpt lat="44.73805" lon="2.63357">
        <ele>526.3</ele>
        <time>2024-08-16T08:34:26Z</time>
      </trkpt>
      <trkpt lat="44.73802" lon="2.63353">
        <ele>526.5</ele>
        <time>2024-08-16T08:34:28Z</time>
      </trkpt>
      <trkpt lat="44.73799" lon="2.63349">
        <ele>526.7</ele>
        <time>2024-08-16T08:34:30Z</time>
      </trkpt>
      <trkpt lat="44.73796" lon="2.63344">
        <ele>526.9</ele>
        <time>2024-08-16T08:34:32Z</time>
      </trkpt>
      <trkpt lat="44.73792" lon="2.63338">
        <ele>527.2</ele>
        <time>2024-08-16T08:34:34Z</time>
      </trkpt>
      <trkpt lat="44.73787" lon="2.63332">
        <ele>527.6</ele>
        <time>2024-08-16T08:34:36Z</time>
      </trkpt>
      <trkpt lat="44.73782" lon="2.6333">
        <ele>527.9</ele>
        <time>2024-08-16T08:34:38Z</time>
      </trkpt>
      <trkpt lat="44.73777" lon="2.63332">
        <ele>528.2</ele>
        <time>2024-08-16T08:34:40Z</time>
      </trkpt>
      <trkpt lat="44.73775" lon="2.63333">
        <ele>528.5</ele>
        <time>2024-08-16T08:34:42Z</time>
      </trkpt>
      <trkpt lat="44.73773" lon="2.63334">
        <ele>528.6</ele>
        <time>2024-08-16T08:34:44Z</time>
      </trkpt>
      <trkpt lat="44.7377" lon="2.63335">
        <ele>528.8</ele>
        <time>2024-08-16T08:34:46Z</time>
      </trkpt>
      <trkpt lat="44.7377" lon="2.63334">
        <ele>528.9</ele>
        <time>2024-08-16T08:34:47Z</time>
      </trkpt>
      <trkpt lat="44.73769" lon="2.63334">
        <ele>528.9</ele>
        <time>2024-08-16T08:34:48Z</time>
      </trkpt>
      <trkpt lat="44.73768" lon="2.63335">
        <ele>528.9</ele>
        <time>2024-08-16T08:34:49Z</time>
      </trkpt>
      <trkpt lat="44.73768" lon="2.63336">
        <ele>528.8</ele>
        <time>2024-08-16T08:34:50Z</time>
      </trkpt>
      <trkpt lat="44.73769" lon="2.63337">
        <ele>528.7</ele>
        <time>2024-08-16T08:34:51Z</time>
      </trkpt>
      <trkpt lat="44.7377" lon="2.63337">
        <ele>528.6</ele>
        <time>2024-08-16T08:34:52Z</time>
      </trkpt>
      <trkpt lat="44.73772" lon="2.63336">
        <ele>528.5</ele>
        <time>2024-08-16T08:34:53Z</time>
      </trkpt>
      <trkpt lat="44.73774" lon="2.63335">
        <ele>528.3</ele>
        <time>2024-08-16T08:34:54Z</time>
      </trkpt>
      <trkpt lat="44.73777" lon="2.63333">
        <ele>528.1</ele>
        <time>2024-08-16T08:34:55Z</time>
      </trkpt>
      <trkpt lat="44.7378" lon="2.63333">
        <ele>527.9</ele>
        <time>2024-08-16T08:34:56Z</time>
      </trkpt>
      <trkpt lat="44.73787" lon="2.63335">
        <ele>527.5</ele>
        <time>2024-08-16T08:34:58Z</time>
      </trkpt>
      <trkpt lat="44.7379" lon="2.63338">
        <ele>527.3</ele>
        <time>2024-08-16T08:34:59Z</time>
      </trkpt>
      <trkpt lat="44.73793" lon="2.63342">
        <ele>527.1</ele>
        <time>2024-08-16T08:35:00Z</time>
      </trkpt>
      <trkpt lat="44.73798" lon="2.6335">
        <ele>526.7</ele>
        <time>2024-08-16T08:35:02Z</time>
      </trkpt>
      <trkpt lat="44.73802" lon="2.63355">
        <ele>526.5</ele>
        <time>2024-08-16T08:35:04Z</time>
      </trkpt>
      <trkpt lat="44.73805" lon="2.6336">
        <ele>526.3</ele>
        <time>2024-08-16T08:35:06Z</time>
      </trkpt>
      <trkpt lat="44.73806" lon="2.63362">
        <ele>526.2</ele>
        <time>2024-08-16T08:35:07Z</time>
      </trkpt>
      <trkpt lat="44.73806" lon="2.63365">
        <ele>526.1</ele>
        <time>2024-08-16T08:35:08Z</time>
      </trkpt>
      <trkpt lat="44.73806" lon="2.63366">
        <ele>526.1</ele>
        <time>2024-08-16T08:35:09Z</time>
      </trkpt>
      <trkpt lat="44.73806" lon="2.63368">
        <ele>526</ele>
        <time>2024-08-16T08:35:10Z</time>
      </trkpt>
      <trkpt lat="44.73807" lon="2.63371">
        <ele>525.9</ele>
        <time>2024-08-16T08:35:12Z</time>
      </trkpt>
      <trkpt lat="44.73808" lon="2.63372">
        <ele>525.8</ele>
        <time>2024-08-16T08:35:13Z</time>
      </trkpt>
      <trkpt lat="44.73809" lon="2.63374">
        <ele>525.7</ele>
        <time>2024-08-16T08:35:14Z</time>
      </trkpt>
      <trkpt lat="44.73808" lon="2.63375">
        <ele>525.6</ele>
        <time>2024-08-16T08:35:15Z</time>
      </trkpt>
      <trkpt lat="44.7381" lon="2.63378">
        <ele>525.5</ele>
        <time>2024-08-16T08:35:16Z</time>
      </trkpt>
      <trkpt lat="44.73811" lon="2.6338">
        <ele>525.3</ele>
        <time>2024-08-16T08:35:17Z</time>
      </trkpt>
      <trkpt lat="44.73813" lon="2.63382">
        <ele>525.2</ele>
        <time>2024-08-16T08:35:18Z</time>
      </trkpt>
      <trkpt lat="44.73815" lon="2.63385">
        <ele>524.9</ele>
        <time>2024-08-16T08:35:20Z</time>
      </trkpt>
      <trkpt lat="44.73818" lon="2.63389">
        <ele>524.8</ele>
        <time>2024-08-16T08:35:22Z</time>
      </trkpt>
      <trkpt lat="44.7382" lon="2.63392">
        <ele>524.7</ele>
        <time>2024-08-16T08:35:24Z</time>
      </trkpt>
      <trkpt lat="44.73822" lon="2.63396">
        <ele>524.6</ele>
        <time>2024-08-16T08:35:26Z</time>
      </trkpt>
      <trkpt lat="44.73824" lon="2.63397">
        <ele>524.6</ele>
        <time>2024-08-16T08:35:27Z</time>
      </trkpt>
      <trkpt lat="44.73825" lon="2.63398">
        <ele>524.6</ele>
        <time>2024-08-16T08:35:28Z</time>
      </trkpt>
      <trkpt lat="44.73827" lon="2.63401">
        <ele>524.6</ele>
        <time>2024-08-16T08:35:30Z</time>
      </trkpt>
      <trkpt lat="44.73829" lon="2.63402">
        <ele>524.6</ele>
        <time>2024-08-16T08:35:31Z</time>
      </trkpt>
      <trkpt lat="44.7383" lon="2.63403">
        <ele>524.6</ele>
        <time>2024-08-16T08:35:32Z</time>
      </trkpt>
      <trkpt lat="44.73831" lon="2.63405">
        <ele>524.6</ele>
        <time>2024-08-16T08:35:33Z</time>
      </trkpt>
      <trkpt lat="44.73833" lon="2.63406">
        <ele>524.6</ele>
        <time>2024-08-16T08:35:34Z</time>
      </trkpt>
      <trkpt lat="44.73835" lon="2.63409">
        <ele>524.7</ele>
        <time>2024-08-16T08:35:36Z</time>
      </trkpt>
      <trkpt lat="44.73836" lon="2.63411">
        <ele>524.8</ele>
        <time>2024-08-16T08:35:38Z</time>
      </trkpt>
      <trkpt lat="44.73837" lon="2.63413">
        <ele>524.8</ele>
        <time>2024-08-16T08:35:40Z</time>
      </trkpt>
      <trkpt lat="44.73837" lon="2.63414">
        <ele>524.8</ele>
        <time>2024-08-16T08:35:41Z</time>
      </trkpt>
      <trkpt lat="44.73838" lon="2.63416">
        <ele>524.9</ele>
        <time>2024-08-16T08:35:42Z</time>
      </trkpt>
      <trkpt lat="44.73841" lon="2.63419">
        <ele>524.9</ele>
        <time>2024-08-16T08:35:44Z</time>
      </trkpt>
      <trkpt lat="44.73843" lon="2.63425">
        <ele>525</ele>
        <time>2024-08-16T08:35:46Z</time>
      </trkpt>
      <trkpt lat="44.73844" lon="2.63428">
        <ele>525</ele>
        <time>2024-08-16T08:35:47Z</time>
      </trkpt>
      <trkpt lat="44.73845" lon="2.63429">
        <ele>525</ele>
        <time>2024-08-16T08:35:48Z</time>
      </trkpt>
      <trkpt lat="44.73845" lon="2.63429">
        <ele>525.1</ele>
        <time>2024-08-16T08:35:49Z</time>
      </trkpt>
      <trkpt lat="44.73842" lon="2.63425">
        <ele>525</ele>
        <time>2024-08-16T08:37:20Z</time>
      </trkpt>
      <trkpt lat="44.73842" lon="2.63423">
        <ele>525</ele>
        <time>2024-08-16T08:37:21Z</time>
      </trkpt>
      <trkpt lat="44.73842" lon="2.63422">
        <ele>525</ele>
        <time>2024-08-16T08:37:22Z</time>
      </trkpt>
      <trkpt lat="44.73842" lon="2.63419">
        <ele>525</ele>
        <time>2024-08-16T08:37:24Z</time>
      </trkpt>
      <trkpt lat="44.73842" lon="2.63417">
        <ele>525</ele>
        <time>2024-08-16T08:37:26Z</time>
      </trkpt>
      <trkpt lat="44.73841" lon="2.63417">
        <ele>525</ele>
        <time>2024-08-16T08:37:27Z</time>
      </trkpt>
      <trkpt lat="44.73813" lon="2.63418">
        <ele>524.7</ele>
        <time>2024-08-16T08:44:30Z</time>
      </trkpt>
      <trkpt lat="44.73818" lon="2.6342">
        <ele>524.6</ele>
        <time>2024-08-16T08:44:32Z</time>
      </trkpt>
      <trkpt lat="44.73824" lon="2.63417">
        <ele>524.6</ele>
        <time>2024-08-16T08:44:34Z</time>
      </trkpt>
      <trkpt lat="44.73829" lon="2.63412">
        <ele>524.6</ele>
        <time>2024-08-16T08:44:36Z</time>
      </trkpt>
      <trkpt lat="44.73833" lon="2.63406">
        <ele>524.6</ele>
        <time>2024-08-16T08:44:38Z</time>
      </trkpt>
      <trkpt lat="44.73833" lon="2.63403">
        <ele>524.6</ele>
        <time>2024-08-16T08:44:39Z</time>
      </trkpt>
      <trkpt lat="44.73832" lon="2.634">
        <ele>524.6</ele>
        <time>2024-08-16T08:44:40Z</time>
      </trkpt>
      <trkpt lat="44.7383" lon="2.63397">
        <ele>524.6</ele>
        <time>2024-08-16T08:44:41Z</time>
      </trkpt>
      <trkpt lat="44.73828" lon="2.63395">
        <ele>524.7</ele>
        <time>2024-08-16T08:44:42Z</time>
      </trkpt>
      <trkpt lat="44.73826" lon="2.63392">
        <ele>524.7</ele>
        <time>2024-08-16T08:44:43Z</time>
      </trkpt>
      <trkpt lat="44.73824" lon="2.63389">
        <ele>524.7</ele>
        <time>2024-08-16T08:44:44Z</time>
      </trkpt>
      <trkpt lat="44.73821" lon="2.63385">
        <ele>524.8</ele>
        <time>2024-08-16T08:44:45Z</time>
      </trkpt>
      <trkpt lat="44.73819" lon="2.63381">
        <ele>524.8</ele>
        <time>2024-08-16T08:44:46Z</time>
      </trkpt>
      <trkpt lat="44.73815" lon="2.63375">
        <ele>525.3</ele>
        <time>2024-08-16T08:44:48Z</time>
      </trkpt>
      <trkpt lat="44.73813" lon="2.63372">
        <ele>525.5</ele>
        <time>2024-08-16T08:44:49Z</time>
      </trkpt>
      <trkpt lat="44.73811" lon="2.63369">
        <ele>525.7</ele>
        <time>2024-08-16T08:44:50Z</time>
      </trkpt>
      <trkpt lat="44.73808" lon="2.63364">
        <ele>526</ele>
        <time>2024-08-16T08:44:52Z</time>
      </trkpt>
      <trkpt lat="44.73806" lon="2.63356">
        <ele>526.3</ele>
        <time>2024-08-16T08:44:54Z</time>
      </trkpt>
      <trkpt lat="44.73803" lon="2.63352">
        <ele>526.5</ele>
        <time>2024-08-16T08:44:55Z</time>
      </trkpt>
      <trkpt lat="44.738" lon="2.63347">
        <ele>526.7</ele>
        <time>2024-08-16T08:44:56Z</time>
      </trkpt>
      <trkpt lat="44.73794" lon="2.6334">
        <ele>527.1</ele>
        <time>2024-08-16T08:44:58Z</time>
      </trkpt>
      <trkpt lat="44.73789" lon="2.63333">
        <ele>527.4</ele>
        <time>2024-08-16T08:45:00Z</time>
      </trkpt>
      <trkpt lat="44.73785" lon="2.63329">
        <ele>527.8</ele>
        <time>2024-08-16T08:45:02Z</time>
      </trkpt>
      <trkpt lat="44.7378" lon="2.6333">
        <ele>528</ele>
        <time>2024-08-16T08:45:04Z</time>
      </trkpt>
      <trkpt lat="44.73776" lon="2.63332">
        <ele>528.4</ele>
        <time>2024-08-16T08:45:06Z</time>
      </trkpt>
      <trkpt lat="44.73773" lon="2.63335">
        <ele>528.7</ele>
        <time>2024-08-16T08:45:08Z</time>
      </trkpt>
      <trkpt lat="44.73768" lon="2.63337">
        <ele>529.1</ele>
        <time>2024-08-16T08:45:10Z</time>
      </trkpt>
      <trkpt lat="44.73764" lon="2.63338">
        <ele>529.5</ele>
        <time>2024-08-16T08:45:12Z</time>
      </trkpt>
      <trkpt lat="44.7376" lon="2.63341">
        <ele>529.9</ele>
        <time>2024-08-16T08:45:14Z</time>
      </trkpt>
      <trkpt lat="44.73756" lon="2.63342">
        <ele>530.3</ele>
        <time>2024-08-16T08:45:16Z</time>
      </trkpt>
      <trkpt lat="44.73754" lon="2.63342">
        <ele>530.5</ele>
        <time>2024-08-16T08:45:17Z</time>
      </trkpt>
      <trkpt lat="44.73753" lon="2.63342">
        <ele>530.7</ele>
        <time>2024-08-16T08:45:18Z</time>
      </trkpt>
      <trkpt lat="44.73749" lon="2.6334">
        <ele>530.7</ele>
        <time>2024-08-16T08:45:20Z</time>
      </trkpt>
      <trkpt lat="44.73745" lon="2.63339">
        <ele>530.7</ele>
        <time>2024-08-16T08:45:22Z</time>
      </trkpt>
      <trkpt lat="44.73741" lon="2.63336">
        <ele>530.7</ele>
        <time>2024-08-16T08:45:24Z</time>
      </trkpt>
      <trkpt lat="44.73739" lon="2.63335">
        <ele>530.7</ele>
        <time>2024-08-16T08:45:25Z</time>
      </trkpt>
      <trkpt lat="44.73736" lon="2.63334">
        <ele>530.6</ele>
        <time>2024-08-16T08:45:26Z</time>
      </trkpt>
      <trkpt lat="44.73731" lon="2.6333">
        <ele>530.6</ele>
        <time>2024-08-16T08:45:28Z</time>
      </trkpt>
      <trkpt lat="44.73728" lon="2.63328">
        <ele>530.6</ele>
        <time>2024-08-16T08:45:29Z</time>
      </trkpt>
      <trkpt lat="44.73726" lon="2.63326">
        <ele>530.6</ele>
        <time>2024-08-16T08:45:30Z</time>
      </trkpt>
      <trkpt lat="44.73722" lon="2.63322">
        <ele>530.6</ele>
        <time>2024-08-16T08:45:32Z</time>
      </trkpt>
      <trkpt lat="44.73719" lon="2.63318">
        <ele>530.7</ele>
        <time>2024-08-16T08:45:34Z</time>
      </trkpt>
      <trkpt lat="44.73715" lon="2.63314">
        <ele>530.8</ele>
        <time>2024-08-16T08:45:36Z</time>
      </trkpt>
      <trkpt lat="44.7371" lon="2.6331">
        <ele>530.9</ele>
        <time>2024-08-16T08:45:38Z</time>
      </trkpt>
      <trkpt lat="44.73707" lon="2.63307">
        <ele>531</ele>
        <time>2024-08-16T08:45:39Z</time>
      </trkpt>
      <trkpt lat="44.73705" lon="2.63303">
        <ele>531.1</ele>
        <time>2024-08-16T08:45:40Z</time>
      </trkpt>
      <trkpt lat="44.73703" lon="2.63297">
        <ele>531.2</ele>
        <time>2024-08-16T08:45:42Z</time>
      </trkpt>
      <trkpt lat="44.73701" lon="2.63294">
        <ele>531.2</ele>
        <time>2024-08-16T08:45:43Z</time>
      </trkpt>
      <trkpt lat="44.737" lon="2.63292">
        <ele>531.3</ele>
        <time>2024-08-16T08:45:44Z</time>
      </trkpt>
      <trkpt lat="44.73696" lon="2.63287">
        <ele>531.2</ele>
        <time>2024-08-16T08:45:46Z</time>
      </trkpt>
      <trkpt lat="44.73692" lon="2.63279">
        <ele>530.9</ele>
        <time>2024-08-16T08:45:48Z</time>
      </trkpt>
      <trkpt lat="44.73686" lon="2.6327">
        <ele>530.5</ele>
        <time>2024-08-16T08:45:50Z</time>
      </trkpt>
      <trkpt lat="44.73681" lon="2.63263">
        <ele>530.1</ele>
        <time>2024-08-16T08:45:52Z</time>
      </trkpt>
      <trkpt lat="44.73678" lon="2.63259">
        <ele>529.9</ele>
        <time>2024-08-16T08:45:53Z</time>
      </trkpt>
      <trkpt lat="44.73675" lon="2.63256">
        <ele>529.8</ele>
        <time>2024-08-16T08:45:54Z</time>
      </trkpt>
      <trkpt lat="44.7367" lon="2.6325">
        <ele>529.4</ele>
        <time>2024-08-16T08:45:56Z</time>
      </trkpt>
      <trkpt lat="44.73663" lon="2.63244">
        <ele>528.9</ele>
        <time>2024-08-16T08:45:58Z</time>
      </trkpt>
      <trkpt lat="44.7366" lon="2.63241">
        <ele>528.7</ele>
        <time>2024-08-16T08:45:59Z</time>
      </trkpt>
      <trkpt lat="44.73657" lon="2.63238">
        <ele>528.4</ele>
        <time>2024-08-16T08:46:00Z</time>
      </trkpt>
      <trkpt lat="44.73654" lon="2.63234">
        <ele>528.2</ele>
        <time>2024-08-16T08:46:01Z</time>
      </trkpt>
      <trkpt lat="44.73651" lon="2.63231">
        <ele>528</ele>
        <time>2024-08-16T08:46:02Z</time>
      </trkpt>
      <trkpt lat="44.73646" lon="2.63225">
        <ele>527.7</ele>
        <time>2024-08-16T08:46:04Z</time>
      </trkpt>
      <trkpt lat="44.73644" lon="2.63221">
        <ele>527.5</ele>
        <time>2024-08-16T08:46:05Z</time>
      </trkpt>
      <trkpt lat="44.73642" lon="2.63218">
        <ele>527.3</ele>
        <time>2024-08-16T08:46:06Z</time>
      </trkpt>
      <trkpt lat="44.73638" lon="2.63212">
        <ele>526.7</ele>
        <time>2024-08-16T08:46:08Z</time>
      </trkpt>
      <trkpt lat="44.73634" lon="2.63208">
        <ele>526.3</ele>
        <time>2024-08-16T08:46:10Z</time>
      </trkpt>
      <trkpt lat="44.73632" lon="2.63207">
        <ele>526</ele>
        <time>2024-08-16T08:46:11Z</time>
      </trkpt>
      <trkpt lat="44.73631" lon="2.63206">
        <ele>525.9</ele>
        <time>2024-08-16T08:46:12Z</time>
      </trkpt>
      <trkpt lat="44.73631" lon="2.63205">
        <ele>525.8</ele>
        <time>2024-08-16T08:46:13Z</time>
      </trkpt>
      <trkpt lat="44.73631" lon="2.63205">
        <ele>525.8</ele>
        <time>2024-08-16T08:46:14Z</time>
      </trkpt>
      <trkpt lat="44.73636" lon="2.63206">
        <ele>526.4</ele>
        <time>2024-08-16T08:48:16Z</time>
      </trkpt>
      <trkpt lat="44.7364" lon="2.6321">
        <ele>526.9</ele>
        <time>2024-08-16T08:48:18Z</time>
      </trkpt>
      <trkpt lat="44.73642" lon="2.63216">
        <ele>527.2</ele>
        <time>2024-08-16T08:48:20Z</time>
      </trkpt>
      <trkpt lat="44.73643" lon="2.63218">
        <ele>527.4</ele>
        <time>2024-08-16T08:48:21Z</time>
      </trkpt>
      <trkpt lat="44.73644" lon="2.63221">
        <ele>527.5</ele>
        <time>2024-08-16T08:48:22Z</time>
      </trkpt>
      <trkpt lat="44.73647" lon="2.63224">
        <ele>527.8</ele>
        <time>2024-08-16T08:48:24Z</time>
      </trkpt>
      <trkpt lat="44.7365" lon="2.63228">
        <ele>528</ele>
        <time>2024-08-16T08:48:26Z</time>
      </trkpt>
      <trkpt lat="44.73652" lon="2.6323">
        <ele>528.1</ele>
        <time>2024-08-16T08:48:27Z</time>
      </trkpt>
      <trkpt lat="44.73653" lon="2.63232">
        <ele>528.2</ele>
        <time>2024-08-16T08:48:28Z</time>
      </trkpt>
      <trkpt lat="44.73656" lon="2.63236">
        <ele>528.4</ele>
        <time>2024-08-16T08:48:30Z</time>
      </trkpt>
      <trkpt lat="44.73657" lon="2.63238">
        <ele>528.5</ele>
        <time>2024-08-16T08:48:31Z</time>
      </trkpt>
      <trkpt lat="44.73658" lon="2.63239">
        <ele>528.6</ele>
        <time>2024-08-16T08:48:32Z</time>
      </trkpt>
      <trkpt lat="44.73661" lon="2.63242">
        <ele>528.8</ele>
        <time>2024-08-16T08:48:34Z</time>
      </trkpt>
      <trkpt lat="44.73662" lon="2.63243">
        <ele>528.9</ele>
        <time>2024-08-16T08:48:35Z</time>
      </trkpt>
      <trkpt lat="44.73663" lon="2.63244">
        <ele>529</ele>
        <time>2024-08-16T08:48:36Z</time>
      </trkpt>
      <trkpt lat="44.73665" lon="2.63246">
        <ele>529.2</ele>
        <time>2024-08-16T08:48:38Z</time>
      </trkpt>
      <trkpt lat="44.73667" lon="2.63249">
        <ele>529.3</ele>
        <time>2024-08-16T08:48:40Z</time>
      </trkpt>
      <trkpt lat="44.73669" lon="2.63251">
        <ele>529.5</ele>
        <time>2024-08-16T08:48:42Z</time>
      </trkpt>
      <trkpt lat="44.73671" lon="2.63253">
        <ele>529.6</ele>
        <time>2024-08-16T08:48:44Z</time>
      </trkpt>
      <trkpt lat="44.73673" lon="2.63255">
        <ele>529.7</ele>
        <time>2024-08-16T08:48:46Z</time>
      </trkpt>
      <trkpt lat="44.73675" lon="2.63257">
        <ele>529.8</ele>
        <time>2024-08-16T08:48:48Z</time>
      </trkpt>
      <trkpt lat="44.73676" lon="2.63259">
        <ele>529.9</ele>
        <time>2024-08-16T08:48:49Z</time>
      </trkpt>
      <trkpt lat="44.73677" lon="2.6326">
        <ele>529.9</ele>
        <time>2024-08-16T08:48:50Z</time>
      </trkpt>
      <trkpt lat="44.7368" lon="2.63262">
        <ele>530.1</ele>
        <time>2024-08-16T08:48:52Z</time>
      </trkpt>
      <trkpt lat="44.73682" lon="2.63265">
        <ele>530.2</ele>
        <time>2024-08-16T08:48:54Z</time>
      </trkpt>
      <trkpt lat="44.73682" lon="2.63266">
        <ele>530.3</ele>
        <time>2024-08-16T08:48:55Z</time>
      </trkpt>
      <trkpt lat="44.73683" lon="2.63268">
        <ele>530.3</ele>
        <time>2024-08-16T08:48:56Z</time>
      </trkpt>
      <trkpt lat="44.73684" lon="2.63269">
        <ele>530.4</ele>
        <time>2024-08-16T08:48:57Z</time>
      </trkpt>
      <trkpt lat="44.73685" lon="2.63271">
        <ele>530.5</ele>
        <time>2024-08-16T08:48:58Z</time>
      </trkpt>
      <trkpt lat="44.73686" lon="2.63273">
        <ele>530.6</ele>
        <time>2024-08-16T08:48:59Z</time>
      </trkpt>
      <trkpt lat="44.73688" lon="2.63275">
        <ele>530.7</ele>
        <time>2024-08-16T08:49:00Z</time>
      </trkpt>
      <trkpt lat="44.73689" lon="2.63277">
        <ele>530.8</ele>
        <time>2024-08-16T08:49:01Z</time>
      </trkpt>
      <trkpt lat="44.7369" lon="2.63279">
        <ele>530.9</ele>
        <time>2024-08-16T08:49:02Z</time>
      </trkpt>
      <trkpt lat="44.73693" lon="2.63284">
        <ele>531.1</ele>
        <time>2024-08-16T08:49:04Z</time>
      </trkpt>
      <trkpt lat="44.73696" lon="2.63288">
        <ele>531.2</ele>
        <time>2024-08-16T08:49:06Z</time>
      </trkpt>
      <trkpt lat="44.73698" lon="2.63291">
        <ele>531.3</ele>
        <time>2024-08-16T08:49:08Z</time>
      </trkpt>
      <trkpt lat="44.73699" lon="2.63294">
        <ele>531.2</ele>
        <time>2024-08-16T08:49:10Z</time>
      </trkpt>
      <trkpt lat="44.73701" lon="2.63298">
        <ele>531.2</ele>
        <time>2024-08-16T08:49:12Z</time>
      </trkpt>
      <trkpt lat="44.73703" lon="2.633">
        <ele>531.1</ele>
        <time>2024-08-16T08:49:14Z</time>
      </trkpt>
      <trkpt lat="44.73706" lon="2.63304">
        <ele>531</ele>
        <time>2024-08-16T08:49:16Z</time>
      </trkpt>
      <trkpt lat="44.73709" lon="2.63307">
        <ele>531</ele>
        <time>2024-08-16T08:49:18Z</time>
      </trkpt>
      <trkpt lat="44.73711" lon="2.63308">
        <ele>530.9</ele>
        <time>2024-08-16T08:49:19Z</time>
      </trkpt>
      <trkpt lat="44.73712" lon="2.6331">
        <ele>530.9</ele>
        <time>2024-08-16T08:49:20Z</time>
      </trkpt>
      <trkpt lat="44.73715" lon="2.63313">
        <ele>530.8</ele>
        <time>2024-08-16T08:49:22Z</time>
      </trkpt>
      <trkpt lat="44.73716" lon="2.63317">
        <ele>530.8</ele>
        <time>2024-08-16T08:49:24Z</time>
      </trkpt>
      <trkpt lat="44.73719" lon="2.63321">
        <ele>530.7</ele>
        <time>2024-08-16T08:49:26Z</time>
      </trkpt>
      <trkpt lat="44.7372" lon="2.63323">
        <ele>530.7</ele>
        <time>2024-08-16T08:49:27Z</time>
      </trkpt>
      <trkpt lat="44.73722" lon="2.63324">
        <ele>530.6</ele>
        <time>2024-08-16T08:49:28Z</time>
      </trkpt>
      <trkpt lat="44.73725" lon="2.63327">
        <ele>530.6</ele>
        <time>2024-08-16T08:49:29Z</time>
      </trkpt>
      <trkpt lat="44.73727" lon="2.6333">
        <ele>530.6</ele>
        <time>2024-08-16T08:49:30Z</time>
      </trkpt>
      <trkpt lat="44.73732" lon="2.63334">
        <ele>530.6</ele>
        <time>2024-08-16T08:49:32Z</time>
      </trkpt>
      <trkpt lat="44.73737" lon="2.63336">
        <ele>530.7</ele>
        <time>2024-08-16T08:49:34Z</time>
      </trkpt>
      <trkpt lat="44.73742" lon="2.63338">
        <ele>530.7</ele>
        <time>2024-08-16T08:49:36Z</time>
      </trkpt>
      <trkpt lat="44.73744" lon="2.63339">
        <ele>530.7</ele>
        <time>2024-08-16T08:49:37Z</time>
      </trkpt>
      <trkpt lat="44.73746" lon="2.6334">
        <ele>530.7</ele>
        <time>2024-08-16T08:49:38Z</time>
      </trkpt>
      <trkpt lat="44.73751" lon="2.63341">
        <ele>530.7</ele>
        <time>2024-08-16T08:49:40Z</time>
      </trkpt>
      <trkpt lat="44.73756" lon="2.63342">
        <ele>530.3</ele>
        <time>2024-08-16T08:49:42Z</time>
      </trkpt>
      <trkpt lat="44.73758" lon="2.63342">
        <ele>530.1</ele>
        <time>2024-08-16T08:49:43Z</time>
      </trkpt>
      <trkpt lat="44.7376" lon="2.63341">
        <ele>529.9</ele>
        <time>2024-08-16T08:49:44Z</time>
      </trkpt>
      <trkpt lat="44.73766" lon="2.63337">
        <ele>529.3</ele>
        <time>2024-08-16T08:49:46Z</time>
      </trkpt>
      <trkpt lat="44.73769" lon="2.63335">
        <ele>529</ele>
        <time>2024-08-16T08:49:47Z</time>
      </trkpt>
      <trkpt lat="44.73772" lon="2.63333">
        <ele>528.7</ele>
        <time>2024-08-16T08:49:48Z</time>
      </trkpt>
      <trkpt lat="44.73779" lon="2.63331">
        <ele>528.1</ele>
        <time>2024-08-16T08:49:50Z</time>
      </trkpt>
      <trkpt lat="44.73781" lon="2.63331">
        <ele>528</ele>
        <time>2024-08-16T08:49:51Z</time>
      </trkpt>
      <trkpt lat="44.73782" lon="2.63332">
        <ele>527.9</ele>
        <time>2024-08-16T08:49:52Z</time>
      </trkpt>
      <trkpt lat="44.73784" lon="2.6333">
        <ele>527.8</ele>
        <time>2024-08-16T08:49:54Z</time>
      </trkpt>
      <trkpt lat="44.73784" lon="2.6333">
        <ele>527.8</ele>
        <time>2024-08-16T08:49:55Z</time>
      </trkpt>
      <trkpt lat="44.73786" lon="2.63334">
        <ele>527.5</ele>
        <time>2024-08-16T08:50:43Z</time>
      </trkpt>
      <trkpt lat="44.73788" lon="2.63336">
        <ele>527.4</ele>
        <time>2024-08-16T08:50:44Z</time>
      </trkpt>
      <trkpt lat="44.73792" lon="2.63342">
        <ele>527.1</ele>
        <time>2024-08-16T08:50:46Z</time>
      </trkpt>
      <trkpt lat="44.73794" lon="2.63346">
        <ele>526.9</ele>
        <time>2024-08-16T08:50:48Z</time>
      </trkpt>
      <trkpt lat="44.73795" lon="2.63348">
        <ele>526.8</ele>
        <time>2024-08-16T08:50:50Z</time>
      </trkpt>
      <trkpt lat="44.73799" lon="2.63353">
        <ele>526.6</ele>
        <time>2024-08-16T08:51:11Z</time>
      </trkpt>
      <trkpt lat="44.738" lon="2.63355">
        <ele>526.5</ele>
        <time>2024-08-16T08:51:12Z</time>
      </trkpt>
      <trkpt lat="44.73802" lon="2.63357">
        <ele>526.4</ele>
        <time>2024-08-16T08:51:13Z</time>
      </trkpt>
      <trkpt lat="44.73804" lon="2.63358">
        <ele>526.3</ele>
        <time>2024-08-16T08:51:14Z</time>
      </trkpt>
      <trkpt lat="44.73809" lon="2.63361">
        <ele>526</ele>
        <time>2024-08-16T08:51:16Z</time>
      </trkpt>
      <trkpt lat="44.73814" lon="2.63365">
        <ele>525.6</ele>
        <time>2024-08-16T08:51:18Z</time>
      </trkpt>
      <trkpt lat="44.73821" lon="2.63371">
        <ele>525</ele>
        <time>2024-08-16T08:51:20Z</time>
      </trkpt>
      <trkpt lat="44.73825" lon="2.63375">
        <ele>524.8</ele>
        <time>2024-08-16T08:51:21Z</time>
      </trkpt>
      <trkpt lat="44.73829" lon="2.63379">
        <ele>524.7</ele>
        <time>2024-08-16T08:51:22Z</time>
      </trkpt>
      <trkpt lat="44.73837" lon="2.63388">
        <ele>524.6</ele>
        <time>2024-08-16T08:51:24Z</time>
      </trkpt>
      <trkpt lat="44.73843" lon="2.63398">
        <ele>524.7</ele>
        <time>2024-08-16T08:51:26Z</time>
      </trkpt>
      <trkpt lat="44.73847" lon="2.63407">
        <ele>524.9</ele>
        <time>2024-08-16T08:51:28Z</time>
      </trkpt>
      <trkpt lat="44.73852" lon="2.63414">
        <ele>525</ele>
        <time>2024-08-16T08:51:30Z</time>
      </trkpt>
      <trkpt lat="44.73854" lon="2.63417">
        <ele>525.1</ele>
        <time>2024-08-16T08:51:31Z</time>
      </trkpt>
      <trkpt lat="44.73857" lon="2.63419">
        <ele>525.1</ele>
        <time>2024-08-16T08:51:32Z</time>
      </trkpt>
      <trkpt lat="44.73861" lon="2.63425">
        <ele>525</ele>
        <time>2024-08-16T08:51:34Z</time>
      </trkpt>
      <trkpt lat="44.73863" lon="2.63427">
        <ele>525</ele>
        <time>2024-08-16T08:51:35Z</time>
      </trkpt>
      <trkpt lat="44.73863" lon="2.63429">
        <ele>525</ele>
        <time>2024-08-16T08:51:36Z</time>
      </trkpt>
      <trkpt lat="44.73863" lon="2.63431">
        <ele>524.9</ele>
        <time>2024-08-16T08:51:38Z</time>
      </trkpt>
      <trkpt lat="44.73863" lon="2.63431">
        <ele>524.9</ele>
        <time>2024-08-16T08:51:39Z</time>
      </trkpt>
      <trkpt lat="44.73865" lon="2.63433">
        <ele>524.8</ele>
        <time>2024-08-16T08:54:33Z</time>
      </trkpt>
      <trkpt lat="44.73867" lon="2.63434">
        <ele>524.8</ele>
        <time>2024-08-16T08:54:34Z</time>
      </trkpt>
      <trkpt lat="44.73873" lon="2.63438">
        <ele>524.6</ele>
        <time>2024-08-16T08:54:36Z</time>
      </trkpt>
      <trkpt lat="44.73876" lon="2.63441">
        <ele>524.5</ele>
        <time>2024-08-16T08:54:37Z</time>
      </trkpt>
      <trkpt lat="44.73879" lon="2.63444">
        <ele>524.3</ele>
        <time>2024-08-16T08:54:38Z</time>
      </trkpt>
      <trkpt lat="44.73887" lon="2.63449">
        <ele>524.1</ele>
        <time>2024-08-16T08:54:40Z</time>
      </trkpt>
      <trkpt lat="44.73895" lon="2.63456">
        <ele>523.9</ele>
        <time>2024-08-16T08:54:42Z</time>
      </trkpt>
      <trkpt lat="44.73904" lon="2.63465">
        <ele>523.6</ele>
        <time>2024-08-16T08:54:44Z</time>
      </trkpt>
      <trkpt lat="44.73916" lon="2.63475">
        <ele>523.4</ele>
        <time>2024-08-16T08:54:46Z</time>
      </trkpt>
      <trkpt lat="44.73929" lon="2.63486">
        <ele>523</ele>
        <time>2024-08-16T08:54:48Z</time>
      </trkpt>
      <trkpt lat="44.73943" lon="2.63497">
        <ele>520.6</ele>
        <time>2024-08-16T08:54:50Z</time>
      </trkpt>
      <trkpt lat="44.73956" lon="2.63503">
        <ele>524.6</ele>
        <time>2024-08-16T08:54:52Z</time>
      </trkpt>
      <trkpt lat="44.73967" lon="2.63509">
        <ele>525.2</ele>
        <time>2024-08-16T08:54:54Z</time>
      </trkpt>
      <trkpt lat="44.73976" lon="2.63515">
        <ele>525.2</ele>
        <time>2024-08-16T08:54:56Z</time>
      </trkpt>
      <trkpt lat="44.73981" lon="2.63522">
        <ele>526.1</ele>
        <time>2024-08-16T08:54:58Z</time>
      </trkpt>
      <trkpt lat="44.73983" lon="2.63524">
        <ele>526.4</ele>
        <time>2024-08-16T08:54:59Z</time>
      </trkpt>
      <trkpt lat="44.73985" lon="2.63525">
        <ele>526.7</ele>
        <time>2024-08-16T08:55:00Z</time>
      </trkpt>
      <trkpt lat="44.73989" lon="2.63527">
        <ele>527.3</ele>
        <time>2024-08-16T08:55:02Z</time>
      </trkpt>
      <trkpt lat="44.73991" lon="2.63528">
        <ele>527.6</ele>
        <time>2024-08-16T08:55:03Z</time>
      </trkpt>
      <trkpt lat="44.73992" lon="2.63529">
        <ele>527.9</ele>
        <time>2024-08-16T08:55:04Z</time>
      </trkpt>
      <trkpt lat="44.73995" lon="2.63532">
        <ele>528.4</ele>
        <time>2024-08-16T08:55:06Z</time>
      </trkpt>
      <trkpt lat="44.73997" lon="2.63536">
        <ele>528.9</ele>
        <time>2024-08-16T08:55:08Z</time>
      </trkpt>
      <trkpt lat="44.73997" lon="2.63538">
        <ele>529.2</ele>
        <time>2024-08-16T08:55:09Z</time>
      </trkpt>
      <trkpt lat="44.73998" lon="2.6354">
        <ele>529.5</ele>
        <time>2024-08-16T08:55:10Z</time>
      </trkpt>
      <trkpt lat="44.73998" lon="2.63545">
        <ele>530</ele>
        <time>2024-08-16T08:55:12Z</time>
      </trkpt>
      <trkpt lat="44.73998" lon="2.63547">
        <ele>530.2</ele>
        <time>2024-08-16T08:55:13Z</time>
      </trkpt>
      <trkpt lat="44.73997" lon="2.63548">
        <ele>530.3</ele>
        <time>2024-08-16T08:55:14Z</time>
      </trkpt>
      <trkpt lat="44.73996" lon="2.6355">
        <ele>530.5</ele>
        <time>2024-08-16T08:55:15Z</time>
      </trkpt>
      <trkpt lat="44.73996" lon="2.63553">
        <ele>530.7</ele>
        <time>2024-08-16T08:55:16Z</time>
      </trkpt>
      <trkpt lat="44.73996" lon="2.63558">
        <ele>531.2</ele>
        <time>2024-08-16T08:55:18Z</time>
      </trkpt>
      <trkpt lat="44.73996" lon="2.63563">
        <ele>531.5</ele>
        <time>2024-08-16T08:55:20Z</time>
      </trkpt>
      <trkpt lat="44.73996" lon="2.63565">
        <ele>531.7</ele>
        <time>2024-08-16T08:55:21Z</time>
      </trkpt>
      <trkpt lat="44.73996" lon="2.63567">
        <ele>531.8</ele>
        <time>2024-08-16T08:55:22Z</time>
      </trkpt>
      <trkpt lat="44.73997" lon="2.63569">
        <ele>531.9</ele>
        <time>2024-08-16T08:55:23Z</time>
      </trkpt>
      <trkpt lat="44.73997" lon="2.63571">
        <ele>532</ele>
        <time>2024-08-16T08:55:24Z</time>
      </trkpt>
      <trkpt lat="44.73996" lon="2.63573">
        <ele>532.2</ele>
        <time>2024-08-16T08:55:26Z</time>
      </trkpt>
      <trkpt lat="44.73995" lon="2.63575">
        <ele>532.3</ele>
        <time>2024-08-16T08:55:28Z</time>
      </trkpt>
      <trkpt lat="44.73994" lon="2.6358">
        <ele>532.5</ele>
        <time>2024-08-16T08:55:30Z</time>
      </trkpt>
      <trkpt lat="44.73995" lon="2.63582">
        <ele>532.6</ele>
        <time>2024-08-16T08:55:31Z</time>
      </trkpt>
      <trkpt lat="44.73996" lon="2.63584">
        <ele>532.7</ele>
        <time>2024-08-16T08:55:32Z</time>
      </trkpt>
      <trkpt lat="44.73997" lon="2.63586">
        <ele>532.7</ele>
        <time>2024-08-16T08:55:33Z</time>
      </trkpt>
      <trkpt lat="44.73998" lon="2.63587">
        <ele>532.8</ele>
        <time>2024-08-16T08:55:34Z</time>
      </trkpt>
      <trkpt lat="44.74" lon="2.6359">
        <ele>532.8</ele>
        <time>2024-08-16T08:55:36Z</time>
      </trkpt>
      <trkpt lat="44.74003" lon="2.63593">
        <ele>532.8</ele>
        <time>2024-08-16T08:55:38Z</time>
      </trkpt>
      <trkpt lat="44.74005" lon="2.63595">
        <ele>532.8</ele>
        <time>2024-08-16T08:55:40Z</time>
      </trkpt>
      <trkpt lat="44.74006" lon="2.63596">
        <ele>532.8</ele>
        <time>2024-08-16T08:55:41Z</time>
      </trkpt>
      <trkpt lat="44.74006" lon="2.63596">
        <ele>532.8</ele>
        <time>2024-08-16T08:55:42Z</time>
      </trkpt>
      <trkpt lat="44.74008" lon="2.63596">
        <ele>532.8</ele>
        <time>2024-08-16T08:57:59Z</time>
      </trkpt>
      <trkpt lat="44.74009" lon="2.63596">
        <ele>532.8</ele>
        <time>2024-08-16T08:58:00Z</time>
      </trkpt>
      <trkpt lat="44.74012" lon="2.63598">
        <ele>532.7</ele>
        <time>2024-08-16T08:58:02Z</time>
      </trkpt>
      <trkpt lat="44.74015" lon="2.63602">
        <ele>532.7</ele>
        <time>2024-08-16T08:58:04Z</time>
      </trkpt>
      <trkpt lat="44.74018" lon="2.63607">
        <ele>532.6</ele>
        <time>2024-08-16T08:58:06Z</time>
      </trkpt>
      <trkpt lat="44.74022" lon="2.63614">
        <ele>532.6</ele>
        <time>2024-08-16T08:58:08Z</time>
      </trkpt>
      <trkpt lat="44.74027" lon="2.63622">
        <ele>532.5</ele>
        <time>2024-08-16T08:58:10Z</time>
      </trkpt>
      <trkpt lat="44.7403" lon="2.63625">
        <ele>532.5</ele>
        <time>2024-08-16T08:58:11Z</time>
      </trkpt>
      <trkpt lat="44.74032" lon="2.63628">
        <ele>532.4</ele>
        <time>2024-08-16T08:58:12Z</time>
      </trkpt>
      <trkpt lat="44.74036" lon="2.63635">
        <ele>532.4</ele>
        <time>2024-08-16T08:58:14Z</time>
      </trkpt>
      <trkpt lat="44.7404" lon="2.6364">
        <ele>532.3</ele>
        <time>2024-08-16T08:58:16Z</time>
      </trkpt>
      <trkpt lat="44.74043" lon="2.63644">
        <ele>532.3</ele>
        <time>2024-08-16T08:58:18Z</time>
      </trkpt>
      <trkpt lat="44.74045" lon="2.63647">
        <ele>532.2</ele>
        <time>2024-08-16T08:58:20Z</time>
      </trkpt>
      <trkpt lat="44.74047" lon="2.6365">
        <ele>532.2</ele>
        <time>2024-08-16T08:58:22Z</time>
      </trkpt>
      <trkpt lat="44.74048" lon="2.6365">
        <ele>532.1</ele>
        <time>2024-08-16T08:58:23Z</time>
      </trkpt>
      <trkpt lat="44.74049" lon="2.63651">
        <ele>532.1</ele>
        <time>2024-08-16T08:58:24Z</time>
      </trkpt>
      <trkpt lat="44.74052" lon="2.63653">
        <ele>532</ele>
        <time>2024-08-16T08:58:26Z</time>
      </trkpt>
      <trkpt lat="44.74055" lon="2.63655">
        <ele>531.9</ele>
        <time>2024-08-16T08:58:28Z</time>
      </trkpt>
      <trkpt lat="44.74058" lon="2.63657">
        <ele>531.8</ele>
        <time>2024-08-16T08:58:30Z</time>
      </trkpt>
      <trkpt lat="44.74062" lon="2.6366">
        <ele>531.6</ele>
        <time>2024-08-16T08:58:32Z</time>
      </trkpt>
      <trkpt lat="44.74066" lon="2.63663">
        <ele>531.4</ele>
        <time>2024-08-16T08:58:34Z</time>
      </trkpt>
      <trkpt lat="44.74067" lon="2.63664">
        <ele>531.3</ele>
        <time>2024-08-16T08:58:35Z</time>
      </trkpt>
      <trkpt lat="44.74068" lon="2.63665">
        <ele>531.2</ele>
        <time>2024-08-16T08:58:36Z</time>
      </trkpt>
      <trkpt lat="44.74071" lon="2.63667">
        <ele>531.1</ele>
        <time>2024-08-16T08:58:38Z</time>
      </trkpt>
      <trkpt lat="44.74073" lon="2.63668">
        <ele>531</ele>
        <time>2024-08-16T08:58:40Z</time>
      </trkpt>
      <trkpt lat="44.74075" lon="2.63673">
        <ele>530.8</ele>
        <time>2024-08-16T08:58:42Z</time>
      </trkpt>
      <trkpt lat="44.74076" lon="2.63675">
        <ele>530.7</ele>
        <time>2024-08-16T08:58:43Z</time>
      </trkpt>
      <trkpt lat="44.74078" lon="2.63676">
        <ele>530.6</ele>
        <time>2024-08-16T08:58:44Z</time>
      </trkpt>
      <trkpt lat="44.74083" lon="2.63681">
        <ele>530.3</ele>
        <time>2024-08-16T08:58:46Z</time>
      </trkpt>
      <trkpt lat="44.74087" lon="2.63687">
        <ele>530</ele>
        <time>2024-08-16T08:58:48Z</time>
      </trkpt>
      <trkpt lat="44.74091" lon="2.63692">
        <ele>529.7</ele>
        <time>2024-08-16T08:58:50Z</time>
      </trkpt>
      <trkpt lat="44.74094" lon="2.63698">
        <ele>529.3</ele>
        <time>2024-08-16T08:58:52Z</time>
      </trkpt>
      <trkpt lat="44.74098" lon="2.63704">
        <ele>528.9</ele>
        <time>2024-08-16T08:58:54Z</time>
      </trkpt>
      <trkpt lat="44.74101" lon="2.6371">
        <ele>528.4</ele>
        <time>2024-08-16T08:58:56Z</time>
      </trkpt>
      <trkpt lat="44.74102" lon="2.63713">
        <ele>528.2</ele>
        <time>2024-08-16T08:58:57Z</time>
      </trkpt>
      <trkpt lat="44.74103" lon="2.63716">
        <ele>528</ele>
        <time>2024-08-16T08:58:58Z</time>
      </trkpt>
      <trkpt lat="44.74105" lon="2.63722">
        <ele>527.6</ele>
        <time>2024-08-16T08:59:00Z</time>
      </trkpt>
      <trkpt lat="44.74107" lon="2.63729">
        <ele>527.2</ele>
        <time>2024-08-16T08:59:02Z</time>
      </trkpt>
      <trkpt lat="44.74109" lon="2.63736">
        <ele>526.7</ele>
        <time>2024-08-16T08:59:04Z</time>
      </trkpt>
      <trkpt lat="44.74112" lon="2.63745">
        <ele>526.2</ele>
        <time>2024-08-16T08:59:06Z</time>
      </trkpt>
      <trkpt lat="44.74114" lon="2.63754">
        <ele>525.6</ele>
        <time>2024-08-16T08:59:08Z</time>
      </trkpt>
      <trkpt lat="44.74118" lon="2.63763">
        <ele>524.9</ele>
        <time>2024-08-16T08:59:10Z</time>
      </trkpt>
      <trkpt lat="44.74122" lon="2.63774">
        <ele>524.2</ele>
        <time>2024-08-16T08:59:12Z</time>
      </trkpt>
      <trkpt lat="44.74125" lon="2.6378">
        <ele>523.8</ele>
        <time>2024-08-16T08:59:13Z</time>
      </trkpt>
      <trkpt lat="44.74127" lon="2.63786">
        <ele>523.3</ele>
        <time>2024-08-16T08:59:14Z</time>
      </trkpt>
      <trkpt lat="44.74132" lon="2.63802">
        <ele>522.3</ele>
        <time>2024-08-16T08:59:16Z</time>
      </trkpt>
      <trkpt lat="44.74135" lon="2.6381">
        <ele>521.7</ele>
        <time>2024-08-16T08:59:17Z</time>
      </trkpt>
      <trkpt lat="44.7414" lon="2.6382">
        <ele>521.2</ele>
        <time>2024-08-16T08:59:18Z</time>
      </trkpt>
      <trkpt lat="44.7415" lon="2.63839">
        <ele>521.1</ele>
        <time>2024-08-16T08:59:20Z</time>
      </trkpt>
      <trkpt lat="44.74155" lon="2.63849">
        <ele>521.6</ele>
        <time>2024-08-16T08:59:21Z</time>
      </trkpt>
      <trkpt lat="44.74161" lon="2.63858">
        <ele>522.2</ele>
        <time>2024-08-16T08:59:22Z</time>
      </trkpt>
      <trkpt lat="44.74168" lon="2.6387">
        <ele>523.3</ele>
        <time>2024-08-16T08:59:24Z</time>
      </trkpt>
      <trkpt lat="44.74171" lon="2.63879">
        <ele>524.1</ele>
        <time>2024-08-16T08:59:26Z</time>
      </trkpt>
      <trkpt lat="44.74174" lon="2.63885">
        <ele>524.5</ele>
        <time>2024-08-16T08:59:28Z</time>
      </trkpt>
      <trkpt lat="44.74176" lon="2.63889">
        <ele>524.9</ele>
        <time>2024-08-16T08:59:30Z</time>
      </trkpt>
      <trkpt lat="44.74178" lon="2.63895">
        <ele>525.2</ele>
        <time>2024-08-16T08:59:32Z</time>
      </trkpt>
      <trkpt lat="44.7418" lon="2.639">
        <ele>525.4</ele>
        <time>2024-08-16T08:59:34Z</time>
      </trkpt>
      <trkpt lat="44.74181" lon="2.63903">
        <ele>525.6</ele>
        <time>2024-08-16T08:59:36Z</time>
      </trkpt>
      <trkpt lat="44.74181" lon="2.63904">
        <ele>525.6</ele>
        <time>2024-08-16T08:59:38Z</time>
      </trkpt>
      <trkpt lat="44.74182" lon="2.63908">
        <ele>525.7</ele>
        <time>2024-08-16T09:00:33Z</time>
      </trkpt>
      <trkpt lat="44.74183" lon="2.6391">
        <ele>525.8</ele>
        <time>2024-08-16T09:00:34Z</time>
      </trkpt>
      <trkpt lat="44.74185" lon="2.63915">
        <ele>525.9</ele>
        <time>2024-08-16T09:00:36Z</time>
      </trkpt>
      <trkpt lat="44.74186" lon="2.63921">
        <ele>526</ele>
        <time>2024-08-16T09:00:38Z</time>
      </trkpt>
      <trkpt lat="44.74189" lon="2.63927">
        <ele>526</ele>
        <time>2024-08-16T09:00:40Z</time>
      </trkpt>
      <trkpt lat="44.74192" lon="2.63934">
        <ele>525.9</ele>
        <time>2024-08-16T09:00:42Z</time>
      </trkpt>
      <trkpt lat="44.74195" lon="2.63937">
        <ele>525.8</ele>
        <time>2024-08-16T09:00:43Z</time>
      </trkpt>
      <trkpt lat="44.74198" lon="2.63941">
        <ele>525.6</ele>
        <time>2024-08-16T09:00:44Z</time>
      </trkpt>
      <trkpt lat="44.74203" lon="2.63947">
        <ele>525.3</ele>
        <time>2024-08-16T09:00:46Z</time>
      </trkpt>
      <trkpt lat="44.74209" lon="2.63952">
        <ele>524.9</ele>
        <time>2024-08-16T09:00:48Z</time>
      </trkpt>
      <trkpt lat="44.74213" lon="2.63955">
        <ele>524.7</ele>
        <time>2024-08-16T09:00:49Z</time>
      </trkpt>
      <trkpt lat="44.74217" lon="2.63957">
        <ele>524.4</ele>
        <time>2024-08-16T09:00:50Z</time>
      </trkpt>
      <trkpt lat="44.74222" lon="2.63959">
        <ele>524.2</ele>
        <time>2024-08-16T09:00:51Z</time>
      </trkpt>
      <trkpt lat="44.74226" lon="2.6396">
        <ele>524</ele>
        <time>2024-08-16T09:00:52Z</time>
      </trkpt>
      <trkpt lat="44.74234" lon="2.63963">
        <ele>523.7</ele>
        <time>2024-08-16T09:00:54Z</time>
      </trkpt>
      <trkpt lat="44.74241" lon="2.63965">
        <ele>523.3</ele>
        <time>2024-08-16T09:00:56Z</time>
      </trkpt>
      <trkpt lat="44.74248" lon="2.63967">
        <ele>522.7</ele>
        <time>2024-08-16T09:00:58Z</time>
      </trkpt>
      <trkpt lat="44.74255" lon="2.63968">
        <ele>522.1</ele>
        <time>2024-08-16T09:01:00Z</time>
      </trkpt>
      <trkpt lat="44.74259" lon="2.63969">
        <ele>521.7</ele>
        <time>2024-08-16T09:01:01Z</time>
      </trkpt>
      <trkpt lat="44.74263" lon="2.6397">
        <ele>521.3</ele>
        <time>2024-08-16T09:01:02Z</time>
      </trkpt>
      <trkpt lat="44.7427" lon="2.63972">
        <ele>520.6</ele>
        <time>2024-08-16T09:01:04Z</time>
      </trkpt>
      <trkpt lat="44.74274" lon="2.63974">
        <ele>520.2</ele>
        <time>2024-08-16T09:01:05Z</time>
      </trkpt>
      <trkpt lat="44.74276" lon="2.63976">
        <ele>519.9</ele>
        <time>2024-08-16T09:01:06Z</time>
      </trkpt>
      <trkpt lat="44.74275" lon="2.63982">
        <ele>519.4</ele>
        <time>2024-08-16T09:01:08Z</time>
      </trkpt>
      <trkpt lat="44.74269" lon="2.63984">
        <ele>518.4</ele>
        <time>2024-08-16T09:01:10Z</time>
      </trkpt>
      <trkpt lat="44.74263" lon="2.63987">
        <ele>517.6</ele>
        <time>2024-08-16T09:01:12Z</time>
      </trkpt>
      <trkpt lat="44.74262" lon="2.63993">
        <ele>517</ele>
        <time>2024-08-16T09:01:14Z</time>
      </trkpt>
      <trkpt lat="44.74264" lon="2.63995">
        <ele>516.8</ele>
        <time>2024-08-16T09:01:15Z</time>
      </trkpt>
      <trkpt lat="44.74266" lon="2.63995">
        <ele>516.5</ele>
        <time>2024-08-16T09:01:16Z</time>
      </trkpt>
      <trkpt lat="44.74267" lon="2.63995">
        <ele>516.3</ele>
        <time>2024-08-16T09:01:17Z</time>
      </trkpt>
      <trkpt lat="44.74268" lon="2.63995">
        <ele>516.2</ele>
        <time>2024-08-16T09:01:18Z</time>
      </trkpt>
      <trkpt lat="44.74269" lon="2.63995">
        <ele>516</ele>
        <time>2024-08-16T09:01:19Z</time>
      </trkpt>
      <trkpt lat="44.74276" lon="2.64002">
        <ele>515.1</ele>
        <time>2024-08-16T09:02:28Z</time>
      </trkpt>
      <trkpt lat="44.74279" lon="2.64006">
        <ele>514.7</ele>
        <time>2024-08-16T09:02:30Z</time>
      </trkpt>
      <trkpt lat="44.7428" lon="2.64007">
        <ele>514.5</ele>
        <time>2024-08-16T09:02:31Z</time>
      </trkpt>
      <trkpt lat="44.74281" lon="2.6401">
        <ele>514.3</ele>
        <time>2024-08-16T09:02:32Z</time>
      </trkpt>
      <trkpt lat="44.74284" lon="2.64014">
        <ele>513.9</ele>
        <time>2024-08-16T09:02:34Z</time>
      </trkpt>
      <trkpt lat="44.74288" lon="2.64019">
        <ele>513.4</ele>
        <time>2024-08-16T09:02:36Z</time>
      </trkpt>
      <trkpt lat="44.74293" lon="2.64022">
        <ele>513.1</ele>
        <time>2024-08-16T09:02:38Z</time>
      </trkpt>
      <trkpt lat="44.74295" lon="2.64024">
        <ele>513</ele>
        <time>2024-08-16T09:02:39Z</time>
      </trkpt>
      <trkpt lat="44.74296" lon="2.64026">
        <ele>512.9</ele>
        <time>2024-08-16T09:02:40Z</time>
      </trkpt>
      <trkpt lat="44.743" lon="2.64029">
        <ele>512.7</ele>
        <time>2024-08-16T09:02:42Z</time>
      </trkpt>
      <trkpt lat="44.74306" lon="2.64031">
        <ele>512.4</ele>
        <time>2024-08-16T09:02:44Z</time>
      </trkpt>
      <trkpt lat="44.74314" lon="2.64035">
        <ele>512</ele>
        <time>2024-08-16T09:02:46Z</time>
      </trkpt>
      <trkpt lat="44.74323" lon="2.64039">
        <ele>511.5</ele>
        <time>2024-08-16T09:02:48Z</time>
      </trkpt>
      <trkpt lat="44.74331" lon="2.64041">
        <ele>511</ele>
        <time>2024-08-16T09:02:50Z</time>
      </trkpt>
      <trkpt lat="44.74338" lon="2.64041">
        <ele>510.5</ele>
        <time>2024-08-16T09:02:52Z</time>
      </trkpt>
      <trkpt lat="44.74345" lon="2.64039">
        <ele>509.6</ele>
        <time>2024-08-16T09:02:54Z</time>
      </trkpt>
      <trkpt lat="44.7435" lon="2.64039">
        <ele>508.8</ele>
        <time>2024-08-16T09:02:55Z</time>
      </trkpt>
      <trkpt lat="44.74355" lon="2.64041">
        <ele>508.1</ele>
        <time>2024-08-16T09:02:56Z</time>
      </trkpt>
      <trkpt lat="44.7436" lon="2.64043">
        <ele>507.3</ele>
        <time>2024-08-16T09:02:57Z</time>
      </trkpt>
      <trkpt lat="44.74364" lon="2.64046">
        <ele>506.5</ele>
        <time>2024-08-16T09:02:58Z</time>
      </trkpt>
      <trkpt lat="44.74369" lon="2.64049">
        <ele>505.7</ele>
        <time>2024-08-16T09:02:59Z</time>
      </trkpt>
      <trkpt lat="44.74374" lon="2.64053">
        <ele>505</ele>
        <time>2024-08-16T09:03:00Z</time>
      </trkpt>
      <trkpt lat="44.74379" lon="2.64057">
        <ele>504.4</ele>
        <time>2024-08-16T09:03:01Z</time>
      </trkpt>
      <trkpt lat="44.74384" lon="2.64063">
        <ele>503.7</ele>
        <time>2024-08-16T09:03:02Z</time>
      </trkpt>
      <trkpt lat="44.74388" lon="2.64069">
        <ele>503</ele>
        <time>2024-08-16T09:03:03Z</time>
      </trkpt>
      <trkpt lat="44.74392" lon="2.64075">
        <ele>502.3</ele>
        <time>2024-08-16T09:03:04Z</time>
      </trkpt>
      <trkpt lat="44.74395" lon="2.6408">
        <ele>501.7</ele>
        <time>2024-08-16T09:03:05Z</time>
      </trkpt>
      <trkpt lat="44.744" lon="2.64085">
        <ele>501.1</ele>
        <time>2024-08-16T09:03:06Z</time>
      </trkpt>
      <trkpt lat="44.74404" lon="2.64091">
        <ele>500.4</ele>
        <time>2024-08-16T09:03:07Z</time>
      </trkpt>
      <trkpt lat="44.74408" lon="2.64097">
        <ele>499.8</ele>
        <time>2024-08-16T09:03:08Z</time>
      </trkpt>
      <trkpt lat="44.74411" lon="2.64102">
        <ele>499.2</ele>
        <time>2024-08-16T09:03:09Z</time>
      </trkpt>
      <trkpt lat="44.74414" lon="2.64106">
        <ele>498.7</ele>
        <time>2024-08-16T09:03:10Z</time>
      </trkpt>
      <trkpt lat="44.74418" lon="2.64109">
        <ele>498.2</ele>
        <time>2024-08-16T09:03:11Z</time>
      </trkpt>
      <trkpt lat="44.74422" lon="2.6411">
        <ele>497.7</ele>
        <time>2024-08-16T09:03:12Z</time>
      </trkpt>
      <trkpt lat="44.7443" lon="2.64111">
        <ele>496.5</ele>
        <time>2024-08-16T09:03:14Z</time>
      </trkpt>
      <trkpt lat="44.74439" lon="2.64113">
        <ele>495.1</ele>
        <time>2024-08-16T09:03:16Z</time>
      </trkpt>
      <trkpt lat="44.7445" lon="2.64116">
        <ele>493</ele>
        <time>2024-08-16T09:03:18Z</time>
      </trkpt>
      <trkpt lat="44.74465" lon="2.64121">
        <ele>490.2</ele>
        <time>2024-08-16T09:03:20Z</time>
      </trkpt>
      <trkpt lat="44.74482" lon="2.64126">
        <ele>487.3</ele>
        <time>2024-08-16T09:03:22Z</time>
      </trkpt>
      <trkpt lat="44.74499" lon="2.64132">
        <ele>485</ele>
        <time>2024-08-16T09:03:24Z</time>
      </trkpt>
      <trkpt lat="44.74507" lon="2.64136">
        <ele>484</ele>
        <time>2024-08-16T09:03:25Z</time>
      </trkpt>
      <trkpt lat="44.74514" lon="2.6414">
        <ele>483.2</ele>
        <time>2024-08-16T09:03:26Z</time>
      </trkpt>
      <trkpt lat="44.74525" lon="2.64147">
        <ele>482</ele>
        <time>2024-08-16T09:03:28Z</time>
      </trkpt>
      <trkpt lat="44.74532" lon="2.64155">
        <ele>480.9</ele>
        <time>2024-08-16T09:03:30Z</time>
      </trkpt>
      <trkpt lat="44.74539" lon="2.6416">
        <ele>479.9</ele>
        <time>2024-08-16T09:03:32Z</time>
      </trkpt>
      <trkpt lat="44.74546" lon="2.64164">
        <ele>478.9</ele>
        <time>2024-08-16T09:03:34Z</time>
      </trkpt>
      <trkpt lat="44.74553" lon="2.64163">
        <ele>477.9</ele>
        <time>2024-08-16T09:03:36Z</time>
      </trkpt>
      <trkpt lat="44.74557" lon="2.64164">
        <ele>477.5</ele>
        <time>2024-08-16T09:03:37Z</time>
      </trkpt>
      <trkpt lat="44.7456" lon="2.64168">
        <ele>477</ele>
        <time>2024-08-16T09:03:38Z</time>
      </trkpt>
      <trkpt lat="44.74562" lon="2.64173">
        <ele>476.4</ele>
        <time>2024-08-16T09:03:39Z</time>
      </trkpt>
      <trkpt lat="44.74563" lon="2.6418">
        <ele>475.7</ele>
        <time>2024-08-16T09:03:40Z</time>
      </trkpt>
      <trkpt lat="44.74564" lon="2.64188">
        <ele>475.1</ele>
        <time>2024-08-16T09:03:41Z</time>
      </trkpt>
      <trkpt lat="44.74565" lon="2.64195">
        <ele>474.5</ele>
        <time>2024-08-16T09:03:42Z</time>
      </trkpt>
      <trkpt lat="44.74566" lon="2.64203">
        <ele>473.9</ele>
        <time>2024-08-16T09:03:43Z</time>
      </trkpt>
      <trkpt lat="44.74566" lon="2.64211">
        <ele>473.4</ele>
        <time>2024-08-16T09:03:44Z</time>
      </trkpt>
      <trkpt lat="44.74565" lon="2.64227">
        <ele>472.5</ele>
        <time>2024-08-16T09:03:46Z</time>
      </trkpt>
      <trkpt lat="44.74565" lon="2.64233">
        <ele>472.1</ele>
        <time>2024-08-16T09:03:47Z</time>
      </trkpt>
      <trkpt lat="44.74565" lon="2.6424">
        <ele>471.7</ele>
        <time>2024-08-16T09:03:48Z</time>
      </trkpt>
      <trkpt lat="44.74565" lon="2.64246">
        <ele>471.2</ele>
        <time>2024-08-16T09:03:49Z</time>
      </trkpt>
      <trkpt lat="44.74568" lon="2.64254">
        <ele>470.4</ele>
        <time>2024-08-16T09:03:50Z</time>
      </trkpt>
      <trkpt lat="44.74571" lon="2.64261">
        <ele>469.7</ele>
        <time>2024-08-16T09:03:51Z</time>
      </trkpt>
      <trkpt lat="44.74573" lon="2.64267">
        <ele>468.9</ele>
        <time>2024-08-16T09:03:52Z</time>
      </trkpt>
      <trkpt lat="44.74578" lon="2.64276">
        <ele>467.7</ele>
        <time>2024-08-16T09:03:54Z</time>
      </trkpt>
      <trkpt lat="44.74583" lon="2.64287">
        <ele>465.9</ele>
        <time>2024-08-16T09:03:56Z</time>
      </trkpt>
      <trkpt lat="44.74587" lon="2.643">
        <ele>464.1</ele>
        <time>2024-08-16T09:03:58Z</time>
      </trkpt>
      <trkpt lat="44.74592" lon="2.64308">
        <ele>462.9</ele>
        <time>2024-08-16T09:03:59Z</time>
      </trkpt>
      <trkpt lat="44.74598" lon="2.64317">
        <ele>461.8</ele>
        <time>2024-08-16T09:04:00Z</time>
      </trkpt>
      <trkpt lat="44.74602" lon="2.64324">
        <ele>461</ele>
        <time>2024-08-16T09:04:01Z</time>
      </trkpt>
      <trkpt lat="44.74606" lon="2.64332">
        <ele>460.3</ele>
        <time>2024-08-16T09:04:02Z</time>
      </trkpt>
      <trkpt lat="44.74612" lon="2.64343">
        <ele>459.1</ele>
        <time>2024-08-16T09:04:04Z</time>
      </trkpt>
      <trkpt lat="44.74616" lon="2.64349">
        <ele>458.4</ele>
        <time>2024-08-16T09:04:06Z</time>
      </trkpt>
      <trkpt lat="44.74622" lon="2.64354">
        <ele>457.4</ele>
        <time>2024-08-16T09:04:08Z</time>
      </trkpt>
      <trkpt lat="44.74625" lon="2.64356">
        <ele>456.9</ele>
        <time>2024-08-16T09:04:09Z</time>
      </trkpt>
      <trkpt lat="44.7463" lon="2.64358">
        <ele>455.9</ele>
        <time>2024-08-16T09:04:10Z</time>
      </trkpt>
      <trkpt lat="44.74635" lon="2.64359">
        <ele>455.1</ele>
        <time>2024-08-16T09:04:11Z</time>
      </trkpt>
      <trkpt lat="44.7464" lon="2.64361">
        <ele>454.2</ele>
        <time>2024-08-16T09:04:12Z</time>
      </trkpt>
      <trkpt lat="44.7465" lon="2.64365">
        <ele>452.5</ele>
        <time>2024-08-16T09:04:14Z</time>
      </trkpt>
      <trkpt lat="44.74654" lon="2.64366">
        <ele>451.7</ele>
        <time>2024-08-16T09:04:15Z</time>
      </trkpt>
      <trkpt lat="44.74658" lon="2.64367">
        <ele>451</ele>
        <time>2024-08-16T09:04:16Z</time>
      </trkpt>
      <trkpt lat="44.74668" lon="2.6437">
        <ele>449.3</ele>
        <time>2024-08-16T09:04:18Z</time>
      </trkpt>
      <trkpt lat="44.74672" lon="2.64371">
        <ele>448.7</ele>
        <time>2024-08-16T09:04:19Z</time>
      </trkpt>
      <trkpt lat="44.74676" lon="2.64376">
        <ele>447.8</ele>
        <time>2024-08-16T09:04:20Z</time>
      </trkpt>
      <trkpt lat="44.74678" lon="2.64382">
        <ele>446.9</ele>
        <time>2024-08-16T09:04:21Z</time>
      </trkpt>
      <trkpt lat="44.74678" lon="2.64389">
        <ele>446.1</ele>
        <time>2024-08-16T09:04:22Z</time>
      </trkpt>
      <trkpt lat="44.74679" lon="2.64404">
        <ele>444.3</ele>
        <time>2024-08-16T09:04:24Z</time>
      </trkpt>
      <trkpt lat="44.74679" lon="2.64411">
        <ele>443.6</ele>
        <time>2024-08-16T09:04:25Z</time>
      </trkpt>
      <trkpt lat="44.74678" lon="2.64419">
        <ele>442.9</ele>
        <time>2024-08-16T09:04:26Z</time>
      </trkpt>
      <trkpt lat="44.74677" lon="2.64428">
        <ele>442</ele>
        <time>2024-08-16T09:04:28Z</time>
      </trkpt>
      <trkpt lat="44.74676" lon="2.64433">
        <ele>441.6</ele>
        <time>2024-08-16T09:04:29Z</time>
      </trkpt>
      <trkpt lat="44.74676" lon="2.64438">
        <ele>441.1</ele>
        <time>2024-08-16T09:04:30Z</time>
      </trkpt>
      <trkpt lat="44.74678" lon="2.64448">
        <ele>440</ele>
        <time>2024-08-16T09:04:32Z</time>
      </trkpt>
      <trkpt lat="44.74683" lon="2.64455">
        <ele>439</ele>
        <time>2024-08-16T09:04:33Z</time>
      </trkpt>
      <trkpt lat="44.74687" lon="2.64457">
        <ele>438.3</ele>
        <time>2024-08-16T09:04:34Z</time>
      </trkpt>
      <trkpt lat="44.74696" lon="2.64461">
        <ele>436.9</ele>
        <time>2024-08-16T09:04:36Z</time>
      </trkpt>
      <trkpt lat="44.74699" lon="2.64468">
        <ele>436.3</ele>
        <time>2024-08-16T09:04:38Z</time>
      </trkpt>
      <trkpt lat="44.74699" lon="2.64471">
        <ele>436</ele>
        <time>2024-08-16T09:04:39Z</time>
      </trkpt>
      <trkpt lat="44.74699" lon="2.64476">
        <ele>435.7</ele>
        <time>2024-08-16T09:04:40Z</time>
      </trkpt>
      <trkpt lat="44.74699" lon="2.64488">
        <ele>434.9</ele>
        <time>2024-08-16T09:04:42Z</time>
      </trkpt>
      <trkpt lat="44.74697" lon="2.64502">
        <ele>434.2</ele>
        <time>2024-08-16T09:04:44Z</time>
      </trkpt>
      <trkpt lat="44.74697" lon="2.64509">
        <ele>433.9</ele>
        <time>2024-08-16T09:04:45Z</time>
      </trkpt>
      <trkpt lat="44.74699" lon="2.64516">
        <ele>433.7</ele>
        <time>2024-08-16T09:04:46Z</time>
      </trkpt>
      <trkpt lat="44.74704" lon="2.64526">
        <ele>433.3</ele>
        <time>2024-08-16T09:04:48Z</time>
      </trkpt>
      <trkpt lat="44.74706" lon="2.64534">
        <ele>433</ele>
        <time>2024-08-16T09:04:50Z</time>
      </trkpt>
      <trkpt lat="44.74708" lon="2.64542">
        <ele>432.6</ele>
        <time>2024-08-16T09:04:52Z</time>
      </trkpt>
      <trkpt lat="44.74711" lon="2.64551">
        <ele>432.2</ele>
        <time>2024-08-16T09:04:54Z</time>
      </trkpt>
      <trkpt lat="44.74714" lon="2.64561">
        <ele>431.6</ele>
        <time>2024-08-16T09:04:56Z</time>
      </trkpt>
      <trkpt lat="44.74716" lon="2.64569">
        <ele>431.1</ele>
        <time>2024-08-16T09:04:58Z</time>
      </trkpt>
      <trkpt lat="44.74717" lon="2.64573">
        <ele>430.9</ele>
        <time>2024-08-16T09:04:59Z</time>
      </trkpt>
      <trkpt lat="44.74717" lon="2.64578">
        <ele>430.5</ele>
        <time>2024-08-16T09:05:00Z</time>
      </trkpt>
      <trkpt lat="44.74716" lon="2.64585">
        <ele>430</ele>
        <time>2024-08-16T09:05:01Z</time>
      </trkpt>
      <trkpt lat="44.74716" lon="2.6459">
        <ele>429.5</ele>
        <time>2024-08-16T09:05:02Z</time>
      </trkpt>
      <trkpt lat="44.74717" lon="2.64602">
        <ele>428.4</ele>
        <time>2024-08-16T09:05:04Z</time>
      </trkpt>
      <trkpt lat="44.74718" lon="2.64608">
        <ele>427.8</ele>
        <time>2024-08-16T09:05:05Z</time>
      </trkpt>
      <trkpt lat="44.74718" lon="2.64615">
        <ele>427.1</ele>
        <time>2024-08-16T09:05:06Z</time>
      </trkpt>
      <trkpt lat="44.74719" lon="2.64622">
        <ele>426.4</ele>
        <time>2024-08-16T09:05:07Z</time>
      </trkpt>
      <trkpt lat="44.7472" lon="2.64629">
        <ele>425.5</ele>
        <time>2024-08-16T09:05:08Z</time>
      </trkpt>
      <trkpt lat="44.74723" lon="2.64637">
        <ele>424.8</ele>
        <time>2024-08-16T09:05:09Z</time>
      </trkpt>
      <trkpt lat="44.74725" lon="2.64644">
        <ele>424.2</ele>
        <time>2024-08-16T09:05:10Z</time>
      </trkpt>
      <trkpt lat="44.74729" lon="2.64653">
        <ele>423.4</ele>
        <time>2024-08-16T09:05:12Z</time>
      </trkpt>
      <trkpt lat="44.74734" lon="2.6466">
        <ele>422.4</ele>
        <time>2024-08-16T09:05:14Z</time>
      </trkpt>
      <trkpt lat="44.74744" lon="2.64666">
        <ele>420.8</ele>
        <time>2024-08-16T09:05:16Z</time>
      </trkpt>
      <trkpt lat="44.7475" lon="2.64671">
        <ele>419.5</ele>
        <time>2024-08-16T09:05:35Z</time>
      </trkpt>
      <trkpt lat="44.74757" lon="2.64675">
        <ele>418.1</ele>
        <time>2024-08-16T09:05:36Z</time>
      </trkpt>
      <trkpt lat="44.74763" lon="2.64678">
        <ele>417.1</ele>
        <time>2024-08-16T09:05:37Z</time>
      </trkpt>
      <trkpt lat="44.74768" lon="2.64679">
        <ele>416.2</ele>
        <time>2024-08-16T09:05:38Z</time>
      </trkpt>
      <trkpt lat="44.74778" lon="2.6468">
        <ele>414.7</ele>
        <time>2024-08-16T09:05:40Z</time>
      </trkpt>
      <trkpt lat="44.74781" lon="2.64682">
        <ele>414.1</ele>
        <time>2024-08-16T09:05:41Z</time>
      </trkpt>
      <trkpt lat="44.74784" lon="2.64684">
        <ele>413.5</ele>
        <time>2024-08-16T09:05:42Z</time>
      </trkpt>
      <trkpt lat="44.7479" lon="2.64685">
        <ele>412.5</ele>
        <time>2024-08-16T09:05:44Z</time>
      </trkpt>
      <trkpt lat="44.74792" lon="2.64687">
        <ele>412.1</ele>
        <time>2024-08-16T09:05:45Z</time>
      </trkpt>
      <trkpt lat="44.74794" lon="2.64691">
        <ele>411.5</ele>
        <time>2024-08-16T09:05:46Z</time>
      </trkpt>
      <trkpt lat="44.74806" lon="2.64706">
        <ele>408.8</ele>
        <time>2024-08-16T09:05:48Z</time>
      </trkpt>
      <trkpt lat="44.74805" lon="2.64716">
        <ele>407.5</ele>
        <time>2024-08-16T09:05:50Z</time>
      </trkpt>
      <trkpt lat="44.74803" lon="2.64732">
        <ele>405.6</ele>
        <time>2024-08-16T09:05:52Z</time>
      </trkpt>
      <trkpt lat="44.74801" lon="2.6475">
        <ele>403.6</ele>
        <time>2024-08-16T09:05:54Z</time>
      </trkpt>
      <trkpt lat="44.74799" lon="2.64766">
        <ele>402.4</ele>
        <time>2024-08-16T09:05:56Z</time>
      </trkpt>
      <trkpt lat="44.74798" lon="2.6478">
        <ele>401.9</ele>
        <time>2024-08-16T09:05:58Z</time>
      </trkpt>
      <trkpt lat="44.74797" lon="2.64791">
        <ele>401.8</ele>
        <time>2024-08-16T09:06:00Z</time>
      </trkpt>
      <trkpt lat="44.74794" lon="2.64799">
        <ele>401.7</ele>
        <time>2024-08-16T09:06:02Z</time>
      </trkpt>
      <trkpt lat="44.74792" lon="2.64805">
        <ele>401.6</ele>
        <time>2024-08-16T09:06:04Z</time>
      </trkpt>
      <trkpt lat="44.74792" lon="2.64816">
        <ele>401.6</ele>
        <time>2024-08-16T09:06:06Z</time>
      </trkpt>
      <trkpt lat="44.74792" lon="2.64821">
        <ele>401.7</ele>
        <time>2024-08-16T09:06:07Z</time>
      </trkpt>
      <trkpt lat="44.74792" lon="2.64825">
        <ele>401.7</ele>
        <time>2024-08-16T09:06:08Z</time>
      </trkpt>
      <trkpt lat="44.74791" lon="2.64833">
        <ele>401.9</ele>
        <time>2024-08-16T09:06:10Z</time>
      </trkpt>
      <trkpt lat="44.7479" lon="2.64841">
        <ele>402.1</ele>
        <time>2024-08-16T09:06:12Z</time>
      </trkpt>
      <trkpt lat="44.7479" lon="2.64844">
        <ele>402.2</ele>
        <time>2024-08-16T09:06:13Z</time>
      </trkpt>
      <trkpt lat="44.74789" lon="2.64847">
        <ele>402.2</ele>
        <time>2024-08-16T09:06:14Z</time>
      </trkpt>
      <trkpt lat="44.74788" lon="2.64854">
        <ele>402.3</ele>
        <time>2024-08-16T09:06:16Z</time>
      </trkpt>
      <trkpt lat="44.74787" lon="2.6486">
        <ele>402.3</ele>
        <time>2024-08-16T09:06:18Z</time>
      </trkpt>
      <trkpt lat="44.74786" lon="2.64867">
        <ele>402.2</ele>
        <time>2024-08-16T09:06:20Z</time>
      </trkpt>
      <trkpt lat="44.74785" lon="2.64871">
        <ele>402</ele>
        <time>2024-08-16T09:06:21Z</time>
      </trkpt>
      <trkpt lat="44.74783" lon="2.64875">
        <ele>401.8</ele>
        <time>2024-08-16T09:06:22Z</time>
      </trkpt>
      <trkpt lat="44.74779" lon="2.64885">
        <ele>401.1</ele>
        <time>2024-08-16T09:06:24Z</time>
      </trkpt>
      <trkpt lat="44.74775" lon="2.64897">
        <ele>400.1</ele>
        <time>2024-08-16T09:06:26Z</time>
      </trkpt>
      <trkpt lat="44.74772" lon="2.64909">
        <ele>399.5</ele>
        <time>2024-08-16T09:06:28Z</time>
      </trkpt>
      <trkpt lat="44.74771" lon="2.64918">
        <ele>399.6</ele>
        <time>2024-08-16T09:06:30Z</time>
      </trkpt>
      <trkpt lat="44.74771" lon="2.64926">
        <ele>399.6</ele>
        <time>2024-08-16T09:06:32Z</time>
      </trkpt>
      <trkpt lat="44.7477" lon="2.64933">
        <ele>399.8</ele>
        <time>2024-08-16T09:06:34Z</time>
      </trkpt>
      <trkpt lat="44.7477" lon="2.6494">
        <ele>400.1</ele>
        <time>2024-08-16T09:06:36Z</time>
      </trkpt>
      <trkpt lat="44.74771" lon="2.64948">
        <ele>400.4</ele>
        <time>2024-08-16T09:06:38Z</time>
      </trkpt>
      <trkpt lat="44.74772" lon="2.64955">
        <ele>400.7</ele>
        <time>2024-08-16T09:06:40Z</time>
      </trkpt>
      <trkpt lat="44.74773" lon="2.64959">
        <ele>400.9</ele>
        <time>2024-08-16T09:06:41Z</time>
      </trkpt>
      <trkpt lat="44.74774" lon="2.64962">
        <ele>401.1</ele>
        <time>2024-08-16T09:06:42Z</time>
      </trkpt>
      <trkpt lat="44.74775" lon="2.64969">
        <ele>401.3</ele>
        <time>2024-08-16T09:06:44Z</time>
      </trkpt>
      <trkpt lat="44.74778" lon="2.64976">
        <ele>401.6</ele>
        <time>2024-08-16T09:06:46Z</time>
      </trkpt>
      <trkpt lat="44.74779" lon="2.6498">
        <ele>401.7</ele>
        <time>2024-08-16T09:06:47Z</time>
      </trkpt>
      <trkpt lat="44.74781" lon="2.64983">
        <ele>401.8</ele>
        <time>2024-08-16T09:06:48Z</time>
      </trkpt>
      <trkpt lat="44.74783" lon="2.6499">
        <ele>401.9</ele>
        <time>2024-08-16T09:06:50Z</time>
      </trkpt>
      <trkpt lat="44.74787" lon="2.64997">
        <ele>402.1</ele>
        <time>2024-08-16T09:06:52Z</time>
      </trkpt>
      <trkpt lat="44.7479" lon="2.65004">
        <ele>402.2</ele>
        <time>2024-08-16T09:06:54Z</time>
      </trkpt>
      <trkpt lat="44.74794" lon="2.65011">
        <ele>402.3</ele>
        <time>2024-08-16T09:06:56Z</time>
      </trkpt>
      <trkpt lat="44.74799" lon="2.65018">
        <ele>402.5</ele>
        <time>2024-08-16T09:06:58Z</time>
      </trkpt>
      <trkpt lat="44.74803" lon="2.65026">
        <ele>402.7</ele>
        <time>2024-08-16T09:07:00Z</time>
      </trkpt>
      <trkpt lat="44.74808" lon="2.65034">
        <ele>403</ele>
        <time>2024-08-16T09:07:02Z</time>
      </trkpt>
      <trkpt lat="44.74813" lon="2.65041">
        <ele>403.3</ele>
        <time>2024-08-16T09:07:04Z</time>
      </trkpt>
      <trkpt lat="44.74817" lon="2.65048">
        <ele>403.7</ele>
        <time>2024-08-16T09:07:06Z</time>
      </trkpt>
      <trkpt lat="44.74822" lon="2.65055">
        <ele>404.1</ele>
        <time>2024-08-16T09:07:08Z</time>
      </trkpt>
      <trkpt lat="44.74827" lon="2.65062">
        <ele>404.6</ele>
        <time>2024-08-16T09:07:10Z</time>
      </trkpt>
      <trkpt lat="44.74832" lon="2.6507">
        <ele>405.2</ele>
        <time>2024-08-16T09:07:12Z</time>
      </trkpt>
      <trkpt lat="44.74836" lon="2.65077">
        <ele>405.8</ele>
        <time>2024-08-16T09:07:14Z</time>
      </trkpt>
      <trkpt lat="44.74838" lon="2.6508">
        <ele>406.2</ele>
        <time>2024-08-16T09:07:15Z</time>
      </trkpt>
      <trkpt lat="44.7484" lon="2.65084">
        <ele>406.5</ele>
        <time>2024-08-16T09:07:16Z</time>
      </trkpt>
      <trkpt lat="44.74843" lon="2.65092">
        <ele>407.2</ele>
        <time>2024-08-16T09:07:18Z</time>
      </trkpt>
      <trkpt lat="44.74844" lon="2.651">
        <ele>407.8</ele>
        <time>2024-08-16T09:07:20Z</time>
      </trkpt>
      <trkpt lat="44.74844" lon="2.65103">
        <ele>408.2</ele>
        <time>2024-08-16T09:07:21Z</time>
      </trkpt>
      <trkpt lat="44.74844" lon="2.65107">
        <ele>408.5</ele>
        <time>2024-08-16T09:07:22Z</time>
      </trkpt>
      <trkpt lat="44.74843" lon="2.65114">
        <ele>409.1</ele>
        <time>2024-08-16T09:07:24Z</time>
      </trkpt>
      <trkpt lat="44.74841" lon="2.6512">
        <ele>409.7</ele>
        <time>2024-08-16T09:07:26Z</time>
      </trkpt>
      <trkpt lat="44.7484" lon="2.65123">
        <ele>410</ele>
        <time>2024-08-16T09:07:27Z</time>
      </trkpt>
      <trkpt lat="44.74839" lon="2.65125">
        <ele>410.2</ele>
        <time>2024-08-16T09:07:28Z</time>
      </trkpt>
      <trkpt lat="44.74836" lon="2.65129">
        <ele>410.7</ele>
        <time>2024-08-16T09:07:30Z</time>
      </trkpt>
      <trkpt lat="44.74832" lon="2.65133">
        <ele>411.2</ele>
        <time>2024-08-16T09:07:32Z</time>
      </trkpt>
      <trkpt lat="44.7483" lon="2.65134">
        <ele>411.4</ele>
        <time>2024-08-16T09:07:33Z</time>
      </trkpt>
      <trkpt lat="44.74829" lon="2.65135">
        <ele>411.6</ele>
        <time>2024-08-16T09:07:34Z</time>
      </trkpt>
      <trkpt lat="44.74825" lon="2.65137">
        <ele>412.1</ele>
        <time>2024-08-16T09:07:36Z</time>
      </trkpt>
      <trkpt lat="44.74821" lon="2.65139">
        <ele>412.5</ele>
        <time>2024-08-16T09:07:38Z</time>
      </trkpt>
      <trkpt lat="44.74817" lon="2.65142">
        <ele>412.9</ele>
        <time>2024-08-16T09:07:40Z</time>
      </trkpt>
      <trkpt lat="44.74814" lon="2.65146">
        <ele>413.4</ele>
        <time>2024-08-16T09:07:42Z</time>
      </trkpt>
      <trkpt lat="44.74812" lon="2.65148">
        <ele>413.6</ele>
        <time>2024-08-16T09:07:43Z</time>
      </trkpt>
      <trkpt lat="44.7481" lon="2.6515">
        <ele>413.9</ele>
        <time>2024-08-16T09:07:44Z</time>
      </trkpt>
      <trkpt lat="44.74807" lon="2.65155">
        <ele>414.4</ele>
        <time>2024-08-16T09:07:46Z</time>
      </trkpt>
      <trkpt lat="44.74804" lon="2.65159">
        <ele>414.9</ele>
        <time>2024-08-16T09:07:48Z</time>
      </trkpt>
      <trkpt lat="44.74801" lon="2.65162">
        <ele>415.4</ele>
        <time>2024-08-16T09:07:50Z</time>
      </trkpt>
      <trkpt lat="44.74797" lon="2.65165">
        <ele>415.9</ele>
        <time>2024-08-16T09:07:52Z</time>
      </trkpt>
      <trkpt lat="44.74795" lon="2.65169">
        <ele>416.3</ele>
        <time>2024-08-16T09:07:54Z</time>
      </trkpt>
      <trkpt lat="44.74794" lon="2.65172">
        <ele>416.6</ele>
        <time>2024-08-16T09:07:56Z</time>
      </trkpt>
      <trkpt lat="44.74794" lon="2.65176">
        <ele>417</ele>
        <time>2024-08-16T09:07:58Z</time>
      </trkpt>
      <trkpt lat="44.74794" lon="2.65179">
        <ele>417.2</ele>
        <time>2024-08-16T09:07:59Z</time>
      </trkpt>
      <trkpt lat="44.74795" lon="2.65181">
        <ele>417.4</ele>
        <time>2024-08-16T09:08:00Z</time>
      </trkpt>
      <trkpt lat="44.74797" lon="2.65185">
        <ele>417.8</ele>
        <time>2024-08-16T09:08:02Z</time>
      </trkpt>
      <trkpt lat="44.74798" lon="2.65189">
        <ele>418.3</ele>
        <time>2024-08-16T09:08:04Z</time>
      </trkpt>
      <trkpt lat="44.74799" lon="2.65192">
        <ele>418.5</ele>
        <time>2024-08-16T09:08:05Z</time>
      </trkpt>
      <trkpt lat="44.748" lon="2.65194">
        <ele>418.7</ele>
        <time>2024-08-16T09:08:06Z</time>
      </trkpt>
      <trkpt lat="44.74802" lon="2.65198">
        <ele>419.2</ele>
        <time>2024-08-16T09:08:08Z</time>
      </trkpt>
      <trkpt lat="44.74803" lon="2.65202">
        <ele>419.5</ele>
        <time>2024-08-16T09:08:10Z</time>
      </trkpt>
      <trkpt lat="44.74804" lon="2.65205">
        <ele>419.9</ele>
        <time>2024-08-16T09:08:12Z</time>
      </trkpt>
      <trkpt lat="44.74805" lon="2.65207">
        <ele>420.1</ele>
        <time>2024-08-16T09:08:13Z</time>
      </trkpt>
      <trkpt lat="44.74805" lon="2.65208">
        <ele>420.3</ele>
        <time>2024-08-16T09:08:14Z</time>
      </trkpt>
      <trkpt lat="44.74806" lon="2.65212">
        <ele>420.6</ele>
        <time>2024-08-16T09:08:16Z</time>
      </trkpt>
      <trkpt lat="44.74806" lon="2.65213">
        <ele>420.8</ele>
        <time>2024-08-16T09:08:17Z</time>
      </trkpt>
      <trkpt lat="44.74807" lon="2.65215">
        <ele>421</ele>
        <time>2024-08-16T09:08:18Z</time>
      </trkpt>
      <trkpt lat="44.74807" lon="2.65217">
        <ele>421.2</ele>
        <time>2024-08-16T09:08:19Z</time>
      </trkpt>
      <trkpt lat="44.74808" lon="2.65219">
        <ele>421.5</ele>
        <time>2024-08-16T09:08:20Z</time>
      </trkpt>
      <trkpt lat="44.74808" lon="2.65221">
        <ele>421.7</ele>
        <time>2024-08-16T09:08:21Z</time>
      </trkpt>
      <trkpt lat="44.74808" lon="2.65223">
        <ele>421.9</ele>
        <time>2024-08-16T09:08:22Z</time>
      </trkpt>
      <trkpt lat="44.74809" lon="2.65226">
        <ele>422.3</ele>
        <time>2024-08-16T09:08:24Z</time>
      </trkpt>
      <trkpt lat="44.7481" lon="2.65231">
        <ele>422.7</ele>
        <time>2024-08-16T09:08:26Z</time>
      </trkpt>
      <trkpt lat="44.7481" lon="2.65233">
        <ele>423</ele>
        <time>2024-08-16T09:08:27Z</time>
      </trkpt>
      <trkpt lat="44.74811" lon="2.65235">
        <ele>423.2</ele>
        <time>2024-08-16T09:08:28Z</time>
      </trkpt>
      <trkpt lat="44.74812" lon="2.65238">
        <ele>423.6</ele>
        <time>2024-08-16T09:08:30Z</time>
      </trkpt>
      <trkpt lat="44.74813" lon="2.65242">
        <ele>424</ele>
        <time>2024-08-16T09:08:32Z</time>
      </trkpt>
      <trkpt lat="44.74813" lon="2.65246">
        <ele>424.5</ele>
        <time>2024-08-16T09:08:34Z</time>
      </trkpt>
      <trkpt lat="44.74814" lon="2.6525">
        <ele>424.9</ele>
        <time>2024-08-16T09:08:36Z</time>
      </trkpt>
      <trkpt lat="44.74815" lon="2.65253">
        <ele>425.3</ele>
        <time>2024-08-16T09:08:38Z</time>
      </trkpt>
      <trkpt lat="44.74816" lon="2.65257">
        <ele>425.7</ele>
        <time>2024-08-16T09:08:40Z</time>
      </trkpt>
      <trkpt lat="44.74816" lon="2.65261">
        <ele>426.2</ele>
        <time>2024-08-16T09:08:42Z</time>
      </trkpt>
      <trkpt lat="44.74817" lon="2.65266">
        <ele>426.7</ele>
        <time>2024-08-16T09:08:44Z</time>
      </trkpt>
      <trkpt lat="44.74819" lon="2.65269">
        <ele>427</ele>
        <time>2024-08-16T09:08:46Z</time>
      </trkpt>
      <trkpt lat="44.74819" lon="2.65271">
        <ele>427.2</ele>
        <time>2024-08-16T09:08:47Z</time>
      </trkpt>
      <trkpt lat="44.74819" lon="2.65273">
        <ele>427.4</ele>
        <time>2024-08-16T09:08:48Z</time>
      </trkpt>
      <trkpt lat="44.7482" lon="2.65277">
        <ele>427.9</ele>
        <time>2024-08-16T09:08:50Z</time>
      </trkpt>
      <trkpt lat="44.74821" lon="2.65282">
        <ele>428.3</ele>
        <time>2024-08-16T09:08:52Z</time>
      </trkpt>
      <trkpt lat="44.74822" lon="2.65286">
        <ele>428.7</ele>
        <time>2024-08-16T09:08:54Z</time>
      </trkpt>
      <trkpt lat="44.74822" lon="2.6529">
        <ele>429.1</ele>
        <time>2024-08-16T09:08:56Z</time>
      </trkpt>
      <trkpt lat="44.74822" lon="2.65295">
        <ele>429.5</ele>
        <time>2024-08-16T09:08:58Z</time>
      </trkpt>
      <trkpt lat="44.74822" lon="2.653">
        <ele>430</ele>
        <time>2024-08-16T09:09:00Z</time>
      </trkpt>
      <trkpt lat="44.74823" lon="2.65303">
        <ele>430.2</ele>
        <time>2024-08-16T09:09:01Z</time>
      </trkpt>
      <trkpt lat="44.74823" lon="2.65305">
        <ele>430.4</ele>
        <time>2024-08-16T09:09:02Z</time>
      </trkpt>
      <trkpt lat="44.74823" lon="2.6531">
        <ele>430.7</ele>
        <time>2024-08-16T09:09:04Z</time>
      </trkpt>
      <trkpt lat="44.74824" lon="2.65315">
        <ele>431.1</ele>
        <time>2024-08-16T09:09:06Z</time>
      </trkpt>
      <trkpt lat="44.74825" lon="2.65321">
        <ele>431.5</ele>
        <time>2024-08-16T09:09:08Z</time>
      </trkpt>
      <trkpt lat="44.74826" lon="2.65326">
        <ele>431.9</ele>
        <time>2024-08-16T09:09:10Z</time>
      </trkpt>
      <trkpt lat="44.74827" lon="2.65332">
        <ele>432.2</ele>
        <time>2024-08-16T09:09:12Z</time>
      </trkpt>
      <trkpt lat="44.74827" lon="2.65335">
        <ele>432.4</ele>
        <time>2024-08-16T09:09:13Z</time>
      </trkpt>
      <trkpt lat="44.74827" lon="2.65338">
        <ele>432.6</ele>
        <time>2024-08-16T09:09:14Z</time>
      </trkpt>
      <trkpt lat="44.74829" lon="2.65344">
        <ele>432.9</ele>
        <time>2024-08-16T09:09:16Z</time>
      </trkpt>
      <trkpt lat="44.74829" lon="2.6535">
        <ele>433.3</ele>
        <time>2024-08-16T09:09:18Z</time>
      </trkpt>
      <trkpt lat="44.7483" lon="2.65353">
        <ele>433.4</ele>
        <time>2024-08-16T09:09:19Z</time>
      </trkpt>
      <trkpt lat="44.7483" lon="2.65357">
        <ele>433.6</ele>
        <time>2024-08-16T09:09:20Z</time>
      </trkpt>
      <trkpt lat="44.7483" lon="2.65364">
        <ele>434</ele>
        <time>2024-08-16T09:09:22Z</time>
      </trkpt>
      <trkpt lat="44.74831" lon="2.6537">
        <ele>434.4</ele>
        <time>2024-08-16T09:09:24Z</time>
      </trkpt>
      <trkpt lat="44.74832" lon="2.65377">
        <ele>434.7</ele>
        <time>2024-08-16T09:09:26Z</time>
      </trkpt>
      <trkpt lat="44.74834" lon="2.65383">
        <ele>435.1</ele>
        <time>2024-08-16T09:09:28Z</time>
      </trkpt>
      <trkpt lat="44.74835" lon="2.6539">
        <ele>435.4</ele>
        <time>2024-08-16T09:09:30Z</time>
      </trkpt>
      <trkpt lat="44.74837" lon="2.65396">
        <ele>435.6</ele>
        <time>2024-08-16T09:09:32Z</time>
      </trkpt>
      <trkpt lat="44.74838" lon="2.65399">
        <ele>435.7</ele>
        <time>2024-08-16T09:09:33Z</time>
      </trkpt>
      <trkpt lat="44.74839" lon="2.65403">
        <ele>435.8</ele>
        <time>2024-08-16T09:09:34Z</time>
      </trkpt>
      <trkpt lat="44.74841" lon="2.6541">
        <ele>435.8</ele>
        <time>2024-08-16T09:09:36Z</time>
      </trkpt>
      <trkpt lat="44.74843" lon="2.65418">
        <ele>435.9</ele>
        <time>2024-08-16T09:09:38Z</time>
      </trkpt>
      <trkpt lat="44.74845" lon="2.65421">
        <ele>435.9</ele>
        <time>2024-08-16T09:09:39Z</time>
      </trkpt>
      <trkpt lat="44.74846" lon="2.65424">
        <ele>435.9</ele>
        <time>2024-08-16T09:09:40Z</time>
      </trkpt>
      <trkpt lat="44.74847" lon="2.65433">
        <ele>435.9</ele>
        <time>2024-08-16T09:09:42Z</time>
      </trkpt>
      <trkpt lat="44.74849" lon="2.65443">
        <ele>435.8</ele>
        <time>2024-08-16T09:09:44Z</time>
      </trkpt>
      <trkpt lat="44.74851" lon="2.65449">
        <ele>435.8</ele>
        <time>2024-08-16T09:09:45Z</time>
      </trkpt>
      <trkpt lat="44.74852" lon="2.65455">
        <ele>435.7</ele>
        <time>2024-08-16T09:09:46Z</time>
      </trkpt>
      <trkpt lat="44.74855" lon="2.65467">
        <ele>435.7</ele>
        <time>2024-08-16T09:09:48Z</time>
      </trkpt>
      <trkpt lat="44.74857" lon="2.65473">
        <ele>435.8</ele>
        <time>2024-08-16T09:09:49Z</time>
      </trkpt>
      <trkpt lat="44.7486" lon="2.6548">
        <ele>435.8</ele>
        <time>2024-08-16T09:09:50Z</time>
      </trkpt>
      <trkpt lat="44.74863" lon="2.65486">
        <ele>435.9</ele>
        <time>2024-08-16T09:09:51Z</time>
      </trkpt>
      <trkpt lat="44.74866" lon="2.65493">
        <ele>436</ele>
        <time>2024-08-16T09:09:52Z</time>
      </trkpt>
      <trkpt lat="44.74871" lon="2.65506">
        <ele>436.1</ele>
        <time>2024-08-16T09:09:54Z</time>
      </trkpt>
      <trkpt lat="44.74876" lon="2.65518">
        <ele>436.1</ele>
        <time>2024-08-16T09:09:56Z</time>
      </trkpt>
      <trkpt lat="44.74879" lon="2.65524">
        <ele>436.1</ele>
        <time>2024-08-16T09:09:57Z</time>
      </trkpt>
      <trkpt lat="44.74883" lon="2.65531">
        <ele>436</ele>
        <time>2024-08-16T09:09:58Z</time>
      </trkpt>
      <trkpt lat="44.7489" lon="2.65545">
        <ele>435.8</ele>
        <time>2024-08-16T09:10:00Z</time>
      </trkpt>
      <trkpt lat="44.74897" lon="2.65558">
        <ele>435.7</ele>
        <time>2024-08-16T09:10:02Z</time>
      </trkpt>
      <trkpt lat="44.749" lon="2.65565">
        <ele>435.8</ele>
        <time>2024-08-16T09:10:03Z</time>
      </trkpt>
      <trkpt lat="44.74904" lon="2.65571">
        <ele>435.8</ele>
        <time>2024-08-16T09:10:04Z</time>
      </trkpt>
      <trkpt lat="44.74912" lon="2.65583">
        <ele>435.9</ele>
        <time>2024-08-16T09:10:06Z</time>
      </trkpt>
      <trkpt lat="44.74921" lon="2.65595">
        <ele>435.8</ele>
        <time>2024-08-16T09:10:08Z</time>
      </trkpt>
      <trkpt lat="44.7493" lon="2.65605">
        <ele>435.3</ele>
        <time>2024-08-16T09:10:10Z</time>
      </trkpt>
      <trkpt lat="44.74934" lon="2.6561">
        <ele>434.8</ele>
        <time>2024-08-16T09:10:11Z</time>
      </trkpt>
      <trkpt lat="44.7494" lon="2.65613">
        <ele>434.2</ele>
        <time>2024-08-16T09:10:12Z</time>
      </trkpt>
      <trkpt lat="44.74952" lon="2.6562">
        <ele>432.5</ele>
        <time>2024-08-16T09:10:14Z</time>
      </trkpt>
      <trkpt lat="44.74959" lon="2.65623">
        <ele>431.7</ele>
        <time>2024-08-16T09:10:15Z</time>
      </trkpt>
      <trkpt lat="44.74967" lon="2.65626">
        <ele>430.9</ele>
        <time>2024-08-16T09:10:16Z</time>
      </trkpt>
      <trkpt lat="44.74976" lon="2.6563">
        <ele>430.3</ele>
        <time>2024-08-16T09:10:17Z</time>
      </trkpt>
      <trkpt lat="44.74985" lon="2.65635">
        <ele>429.8</ele>
        <time>2024-08-16T09:10:18Z</time>
      </trkpt>
      <trkpt lat="44.74995" lon="2.6564">
        <ele>429.6</ele>
        <time>2024-08-16T09:10:19Z</time>
      </trkpt>
      <trkpt lat="44.75004" lon="2.65645">
        <ele>429.5</ele>
        <time>2024-08-16T09:10:20Z</time>
      </trkpt>
      <trkpt lat="44.75013" lon="2.6565">
        <ele>429.7</ele>
        <time>2024-08-16T09:10:21Z</time>
      </trkpt>
      <trkpt lat="44.75022" lon="2.65654">
        <ele>429.9</ele>
        <time>2024-08-16T09:10:22Z</time>
      </trkpt>
      <trkpt lat="44.75039" lon="2.6566">
        <ele>430.9</ele>
        <time>2024-08-16T09:10:24Z</time>
      </trkpt>
      <trkpt lat="44.75045" lon="2.65663">
        <ele>431.4</ele>
        <time>2024-08-16T09:10:25Z</time>
      </trkpt>
      <trkpt lat="44.75049" lon="2.65668">
        <ele>431.9</ele>
        <time>2024-08-16T09:10:26Z</time>
      </trkpt>
      <trkpt lat="44.75051" lon="2.65675">
        <ele>432.3</ele>
        <time>2024-08-16T09:10:27Z</time>
      </trkpt>
      <trkpt lat="44.75053" lon="2.65681">
        <ele>432.7</ele>
        <time>2024-08-16T09:10:28Z</time>
      </trkpt>
      <trkpt lat="44.75053" lon="2.65693">
        <ele>433.1</ele>
        <time>2024-08-16T09:10:30Z</time>
      </trkpt>
      <trkpt lat="44.75051" lon="2.65703">
        <ele>433.3</ele>
        <time>2024-08-16T09:10:32Z</time>
      </trkpt>
      <trkpt lat="44.75047" lon="2.65711">
        <ele>433.5</ele>
        <time>2024-08-16T09:10:34Z</time>
      </trkpt>
      <trkpt lat="44.75043" lon="2.65717">
        <ele>433.7</ele>
        <time>2024-08-16T09:10:36Z</time>
      </trkpt>
      <trkpt lat="44.7504" lon="2.65723">
        <ele>434</ele>
        <time>2024-08-16T09:10:38Z</time>
      </trkpt>
      <trkpt lat="44.75039" lon="2.65727">
        <ele>434.1</ele>
        <time>2024-08-16T09:10:39Z</time>
      </trkpt>
      <trkpt lat="44.75038" lon="2.6573">
        <ele>434.3</ele>
        <time>2024-08-16T09:10:40Z</time>
      </trkpt>
      <trkpt lat="44.75036" lon="2.65738">
        <ele>434.6</ele>
        <time>2024-08-16T09:10:42Z</time>
      </trkpt>
      <trkpt lat="44.75036" lon="2.65742">
        <ele>434.8</ele>
        <time>2024-08-16T09:10:43Z</time>
      </trkpt>
      <trkpt lat="44.75036" lon="2.65745">
        <ele>434.9</ele>
        <time>2024-08-16T09:10:44Z</time>
      </trkpt>
      <trkpt lat="44.75035" lon="2.65749">
        <ele>435.1</ele>
        <time>2024-08-16T09:10:45Z</time>
      </trkpt>
      <trkpt lat="44.75034" lon="2.65753">
        <ele>435.2</ele>
        <time>2024-08-16T09:10:46Z</time>
      </trkpt>
      <trkpt lat="44.75034" lon="2.6576">
        <ele>435.6</ele>
        <time>2024-08-16T09:10:48Z</time>
      </trkpt>
      <trkpt lat="44.75034" lon="2.65763">
        <ele>435.7</ele>
        <time>2024-08-16T09:10:49Z</time>
      </trkpt>
      <trkpt lat="44.75034" lon="2.65766">
        <ele>435.8</ele>
        <time>2024-08-16T09:10:50Z</time>
      </trkpt>
      <trkpt lat="44.75034" lon="2.65772">
        <ele>436.2</ele>
        <time>2024-08-16T09:10:52Z</time>
      </trkpt>
      <trkpt lat="44.75034" lon="2.65779">
        <ele>436.6</ele>
        <time>2024-08-16T09:10:54Z</time>
      </trkpt>
      <trkpt lat="44.75034" lon="2.65785">
        <ele>437</ele>
        <time>2024-08-16T09:10:56Z</time>
      </trkpt>
      <trkpt lat="44.75035" lon="2.6579">
        <ele>437.4</ele>
        <time>2024-08-16T09:10:58Z</time>
      </trkpt>
      <trkpt lat="44.75035" lon="2.65795">
        <ele>437.7</ele>
        <time>2024-08-16T09:11:00Z</time>
      </trkpt>
      <trkpt lat="44.75035" lon="2.65798">
        <ele>437.8</ele>
        <time>2024-08-16T09:11:01Z</time>
      </trkpt>
      <trkpt lat="44.75035" lon="2.65801">
        <ele>438</ele>
        <time>2024-08-16T09:11:02Z</time>
      </trkpt>
      <trkpt lat="44.75036" lon="2.65807">
        <ele>438.3</ele>
        <time>2024-08-16T09:11:04Z</time>
      </trkpt>
      <trkpt lat="44.75036" lon="2.6581">
        <ele>438.5</ele>
        <time>2024-08-16T09:11:05Z</time>
      </trkpt>
      <trkpt lat="44.75037" lon="2.65813">
        <ele>438.6</ele>
        <time>2024-08-16T09:11:06Z</time>
      </trkpt>
      <trkpt lat="44.75039" lon="2.65816">
        <ele>438.7</ele>
        <time>2024-08-16T09:11:07Z</time>
      </trkpt>
      <trkpt lat="44.7504" lon="2.65819">
        <ele>438.9</ele>
        <time>2024-08-16T09:11:08Z</time>
      </trkpt>
      <trkpt lat="44.75041" lon="2.65822">
        <ele>439</ele>
        <time>2024-08-16T09:11:09Z</time>
      </trkpt>
      <trkpt lat="44.75042" lon="2.65826">
        <ele>439.2</ele>
        <time>2024-08-16T09:11:10Z</time>
      </trkpt>
      <trkpt lat="44.75043" lon="2.65833">
        <ele>439.4</ele>
        <time>2024-08-16T09:11:12Z</time>
      </trkpt>
      <trkpt lat="44.75045" lon="2.6584">
        <ele>439.5</ele>
        <time>2024-08-16T09:11:14Z</time>
      </trkpt>
      <trkpt lat="44.75045" lon="2.65843">
        <ele>439.6</ele>
        <time>2024-08-16T09:11:15Z</time>
      </trkpt>
      <trkpt lat="44.75046" lon="2.65846">
        <ele>439.7</ele>
        <time>2024-08-16T09:11:16Z</time>
      </trkpt>
      <trkpt lat="44.75047" lon="2.65849">
        <ele>439.7</ele>
        <time>2024-08-16T09:11:17Z</time>
      </trkpt>
      <trkpt lat="44.75048" lon="2.65851">
        <ele>439.7</ele>
        <time>2024-08-16T09:11:18Z</time>
      </trkpt>
      <trkpt lat="44.75048" lon="2.65854">
        <ele>439.8</ele>
        <time>2024-08-16T09:11:19Z</time>
      </trkpt>
      <trkpt lat="44.7505" lon="2.65857">
        <ele>439.8</ele>
        <time>2024-08-16T09:11:20Z</time>
      </trkpt>
      <trkpt lat="44.75051" lon="2.65861">
        <ele>439.9</ele>
        <time>2024-08-16T09:11:21Z</time>
      </trkpt>
      <trkpt lat="44.75052" lon="2.65864">
        <ele>439.9</ele>
        <time>2024-08-16T09:11:22Z</time>
      </trkpt>
      <trkpt lat="44.75054" lon="2.65868">
        <ele>439.9</ele>
        <time>2024-08-16T09:11:23Z</time>
      </trkpt>
      <trkpt lat="44.75055" lon="2.65872">
        <ele>439.9</ele>
        <time>2024-08-16T09:11:24Z</time>
      </trkpt>
      <trkpt lat="44.75056" lon="2.65875">
        <ele>439.9</ele>
        <time>2024-08-16T09:11:25Z</time>
      </trkpt>
      <trkpt lat="44.75058" lon="2.65879">
        <ele>439.9</ele>
        <time>2024-08-16T09:11:26Z</time>
      </trkpt>
      <trkpt lat="44.75059" lon="2.65883">
        <ele>439.9</ele>
        <time>2024-08-16T09:11:27Z</time>
      </trkpt>
      <trkpt lat="44.7506" lon="2.65886">
        <ele>439.9</ele>
        <time>2024-08-16T09:11:28Z</time>
      </trkpt>
      <trkpt lat="44.75062" lon="2.6589">
        <ele>439.9</ele>
        <time>2024-08-16T09:11:29Z</time>
      </trkpt>
      <trkpt lat="44.75063" lon="2.65894">
        <ele>439.8</ele>
        <time>2024-08-16T09:11:30Z</time>
      </trkpt>
      <trkpt lat="44.75065" lon="2.65898">
        <ele>439.8</ele>
        <time>2024-08-16T09:11:31Z</time>
      </trkpt>
      <trkpt lat="44.75066" lon="2.65902">
        <ele>439.8</ele>
        <time>2024-08-16T09:11:32Z</time>
      </trkpt>
      <trkpt lat="44.75069" lon="2.65911">
        <ele>439.6</ele>
        <time>2024-08-16T09:11:34Z</time>
      </trkpt>
      <trkpt lat="44.75072" lon="2.65921">
        <ele>439.4</ele>
        <time>2024-08-16T09:11:36Z</time>
      </trkpt>
      <trkpt lat="44.75074" lon="2.65932">
        <ele>439.1</ele>
        <time>2024-08-16T09:11:38Z</time>
      </trkpt>
      <trkpt lat="44.75075" lon="2.65943">
        <ele>438.8</ele>
        <time>2024-08-16T09:11:40Z</time>
      </trkpt>
      <trkpt lat="44.75076" lon="2.65949">
        <ele>438.6</ele>
        <time>2024-08-16T09:11:41Z</time>
      </trkpt>
      <trkpt lat="44.75077" lon="2.65955">
        <ele>438.4</ele>
        <time>2024-08-16T09:11:42Z</time>
      </trkpt>
      <trkpt lat="44.75077" lon="2.65967">
        <ele>437.9</ele>
        <time>2024-08-16T09:11:44Z</time>
      </trkpt>
      <trkpt lat="44.75078" lon="2.65973">
        <ele>437.6</ele>
        <time>2024-08-16T09:11:45Z</time>
      </trkpt>
      <trkpt lat="44.75079" lon="2.6598">
        <ele>437.2</ele>
        <time>2024-08-16T09:11:46Z</time>
      </trkpt>
      <trkpt lat="44.7508" lon="2.65987">
        <ele>436.7</ele>
        <time>2024-08-16T09:11:47Z</time>
      </trkpt>
      <trkpt lat="44.75083" lon="2.65993">
        <ele>436.1</ele>
        <time>2024-08-16T09:11:48Z</time>
      </trkpt>
      <trkpt lat="44.75091" lon="2.66006">
        <ele>434.3</ele>
        <time>2024-08-16T09:11:50Z</time>
      </trkpt>
      <trkpt lat="44.75097" lon="2.66013">
        <ele>433.3</ele>
        <time>2024-08-16T09:11:51Z</time>
      </trkpt>
      <trkpt lat="44.75102" lon="2.66018">
        <ele>432.5</ele>
        <time>2024-08-16T09:11:52Z</time>
      </trkpt>
      <trkpt lat="44.75105" lon="2.66022">
        <ele>431.9</ele>
        <time>2024-08-16T09:11:53Z</time>
      </trkpt>
      <trkpt lat="44.75108" lon="2.66026">
        <ele>431.5</ele>
        <time>2024-08-16T09:11:54Z</time>
      </trkpt>
      <trkpt lat="44.75113" lon="2.66033">
        <ele>430.8</ele>
        <time>2024-08-16T09:11:56Z</time>
      </trkpt>
      <trkpt lat="44.75115" lon="2.66036">
        <ele>430.4</ele>
        <time>2024-08-16T09:11:57Z</time>
      </trkpt>
      <trkpt lat="44.75125" lon="2.66043">
        <ele>429.2</ele>
        <time>2024-08-16T09:11:58Z</time>
      </trkpt>
      <trkpt lat="44.75134" lon="2.66048">
        <ele>428.1</ele>
        <time>2024-08-16T09:11:59Z</time>
      </trkpt>
      <trkpt lat="44.75143" lon="2.66053">
        <ele>427.1</ele>
        <time>2024-08-16T09:12:00Z</time>
      </trkpt>
      <trkpt lat="44.75152" lon="2.6606">
        <ele>425.9</ele>
        <time>2024-08-16T09:12:01Z</time>
      </trkpt>
      <trkpt lat="44.7516" lon="2.66068">
        <ele>424.8</ele>
        <time>2024-08-16T09:12:02Z</time>
      </trkpt>
      <trkpt lat="44.75168" lon="2.66075">
        <ele>423.8</ele>
        <time>2024-08-16T09:12:03Z</time>
      </trkpt>
      <trkpt lat="44.75177" lon="2.66083">
        <ele>422.8</ele>
        <time>2024-08-16T09:12:04Z</time>
      </trkpt>
      <trkpt lat="44.75192" lon="2.66094">
        <ele>421</ele>
        <time>2024-08-16T09:12:06Z</time>
      </trkpt>
      <trkpt lat="44.75199" lon="2.66101">
        <ele>420.1</ele>
        <time>2024-08-16T09:12:07Z</time>
      </trkpt>
      <trkpt lat="44.75205" lon="2.66109">
        <ele>419.2</ele>
        <time>2024-08-16T09:12:08Z</time>
      </trkpt>
      <trkpt lat="44.75215" lon="2.66129">
        <ele>417</ele>
        <time>2024-08-16T09:12:10Z</time>
      </trkpt>
      <trkpt lat="44.75221" lon="2.66139">
        <ele>415.5</ele>
        <time>2024-08-16T09:12:11Z</time>
      </trkpt>
      <trkpt lat="44.75227" lon="2.66149">
        <ele>414</ele>
        <time>2024-08-16T09:12:12Z</time>
      </trkpt>
      <trkpt lat="44.75241" lon="2.66169">
        <ele>411.1</ele>
        <time>2024-08-16T09:12:14Z</time>
      </trkpt>
      <trkpt lat="44.75255" lon="2.66191">
        <ele>408.1</ele>
        <time>2024-08-16T09:12:16Z</time>
      </trkpt>
      <trkpt lat="44.7527" lon="2.66213">
        <ele>406</ele>
        <time>2024-08-16T09:12:18Z</time>
      </trkpt>
      <trkpt lat="44.75276" lon="2.66225">
        <ele>405.5</ele>
        <time>2024-08-16T09:12:19Z</time>
      </trkpt>
      <trkpt lat="44.75282" lon="2.66236">
        <ele>405</ele>
        <time>2024-08-16T09:12:20Z</time>
      </trkpt>
      <trkpt lat="44.75292" lon="2.66257">
        <ele>404.2</ele>
        <time>2024-08-16T09:12:22Z</time>
      </trkpt>
      <trkpt lat="44.75296" lon="2.66264">
        <ele>403.6</ele>
        <time>2024-08-16T09:12:23Z</time>
      </trkpt>
      <trkpt lat="44.753" lon="2.6627">
        <ele>403</ele>
        <time>2024-08-16T09:12:24Z</time>
      </trkpt>
      <trkpt lat="44.75305" lon="2.66272">
        <ele>402.3</ele>
        <time>2024-08-16T09:12:25Z</time>
      </trkpt>
      <trkpt lat="44.75311" lon="2.66273">
        <ele>401.5</ele>
        <time>2024-08-16T09:12:26Z</time>
      </trkpt>
      <trkpt lat="44.75325" lon="2.66272">
        <ele>400</ele>
        <time>2024-08-16T09:12:28Z</time>
      </trkpt>
      <trkpt lat="44.75332" lon="2.66272">
        <ele>399.3</ele>
        <time>2024-08-16T09:12:29Z</time>
      </trkpt>
      <trkpt lat="44.75339" lon="2.66272">
        <ele>398.7</ele>
        <time>2024-08-16T09:12:30Z</time>
      </trkpt>
      <trkpt lat="44.75352" lon="2.66273">
        <ele>397.6</ele>
        <time>2024-08-16T09:12:32Z</time>
      </trkpt>
      <trkpt lat="44.75358" lon="2.66272">
        <ele>397</ele>
        <time>2024-08-16T09:12:33Z</time>
      </trkpt>
      <trkpt lat="44.75365" lon="2.66271">
        <ele>396.4</ele>
        <time>2024-08-16T09:12:34Z</time>
      </trkpt>
      <trkpt lat="44.75379" lon="2.66268">
        <ele>395.2</ele>
        <time>2024-08-16T09:12:36Z</time>
      </trkpt>
      <trkpt lat="44.75394" lon="2.66264">
        <ele>394.2</ele>
        <time>2024-08-16T09:12:38Z</time>
      </trkpt>
      <trkpt lat="44.75401" lon="2.66262">
        <ele>393.8</ele>
        <time>2024-08-16T09:12:39Z</time>
      </trkpt>
      <trkpt lat="44.75407" lon="2.66266">
        <ele>393.6</ele>
        <time>2024-08-16T09:12:40Z</time>
      </trkpt>
      <trkpt lat="44.75412" lon="2.66273">
        <ele>393.5</ele>
        <time>2024-08-16T09:12:41Z</time>
      </trkpt>
      <trkpt lat="44.75413" lon="2.66281">
        <ele>393.5</ele>
        <time>2024-08-16T09:12:42Z</time>
      </trkpt>
      <trkpt lat="44.75412" lon="2.66288">
        <ele>393.6</ele>
        <time>2024-08-16T09:12:43Z</time>
      </trkpt>
      <trkpt lat="44.7541" lon="2.66293">
        <ele>393.8</ele>
        <time>2024-08-16T09:12:44Z</time>
      </trkpt>
      <trkpt lat="44.75406" lon="2.663">
        <ele>394.1</ele>
        <time>2024-08-16T09:12:46Z</time>
      </trkpt>
      <trkpt lat="44.75402" lon="2.66306">
        <ele>394.4</ele>
        <time>2024-08-16T09:12:48Z</time>
      </trkpt>
      <trkpt lat="44.754" lon="2.66313">
        <ele>394.7</ele>
        <time>2024-08-16T09:12:50Z</time>
      </trkpt>
      <trkpt lat="44.75397" lon="2.66319">
        <ele>394.9</ele>
        <time>2024-08-16T09:12:52Z</time>
      </trkpt>
      <trkpt lat="44.75395" lon="2.66326">
        <ele>395.1</ele>
        <time>2024-08-16T09:12:54Z</time>
      </trkpt>
      <trkpt lat="44.75392" lon="2.66332">
        <ele>395.3</ele>
        <time>2024-08-16T09:12:56Z</time>
      </trkpt>
      <trkpt lat="44.7539" lon="2.66339">
        <ele>395.5</ele>
        <time>2024-08-16T09:12:58Z</time>
      </trkpt>
      <trkpt lat="44.75388" lon="2.66346">
        <ele>395.7</ele>
        <time>2024-08-16T09:13:00Z</time>
      </trkpt>
      <trkpt lat="44.75385" lon="2.66352">
        <ele>395.8</ele>
        <time>2024-08-16T09:13:02Z</time>
      </trkpt>
      <trkpt lat="44.75382" lon="2.66358">
        <ele>395.8</ele>
        <time>2024-08-16T09:13:04Z</time>
      </trkpt>
      <trkpt lat="44.7538" lon="2.66365">
        <ele>395.5</ele>
        <time>2024-08-16T09:13:06Z</time>
      </trkpt>
      <trkpt lat="44.75378" lon="2.66372">
        <ele>395.2</ele>
        <time>2024-08-16T09:13:08Z</time>
      </trkpt>
      <trkpt lat="44.75377" lon="2.66375">
        <ele>395</ele>
        <time>2024-08-16T09:13:09Z</time>
      </trkpt>
      <trkpt lat="44.75377" lon="2.66379">
        <ele>394.8</ele>
        <time>2024-08-16T09:13:10Z</time>
      </trkpt>
      <trkpt lat="44.75375" lon="2.66387">
        <ele>394.5</ele>
        <time>2024-08-16T09:13:12Z</time>
      </trkpt>
      <trkpt lat="44.75373" lon="2.66395">
        <ele>394.1</ele>
        <time>2024-08-16T09:13:14Z</time>
      </trkpt>
      <trkpt lat="44.75371" lon="2.66403">
        <ele>393.8</ele>
        <time>2024-08-16T09:13:16Z</time>
      </trkpt>
      <trkpt lat="44.75369" lon="2.66406">
        <ele>393.6</ele>
        <time>2024-08-16T09:13:17Z</time>
      </trkpt>
      <trkpt lat="44.75368" lon="2.6641">
        <ele>393.4</ele>
        <time>2024-08-16T09:13:18Z</time>
      </trkpt>
      <trkpt lat="44.75368" lon="2.66414">
        <ele>393.2</ele>
        <time>2024-08-16T09:13:19Z</time>
      </trkpt>
      <trkpt lat="44.75369" lon="2.66419">
        <ele>393</ele>
        <time>2024-08-16T09:13:20Z</time>
      </trkpt>
      <trkpt lat="44.75369" lon="2.66423">
        <ele>392.7</ele>
        <time>2024-08-16T09:13:21Z</time>
      </trkpt>
      <trkpt lat="44.75368" lon="2.66427">
        <ele>392.5</ele>
        <time>2024-08-16T09:13:22Z</time>
      </trkpt>
      <trkpt lat="44.75368" lon="2.66432">
        <ele>392.2</ele>
        <time>2024-08-16T09:13:23Z</time>
      </trkpt>
      <trkpt lat="44.75367" lon="2.66435">
        <ele>391.9</ele>
        <time>2024-08-16T09:13:24Z</time>
      </trkpt>
      <trkpt lat="44.75366" lon="2.66439">
        <ele>391.6</ele>
        <time>2024-08-16T09:13:25Z</time>
      </trkpt>
      <trkpt lat="44.75366" lon="2.66442">
        <ele>391.3</ele>
        <time>2024-08-16T09:13:26Z</time>
      </trkpt>
      <trkpt lat="44.75367" lon="2.66449">
        <ele>390.7</ele>
        <time>2024-08-16T09:13:28Z</time>
      </trkpt>
      <trkpt lat="44.75368" lon="2.66452">
        <ele>390.3</ele>
        <time>2024-08-16T09:13:29Z</time>
      </trkpt>
      <trkpt lat="44.75369" lon="2.66455">
        <ele>390</ele>
        <time>2024-08-16T09:13:30Z</time>
      </trkpt>
      <trkpt lat="44.7537" lon="2.66466">
        <ele>388.9</ele>
        <time>2024-08-16T09:13:32Z</time>
      </trkpt>
      <trkpt lat="44.75369" lon="2.66471">
        <ele>388.3</ele>
        <time>2024-08-16T09:13:33Z</time>
      </trkpt>
      <trkpt lat="44.75368" lon="2.66476">
        <ele>387.7</ele>
        <time>2024-08-16T09:13:34Z</time>
      </trkpt>
      <trkpt lat="44.75367" lon="2.66482">
        <ele>387</ele>
        <time>2024-08-16T09:13:35Z</time>
      </trkpt>
      <trkpt lat="44.75366" lon="2.66489">
        <ele>386.2</ele>
        <time>2024-08-16T09:13:36Z</time>
      </trkpt>
      <trkpt lat="44.75367" lon="2.66498">
        <ele>385.1</ele>
        <time>2024-08-16T09:13:37Z</time>
      </trkpt>
      <trkpt lat="44.75367" lon="2.66507">
        <ele>384.1</ele>
        <time>2024-08-16T09:13:38Z</time>
      </trkpt>
      <trkpt lat="44.75372" lon="2.66527">
        <ele>381.6</ele>
        <time>2024-08-16T09:13:40Z</time>
      </trkpt>
      <trkpt lat="44.75375" lon="2.66537">
        <ele>380.3</ele>
        <time>2024-08-16T09:13:41Z</time>
      </trkpt>
      <trkpt lat="44.75378" lon="2.66548">
        <ele>378.9</ele>
        <time>2024-08-16T09:13:42Z</time>
      </trkpt>
      <trkpt lat="44.75385" lon="2.6657">
        <ele>376</ele>
        <time>2024-08-16T09:13:44Z</time>
      </trkpt>
      <trkpt lat="44.7539" lon="2.66595">
        <ele>372.8</ele>
        <time>2024-08-16T09:13:46Z</time>
      </trkpt>
      <trkpt lat="44.75395" lon="2.66618">
        <ele>371.3</ele>
        <time>2024-08-16T09:13:48Z</time>
      </trkpt>
      <trkpt lat="44.75406" lon="2.66638">
        <ele>370.8</ele>
        <time>2024-08-16T09:13:50Z</time>
      </trkpt>
      <trkpt lat="44.7542" lon="2.66651">
        <ele>370.4</ele>
        <time>2024-08-16T09:13:51Z</time>
      </trkpt>
      <trkpt lat="44.75427" lon="2.66659">
        <ele>370.2</ele>
        <time>2024-08-16T09:13:52Z</time>
      </trkpt>
      <trkpt lat="44.75434" lon="2.66667">
        <ele>369.9</ele>
        <time>2024-08-16T09:13:54Z</time>
      </trkpt>
      <trkpt lat="44.75437" lon="2.66671">
        <ele>369.9</ele>
        <time>2024-08-16T09:13:55Z</time>
      </trkpt>
      <trkpt lat="44.75439" lon="2.66674">
        <ele>369.8</ele>
        <time>2024-08-16T09:13:56Z</time>
      </trkpt>
      <trkpt lat="44.75446" lon="2.6668">
        <ele>369.6</ele>
        <time>2024-08-16T09:13:58Z</time>
      </trkpt>
      <trkpt lat="44.7545" lon="2.66683">
        <ele>369.5</ele>
        <time>2024-08-16T09:13:59Z</time>
      </trkpt>
      <trkpt lat="44.75454" lon="2.66685">
        <ele>369.4</ele>
        <time>2024-08-16T09:14:00Z</time>
      </trkpt>
      <trkpt lat="44.75459" lon="2.66687">
        <ele>369.2</ele>
        <time>2024-08-16T09:14:01Z</time>
      </trkpt>
      <trkpt lat="44.75464" lon="2.66689">
        <ele>369.1</ele>
        <time>2024-08-16T09:14:02Z</time>
      </trkpt>
      <trkpt lat="44.75476" lon="2.66693">
        <ele>368.8</ele>
        <time>2024-08-16T09:14:04Z</time>
      </trkpt>
      <trkpt lat="44.75482" lon="2.66696">
        <ele>368.6</ele>
        <time>2024-08-16T09:14:05Z</time>
      </trkpt>
      <trkpt lat="44.75488" lon="2.667">
        <ele>368.1</ele>
        <time>2024-08-16T09:14:06Z</time>
      </trkpt>
      <trkpt lat="44.75499" lon="2.66709">
        <ele>367.9</ele>
        <time>2024-08-16T09:14:08Z</time>
      </trkpt>
      <trkpt lat="44.75504" lon="2.66715">
        <ele>367.1</ele>
        <time>2024-08-16T09:14:09Z</time>
      </trkpt>
      <trkpt lat="44.75506" lon="2.66723">
        <ele>365.9</ele>
        <time>2024-08-16T09:14:10Z</time>
      </trkpt>
      <trkpt lat="44.75507" lon="2.66732">
        <ele>362.3</ele>
        <time>2024-08-16T09:14:11Z</time>
      </trkpt>
      <trkpt lat="44.75506" lon="2.66739">
        <ele>362.2</ele>
        <time>2024-08-16T09:14:12Z</time>
      </trkpt>
      <trkpt lat="44.75504" lon="2.66745">
        <ele>362.1</ele>
        <time>2024-08-16T09:14:13Z</time>
      </trkpt>
      <trkpt lat="44.75502" lon="2.66751">
        <ele>361.9</ele>
        <time>2024-08-16T09:14:14Z</time>
      </trkpt>
      <trkpt lat="44.755" lon="2.66757">
        <ele>361.8</ele>
        <time>2024-08-16T09:14:15Z</time>
      </trkpt>
      <trkpt lat="44.75497" lon="2.66761">
        <ele>361.7</ele>
        <time>2024-08-16T09:14:16Z</time>
      </trkpt>
      <trkpt lat="44.75494" lon="2.6677">
        <ele>361.5</ele>
        <time>2024-08-16T09:14:18Z</time>
      </trkpt>
      <trkpt lat="44.75491" lon="2.66776">
        <ele>361.4</ele>
        <time>2024-08-16T09:14:20Z</time>
      </trkpt>
      <trkpt lat="44.75489" lon="2.66779">
        <ele>361.3</ele>
        <time>2024-08-16T09:14:22Z</time>
      </trkpt>
      <trkpt lat="44.75488" lon="2.66783">
        <ele>361.2</ele>
        <time>2024-08-16T09:14:23Z</time>
      </trkpt>
      <trkpt lat="44.75487" lon="2.66786">
        <ele>361.1</ele>
        <time>2024-08-16T09:14:24Z</time>
      </trkpt>
      <trkpt lat="44.75484" lon="2.66793">
        <ele>361</ele>
        <time>2024-08-16T09:14:26Z</time>
      </trkpt>
      <trkpt lat="44.75483" lon="2.66797">
        <ele>360.9</ele>
        <time>2024-08-16T09:14:27Z</time>
      </trkpt>
      <trkpt lat="44.75483" lon="2.66801">
        <ele>360.8</ele>
        <time>2024-08-16T09:14:28Z</time>
      </trkpt>
      <trkpt lat="44.75485" lon="2.66811">
        <ele>360.6</ele>
        <time>2024-08-16T09:14:30Z</time>
      </trkpt>
      <trkpt lat="44.75489" lon="2.66821">
        <ele>360.4</ele>
        <time>2024-08-16T09:14:32Z</time>
      </trkpt>
      <trkpt lat="44.75491" lon="2.66826">
        <ele>360.3</ele>
        <time>2024-08-16T09:14:33Z</time>
      </trkpt>
      <trkpt lat="44.75494" lon="2.66831">
        <ele>360.1</ele>
        <time>2024-08-16T09:14:34Z</time>
      </trkpt>
      <trkpt lat="44.75497" lon="2.66836">
        <ele>360</ele>
        <time>2024-08-16T09:14:35Z</time>
      </trkpt>
      <trkpt lat="44.75501" lon="2.66841">
        <ele>359.9</ele>
        <time>2024-08-16T09:14:36Z</time>
      </trkpt>
      <trkpt lat="44.75507" lon="2.66848">
        <ele>359.6</ele>
        <time>2024-08-16T09:14:38Z</time>
      </trkpt>
      <trkpt lat="44.75507" lon="2.66851">
        <ele>359.6</ele>
        <time>2024-08-16T09:14:39Z</time>
      </trkpt>
      <trkpt lat="44.75508" lon="2.66854">
        <ele>359.5</ele>
        <time>2024-08-16T09:14:40Z</time>
      </trkpt>
      <trkpt lat="44.75508" lon="2.6686">
        <ele>359.4</ele>
        <time>2024-08-16T09:14:42Z</time>
      </trkpt>
      <trkpt lat="44.75508" lon="2.66862">
        <ele>359.4</ele>
        <time>2024-08-16T09:14:43Z</time>
      </trkpt>
      <trkpt lat="44.75509" lon="2.66864">
        <ele>359.3</ele>
        <time>2024-08-16T09:14:44Z</time>
      </trkpt>
      <trkpt lat="44.75511" lon="2.66867">
        <ele>359.3</ele>
        <time>2024-08-16T09:14:45Z</time>
      </trkpt>
      <trkpt lat="44.75515" lon="2.66871">
        <ele>359.1</ele>
        <time>2024-08-16T09:14:46Z</time>
      </trkpt>
      <trkpt lat="44.75523" lon="2.66879">
        <ele>358.8</ele>
        <time>2024-08-16T09:14:48Z</time>
      </trkpt>
      <trkpt lat="44.7553" lon="2.66889">
        <ele>358.6</ele>
        <time>2024-08-16T09:14:50Z</time>
      </trkpt>
      <trkpt lat="44.75536" lon="2.66898">
        <ele>358.3</ele>
        <time>2024-08-16T09:14:52Z</time>
      </trkpt>
      <trkpt lat="44.75538" lon="2.66903">
        <ele>358.2</ele>
        <time>2024-08-16T09:14:53Z</time>
      </trkpt>
      <trkpt lat="44.75542" lon="2.66909">
        <ele>358</ele>
        <time>2024-08-16T09:14:54Z</time>
      </trkpt>
      <trkpt lat="44.75552" lon="2.6692">
        <ele>357.7</ele>
        <time>2024-08-16T09:14:56Z</time>
      </trkpt>
      <trkpt lat="44.75557" lon="2.66928">
        <ele>357.5</ele>
        <time>2024-08-16T09:14:58Z</time>
      </trkpt>
      <trkpt lat="44.75565" lon="2.66937">
        <ele>357.2</ele>
        <time>2024-08-16T09:15:00Z</time>
      </trkpt>
      <trkpt lat="44.75571" lon="2.66945">
        <ele>357</ele>
        <time>2024-08-16T09:15:02Z</time>
      </trkpt>
      <trkpt lat="44.75577" lon="2.66952">
        <ele>356.8</ele>
        <time>2024-08-16T09:15:04Z</time>
      </trkpt>
      <trkpt lat="44.75582" lon="2.66961">
        <ele>356.5</ele>
        <time>2024-08-16T09:15:06Z</time>
      </trkpt>
      <trkpt lat="44.75588" lon="2.66969">
        <ele>356.3</ele>
        <time>2024-08-16T09:15:08Z</time>
      </trkpt>
      <trkpt lat="44.75591" lon="2.66973">
        <ele>356.2</ele>
        <time>2024-08-16T09:15:09Z</time>
      </trkpt>
      <trkpt lat="44.75595" lon="2.66979">
        <ele>356</ele>
        <time>2024-08-16T09:15:10Z</time>
      </trkpt>
      <trkpt lat="44.75601" lon="2.66987">
        <ele>355.8</ele>
        <time>2024-08-16T09:15:12Z</time>
      </trkpt>
      <trkpt lat="44.75606" lon="2.66995">
        <ele>355.6</ele>
        <time>2024-08-16T09:15:14Z</time>
      </trkpt>
      <trkpt lat="44.75615" lon="2.67006">
        <ele>355.3</ele>
        <time>2024-08-16T09:15:16Z</time>
      </trkpt>
      <trkpt lat="44.75618" lon="2.6701">
        <ele>355.2</ele>
        <time>2024-08-16T09:15:17Z</time>
      </trkpt>
      <trkpt lat="44.75621" lon="2.67014">
        <ele>355</ele>
        <time>2024-08-16T09:15:18Z</time>
      </trkpt>
      <trkpt lat="44.75628" lon="2.67021">
        <ele>354.8</ele>
        <time>2024-08-16T09:15:20Z</time>
      </trkpt>
      <trkpt lat="44.75631" lon="2.67024">
        <ele>354.7</ele>
        <time>2024-08-16T09:15:21Z</time>
      </trkpt>
      <trkpt lat="44.75632" lon="2.67026">
        <ele>354.7</ele>
        <time>2024-08-16T09:15:22Z</time>
      </trkpt>
      <trkpt lat="44.75643" lon="2.67038">
        <ele>354.3</ele>
        <time>2024-08-16T09:15:24Z</time>
      </trkpt>
      <trkpt lat="44.75648" lon="2.67045">
        <ele>354.1</ele>
        <time>2024-08-16T09:15:25Z</time>
      </trkpt>
      <trkpt lat="44.75653" lon="2.67051">
        <ele>353.9</ele>
        <time>2024-08-16T09:15:26Z</time>
      </trkpt>
      <trkpt lat="44.75657" lon="2.67057">
        <ele>353.7</ele>
        <time>2024-08-16T09:15:27Z</time>
      </trkpt>
      <trkpt lat="44.7566" lon="2.67063">
        <ele>353.6</ele>
        <time>2024-08-16T09:15:28Z</time>
      </trkpt>
      <trkpt lat="44.75664" lon="2.67067">
        <ele>353.5</ele>
        <time>2024-08-16T09:15:29Z</time>
      </trkpt>
      <trkpt lat="44.75667" lon="2.67071">
        <ele>353.3</ele>
        <time>2024-08-16T09:15:30Z</time>
      </trkpt>
      <trkpt lat="44.75672" lon="2.67079">
        <ele>353.1</ele>
        <time>2024-08-16T09:15:32Z</time>
      </trkpt>
      <trkpt lat="44.75678" lon="2.67085">
        <ele>352.9</ele>
        <time>2024-08-16T09:15:34Z</time>
      </trkpt>
      <trkpt lat="44.75684" lon="2.67091">
        <ele>352.7</ele>
        <time>2024-08-16T09:15:36Z</time>
      </trkpt>
      <trkpt lat="44.75688" lon="2.67096">
        <ele>352.6</ele>
        <time>2024-08-16T09:15:38Z</time>
      </trkpt>
      <trkpt lat="44.7569" lon="2.67098">
        <ele>352.5</ele>
        <time>2024-08-16T09:15:39Z</time>
      </trkpt>
      <trkpt lat="44.75692" lon="2.671">
        <ele>352.4</ele>
        <time>2024-08-16T09:15:40Z</time>
      </trkpt>
      <trkpt lat="44.75697" lon="2.67107">
        <ele>352.3</ele>
        <time>2024-08-16T09:15:41Z</time>
      </trkpt>
      <trkpt lat="44.75698" lon="2.67109">
        <ele>352.2</ele>
        <time>2024-08-16T09:15:42Z</time>
      </trkpt>
      <trkpt lat="44.757" lon="2.6711">
        <ele>352.2</ele>
        <time>2024-08-16T09:15:43Z</time>
      </trkpt>
      <trkpt lat="44.75703" lon="2.67114">
        <ele>352</ele>
        <time>2024-08-16T09:15:44Z</time>
      </trkpt>
      <trkpt lat="44.75706" lon="2.67124">
        <ele>351.8</ele>
        <time>2024-08-16T09:15:45Z</time>
      </trkpt>
      <trkpt lat="44.75707" lon="2.67129">
        <ele>351.7</ele>
        <time>2024-08-16T09:15:46Z</time>
      </trkpt>
      <trkpt lat="44.75708" lon="2.67134">
        <ele>351.6</ele>
        <time>2024-08-16T09:15:47Z</time>
      </trkpt>
      <trkpt lat="44.75709" lon="2.67138">
        <ele>351.5</ele>
        <time>2024-08-16T09:15:48Z</time>
      </trkpt>
      <trkpt lat="44.75711" lon="2.67148">
        <ele>351.3</ele>
        <time>2024-08-16T09:15:50Z</time>
      </trkpt>
      <trkpt lat="44.75711" lon="2.67153">
        <ele>351.2</ele>
        <time>2024-08-16T09:15:51Z</time>
      </trkpt>
      <trkpt lat="44.75711" lon="2.67158">
        <ele>351.1</ele>
        <time>2024-08-16T09:15:52Z</time>
      </trkpt>
      <trkpt lat="44.75713" lon="2.67169">
        <ele>350.9</ele>
        <time>2024-08-16T09:15:54Z</time>
      </trkpt>
      <trkpt lat="44.75716" lon="2.6718">
        <ele>350.7</ele>
        <time>2024-08-16T09:15:56Z</time>
      </trkpt>
      <trkpt lat="44.75718" lon="2.67186">
        <ele>350.6</ele>
        <time>2024-08-16T09:15:57Z</time>
      </trkpt>
      <trkpt lat="44.7572" lon="2.67192">
        <ele>350.4</ele>
        <time>2024-08-16T09:15:58Z</time>
      </trkpt>
      <trkpt lat="44.75723" lon="2.67199">
        <ele>350.3</ele>
        <time>2024-08-16T09:15:59Z</time>
      </trkpt>
      <trkpt lat="44.75726" lon="2.67206">
        <ele>350.1</ele>
        <time>2024-08-16T09:16:00Z</time>
      </trkpt>
      <trkpt lat="44.7573" lon="2.67214">
        <ele>349.9</ele>
        <time>2024-08-16T09:16:01Z</time>
      </trkpt>
      <trkpt lat="44.75731" lon="2.67218">
        <ele>349.8</ele>
        <time>2024-08-16T09:16:02Z</time>
      </trkpt>
      <trkpt lat="44.75733" lon="2.67222">
        <ele>349.8</ele>
        <time>2024-08-16T09:16:03Z</time>
      </trkpt>
      <trkpt lat="44.7574" lon="2.67239">
        <ele>349.4</ele>
        <time>2024-08-16T09:16:04Z</time>
      </trkpt>
      <trkpt lat="44.75747" lon="2.67256">
        <ele>349</ele>
        <time>2024-08-16T09:16:06Z</time>
      </trkpt>
      <trkpt lat="44.7575" lon="2.67265">
        <ele>348.8</ele>
        <time>2024-08-16T09:16:07Z</time>
      </trkpt>
      <trkpt lat="44.75752" lon="2.67273">
        <ele>348.6</ele>
        <time>2024-08-16T09:16:08Z</time>
      </trkpt>
      <trkpt lat="44.75759" lon="2.67288">
        <ele>348.3</ele>
        <time>2024-08-16T09:16:10Z</time>
      </trkpt>
      <trkpt lat="44.75768" lon="2.67299">
        <ele>347.9</ele>
        <time>2024-08-16T09:16:12Z</time>
      </trkpt>
      <trkpt lat="44.75781" lon="2.67303">
        <ele>347.6</ele>
        <time>2024-08-16T09:16:13Z</time>
      </trkpt>
      <trkpt lat="44.75794" lon="2.67307">
        <ele>347.2</ele>
        <time>2024-08-16T09:16:14Z</time>
      </trkpt>
      <trkpt lat="44.75813" lon="2.67305">
        <ele>346.7</ele>
        <time>2024-08-16T09:16:16Z</time>
      </trkpt>
      <trkpt lat="44.75821" lon="2.67302">
        <ele>346.4</ele>
        <time>2024-08-16T09:16:17Z</time>
      </trkpt>
      <trkpt lat="44.75829" lon="2.67296">
        <ele>346.1</ele>
        <time>2024-08-16T09:16:18Z</time>
      </trkpt>
      <trkpt lat="44.75835" lon="2.67286">
        <ele>345.5</ele>
        <time>2024-08-16T09:16:19Z</time>
      </trkpt>
      <trkpt lat="44.75839" lon="2.67276">
        <ele>344.8</ele>
        <time>2024-08-16T09:16:20Z</time>
      </trkpt>
      <trkpt lat="44.75845" lon="2.67257">
        <ele>343.5</ele>
        <time>2024-08-16T09:16:22Z</time>
      </trkpt>
      <trkpt lat="44.75849" lon="2.67251">
        <ele>343.1</ele>
        <time>2024-08-16T09:16:23Z</time>
      </trkpt>
      <trkpt lat="44.75854" lon="2.67247">
        <ele>342.8</ele>
        <time>2024-08-16T09:16:24Z</time>
      </trkpt>
      <trkpt lat="44.75865" lon="2.67249">
        <ele>342.4</ele>
        <time>2024-08-16T09:16:26Z</time>
      </trkpt>
      <trkpt lat="44.75869" lon="2.67264">
        <ele>342.5</ele>
        <time>2024-08-16T09:16:28Z</time>
      </trkpt>
      <trkpt lat="44.7587" lon="2.67272">
        <ele>342.7</ele>
        <time>2024-08-16T09:16:29Z</time>
      </trkpt>
      <trkpt lat="44.7587" lon="2.6728">
        <ele>342.9</ele>
        <time>2024-08-16T09:16:30Z</time>
      </trkpt>
      <trkpt lat="44.7587" lon="2.67295">
        <ele>343.2</ele>
        <time>2024-08-16T09:16:32Z</time>
      </trkpt>
      <trkpt lat="44.7587" lon="2.67302">
        <ele>343.3</ele>
        <time>2024-08-16T09:16:33Z</time>
      </trkpt>
      <trkpt lat="44.75869" lon="2.67309">
        <ele>343.5</ele>
        <time>2024-08-16T09:16:34Z</time>
      </trkpt>
      <trkpt lat="44.75868" lon="2.67322">
        <ele>343.7</ele>
        <time>2024-08-16T09:16:36Z</time>
      </trkpt>
      <trkpt lat="44.75865" lon="2.67336">
        <ele>343.7</ele>
        <time>2024-08-16T09:16:38Z</time>
      </trkpt>
      <trkpt lat="44.75862" lon="2.67349">
        <ele>343.6</ele>
        <time>2024-08-16T09:16:40Z</time>
      </trkpt>
      <trkpt lat="44.75858" lon="2.67361">
        <ele>343.5</ele>
        <time>2024-08-16T09:16:42Z</time>
      </trkpt>
      <trkpt lat="44.75854" lon="2.67372">
        <ele>343.6</ele>
        <time>2024-08-16T09:16:44Z</time>
      </trkpt>
      <trkpt lat="44.75851" lon="2.67384">
        <ele>343.7</ele>
        <time>2024-08-16T09:16:46Z</time>
      </trkpt>
      <trkpt lat="44.75851" lon="2.67396">
        <ele>343.7</ele>
        <time>2024-08-16T09:16:48Z</time>
      </trkpt>
      <trkpt lat="44.75854" lon="2.67402">
        <ele>343.6</ele>
        <time>2024-08-16T09:16:49Z</time>
      </trkpt>
      <trkpt lat="44.75856" lon="2.67408">
        <ele>343.6</ele>
        <time>2024-08-16T09:16:50Z</time>
      </trkpt>
      <trkpt lat="44.75862" lon="2.6742">
        <ele>343.5</ele>
        <time>2024-08-16T09:16:52Z</time>
      </trkpt>
      <trkpt lat="44.75865" lon="2.67425">
        <ele>343.5</ele>
        <time>2024-08-16T09:16:53Z</time>
      </trkpt>
      <trkpt lat="44.75869" lon="2.6743">
        <ele>343.5</ele>
        <time>2024-08-16T09:16:54Z</time>
      </trkpt>
      <trkpt lat="44.75877" lon="2.6744">
        <ele>343.5</ele>
        <time>2024-08-16T09:16:56Z</time>
      </trkpt>
      <trkpt lat="44.75881" lon="2.67445">
        <ele>343.5</ele>
        <time>2024-08-16T09:16:57Z</time>
      </trkpt>
      <trkpt lat="44.75884" lon="2.67448">
        <ele>343.5</ele>
        <time>2024-08-16T09:16:58Z</time>
      </trkpt>
      <trkpt lat="44.75888" lon="2.67452">
        <ele>343.6</ele>
        <time>2024-08-16T09:16:59Z</time>
      </trkpt>
      <trkpt lat="44.75891" lon="2.67456">
        <ele>343.6</ele>
        <time>2024-08-16T09:17:00Z</time>
      </trkpt>
      <trkpt lat="44.75899" lon="2.67464">
        <ele>343.8</ele>
        <time>2024-08-16T09:17:02Z</time>
      </trkpt>
      <trkpt lat="44.75906" lon="2.6747">
        <ele>343.9</ele>
        <time>2024-08-16T09:17:04Z</time>
      </trkpt>
      <trkpt lat="44.75913" lon="2.67476">
        <ele>344.1</ele>
        <time>2024-08-16T09:17:06Z</time>
      </trkpt>
      <trkpt lat="44.75917" lon="2.67479">
        <ele>344.2</ele>
        <time>2024-08-16T09:17:07Z</time>
      </trkpt>
      <trkpt lat="44.75921" lon="2.67481">
        <ele>344.3</ele>
        <time>2024-08-16T09:17:08Z</time>
      </trkpt>
      <trkpt lat="44.75923" lon="2.67484">
        <ele>344.3</ele>
        <time>2024-08-16T09:17:09Z</time>
      </trkpt>
      <trkpt lat="44.75925" lon="2.67486">
        <ele>344.4</ele>
        <time>2024-08-16T09:17:10Z</time>
      </trkpt>
      <trkpt lat="44.7593" lon="2.67492">
        <ele>344.5</ele>
        <time>2024-08-16T09:17:12Z</time>
      </trkpt>
      <trkpt lat="44.75935" lon="2.67498">
        <ele>344.7</ele>
        <time>2024-08-16T09:17:14Z</time>
      </trkpt>
      <trkpt lat="44.7594" lon="2.67504">
        <ele>344.9</ele>
        <time>2024-08-16T09:17:16Z</time>
      </trkpt>
      <trkpt lat="44.75942" lon="2.67507">
        <ele>345</ele>
        <time>2024-08-16T09:17:17Z</time>
      </trkpt>
      <trkpt lat="44.75943" lon="2.6751">
        <ele>345.1</ele>
        <time>2024-08-16T09:17:18Z</time>
      </trkpt>
      <trkpt lat="44.7595" lon="2.67515">
        <ele>345.4</ele>
        <time>2024-08-16T09:17:20Z</time>
      </trkpt>
      <trkpt lat="44.75956" lon="2.6752">
        <ele>345.8</ele>
        <time>2024-08-16T09:17:22Z</time>
      </trkpt>
      <trkpt lat="44.75958" lon="2.67523">
        <ele>345.9</ele>
        <time>2024-08-16T09:17:23Z</time>
      </trkpt>
      <trkpt lat="44.75961" lon="2.67526">
        <ele>346.1</ele>
        <time>2024-08-16T09:17:24Z</time>
      </trkpt>
      <trkpt lat="44.75969" lon="2.67534">
        <ele>346.5</ele>
        <time>2024-08-16T09:17:26Z</time>
      </trkpt>
      <trkpt lat="44.75972" lon="2.67538">
        <ele>346.6</ele>
        <time>2024-08-16T09:17:27Z</time>
      </trkpt>
      <trkpt lat="44.75976" lon="2.67541">
        <ele>346.7</ele>
        <time>2024-08-16T09:17:28Z</time>
      </trkpt>
      <trkpt lat="44.75983" lon="2.67544">
        <ele>346.9</ele>
        <time>2024-08-16T09:17:30Z</time>
      </trkpt>
      <trkpt lat="44.75987" lon="2.67546">
        <ele>346.9</ele>
        <time>2024-08-16T09:17:31Z</time>
      </trkpt>
      <trkpt lat="44.75992" lon="2.67547">
        <ele>346.9</ele>
        <time>2024-08-16T09:17:32Z</time>
      </trkpt>
      <trkpt lat="44.76" lon="2.6755">
        <ele>346.7</ele>
        <time>2024-08-16T09:17:34Z</time>
      </trkpt>
      <trkpt lat="44.76005" lon="2.67552">
        <ele>346.5</ele>
        <time>2024-08-16T09:17:35Z</time>
      </trkpt>
      <trkpt lat="44.76009" lon="2.67554">
        <ele>346.4</ele>
        <time>2024-08-16T09:17:36Z</time>
      </trkpt>
      <trkpt lat="44.76013" lon="2.67555">
        <ele>346.3</ele>
        <time>2024-08-16T09:17:37Z</time>
      </trkpt>
      <trkpt lat="44.76015" lon="2.67558">
        <ele>346.2</ele>
        <time>2024-08-16T09:17:38Z</time>
      </trkpt>
      <trkpt lat="44.7602" lon="2.67562">
        <ele>346</ele>
        <time>2024-08-16T09:17:40Z</time>
      </trkpt>
      <trkpt lat="44.76023" lon="2.67564">
        <ele>345.9</ele>
        <time>2024-08-16T09:17:41Z</time>
      </trkpt>
      <trkpt lat="44.76025" lon="2.67566">
        <ele>345.8</ele>
        <time>2024-08-16T09:17:42Z</time>
      </trkpt>
      <trkpt lat="44.76029" lon="2.6757">
        <ele>345.6</ele>
        <time>2024-08-16T09:17:44Z</time>
      </trkpt>
      <trkpt lat="44.76031" lon="2.67572">
        <ele>345.5</ele>
        <time>2024-08-16T09:17:45Z</time>
      </trkpt>
      <trkpt lat="44.76036" lon="2.67575">
        <ele>345.3</ele>
        <time>2024-08-16T09:17:46Z</time>
      </trkpt>
      <trkpt lat="44.76041" lon="2.67579">
        <ele>345</ele>
        <time>2024-08-16T09:17:48Z</time>
      </trkpt>
      <trkpt lat="44.76043" lon="2.67584">
        <ele>344.8</ele>
        <time>2024-08-16T09:17:50Z</time>
      </trkpt>
      <trkpt lat="44.76042" lon="2.67585">
        <ele>344.7</ele>
        <time>2024-08-16T09:17:52Z</time>
      </trkpt>
      <trkpt lat="44.76043" lon="2.67588">
        <ele>344.6</ele>
        <time>2024-08-16T09:17:54Z</time>
      </trkpt>
      <trkpt lat="44.76043" lon="2.67591">
        <ele>344.5</ele>
        <time>2024-08-16T09:17:55Z</time>
      </trkpt>
      <trkpt lat="44.76044" lon="2.67594">
        <ele>344.4</ele>
        <time>2024-08-16T09:17:56Z</time>
      </trkpt>
      <trkpt lat="44.76051" lon="2.67601">
        <ele>344</ele>
        <time>2024-08-16T09:17:58Z</time>
      </trkpt>
      <trkpt lat="44.76059" lon="2.67609">
        <ele>343.5</ele>
        <time>2024-08-16T09:18:00Z</time>
      </trkpt>
      <trkpt lat="44.76063" lon="2.67613">
        <ele>343.3</ele>
        <time>2024-08-16T09:18:01Z</time>
      </trkpt>
      <trkpt lat="44.76067" lon="2.67617">
        <ele>343.1</ele>
        <time>2024-08-16T09:18:02Z</time>
      </trkpt>
      <trkpt lat="44.76075" lon="2.67625">
        <ele>342.7</ele>
        <time>2024-08-16T09:18:04Z</time>
      </trkpt>
      <trkpt lat="44.76095" lon="2.67641">
        <ele>341.6</ele>
        <time>2024-08-16T09:18:06Z</time>
      </trkpt>
      <trkpt lat="44.76104" lon="2.67647">
        <ele>341.2</ele>
        <time>2024-08-16T09:18:07Z</time>
      </trkpt>
      <trkpt lat="44.76117" lon="2.67659">
        <ele>341</ele>
        <time>2024-08-16T09:18:08Z</time>
      </trkpt>
      <trkpt lat="44.76139" lon="2.67672">
        <ele>341.2</ele>
        <time>2024-08-16T09:18:09Z</time>
      </trkpt>
      <trkpt lat="44.76141" lon="2.67675">
        <ele>341.3</ele>
        <time>2024-08-16T09:18:10Z</time>
      </trkpt>
      <trkpt lat="44.76144" lon="2.67677">
        <ele>341.4</ele>
        <time>2024-08-16T09:18:11Z</time>
      </trkpt>
      <trkpt lat="44.76147" lon="2.67677">
        <ele>341.5</ele>
        <time>2024-08-16T09:18:12Z</time>
      </trkpt>
      <trkpt lat="44.76148" lon="2.67676">
        <ele>341.5</ele>
        <time>2024-08-16T09:18:13Z</time>
      </trkpt>
      <trkpt lat="44.7615" lon="2.67674">
        <ele>341.6</ele>
        <time>2024-08-16T09:18:14Z</time>
      </trkpt>
      <trkpt lat="44.76151" lon="2.6767">
        <ele>341.7</ele>
        <time>2024-08-16T09:18:16Z</time>
      </trkpt>
      <trkpt lat="44.76151" lon="2.67668">
        <ele>341.8</ele>
        <time>2024-08-16T09:18:18Z</time>
      </trkpt>
      <trkpt lat="44.76149" lon="2.67666">
        <ele>342.3</ele>
        <time>2024-08-16T09:18:20Z</time>
      </trkpt>
      <trkpt lat="44.76147" lon="2.67664">
        <ele>342.6</ele>
        <time>2024-08-16T09:18:22Z</time>
      </trkpt>
      <trkpt lat="44.76145" lon="2.67662">
        <ele>342.9</ele>
        <time>2024-08-16T09:18:24Z</time>
      </trkpt>
      <trkpt lat="44.76143" lon="2.6766">
        <ele>343.2</ele>
        <time>2024-08-16T09:18:26Z</time>
      </trkpt>
      <trkpt lat="44.76142" lon="2.67657">
        <ele>343.5</ele>
        <time>2024-08-16T09:18:28Z</time>
      </trkpt>
      <trkpt lat="44.76141" lon="2.67656">
        <ele>343.7</ele>
        <time>2024-08-16T09:18:29Z</time>
      </trkpt>
      <trkpt lat="44.7614" lon="2.67654">
        <ele>343.8</ele>
        <time>2024-08-16T09:18:30Z</time>
      </trkpt>
      <trkpt lat="44.76138" lon="2.67652">
        <ele>344.2</ele>
        <time>2024-08-16T09:18:32Z</time>
      </trkpt>
      <trkpt lat="44.76137" lon="2.6765">
        <ele>344.3</ele>
        <time>2024-08-16T09:18:33Z</time>
      </trkpt>
      <trkpt lat="44.76137" lon="2.67648">
        <ele>344.5</ele>
        <time>2024-08-16T09:18:34Z</time>
      </trkpt>
      <trkpt lat="44.76136" lon="2.67647">
        <ele>344.6</ele>
        <time>2024-08-16T09:18:35Z</time>
      </trkpt>
      <trkpt lat="44.76136" lon="2.67646">
        <ele>344.7</ele>
        <time>2024-08-16T09:18:36Z</time>
      </trkpt>
      <trkpt lat="44.76133" lon="2.67643">
        <ele>345.1</ele>
        <time>2024-08-16T09:18:38Z</time>
      </trkpt>
      <trkpt lat="44.76131" lon="2.67641">
        <ele>345.4</ele>
        <time>2024-08-16T09:18:40Z</time>
      </trkpt>
      <trkpt lat="44.76129" lon="2.67638">
        <ele>345.8</ele>
        <time>2024-08-16T09:18:42Z</time>
      </trkpt>
      <trkpt lat="44.76128" lon="2.67637">
        <ele>345.9</ele>
        <time>2024-08-16T09:18:43Z</time>
      </trkpt>
      <trkpt lat="44.76127" lon="2.67635">
        <ele>346.1</ele>
        <time>2024-08-16T09:18:44Z</time>
      </trkpt>
      <trkpt lat="44.76126" lon="2.67633">
        <ele>346.4</ele>
        <time>2024-08-16T09:18:46Z</time>
      </trkpt>
      <trkpt lat="44.76124" lon="2.67631">
        <ele>346.7</ele>
        <time>2024-08-16T09:18:48Z</time>
      </trkpt>
      <trkpt lat="44.76123" lon="2.67629">
        <ele>346.8</ele>
        <time>2024-08-16T09:18:49Z</time>
      </trkpt>
      <trkpt lat="44.76122" lon="2.67628">
        <ele>347</ele>
        <time>2024-08-16T09:18:50Z</time>
      </trkpt>
      <trkpt lat="44.76121" lon="2.67625">
        <ele>347.3</ele>
        <time>2024-08-16T09:18:52Z</time>
      </trkpt>
      <trkpt lat="44.76121" lon="2.67622">
        <ele>347.5</ele>
        <time>2024-08-16T09:18:54Z</time>
      </trkpt>
      <trkpt lat="44.7612" lon="2.6762">
        <ele>347.7</ele>
        <time>2024-08-16T09:18:55Z</time>
      </trkpt>
      <trkpt lat="44.76119" lon="2.67619">
        <ele>347.9</ele>
        <time>2024-08-16T09:18:56Z</time>
      </trkpt>
      <trkpt lat="44.76117" lon="2.67617">
        <ele>348.1</ele>
        <time>2024-08-16T09:18:58Z</time>
      </trkpt>
      <trkpt lat="44.76115" lon="2.67615">
        <ele>348.5</ele>
        <time>2024-08-16T09:19:00Z</time>
      </trkpt>
      <trkpt lat="44.76112" lon="2.67613">
        <ele>348.9</ele>
        <time>2024-08-16T09:19:02Z</time>
      </trkpt>
      <trkpt lat="44.76111" lon="2.67611">
        <ele>349.1</ele>
        <time>2024-08-16T09:19:04Z</time>
      </trkpt>
      <trkpt lat="44.76108" lon="2.67608">
        <ele>349.5</ele>
        <time>2024-08-16T09:19:06Z</time>
      </trkpt>
      <trkpt lat="44.76107" lon="2.67606">
        <ele>349.7</ele>
        <time>2024-08-16T09:19:07Z</time>
      </trkpt>
      <trkpt lat="44.76105" lon="2.67606">
        <ele>349.9</ele>
        <time>2024-08-16T09:19:08Z</time>
      </trkpt>
      <trkpt lat="44.76103" lon="2.67605">
        <ele>350.2</ele>
        <time>2024-08-16T09:19:10Z</time>
      </trkpt>
      <trkpt lat="44.76103" lon="2.67605">
        <ele>350.3</ele>
        <time>2024-08-16T09:19:11Z</time>
      </trkpt>
      <trkpt lat="44.76027" lon="2.67528">
        <ele>361.6</ele>
        <time>2024-08-16T09:20:21Z</time>
      </trkpt>
      <trkpt lat="44.76025" lon="2.67527">
        <ele>361.8</ele>
        <time>2024-08-16T09:20:22Z</time>
      </trkpt>
      <trkpt lat="44.76023" lon="2.67525">
        <ele>362.1</ele>
        <time>2024-08-16T09:20:24Z</time>
      </trkpt>
      <trkpt lat="44.76021" lon="2.67523">
        <ele>362.4</ele>
        <time>2024-08-16T09:20:26Z</time>
      </trkpt>
      <trkpt lat="44.76019" lon="2.67522">
        <ele>362.7</ele>
        <time>2024-08-16T09:20:28Z</time>
      </trkpt>
      <trkpt lat="44.76016" lon="2.67521">
        <ele>363</ele>
        <time>2024-08-16T09:20:30Z</time>
      </trkpt>
      <trkpt lat="44.76013" lon="2.6752">
        <ele>363.3</ele>
        <time>2024-08-16T09:20:32Z</time>
      </trkpt>
      <trkpt lat="44.76012" lon="2.6752">
        <ele>363.5</ele>
        <time>2024-08-16T09:20:33Z</time>
      </trkpt>
      <trkpt lat="44.76011" lon="2.6752">
        <ele>363.7</ele>
        <time>2024-08-16T09:20:34Z</time>
      </trkpt>
      <trkpt lat="44.76009" lon="2.6752">
        <ele>363.8</ele>
        <time>2024-08-16T09:20:35Z</time>
      </trkpt>
      <trkpt lat="44.76008" lon="2.67519">
        <ele>364</ele>
        <time>2024-08-16T09:20:36Z</time>
      </trkpt>
      <trkpt lat="44.76008" lon="2.67519">
        <ele>364</ele>
        <time>2024-08-16T09:20:37Z</time>
      </trkpt>
      <trkpt lat="44.76005" lon="2.67516">
        <ele>364.5</ele>
        <time>2024-08-16T09:20:40Z</time>
      </trkpt>
      <trkpt lat="44.76003" lon="2.67514">
        <ele>364.8</ele>
        <time>2024-08-16T09:20:42Z</time>
      </trkpt>
      <trkpt lat="44.76" lon="2.67512">
        <ele>365.1</ele>
        <time>2024-08-16T09:20:44Z</time>
      </trkpt>
      <trkpt lat="44.75999" lon="2.67511">
        <ele>365.3</ele>
        <time>2024-08-16T09:20:45Z</time>
      </trkpt>
      <trkpt lat="44.75998" lon="2.67511">
        <ele>365.5</ele>
        <time>2024-08-16T09:20:46Z</time>
      </trkpt>
      <trkpt lat="44.75997" lon="2.67509">
        <ele>365.7</ele>
        <time>2024-08-16T09:20:48Z</time>
      </trkpt>
      <trkpt lat="44.75996" lon="2.67508">
        <ele>365.8</ele>
        <time>2024-08-16T09:20:49Z</time>
      </trkpt>
      <trkpt lat="44.75969" lon="2.67472">
        <ele>370.3</ele>
        <time>2024-08-16T09:21:18Z</time>
      </trkpt>
      <trkpt lat="44.75967" lon="2.67469">
        <ele>370.6</ele>
        <time>2024-08-16T09:21:20Z</time>
      </trkpt>
      <trkpt lat="44.75965" lon="2.67467">
        <ele>370.9</ele>
        <time>2024-08-16T09:21:22Z</time>
      </trkpt>
      <trkpt lat="44.75965" lon="2.67467">
        <ele>371</ele>
        <time>2024-08-16T09:21:23Z</time>
      </trkpt>
      <trkpt lat="44.75963" lon="2.67466">
        <ele>371.2</ele>
        <time>2024-08-16T09:21:24Z</time>
      </trkpt>
      <trkpt lat="44.75961" lon="2.67462">
        <ele>371.6</ele>
        <time>2024-08-16T09:21:26Z</time>
      </trkpt>
      <trkpt lat="44.75957" lon="2.67459">
        <ele>372.1</ele>
        <time>2024-08-16T09:21:28Z</time>
      </trkpt>
      <trkpt lat="44.75954" lon="2.67456">
        <ele>372.5</ele>
        <time>2024-08-16T09:21:30Z</time>
      </trkpt>
      <trkpt lat="44.75952" lon="2.67455">
        <ele>372.9</ele>
        <time>2024-08-16T09:21:32Z</time>
      </trkpt>
      <trkpt lat="44.75949" lon="2.67453">
        <ele>373.2</ele>
        <time>2024-08-16T09:21:34Z</time>
      </trkpt>
      <trkpt lat="44.75947" lon="2.67449">
        <ele>373.6</ele>
        <time>2024-08-16T09:21:36Z</time>
      </trkpt>
      <trkpt lat="44.75946" lon="2.67448">
        <ele>373.8</ele>
        <time>2024-08-16T09:21:37Z</time>
      </trkpt>
      <trkpt lat="44.75945" lon="2.67446">
        <ele>374</ele>
        <time>2024-08-16T09:21:38Z</time>
      </trkpt>
      <trkpt lat="44.75942" lon="2.67444">
        <ele>374.4</ele>
        <time>2024-08-16T09:21:40Z</time>
      </trkpt>
      <trkpt lat="44.7594" lon="2.67442">
        <ele>374.7</ele>
        <time>2024-08-16T09:21:42Z</time>
      </trkpt>
      <trkpt lat="44.75937" lon="2.6744">
        <ele>375.1</ele>
        <time>2024-08-16T09:21:44Z</time>
      </trkpt>
      <trkpt lat="44.75934" lon="2.67438">
        <ele>375.5</ele>
        <time>2024-08-16T09:21:46Z</time>
      </trkpt>
      <trkpt lat="44.75932" lon="2.67436">
        <ele>375.8</ele>
        <time>2024-08-16T09:21:48Z</time>
      </trkpt>
      <trkpt lat="44.7593" lon="2.67432">
        <ele>376.2</ele>
        <time>2024-08-16T09:21:50Z</time>
      </trkpt>
      <trkpt lat="44.75929" lon="2.67431">
        <ele>376.4</ele>
        <time>2024-08-16T09:21:51Z</time>
      </trkpt>
      <trkpt lat="44.75928" lon="2.6743">
        <ele>376.5</ele>
        <time>2024-08-16T09:21:52Z</time>
      </trkpt>
      <trkpt lat="44.75926" lon="2.67427">
        <ele>376.9</ele>
        <time>2024-08-16T09:21:54Z</time>
      </trkpt>
      <trkpt lat="44.75925" lon="2.67425">
        <ele>377.1</ele>
        <time>2024-08-16T09:21:55Z</time>
      </trkpt>
      <trkpt lat="44.75923" lon="2.67424">
        <ele>377.3</ele>
        <time>2024-08-16T09:21:56Z</time>
      </trkpt>
      <trkpt lat="44.75921" lon="2.67421">
        <ele>377.6</ele>
        <time>2024-08-16T09:21:58Z</time>
      </trkpt>
      <trkpt lat="44.75919" lon="2.67419">
        <ele>378</ele>
        <time>2024-08-16T09:22:00Z</time>
      </trkpt>
      <trkpt lat="44.75916" lon="2.67416">
        <ele>378.3</ele>
        <time>2024-08-16T09:22:02Z</time>
      </trkpt>
      <trkpt lat="44.75916" lon="2.67415">
        <ele>378.5</ele>
        <time>2024-08-16T09:22:03Z</time>
      </trkpt>
      <trkpt lat="44.75914" lon="2.67414">
        <ele>378.7</ele>
        <time>2024-08-16T09:22:04Z</time>
      </trkpt>
      <trkpt lat="44.75911" lon="2.67411">
        <ele>379.1</ele>
        <time>2024-08-16T09:22:06Z</time>
      </trkpt>
      <trkpt lat="44.75909" lon="2.67408">
        <ele>379.5</ele>
        <time>2024-08-16T09:22:08Z</time>
      </trkpt>
      <trkpt lat="44.75908" lon="2.67407">
        <ele>379.6</ele>
        <time>2024-08-16T09:22:09Z</time>
      </trkpt>
      <trkpt lat="44.75907" lon="2.67406">
        <ele>379.8</ele>
        <time>2024-08-16T09:22:10Z</time>
      </trkpt>
      <trkpt lat="44.75906" lon="2.67405">
        <ele>379.9</ele>
        <time>2024-08-16T09:22:11Z</time>
      </trkpt>
      <trkpt lat="44.75906" lon="2.67403">
        <ele>380.1</ele>
        <time>2024-08-16T09:22:12Z</time>
      </trkpt>
      <trkpt lat="44.75906" lon="2.67401">
        <ele>380.3</ele>
        <time>2024-08-16T09:22:13Z</time>
      </trkpt>
      <trkpt lat="44.75906" lon="2.67398">
        <ele>380.5</ele>
        <time>2024-08-16T09:22:14Z</time>
      </trkpt>
      <trkpt lat="44.75906" lon="2.67394">
        <ele>380.8</ele>
        <time>2024-08-16T09:22:16Z</time>
      </trkpt>
      <trkpt lat="44.75908" lon="2.67392">
        <ele>381.1</ele>
        <time>2024-08-16T09:22:18Z</time>
      </trkpt>
      <trkpt lat="44.75909" lon="2.67391">
        <ele>381.2</ele>
        <time>2024-08-16T09:22:19Z</time>
      </trkpt>
      <trkpt lat="44.75913" lon="2.67391">
        <ele>381.7</ele>
        <time>2024-08-16T09:22:24Z</time>
      </trkpt>
      <trkpt lat="44.75915" lon="2.67394">
        <ele>382.1</ele>
        <time>2024-08-16T09:22:26Z</time>
      </trkpt>
      <trkpt lat="44.75917" lon="2.67397">
        <ele>382.4</ele>
        <time>2024-08-16T09:22:28Z</time>
      </trkpt>
      <trkpt lat="44.75919" lon="2.67401">
        <ele>382.8</ele>
        <time>2024-08-16T09:22:30Z</time>
      </trkpt>
      <trkpt lat="44.75921" lon="2.67403">
        <ele>383.2</ele>
        <time>2024-08-16T09:22:32Z</time>
      </trkpt>
      <trkpt lat="44.75924" lon="2.67406">
        <ele>383.5</ele>
        <time>2024-08-16T09:22:34Z</time>
      </trkpt>
      <trkpt lat="44.75926" lon="2.67408">
        <ele>383.8</ele>
        <time>2024-08-16T09:22:36Z</time>
      </trkpt>
      <trkpt lat="44.75928" lon="2.67411">
        <ele>384.2</ele>
        <time>2024-08-16T09:22:38Z</time>
      </trkpt>
      <trkpt lat="44.7593" lon="2.67414">
        <ele>384.6</ele>
        <time>2024-08-16T09:22:40Z</time>
      </trkpt>
      <trkpt lat="44.75933" lon="2.67416">
        <ele>385</ele>
        <time>2024-08-16T09:22:42Z</time>
      </trkpt>
      <trkpt lat="44.75936" lon="2.67418">
        <ele>385.4</ele>
        <time>2024-08-16T09:22:44Z</time>
      </trkpt>
      <trkpt lat="44.75937" lon="2.67419">
        <ele>385.6</ele>
        <time>2024-08-16T09:22:45Z</time>
      </trkpt>
      <trkpt lat="44.75939" lon="2.6742">
        <ele>385.7</ele>
        <time>2024-08-16T09:22:46Z</time>
      </trkpt>
      <trkpt lat="44.75941" lon="2.67422">
        <ele>386.1</ele>
        <time>2024-08-16T09:22:48Z</time>
      </trkpt>
      <trkpt lat="44.75944" lon="2.67424">
        <ele>386.4</ele>
        <time>2024-08-16T09:22:50Z</time>
      </trkpt>
      <trkpt lat="44.75945" lon="2.67425">
        <ele>386.6</ele>
        <time>2024-08-16T09:22:51Z</time>
      </trkpt>
      <trkpt lat="44.75946" lon="2.67425">
        <ele>386.8</ele>
        <time>2024-08-16T09:22:52Z</time>
      </trkpt>
      <trkpt lat="44.75949" lon="2.67427">
        <ele>387.2</ele>
        <time>2024-08-16T09:22:54Z</time>
      </trkpt>
      <trkpt lat="44.75952" lon="2.67429">
        <ele>387.5</ele>
        <time>2024-08-16T09:22:56Z</time>
      </trkpt>
      <trkpt lat="44.75955" lon="2.67431">
        <ele>387.9</ele>
        <time>2024-08-16T09:22:58Z</time>
      </trkpt>
      <trkpt lat="44.75957" lon="2.67433">
        <ele>388.3</ele>
        <time>2024-08-16T09:23:00Z</time>
      </trkpt>
      <trkpt lat="44.7596" lon="2.67435">
        <ele>388.6</ele>
        <time>2024-08-16T09:23:02Z</time>
      </trkpt>
      <trkpt lat="44.75963" lon="2.67436">
        <ele>389</ele>
        <time>2024-08-16T09:23:04Z</time>
      </trkpt>
      <trkpt lat="44.75966" lon="2.67436">
        <ele>389.3</ele>
        <time>2024-08-16T09:23:06Z</time>
      </trkpt>
      <trkpt lat="44.75968" lon="2.67437">
        <ele>389.6</ele>
        <time>2024-08-16T09:23:08Z</time>
      </trkpt>
      <trkpt lat="44.75969" lon="2.67438">
        <ele>389.8</ele>
        <time>2024-08-16T09:23:09Z</time>
      </trkpt>
      <trkpt lat="44.7597" lon="2.67439">
        <ele>389.9</ele>
        <time>2024-08-16T09:23:10Z</time>
      </trkpt>
      <trkpt lat="44.75973" lon="2.67439">
        <ele>390.2</ele>
        <time>2024-08-16T09:23:12Z</time>
      </trkpt>
      <trkpt lat="44.75974" lon="2.6744">
        <ele>390.4</ele>
        <time>2024-08-16T09:23:13Z</time>
      </trkpt>
      <trkpt lat="44.75975" lon="2.67441">
        <ele>390.6</ele>
        <time>2024-08-16T09:23:14Z</time>
      </trkpt>
      <trkpt lat="44.75977" lon="2.67441">
        <ele>390.8</ele>
        <time>2024-08-16T09:23:15Z</time>
      </trkpt>
      <trkpt lat="44.75979" lon="2.67442">
        <ele>391</ele>
        <time>2024-08-16T09:23:16Z</time>
      </trkpt>
      <trkpt lat="44.75982" lon="2.67443">
        <ele>391.4</ele>
        <time>2024-08-16T09:23:18Z</time>
      </trkpt>
      <trkpt lat="44.75983" lon="2.67443">
        <ele>391.6</ele>
        <time>2024-08-16T09:23:20Z</time>
      </trkpt>
      <trkpt lat="44.75987" lon="2.67445">
        <ele>392.1</ele>
        <time>2024-08-16T09:23:22Z</time>
      </trkpt>
      <trkpt lat="44.75989" lon="2.67446">
        <ele>392.3</ele>
        <time>2024-08-16T09:23:23Z</time>
      </trkpt>
      <trkpt lat="44.7599" lon="2.67446">
        <ele>392.5</ele>
        <time>2024-08-16T09:23:24Z</time>
      </trkpt>
      <trkpt lat="44.75993" lon="2.67448">
        <ele>392.8</ele>
        <time>2024-08-16T09:23:26Z</time>
      </trkpt>
      <trkpt lat="44.75995" lon="2.67449">
        <ele>393</ele>
        <time>2024-08-16T09:23:27Z</time>
      </trkpt>
      <trkpt lat="44.75996" lon="2.6745">
        <ele>393.2</ele>
        <time>2024-08-16T09:23:28Z</time>
      </trkpt>
      <trkpt lat="44.75999" lon="2.67451">
        <ele>393.6</ele>
        <time>2024-08-16T09:23:30Z</time>
      </trkpt>
      <trkpt lat="44.76001" lon="2.67452">
        <ele>393.9</ele>
        <time>2024-08-16T09:23:32Z</time>
      </trkpt>
      <trkpt lat="44.76003" lon="2.67452">
        <ele>394.1</ele>
        <time>2024-08-16T09:23:33Z</time>
      </trkpt>
      <trkpt lat="44.76005" lon="2.67453">
        <ele>394.3</ele>
        <time>2024-08-16T09:23:34Z</time>
      </trkpt>
      <trkpt lat="44.76009" lon="2.67454">
        <ele>394.8</ele>
        <time>2024-08-16T09:23:36Z</time>
      </trkpt>
      <trkpt lat="44.7601" lon="2.67454">
        <ele>394.9</ele>
        <time>2024-08-16T09:23:37Z</time>
      </trkpt>
      <trkpt lat="44.76011" lon="2.67455">
        <ele>395.1</ele>
        <time>2024-08-16T09:23:38Z</time>
      </trkpt>
      <trkpt lat="44.76015" lon="2.67456">
        <ele>395.5</ele>
        <time>2024-08-16T09:23:40Z</time>
      </trkpt>
      <trkpt lat="44.76018" lon="2.67457">
        <ele>395.9</ele>
        <time>2024-08-16T09:23:42Z</time>
      </trkpt>
      <trkpt lat="44.7602" lon="2.67457">
        <ele>396.2</ele>
        <time>2024-08-16T09:23:43Z</time>
      </trkpt>
      <trkpt lat="44.76021" lon="2.67458">
        <ele>396.4</ele>
        <time>2024-08-16T09:23:44Z</time>
      </trkpt>
      <trkpt lat="44.76024" lon="2.67459">
        <ele>396.6</ele>
        <time>2024-08-16T09:23:46Z</time>
      </trkpt>
      <trkpt lat="44.76025" lon="2.67459">
        <ele>396.8</ele>
        <time>2024-08-16T09:23:47Z</time>
      </trkpt>
      <trkpt lat="44.76026" lon="2.6746">
        <ele>396.9</ele>
        <time>2024-08-16T09:23:48Z</time>
      </trkpt>
      <trkpt lat="44.76029" lon="2.67461">
        <ele>397.3</ele>
        <time>2024-08-16T09:23:50Z</time>
      </trkpt>
      <trkpt lat="44.76031" lon="2.67462">
        <ele>397.6</ele>
        <time>2024-08-16T09:23:52Z</time>
      </trkpt>
      <trkpt lat="44.76032" lon="2.67463">
        <ele>397.7</ele>
        <time>2024-08-16T09:23:53Z</time>
      </trkpt>
      <trkpt lat="44.76034" lon="2.67463">
        <ele>397.9</ele>
        <time>2024-08-16T09:23:54Z</time>
      </trkpt>
      <trkpt lat="44.76036" lon="2.67463">
        <ele>398.2</ele>
        <time>2024-08-16T09:23:56Z</time>
      </trkpt>
      <trkpt lat="44.76037" lon="2.67463">
        <ele>398.3</ele>
        <time>2024-08-16T09:23:57Z</time>
      </trkpt>
      <trkpt lat="44.76055" lon="2.67467">
        <ele>400.5</ele>
        <time>2024-08-16T09:24:07Z</time>
      </trkpt>
      <trkpt lat="44.76057" lon="2.67467">
        <ele>400.8</ele>
        <time>2024-08-16T09:24:08Z</time>
      </trkpt>
      <trkpt lat="44.76061" lon="2.67467">
        <ele>401.3</ele>
        <time>2024-08-16T09:24:10Z</time>
      </trkpt>
      <trkpt lat="44.76064" lon="2.67467">
        <ele>401.6</ele>
        <time>2024-08-16T09:24:12Z</time>
      </trkpt>
      <trkpt lat="44.76068" lon="2.67468">
        <ele>402.1</ele>
        <time>2024-08-16T09:24:14Z</time>
      </trkpt>
      <trkpt lat="44.76072" lon="2.67468">
        <ele>402.5</ele>
        <time>2024-08-16T09:24:16Z</time>
      </trkpt>
      <trkpt lat="44.76074" lon="2.67468">
        <ele>402.8</ele>
        <time>2024-08-16T09:24:18Z</time>
      </trkpt>
      <trkpt lat="44.76076" lon="2.6747">
        <ele>403.1</ele>
        <time>2024-08-16T09:24:20Z</time>
      </trkpt>
      <trkpt lat="44.76077" lon="2.6747">
        <ele>403.2</ele>
        <time>2024-08-16T09:24:21Z</time>
      </trkpt>
      <trkpt lat="44.7609" lon="2.67474">
        <ele>404.8</ele>
        <time>2024-08-16T09:24:31Z</time>
      </trkpt>
      <trkpt lat="44.76092" lon="2.67475">
        <ele>405</ele>
        <time>2024-08-16T09:24:32Z</time>
      </trkpt>
      <trkpt lat="44.76093" lon="2.67475">
        <ele>405.2</ele>
        <time>2024-08-16T09:24:33Z</time>
      </trkpt>
      <trkpt lat="44.76106" lon="2.67483">
        <ele>406.9</ele>
        <time>2024-08-16T09:24:43Z</time>
      </trkpt>
      <trkpt lat="44.76107" lon="2.67484">
        <ele>407.1</ele>
        <time>2024-08-16T09:24:44Z</time>
      </trkpt>
      <trkpt lat="44.7611" lon="2.67486">
        <ele>407.4</ele>
        <time>2024-08-16T09:24:46Z</time>
      </trkpt>
      <trkpt lat="44.76112" lon="2.67487">
        <ele>407.7</ele>
        <time>2024-08-16T09:24:48Z</time>
      </trkpt>
      <trkpt lat="44.76115" lon="2.67489">
        <ele>408.2</ele>
        <time>2024-08-16T09:24:50Z</time>
      </trkpt>
      <trkpt lat="44.76116" lon="2.6749">
        <ele>408.3</ele>
        <time>2024-08-16T09:24:52Z</time>
      </trkpt>
      <trkpt lat="44.76117" lon="2.6749">
        <ele>408.4</ele>
        <time>2024-08-16T09:24:53Z</time>
      </trkpt>
      <trkpt lat="44.76166" lon="2.67507">
        <ele>414.5</ele>
        <time>2024-08-16T09:25:27Z</time>
      </trkpt>
      <trkpt lat="44.76167" lon="2.67508">
        <ele>414.6</ele>
        <time>2024-08-16T09:25:28Z</time>
      </trkpt>
      <trkpt lat="44.76168" lon="2.67509">
        <ele>414.8</ele>
        <time>2024-08-16T09:25:29Z</time>
      </trkpt>
      <trkpt lat="44.7617" lon="2.67511">
        <ele>415.1</ele>
        <time>2024-08-16T09:25:30Z</time>
      </trkpt>
      <trkpt lat="44.76171" lon="2.67512">
        <ele>415.2</ele>
        <time>2024-08-16T09:25:31Z</time>
      </trkpt>
      <trkpt lat="44.76171" lon="2.67513">
        <ele>415.4</ele>
        <time>2024-08-16T09:25:32Z</time>
      </trkpt>
      <trkpt lat="44.76171" lon="2.67515">
        <ele>415.5</ele>
        <time>2024-08-16T09:25:33Z</time>
      </trkpt>
      <trkpt lat="44.762" lon="2.6753">
        <ele>419.2</ele>
        <time>2024-08-16T09:25:53Z</time>
      </trkpt>
      <trkpt lat="44.76202" lon="2.67531">
        <ele>419.4</ele>
        <time>2024-08-16T09:25:54Z</time>
      </trkpt>
      <trkpt lat="44.76204" lon="2.67532">
        <ele>419.7</ele>
        <time>2024-08-16T09:25:56Z</time>
      </trkpt>
      <trkpt lat="44.76207" lon="2.67532">
        <ele>420</ele>
        <time>2024-08-16T09:25:58Z</time>
      </trkpt>
      <trkpt lat="44.7621" lon="2.67533">
        <ele>420.4</ele>
        <time>2024-08-16T09:26:00Z</time>
      </trkpt>
      <trkpt lat="44.76213" lon="2.67534">
        <ele>420.8</ele>
        <time>2024-08-16T09:26:02Z</time>
      </trkpt>
      <trkpt lat="44.76215" lon="2.67537">
        <ele>421.1</ele>
        <time>2024-08-16T09:26:04Z</time>
      </trkpt>
      <trkpt lat="44.76214" lon="2.67537">
        <ele>421.2</ele>
        <time>2024-08-16T09:26:05Z</time>
      </trkpt>
      <trkpt lat="44.76216" lon="2.67538">
        <ele>421.4</ele>
        <time>2024-08-16T09:26:06Z</time>
      </trkpt>
      <trkpt lat="44.7622" lon="2.6754">
        <ele>421.9</ele>
        <time>2024-08-16T09:26:08Z</time>
      </trkpt>
      <trkpt lat="44.76221" lon="2.67542">
        <ele>422.1</ele>
        <time>2024-08-16T09:26:09Z</time>
      </trkpt>
      <trkpt lat="44.76222" lon="2.67543">
        <ele>422.3</ele>
        <time>2024-08-16T09:26:10Z</time>
      </trkpt>
      <trkpt lat="44.76224" lon="2.67544">
        <ele>422.5</ele>
        <time>2024-08-16T09:26:11Z</time>
      </trkpt>
      <trkpt lat="44.76236" lon="2.67554">
        <ele>424.2</ele>
        <time>2024-08-16T09:26:22Z</time>
      </trkpt>
      <trkpt lat="44.76239" lon="2.67556">
        <ele>424.6</ele>
        <time>2024-08-16T09:26:24Z</time>
      </trkpt>
      <trkpt lat="44.76241" lon="2.67558">
        <ele>424.9</ele>
        <time>2024-08-16T09:26:26Z</time>
      </trkpt>
      <trkpt lat="44.76243" lon="2.6756">
        <ele>425.2</ele>
        <time>2024-08-16T09:26:28Z</time>
      </trkpt>
      <trkpt lat="44.76243" lon="2.67562">
        <ele>425.4</ele>
        <time>2024-08-16T09:26:29Z</time>
      </trkpt>
      <trkpt lat="44.76257" lon="2.67572">
        <ele>427.2</ele>
        <time>2024-08-16T09:26:41Z</time>
      </trkpt>
      <trkpt lat="44.76258" lon="2.67573">
        <ele>427.4</ele>
        <time>2024-08-16T09:26:42Z</time>
      </trkpt>
      <trkpt lat="44.76261" lon="2.67576">
        <ele>427.8</ele>
        <time>2024-08-16T09:26:44Z</time>
      </trkpt>
      <trkpt lat="44.76263" lon="2.6758">
        <ele>428.2</ele>
        <time>2024-08-16T09:26:46Z</time>
      </trkpt>
      <trkpt lat="44.76264" lon="2.67581">
        <ele>428.4</ele>
        <time>2024-08-16T09:26:47Z</time>
      </trkpt>
      <trkpt lat="44.76266" lon="2.67582">
        <ele>428.6</ele>
        <time>2024-08-16T09:26:48Z</time>
      </trkpt>
      <trkpt lat="44.76268" lon="2.67582">
        <ele>428.8</ele>
        <time>2024-08-16T09:26:49Z</time>
      </trkpt>
      <trkpt lat="44.76269" lon="2.67582">
        <ele>429</ele>
        <time>2024-08-16T09:26:50Z</time>
      </trkpt>
      <trkpt lat="44.7627" lon="2.67579">
        <ele>429.2</ele>
        <time>2024-08-16T09:26:52Z</time>
      </trkpt>
      <trkpt lat="44.76271" lon="2.67575">
        <ele>429.6</ele>
        <time>2024-08-16T09:26:54Z</time>
      </trkpt>
      <trkpt lat="44.7627" lon="2.67571">
        <ele>429.9</ele>
        <time>2024-08-16T09:26:56Z</time>
      </trkpt>
      <trkpt lat="44.76268" lon="2.67568">
        <ele>430.3</ele>
        <time>2024-08-16T09:26:58Z</time>
      </trkpt>
      <trkpt lat="44.76266" lon="2.67566">
        <ele>430.7</ele>
        <time>2024-08-16T09:27:00Z</time>
      </trkpt>
      <trkpt lat="44.76265" lon="2.67565">
        <ele>430.8</ele>
        <time>2024-08-16T09:27:01Z</time>
      </trkpt>
      <trkpt lat="44.76263" lon="2.67564">
        <ele>431</ele>
        <time>2024-08-16T09:27:02Z</time>
      </trkpt>
      <trkpt lat="44.76261" lon="2.67562">
        <ele>431.4</ele>
        <time>2024-08-16T09:27:04Z</time>
      </trkpt>
      <trkpt lat="44.76258" lon="2.6756">
        <ele>431.7</ele>
        <time>2024-08-16T09:27:06Z</time>
      </trkpt>
      <trkpt lat="44.76255" lon="2.67559">
        <ele>432.1</ele>
        <time>2024-08-16T09:27:08Z</time>
      </trkpt>
      <trkpt lat="44.76253" lon="2.67556">
        <ele>432.5</ele>
        <time>2024-08-16T09:27:10Z</time>
      </trkpt>
      <trkpt lat="44.7625" lon="2.67553">
        <ele>432.9</ele>
        <time>2024-08-16T09:27:12Z</time>
      </trkpt>
      <trkpt lat="44.76247" lon="2.67551">
        <ele>433.3</ele>
        <time>2024-08-16T09:27:14Z</time>
      </trkpt>
      <trkpt lat="44.76245" lon="2.6755">
        <ele>433.6</ele>
        <time>2024-08-16T09:27:16Z</time>
      </trkpt>
      <trkpt lat="44.76244" lon="2.67548">
        <ele>433.8</ele>
        <time>2024-08-16T09:27:17Z</time>
      </trkpt>
      <trkpt lat="44.76244" lon="2.67546">
        <ele>433.9</ele>
        <time>2024-08-16T09:27:18Z</time>
      </trkpt>
      <trkpt lat="44.76241" lon="2.67543">
        <ele>434.3</ele>
        <time>2024-08-16T09:27:20Z</time>
      </trkpt>
      <trkpt lat="44.76239" lon="2.6754">
        <ele>434.7</ele>
        <time>2024-08-16T09:27:22Z</time>
      </trkpt>
      <trkpt lat="44.76237" lon="2.67537">
        <ele>435</ele>
        <time>2024-08-16T09:27:24Z</time>
      </trkpt>
      <trkpt lat="44.76236" lon="2.67536">
        <ele>435.2</ele>
        <time>2024-08-16T09:27:25Z</time>
      </trkpt>
      <trkpt lat="44.76236" lon="2.67535">
        <ele>435.3</ele>
        <time>2024-08-16T09:27:26Z</time>
      </trkpt>
      <trkpt lat="44.76235" lon="2.67533">
        <ele>435.5</ele>
        <time>2024-08-16T09:27:28Z</time>
      </trkpt>
      <trkpt lat="44.76233" lon="2.6753">
        <ele>435.8</ele>
        <time>2024-08-16T09:27:30Z</time>
      </trkpt>
      <trkpt lat="44.76233" lon="2.67528">
        <ele>436</ele>
        <time>2024-08-16T09:27:32Z</time>
      </trkpt>
      <trkpt lat="44.76231" lon="2.67527">
        <ele>436.2</ele>
        <time>2024-08-16T09:27:33Z</time>
      </trkpt>
      <trkpt lat="44.76231" lon="2.67525">
        <ele>436.4</ele>
        <time>2024-08-16T09:27:34Z</time>
      </trkpt>
      <trkpt lat="44.7623" lon="2.67523">
        <ele>436.6</ele>
        <time>2024-08-16T09:27:35Z</time>
      </trkpt>
      <trkpt lat="44.76229" lon="2.67521">
        <ele>436.8</ele>
        <time>2024-08-16T09:27:36Z</time>
      </trkpt>
      <trkpt lat="44.76226" lon="2.67518">
        <ele>437.2</ele>
        <time>2024-08-16T09:27:38Z</time>
      </trkpt>
      <trkpt lat="44.76224" lon="2.67516">
        <ele>437.5</ele>
        <time>2024-08-16T09:27:40Z</time>
      </trkpt>
      <trkpt lat="44.76224" lon="2.67514">
        <ele>437.7</ele>
        <time>2024-08-16T09:27:42Z</time>
      </trkpt>
      <trkpt lat="44.76206" lon="2.67501">
        <ele>440.1</ele>
        <time>2024-08-16T09:27:54Z</time>
      </trkpt>
      <trkpt lat="44.76204" lon="2.675">
        <ele>440.4</ele>
        <time>2024-08-16T09:27:56Z</time>
      </trkpt>
      <trkpt lat="44.76202" lon="2.67498">
        <ele>440.7</ele>
        <time>2024-08-16T09:27:58Z</time>
      </trkpt>
      <trkpt lat="44.76201" lon="2.67496">
        <ele>440.9</ele>
        <time>2024-08-16T09:28:00Z</time>
      </trkpt>
      <trkpt lat="44.76198" lon="2.67494">
        <ele>441.4</ele>
        <time>2024-08-16T09:28:02Z</time>
      </trkpt>
      <trkpt lat="44.76195" lon="2.67491">
        <ele>441.7</ele>
        <time>2024-08-16T09:28:04Z</time>
      </trkpt>
      <trkpt lat="44.76194" lon="2.6749">
        <ele>441.9</ele>
        <time>2024-08-16T09:28:05Z</time>
      </trkpt>
      <trkpt lat="44.76193" lon="2.67488">
        <ele>442.1</ele>
        <time>2024-08-16T09:28:06Z</time>
      </trkpt>
      <trkpt lat="44.76191" lon="2.67485">
        <ele>442.4</ele>
        <time>2024-08-16T09:28:08Z</time>
      </trkpt>
      <trkpt lat="44.7619" lon="2.67484">
        <ele>442.6</ele>
        <time>2024-08-16T09:28:09Z</time>
      </trkpt>
      <trkpt lat="44.76189" lon="2.67482">
        <ele>442.8</ele>
        <time>2024-08-16T09:28:10Z</time>
      </trkpt>
      <trkpt lat="44.76187" lon="2.6748">
        <ele>442.9</ele>
        <time>2024-08-16T09:28:12Z</time>
      </trkpt>
      <trkpt lat="44.76162" lon="2.67446">
        <ele>445.6</ele>
        <time>2024-08-16T09:28:41Z</time>
      </trkpt>
      <trkpt lat="44.7616" lon="2.67445">
        <ele>445.8</ele>
        <time>2024-08-16T09:28:42Z</time>
      </trkpt>
      <trkpt lat="44.76158" lon="2.67445">
        <ele>445.9</ele>
        <time>2024-08-16T09:28:43Z</time>
      </trkpt>
      <trkpt lat="44.76157" lon="2.67444">
        <ele>446</ele>
        <time>2024-08-16T09:28:44Z</time>
      </trkpt>
      <trkpt lat="44.76154" lon="2.67442">
        <ele>446.2</ele>
        <time>2024-08-16T09:28:46Z</time>
      </trkpt>
      <trkpt lat="44.7615" lon="2.6744">
        <ele>446.5</ele>
        <time>2024-08-16T09:28:48Z</time>
      </trkpt>
      <trkpt lat="44.76149" lon="2.67436">
        <ele>446.7</ele>
        <time>2024-08-16T09:28:50Z</time>
      </trkpt>
      <trkpt lat="44.76148" lon="2.67434">
        <ele>446.8</ele>
        <time>2024-08-16T09:28:52Z</time>
      </trkpt>
      <trkpt lat="44.76147" lon="2.67432">
        <ele>446.9</ele>
        <time>2024-08-16T09:28:54Z</time>
      </trkpt>
      <trkpt lat="44.76144" lon="2.67431">
        <ele>447.1</ele>
        <time>2024-08-16T09:28:56Z</time>
      </trkpt>
      <trkpt lat="44.76143" lon="2.6743">
        <ele>447.2</ele>
        <time>2024-08-16T09:28:57Z</time>
      </trkpt>
      <trkpt lat="44.76131" lon="2.67423">
        <ele>448.1</ele>
        <time>2024-08-16T09:29:03Z</time>
      </trkpt>
      <trkpt lat="44.76129" lon="2.67421">
        <ele>448.3</ele>
        <time>2024-08-16T09:29:04Z</time>
      </trkpt>
      <trkpt lat="44.76125" lon="2.6742">
        <ele>448.6</ele>
        <time>2024-08-16T09:29:05Z</time>
      </trkpt>
      <trkpt lat="44.76123" lon="2.67418">
        <ele>448.8</ele>
        <time>2024-08-16T09:29:06Z</time>
      </trkpt>
      <trkpt lat="44.76123" lon="2.67417">
        <ele>448.8</ele>
        <time>2024-08-16T09:29:07Z</time>
      </trkpt>
      <trkpt lat="44.76122" lon="2.67416">
        <ele>448.9</ele>
        <time>2024-08-16T09:29:08Z</time>
      </trkpt>
      <trkpt lat="44.76121" lon="2.67412">
        <ele>449.2</ele>
        <time>2024-08-16T09:29:10Z</time>
      </trkpt>
      <trkpt lat="44.76118" lon="2.67409">
        <ele>449.4</ele>
        <time>2024-08-16T09:29:12Z</time>
      </trkpt>
      <trkpt lat="44.76115" lon="2.67408">
        <ele>449.6</ele>
        <time>2024-08-16T09:29:14Z</time>
      </trkpt>
      <trkpt lat="44.76113" lon="2.67406">
        <ele>449.8</ele>
        <time>2024-08-16T09:29:16Z</time>
      </trkpt>
      <trkpt lat="44.76111" lon="2.67405">
        <ele>449.9</ele>
        <time>2024-08-16T09:29:18Z</time>
      </trkpt>
      <trkpt lat="44.76109" lon="2.67403">
        <ele>450.1</ele>
        <time>2024-08-16T09:29:20Z</time>
      </trkpt>
      <trkpt lat="44.76108" lon="2.67403">
        <ele>450.1</ele>
        <time>2024-08-16T09:29:21Z</time>
      </trkpt>
      <trkpt lat="44.76108" lon="2.67403">
        <ele>450.1</ele>
        <time>2024-08-16T09:29:22Z</time>
      </trkpt>
      <trkpt lat="44.76108" lon="2.67401">
        <ele>450.2</ele>
        <time>2024-08-16T09:29:24Z</time>
      </trkpt>
      <trkpt lat="44.76104" lon="2.67398">
        <ele>450.5</ele>
        <time>2024-08-16T09:29:26Z</time>
      </trkpt>
      <trkpt lat="44.76101" lon="2.67397">
        <ele>450.7</ele>
        <time>2024-08-16T09:29:28Z</time>
      </trkpt>
      <trkpt lat="44.76099" lon="2.67394">
        <ele>450.9</ele>
        <time>2024-08-16T09:29:30Z</time>
      </trkpt>
      <trkpt lat="44.76097" lon="2.67391">
        <ele>451.2</ele>
        <time>2024-08-16T09:29:32Z</time>
      </trkpt>
      <trkpt lat="44.76095" lon="2.67388">
        <ele>451.4</ele>
        <time>2024-08-16T09:29:34Z</time>
      </trkpt>
      <trkpt lat="44.76092" lon="2.67386">
        <ele>451.6</ele>
        <time>2024-08-16T09:29:36Z</time>
      </trkpt>
      <trkpt lat="44.7609" lon="2.67384">
        <ele>451.8</ele>
        <time>2024-08-16T09:29:38Z</time>
      </trkpt>
      <trkpt lat="44.76087" lon="2.67382">
        <ele>452</ele>
        <time>2024-08-16T09:29:40Z</time>
      </trkpt>
      <trkpt lat="44.76084" lon="2.67381">
        <ele>452.2</ele>
        <time>2024-08-16T09:29:42Z</time>
      </trkpt>
      <trkpt lat="44.76081" lon="2.67379">
        <ele>452.5</ele>
        <time>2024-08-16T09:29:44Z</time>
      </trkpt>
      <trkpt lat="44.76079" lon="2.67379">
        <ele>452.7</ele>
        <time>2024-08-16T09:29:46Z</time>
      </trkpt>
      <trkpt lat="44.76048" lon="2.67355">
        <ele>455.3</ele>
        <time>2024-08-16T09:30:12Z</time>
      </trkpt>
      <trkpt lat="44.76047" lon="2.67353">
        <ele>455.4</ele>
        <time>2024-08-16T09:30:13Z</time>
      </trkpt>
      <trkpt lat="44.76045" lon="2.67352">
        <ele>455.6</ele>
        <time>2024-08-16T09:30:14Z</time>
      </trkpt>
      <trkpt lat="44.76042" lon="2.67348">
        <ele>455.9</ele>
        <time>2024-08-16T09:30:16Z</time>
      </trkpt>
      <trkpt lat="44.7604" lon="2.67345">
        <ele>456.1</ele>
        <time>2024-08-16T09:30:18Z</time>
      </trkpt>
      <trkpt lat="44.76039" lon="2.67343">
        <ele>456.2</ele>
        <time>2024-08-16T09:30:19Z</time>
      </trkpt>
      <trkpt lat="44.76038" lon="2.67342">
        <ele>456.3</ele>
        <time>2024-08-16T09:30:20Z</time>
      </trkpt>
      <trkpt lat="44.76036" lon="2.67339">
        <ele>456.4</ele>
        <time>2024-08-16T09:30:22Z</time>
      </trkpt>
      <trkpt lat="44.76034" lon="2.67337">
        <ele>456.5</ele>
        <time>2024-08-16T09:30:24Z</time>
      </trkpt>
      <trkpt lat="44.76033" lon="2.67336">
        <ele>456.6</ele>
        <time>2024-08-16T09:30:25Z</time>
      </trkpt>
      <trkpt lat="44.76032" lon="2.67335">
        <ele>456.7</ele>
        <time>2024-08-16T09:30:26Z</time>
      </trkpt>
      <trkpt lat="44.7603" lon="2.67333">
        <ele>456.8</ele>
        <time>2024-08-16T09:30:27Z</time>
      </trkpt>
      <trkpt lat="44.76029" lon="2.67331">
        <ele>456.9</ele>
        <time>2024-08-16T09:30:28Z</time>
      </trkpt>
      <trkpt lat="44.76027" lon="2.67328">
        <ele>457.1</ele>
        <time>2024-08-16T09:30:30Z</time>
      </trkpt>
      <trkpt lat="44.76026" lon="2.67323">
        <ele>457.3</ele>
        <time>2024-08-16T09:30:32Z</time>
      </trkpt>
      <trkpt lat="44.76025" lon="2.67319">
        <ele>457.5</ele>
        <time>2024-08-16T09:30:34Z</time>
      </trkpt>
      <trkpt lat="44.76024" lon="2.67314">
        <ele>457.8</ele>
        <time>2024-08-16T09:30:36Z</time>
      </trkpt>
      <trkpt lat="44.76024" lon="2.67312">
        <ele>457.9</ele>
        <time>2024-08-16T09:30:37Z</time>
      </trkpt>
      <trkpt lat="44.76025" lon="2.67309">
        <ele>458</ele>
        <time>2024-08-16T09:30:38Z</time>
      </trkpt>
      <trkpt lat="44.76025" lon="2.67308">
        <ele>458.1</ele>
        <time>2024-08-16T09:30:39Z</time>
      </trkpt>
      <trkpt lat="44.76025" lon="2.67306">
        <ele>458.2</ele>
        <time>2024-08-16T09:30:40Z</time>
      </trkpt>
      <trkpt lat="44.76025" lon="2.67304">
        <ele>458.3</ele>
        <time>2024-08-16T09:30:41Z</time>
      </trkpt>
      <trkpt lat="44.76025" lon="2.67302">
        <ele>458.4</ele>
        <time>2024-08-16T09:30:42Z</time>
      </trkpt>
      <trkpt lat="44.76025" lon="2.673">
        <ele>458.5</ele>
        <time>2024-08-16T09:30:43Z</time>
      </trkpt>
      <trkpt lat="44.76026" lon="2.67298">
        <ele>458.6</ele>
        <time>2024-08-16T09:30:44Z</time>
      </trkpt>
      <trkpt lat="44.76027" lon="2.67294">
        <ele>458.8</ele>
        <time>2024-08-16T09:30:46Z</time>
      </trkpt>
      <trkpt lat="44.76028" lon="2.67292">
        <ele>458.9</ele>
        <time>2024-08-16T09:30:47Z</time>
      </trkpt>
      <trkpt lat="44.76028" lon="2.67291">
        <ele>459</ele>
        <time>2024-08-16T09:30:48Z</time>
      </trkpt>
      <trkpt lat="44.76029" lon="2.67288">
        <ele>459.1</ele>
        <time>2024-08-16T09:30:50Z</time>
      </trkpt>
      <trkpt lat="44.76031" lon="2.67284">
        <ele>459.3</ele>
        <time>2024-08-16T09:30:52Z</time>
      </trkpt>
      <trkpt lat="44.76032" lon="2.67282">
        <ele>459.4</ele>
        <time>2024-08-16T09:30:53Z</time>
      </trkpt>
      <trkpt lat="44.76034" lon="2.6728">
        <ele>459.5</ele>
        <time>2024-08-16T09:30:54Z</time>
      </trkpt>
      <trkpt lat="44.76035" lon="2.67276">
        <ele>459.6</ele>
        <time>2024-08-16T09:30:56Z</time>
      </trkpt>
      <trkpt lat="44.76036" lon="2.67274">
        <ele>459.7</ele>
        <time>2024-08-16T09:30:57Z</time>
      </trkpt>
      <trkpt lat="44.76037" lon="2.67273">
        <ele>459.8</ele>
        <time>2024-08-16T09:30:58Z</time>
      </trkpt>
      <trkpt lat="44.76038" lon="2.67269">
        <ele>460</ele>
        <time>2024-08-16T09:31:00Z</time>
      </trkpt>
      <trkpt lat="44.76039" lon="2.67268">
        <ele>460.1</ele>
        <time>2024-08-16T09:31:01Z</time>
      </trkpt>
      <trkpt lat="44.7604" lon="2.67267">
        <ele>460.2</ele>
        <time>2024-08-16T09:31:02Z</time>
      </trkpt>
      <trkpt lat="44.76042" lon="2.67264">
        <ele>460.4</ele>
        <time>2024-08-16T09:31:04Z</time>
      </trkpt>
      <trkpt lat="44.76044" lon="2.67261">
        <ele>460.7</ele>
        <time>2024-08-16T09:31:06Z</time>
      </trkpt>
      <trkpt lat="44.76045" lon="2.6726">
        <ele>460.8</ele>
        <time>2024-08-16T09:31:08Z</time>
      </trkpt>
      <trkpt lat="44.76048" lon="2.67258">
        <ele>461.1</ele>
        <time>2024-08-16T09:31:10Z</time>
      </trkpt>
      <trkpt lat="44.7605" lon="2.67255">
        <ele>461.5</ele>
        <time>2024-08-16T09:31:12Z</time>
      </trkpt>
      <trkpt lat="44.76054" lon="2.67253">
        <ele>461.8</ele>
        <time>2024-08-16T09:31:14Z</time>
      </trkpt>
      <trkpt lat="44.76057" lon="2.67251">
        <ele>462.2</ele>
        <time>2024-08-16T09:31:16Z</time>
      </trkpt>
      <trkpt lat="44.76059" lon="2.67248">
        <ele>462.5</ele>
        <time>2024-08-16T09:31:18Z</time>
      </trkpt>
      <trkpt lat="44.76061" lon="2.67247">
        <ele>462.7</ele>
        <time>2024-08-16T09:31:19Z</time>
      </trkpt>
      <trkpt lat="44.76062" lon="2.67246">
        <ele>462.8</ele>
        <time>2024-08-16T09:31:20Z</time>
      </trkpt>
      <trkpt lat="44.76064" lon="2.67243">
        <ele>463</ele>
        <time>2024-08-16T09:31:22Z</time>
      </trkpt>
      <trkpt lat="44.76066" lon="2.67242">
        <ele>463.2</ele>
        <time>2024-08-16T09:31:23Z</time>
      </trkpt>
      <trkpt lat="44.76066" lon="2.67241">
        <ele>463.2</ele>
        <time>2024-08-16T09:31:24Z</time>
      </trkpt>
      <trkpt lat="44.76067" lon="2.67239">
        <ele>463.3</ele>
        <time>2024-08-16T09:31:25Z</time>
      </trkpt>
      <trkpt lat="44.7608" lon="2.67219">
        <ele>464.7</ele>
        <time>2024-08-16T09:31:39Z</time>
      </trkpt>
      <trkpt lat="44.76081" lon="2.67218">
        <ele>464.8</ele>
        <time>2024-08-16T09:31:40Z</time>
      </trkpt>
      <trkpt lat="44.76081" lon="2.67216">
        <ele>464.8</ele>
        <time>2024-08-16T09:31:41Z</time>
      </trkpt>
      <trkpt lat="44.76082" lon="2.67215">
        <ele>464.9</ele>
        <time>2024-08-16T09:31:42Z</time>
      </trkpt>
      <trkpt lat="44.76083" lon="2.67212">
        <ele>465.1</ele>
        <time>2024-08-16T09:31:44Z</time>
      </trkpt>
      <trkpt lat="44.76084" lon="2.67211">
        <ele>465.1</ele>
        <time>2024-08-16T09:31:45Z</time>
      </trkpt>
      <trkpt lat="44.76085" lon="2.6721">
        <ele>465.2</ele>
        <time>2024-08-16T09:31:46Z</time>
      </trkpt>
      <trkpt lat="44.76088" lon="2.67209">
        <ele>465.4</ele>
        <time>2024-08-16T09:31:48Z</time>
      </trkpt>
      <trkpt lat="44.76105" lon="2.67191">
        <ele>466.8</ele>
        <time>2024-08-16T09:32:04Z</time>
      </trkpt>
      <trkpt lat="44.76106" lon="2.67189">
        <ele>466.9</ele>
        <time>2024-08-16T09:32:05Z</time>
      </trkpt>
      <trkpt lat="44.76106" lon="2.67188">
        <ele>466.9</ele>
        <time>2024-08-16T09:32:06Z</time>
      </trkpt>
      <trkpt lat="44.76107" lon="2.67187">
        <ele>467</ele>
        <time>2024-08-16T09:32:07Z</time>
      </trkpt>
      <trkpt lat="44.76109" lon="2.67186">
        <ele>467.1</ele>
        <time>2024-08-16T09:32:08Z</time>
      </trkpt>
      <trkpt lat="44.76111" lon="2.67182">
        <ele>467.4</ele>
        <time>2024-08-16T09:32:10Z</time>
      </trkpt>
      <trkpt lat="44.76114" lon="2.6718">
        <ele>467.7</ele>
        <time>2024-08-16T09:32:12Z</time>
      </trkpt>
      <trkpt lat="44.76116" lon="2.67177">
        <ele>467.9</ele>
        <time>2024-08-16T09:32:14Z</time>
      </trkpt>
      <trkpt lat="44.76116" lon="2.67176">
        <ele>468</ele>
        <time>2024-08-16T09:32:15Z</time>
      </trkpt>
      <trkpt lat="44.76117" lon="2.67174">
        <ele>468.1</ele>
        <time>2024-08-16T09:32:16Z</time>
      </trkpt>
      <trkpt lat="44.76119" lon="2.67171">
        <ele>468.4</ele>
        <time>2024-08-16T09:32:18Z</time>
      </trkpt>
      <trkpt lat="44.7612" lon="2.67169">
        <ele>468.6</ele>
        <time>2024-08-16T09:32:20Z</time>
      </trkpt>
      <trkpt lat="44.76122" lon="2.67166">
        <ele>468.8</ele>
        <time>2024-08-16T09:32:22Z</time>
      </trkpt>
      <trkpt lat="44.76124" lon="2.67165">
        <ele>468.9</ele>
        <time>2024-08-16T09:32:23Z</time>
      </trkpt>
      <trkpt lat="44.76125" lon="2.67163">
        <ele>469.1</ele>
        <time>2024-08-16T09:32:24Z</time>
      </trkpt>
      <trkpt lat="44.76125" lon="2.67161">
        <ele>469.2</ele>
        <time>2024-08-16T09:32:26Z</time>
      </trkpt>
      <trkpt lat="44.76127" lon="2.67158">
        <ele>469.4</ele>
        <time>2024-08-16T09:32:28Z</time>
      </trkpt>
      <trkpt lat="44.76129" lon="2.67155">
        <ele>469.6</ele>
        <time>2024-08-16T09:32:30Z</time>
      </trkpt>
      <trkpt lat="44.76131" lon="2.67152">
        <ele>469.9</ele>
        <time>2024-08-16T09:32:32Z</time>
      </trkpt>
      <trkpt lat="44.76132" lon="2.67151">
        <ele>470</ele>
        <time>2024-08-16T09:32:33Z</time>
      </trkpt>
      <trkpt lat="44.76133" lon="2.67149">
        <ele>470.1</ele>
        <time>2024-08-16T09:32:34Z</time>
      </trkpt>
      <trkpt lat="44.76135" lon="2.67147">
        <ele>470.3</ele>
        <time>2024-08-16T09:32:36Z</time>
      </trkpt>
      <trkpt lat="44.76137" lon="2.67144">
        <ele>470.5</ele>
        <time>2024-08-16T09:32:38Z</time>
      </trkpt>
      <trkpt lat="44.76138" lon="2.67143">
        <ele>470.6</ele>
        <time>2024-08-16T09:32:39Z</time>
      </trkpt>
      <trkpt lat="44.76138" lon="2.67141">
        <ele>470.7</ele>
        <time>2024-08-16T09:32:40Z</time>
      </trkpt>
      <trkpt lat="44.7614" lon="2.67137">
        <ele>470.9</ele>
        <time>2024-08-16T09:32:42Z</time>
      </trkpt>
      <trkpt lat="44.76141" lon="2.67136">
        <ele>471</ele>
        <time>2024-08-16T09:32:43Z</time>
      </trkpt>
      <trkpt lat="44.76142" lon="2.67134">
        <ele>471.2</ele>
        <time>2024-08-16T09:32:44Z</time>
      </trkpt>
      <trkpt lat="44.76143" lon="2.67133">
        <ele>471.3</ele>
        <time>2024-08-16T09:32:45Z</time>
      </trkpt>
      <trkpt lat="44.76144" lon="2.67132">
        <ele>471.4</ele>
        <time>2024-08-16T09:32:46Z</time>
      </trkpt>
      <trkpt lat="44.76146" lon="2.67128">
        <ele>471.7</ele>
        <time>2024-08-16T09:32:48Z</time>
      </trkpt>
      <trkpt lat="44.76147" lon="2.67127">
        <ele>471.8</ele>
        <time>2024-08-16T09:32:49Z</time>
      </trkpt>
      <trkpt lat="44.76148" lon="2.67125">
        <ele>471.9</ele>
        <time>2024-08-16T09:32:50Z</time>
      </trkpt>
      <trkpt lat="44.76149" lon="2.67122">
        <ele>472.1</ele>
        <time>2024-08-16T09:32:52Z</time>
      </trkpt>
      <trkpt lat="44.76151" lon="2.67118">
        <ele>472.4</ele>
        <time>2024-08-16T09:32:54Z</time>
      </trkpt>
      <trkpt lat="44.76152" lon="2.67114">
        <ele>472.7</ele>
        <time>2024-08-16T09:32:56Z</time>
      </trkpt>
      <trkpt lat="44.76154" lon="2.6711">
        <ele>473</ele>
        <time>2024-08-16T09:32:58Z</time>
      </trkpt>
      <trkpt lat="44.76154" lon="2.67108">
        <ele>473.2</ele>
        <time>2024-08-16T09:32:59Z</time>
      </trkpt>
      <trkpt lat="44.76154" lon="2.67107">
        <ele>473.3</ele>
        <time>2024-08-16T09:33:00Z</time>
      </trkpt>
      <trkpt lat="44.76155" lon="2.67104">
        <ele>473.5</ele>
        <time>2024-08-16T09:33:02Z</time>
      </trkpt>
      <trkpt lat="44.76156" lon="2.671">
        <ele>473.7</ele>
        <time>2024-08-16T09:33:04Z</time>
      </trkpt>
      <trkpt lat="44.76157" lon="2.67098">
        <ele>473.9</ele>
        <time>2024-08-16T09:33:06Z</time>
      </trkpt>
      <trkpt lat="44.76159" lon="2.67094">
        <ele>474.2</ele>
        <time>2024-08-16T09:33:08Z</time>
      </trkpt>
      <trkpt lat="44.76161" lon="2.6709">
        <ele>474.5</ele>
        <time>2024-08-16T09:33:10Z</time>
      </trkpt>
      <trkpt lat="44.76161" lon="2.67088">
        <ele>474.7</ele>
        <time>2024-08-16T09:33:11Z</time>
      </trkpt>
      <trkpt lat="44.76161" lon="2.67086">
        <ele>474.8</ele>
        <time>2024-08-16T09:33:12Z</time>
      </trkpt>
      <trkpt lat="44.76162" lon="2.67084">
        <ele>474.9</ele>
        <time>2024-08-16T09:33:13Z</time>
      </trkpt>
      <trkpt lat="44.76162" lon="2.67083">
        <ele>475</ele>
        <time>2024-08-16T09:33:14Z</time>
      </trkpt>
      <trkpt lat="44.76164" lon="2.6708">
        <ele>475.2</ele>
        <time>2024-08-16T09:33:16Z</time>
      </trkpt>
      <trkpt lat="44.76165" lon="2.67076">
        <ele>475.4</ele>
        <time>2024-08-16T09:33:18Z</time>
      </trkpt>
      <trkpt lat="44.76166" lon="2.67074">
        <ele>475.5</ele>
        <time>2024-08-16T09:33:19Z</time>
      </trkpt>
      <trkpt lat="44.76167" lon="2.67072">
        <ele>475.6</ele>
        <time>2024-08-16T09:33:20Z</time>
      </trkpt>
      <trkpt lat="44.76169" lon="2.67068">
        <ele>475.8</ele>
        <time>2024-08-16T09:33:22Z</time>
      </trkpt>
      <trkpt lat="44.7617" lon="2.67065">
        <ele>476</ele>
        <time>2024-08-16T09:33:24Z</time>
      </trkpt>
      <trkpt lat="44.76171" lon="2.67061">
        <ele>476.2</ele>
        <time>2024-08-16T09:33:26Z</time>
      </trkpt>
      <trkpt lat="44.76172" lon="2.67059">
        <ele>476.3</ele>
        <time>2024-08-16T09:33:27Z</time>
      </trkpt>
      <trkpt lat="44.76173" lon="2.67058">
        <ele>476.4</ele>
        <time>2024-08-16T09:33:28Z</time>
      </trkpt>
      <trkpt lat="44.76175" lon="2.67055">
        <ele>476.6</ele>
        <time>2024-08-16T09:33:30Z</time>
      </trkpt>
      <trkpt lat="44.76177" lon="2.67052">
        <ele>476.8</ele>
        <time>2024-08-16T09:33:32Z</time>
      </trkpt>
      <trkpt lat="44.76179" lon="2.67049">
        <ele>476.9</ele>
        <time>2024-08-16T09:33:34Z</time>
      </trkpt>
      <trkpt lat="44.76179" lon="2.67048">
        <ele>477</ele>
        <time>2024-08-16T09:33:35Z</time>
      </trkpt>
      <trkpt lat="44.7618" lon="2.67047">
        <ele>477.1</ele>
        <time>2024-08-16T09:33:36Z</time>
      </trkpt>
      <trkpt lat="44.7618" lon="2.67045">
        <ele>477.2</ele>
        <time>2024-08-16T09:33:37Z</time>
      </trkpt>
      <trkpt lat="44.76181" lon="2.67044">
        <ele>477.2</ele>
        <time>2024-08-16T09:33:38Z</time>
      </trkpt>
      <trkpt lat="44.76182" lon="2.6704">
        <ele>477.5</ele>
        <time>2024-08-16T09:33:40Z</time>
      </trkpt>
      <trkpt lat="44.76183" lon="2.67037">
        <ele>477.6</ele>
        <time>2024-08-16T09:33:42Z</time>
      </trkpt>
      <trkpt lat="44.76184" lon="2.67036">
        <ele>477.7</ele>
        <time>2024-08-16T09:33:43Z</time>
      </trkpt>
      <trkpt lat="44.76184" lon="2.67035">
        <ele>477.8</ele>
        <time>2024-08-16T09:33:44Z</time>
      </trkpt>
      <trkpt lat="44.76185" lon="2.67034">
        <ele>477.9</ele>
        <time>2024-08-16T09:33:46Z</time>
      </trkpt>
      <trkpt lat="44.76315" lon="2.66871">
        <ele>491.8</ele>
        <time>2024-08-16T09:35:59Z</time>
      </trkpt>
      <trkpt lat="44.76317" lon="2.66869">
        <ele>492.1</ele>
        <time>2024-08-16T09:36:00Z</time>
      </trkpt>
      <trkpt lat="44.76318" lon="2.66867">
        <ele>492.3</ele>
        <time>2024-08-16T09:36:01Z</time>
      </trkpt>
      <trkpt lat="44.76319" lon="2.66866">
        <ele>492.6</ele>
        <time>2024-08-16T09:36:02Z</time>
      </trkpt>
      <trkpt lat="44.76321" lon="2.66866">
        <ele>492.9</ele>
        <time>2024-08-16T09:36:04Z</time>
      </trkpt>
      <trkpt lat="44.76323" lon="2.66866">
        <ele>493.2</ele>
        <time>2024-08-16T09:36:06Z</time>
      </trkpt>
      <trkpt lat="44.76325" lon="2.66869">
        <ele>493.6</ele>
        <time>2024-08-16T09:36:08Z</time>
      </trkpt>
      <trkpt lat="44.76326" lon="2.6687">
        <ele>493.8</ele>
        <time>2024-08-16T09:36:09Z</time>
      </trkpt>
      <trkpt lat="44.76327" lon="2.66871">
        <ele>494</ele>
        <time>2024-08-16T09:36:10Z</time>
      </trkpt>
      <trkpt lat="44.76327" lon="2.66873">
        <ele>494.2</ele>
        <time>2024-08-16T09:36:11Z</time>
      </trkpt>
      <trkpt lat="44.76327" lon="2.66875">
        <ele>494.3</ele>
        <time>2024-08-16T09:36:12Z</time>
      </trkpt>
      <trkpt lat="44.76325" lon="2.66877">
        <ele>494.6</ele>
        <time>2024-08-16T09:36:14Z</time>
      </trkpt>
      <trkpt lat="44.76324" lon="2.66879">
        <ele>494.8</ele>
        <time>2024-08-16T09:36:16Z</time>
      </trkpt>
      <trkpt lat="44.76319" lon="2.66882">
        <ele>495.3</ele>
        <time>2024-08-16T09:36:19Z</time>
      </trkpt>
      <trkpt lat="44.76318" lon="2.66883">
        <ele>495.5</ele>
        <time>2024-08-16T09:36:20Z</time>
      </trkpt>
      <trkpt lat="44.76317" lon="2.66884">
        <ele>495.6</ele>
        <time>2024-08-16T09:36:21Z</time>
      </trkpt>
      <trkpt lat="44.76316" lon="2.66885">
        <ele>495.6</ele>
        <time>2024-08-16T09:36:22Z</time>
      </trkpt>
      <trkpt lat="44.76314" lon="2.66888">
        <ele>495.9</ele>
        <time>2024-08-16T09:36:24Z</time>
      </trkpt>
      <trkpt lat="44.76312" lon="2.6689">
        <ele>496.1</ele>
        <time>2024-08-16T09:36:26Z</time>
      </trkpt>
      <trkpt lat="44.76309" lon="2.66893">
        <ele>496.3</ele>
        <time>2024-08-16T09:36:28Z</time>
      </trkpt>
      <trkpt lat="44.76307" lon="2.66896">
        <ele>496.4</ele>
        <time>2024-08-16T09:36:30Z</time>
      </trkpt>
      <trkpt lat="44.76306" lon="2.66899">
        <ele>496.5</ele>
        <time>2024-08-16T09:36:32Z</time>
      </trkpt>
      <trkpt lat="44.76305" lon="2.669">
        <ele>496.6</ele>
        <time>2024-08-16T09:36:33Z</time>
      </trkpt>
      <trkpt lat="44.76305" lon="2.66902">
        <ele>496.7</ele>
        <time>2024-08-16T09:36:34Z</time>
      </trkpt>
      <trkpt lat="44.76304" lon="2.66905">
        <ele>496.8</ele>
        <time>2024-08-16T09:36:36Z</time>
      </trkpt>
      <trkpt lat="44.76301" lon="2.66909">
        <ele>497</ele>
        <time>2024-08-16T09:36:38Z</time>
      </trkpt>
      <trkpt lat="44.763" lon="2.66913">
        <ele>497.1</ele>
        <time>2024-08-16T09:36:40Z</time>
      </trkpt>
      <trkpt lat="44.76297" lon="2.66916">
        <ele>497.3</ele>
        <time>2024-08-16T09:36:42Z</time>
      </trkpt>
      <trkpt lat="44.76296" lon="2.6692">
        <ele>497.5</ele>
        <time>2024-08-16T09:36:44Z</time>
      </trkpt>
      <trkpt lat="44.76295" lon="2.66923">
        <ele>497.7</ele>
        <time>2024-08-16T09:36:46Z</time>
      </trkpt>
      <trkpt lat="44.76293" lon="2.66926">
        <ele>497.9</ele>
        <time>2024-08-16T09:36:48Z</time>
      </trkpt>
      <trkpt lat="44.76292" lon="2.6693">
        <ele>498.1</ele>
        <time>2024-08-16T09:36:50Z</time>
      </trkpt>
      <trkpt lat="44.7629" lon="2.66934">
        <ele>498.4</ele>
        <time>2024-08-16T09:36:52Z</time>
      </trkpt>
      <trkpt lat="44.76289" lon="2.66936">
        <ele>498.5</ele>
        <time>2024-08-16T09:36:53Z</time>
      </trkpt>
      <trkpt lat="44.76289" lon="2.66937">
        <ele>498.6</ele>
        <time>2024-08-16T09:36:54Z</time>
      </trkpt>
      <trkpt lat="44.76288" lon="2.6694">
        <ele>498.8</ele>
        <time>2024-08-16T09:36:56Z</time>
      </trkpt>
      <trkpt lat="44.76288" lon="2.66942">
        <ele>498.8</ele>
        <time>2024-08-16T09:36:57Z</time>
      </trkpt>
      <trkpt lat="44.76287" lon="2.66943">
        <ele>498.9</ele>
        <time>2024-08-16T09:36:58Z</time>
      </trkpt>
      <trkpt lat="44.76286" lon="2.66945">
        <ele>499.1</ele>
        <time>2024-08-16T09:36:59Z</time>
      </trkpt>
      <trkpt lat="44.76287" lon="2.66946">
        <ele>499.1</ele>
        <time>2024-08-16T09:37:00Z</time>
      </trkpt>
      <trkpt lat="44.76288" lon="2.66948">
        <ele>499.2</ele>
        <time>2024-08-16T09:37:01Z</time>
      </trkpt>
      <trkpt lat="44.76286" lon="2.66949">
        <ele>499.4</ele>
        <time>2024-08-16T09:37:02Z</time>
      </trkpt>
      <trkpt lat="44.76287" lon="2.66951">
        <ele>499.5</ele>
        <time>2024-08-16T09:37:04Z</time>
      </trkpt>
      <trkpt lat="44.76285" lon="2.66954">
        <ele>499.7</ele>
        <time>2024-08-16T09:37:06Z</time>
      </trkpt>
      <trkpt lat="44.76283" lon="2.66957">
        <ele>499.9</ele>
        <time>2024-08-16T09:37:08Z</time>
      </trkpt>
      <trkpt lat="44.76283" lon="2.66958">
        <ele>499.9</ele>
        <time>2024-08-16T09:37:09Z</time>
      </trkpt>
      <trkpt lat="44.76282" lon="2.6696">
        <ele>500</ele>
        <time>2024-08-16T09:37:10Z</time>
      </trkpt>
      <trkpt lat="44.76281" lon="2.66962">
        <ele>500.2</ele>
        <time>2024-08-16T09:37:12Z</time>
      </trkpt>
      <trkpt lat="44.76281" lon="2.66964">
        <ele>500.2</ele>
        <time>2024-08-16T09:37:13Z</time>
      </trkpt>
      <trkpt lat="44.7628" lon="2.66965">
        <ele>500.3</ele>
        <time>2024-08-16T09:37:14Z</time>
      </trkpt>
      <trkpt lat="44.7628" lon="2.66969">
        <ele>500.5</ele>
        <time>2024-08-16T09:37:16Z</time>
      </trkpt>
      <trkpt lat="44.76279" lon="2.66972">
        <ele>500.6</ele>
        <time>2024-08-16T09:37:18Z</time>
      </trkpt>
      <trkpt lat="44.76278" lon="2.66975">
        <ele>500.7</ele>
        <time>2024-08-16T09:37:20Z</time>
      </trkpt>
      <trkpt lat="44.76278" lon="2.66979">
        <ele>500.9</ele>
        <time>2024-08-16T09:37:22Z</time>
      </trkpt>
      <trkpt lat="44.76277" lon="2.66983">
        <ele>501</ele>
        <time>2024-08-16T09:37:24Z</time>
      </trkpt>
      <trkpt lat="44.76276" lon="2.66986">
        <ele>501.2</ele>
        <time>2024-08-16T09:37:26Z</time>
      </trkpt>
      <trkpt lat="44.76273" lon="2.66989">
        <ele>501.3</ele>
        <time>2024-08-16T09:37:28Z</time>
      </trkpt>
      <trkpt lat="44.76272" lon="2.66992">
        <ele>501.5</ele>
        <time>2024-08-16T09:37:30Z</time>
      </trkpt>
      <trkpt lat="44.7627" lon="2.66994">
        <ele>501.6</ele>
        <time>2024-08-16T09:37:32Z</time>
      </trkpt>
      <trkpt lat="44.76269" lon="2.66996">
        <ele>501.7</ele>
        <time>2024-08-16T09:37:33Z</time>
      </trkpt>
      <trkpt lat="44.76269" lon="2.66997">
        <ele>501.8</ele>
        <time>2024-08-16T09:37:34Z</time>
      </trkpt>
      <trkpt lat="44.76268" lon="2.67">
        <ele>501.9</ele>
        <time>2024-08-16T09:37:36Z</time>
      </trkpt>
      <trkpt lat="44.76267" lon="2.67002">
        <ele>502</ele>
        <time>2024-08-16T09:37:38Z</time>
      </trkpt>
      <trkpt lat="44.76267" lon="2.67006">
        <ele>502.2</ele>
        <time>2024-08-16T09:37:40Z</time>
      </trkpt>
      <trkpt lat="44.76266" lon="2.67007">
        <ele>502.3</ele>
        <time>2024-08-16T09:37:41Z</time>
      </trkpt>
      <trkpt lat="44.76265" lon="2.67009">
        <ele>502.4</ele>
        <time>2024-08-16T09:37:42Z</time>
      </trkpt>
      <trkpt lat="44.76265" lon="2.67011">
        <ele>502.5</ele>
        <time>2024-08-16T09:37:43Z</time>
      </trkpt>
      <trkpt lat="44.76264" lon="2.67012">
        <ele>502.6</ele>
        <time>2024-08-16T09:37:44Z</time>
      </trkpt>
      <trkpt lat="44.76265" lon="2.67015">
        <ele>502.8</ele>
        <time>2024-08-16T09:37:46Z</time>
      </trkpt>
      <trkpt lat="44.76265" lon="2.67018">
        <ele>502.9</ele>
        <time>2024-08-16T09:37:48Z</time>
      </trkpt>
      <trkpt lat="44.76264" lon="2.67019">
        <ele>503</ele>
        <time>2024-08-16T09:37:49Z</time>
      </trkpt>
      <trkpt lat="44.76263" lon="2.67021">
        <ele>503.1</ele>
        <time>2024-08-16T09:37:50Z</time>
      </trkpt>
      <trkpt lat="44.76263" lon="2.67023">
        <ele>503.3</ele>
        <time>2024-08-16T09:37:52Z</time>
      </trkpt>
      <trkpt lat="44.76263" lon="2.67026">
        <ele>503.5</ele>
        <time>2024-08-16T09:37:54Z</time>
      </trkpt>
      <trkpt lat="44.76263" lon="2.67029">
        <ele>503.7</ele>
        <time>2024-08-16T09:37:56Z</time>
      </trkpt>
      <trkpt lat="44.76262" lon="2.67033">
        <ele>504</ele>
        <time>2024-08-16T09:37:58Z</time>
      </trkpt>
      <trkpt lat="44.76263" lon="2.67036">
        <ele>504.2</ele>
        <time>2024-08-16T09:38:00Z</time>
      </trkpt>
      <trkpt lat="44.76263" lon="2.67038">
        <ele>504.4</ele>
        <time>2024-08-16T09:38:02Z</time>
      </trkpt>
      <trkpt lat="44.76263" lon="2.67041">
        <ele>504.5</ele>
        <time>2024-08-16T09:38:04Z</time>
      </trkpt>
      <trkpt lat="44.76262" lon="2.67042">
        <ele>504.6</ele>
        <time>2024-08-16T09:38:05Z</time>
      </trkpt>
      <trkpt lat="44.76262" lon="2.67043">
        <ele>504.7</ele>
        <time>2024-08-16T09:38:06Z</time>
      </trkpt>
      <trkpt lat="44.76263" lon="2.67045">
        <ele>504.9</ele>
        <time>2024-08-16T09:38:07Z</time>
      </trkpt>
      <trkpt lat="44.76263" lon="2.67047">
        <ele>505</ele>
        <time>2024-08-16T09:38:08Z</time>
      </trkpt>
      <trkpt lat="44.76264" lon="2.6705">
        <ele>505.2</ele>
        <time>2024-08-16T09:38:10Z</time>
      </trkpt>
      <trkpt lat="44.76262" lon="2.67054">
        <ele>505.5</ele>
        <time>2024-08-16T09:38:12Z</time>
      </trkpt>
      <trkpt lat="44.76259" lon="2.67058">
        <ele>505.9</ele>
        <time>2024-08-16T09:38:14Z</time>
      </trkpt>
      <trkpt lat="44.76259" lon="2.67062">
        <ele>506.1</ele>
        <time>2024-08-16T09:38:16Z</time>
      </trkpt>
      <trkpt lat="44.76258" lon="2.67066">
        <ele>506.4</ele>
        <time>2024-08-16T09:38:18Z</time>
      </trkpt>
      <trkpt lat="44.76255" lon="2.6707">
        <ele>506.7</ele>
        <time>2024-08-16T09:38:20Z</time>
      </trkpt>
      <trkpt lat="44.76254" lon="2.67073">
        <ele>506.9</ele>
        <time>2024-08-16T09:38:22Z</time>
      </trkpt>
      <trkpt lat="44.76254" lon="2.67075">
        <ele>507</ele>
        <time>2024-08-16T09:38:23Z</time>
      </trkpt>
      <trkpt lat="44.76254" lon="2.67076">
        <ele>507.1</ele>
        <time>2024-08-16T09:38:24Z</time>
      </trkpt>
      <trkpt lat="44.76255" lon="2.67078">
        <ele>507.2</ele>
        <time>2024-08-16T09:38:25Z</time>
      </trkpt>
      <trkpt lat="44.76255" lon="2.6708">
        <ele>507.3</ele>
        <time>2024-08-16T09:38:26Z</time>
      </trkpt>
      <trkpt lat="44.76254" lon="2.67084">
        <ele>507.5</ele>
        <time>2024-08-16T09:38:28Z</time>
      </trkpt>
      <trkpt lat="44.76253" lon="2.67087">
        <ele>507.6</ele>
        <time>2024-08-16T09:38:30Z</time>
      </trkpt>
      <trkpt lat="44.76252" lon="2.6709">
        <ele>507.8</ele>
        <time>2024-08-16T09:38:32Z</time>
      </trkpt>
      <trkpt lat="44.76251" lon="2.67094">
        <ele>508</ele>
        <time>2024-08-16T09:38:34Z</time>
      </trkpt>
      <trkpt lat="44.76249" lon="2.67098">
        <ele>508.2</ele>
        <time>2024-08-16T09:38:36Z</time>
      </trkpt>
      <trkpt lat="44.76249" lon="2.67101">
        <ele>508.3</ele>
        <time>2024-08-16T09:38:38Z</time>
      </trkpt>
      <trkpt lat="44.76249" lon="2.67104">
        <ele>508.4</ele>
        <time>2024-08-16T09:38:39Z</time>
      </trkpt>
      <trkpt lat="44.76248" lon="2.67106">
        <ele>508.5</ele>
        <time>2024-08-16T09:38:40Z</time>
      </trkpt>
      <trkpt lat="44.76247" lon="2.6711">
        <ele>508.7</ele>
        <time>2024-08-16T09:38:42Z</time>
      </trkpt>
      <trkpt lat="44.76246" lon="2.67111">
        <ele>508.8</ele>
        <time>2024-08-16T09:38:43Z</time>
      </trkpt>
      <trkpt lat="44.76245" lon="2.67113">
        <ele>508.9</ele>
        <time>2024-08-16T09:38:44Z</time>
      </trkpt>
      <trkpt lat="44.76244" lon="2.67117">
        <ele>509.1</ele>
        <time>2024-08-16T09:38:46Z</time>
      </trkpt>
      <trkpt lat="44.76243" lon="2.6712">
        <ele>509.3</ele>
        <time>2024-08-16T09:38:48Z</time>
      </trkpt>
      <trkpt lat="44.76242" lon="2.67123">
        <ele>509.5</ele>
        <time>2024-08-16T09:38:50Z</time>
      </trkpt>
      <trkpt lat="44.76241" lon="2.67126">
        <ele>509.7</ele>
        <time>2024-08-16T09:38:52Z</time>
      </trkpt>
      <trkpt lat="44.7624" lon="2.6713">
        <ele>509.9</ele>
        <time>2024-08-16T09:38:54Z</time>
      </trkpt>
      <trkpt lat="44.76239" lon="2.67132">
        <ele>510</ele>
        <time>2024-08-16T09:38:55Z</time>
      </trkpt>
      <trkpt lat="44.76239" lon="2.67134">
        <ele>510.2</ele>
        <time>2024-08-16T09:38:56Z</time>
      </trkpt>
      <trkpt lat="44.76239" lon="2.67138">
        <ele>510.4</ele>
        <time>2024-08-16T09:38:58Z</time>
      </trkpt>
      <trkpt lat="44.76238" lon="2.6714">
        <ele>510.5</ele>
        <time>2024-08-16T09:38:59Z</time>
      </trkpt>
      <trkpt lat="44.76237" lon="2.67142">
        <ele>510.7</ele>
        <time>2024-08-16T09:39:00Z</time>
      </trkpt>
      <trkpt lat="44.76236" lon="2.67143">
        <ele>510.8</ele>
        <time>2024-08-16T09:39:01Z</time>
      </trkpt>
      <trkpt lat="44.76236" lon="2.67145">
        <ele>510.9</ele>
        <time>2024-08-16T09:39:02Z</time>
      </trkpt>
      <trkpt lat="44.76236" lon="2.67147">
        <ele>511</ele>
        <time>2024-08-16T09:39:03Z</time>
      </trkpt>
      <trkpt lat="44.76235" lon="2.67149">
        <ele>511.1</ele>
        <time>2024-08-16T09:39:04Z</time>
      </trkpt>
      <trkpt lat="44.76235" lon="2.67153">
        <ele>511.2</ele>
        <time>2024-08-16T09:39:06Z</time>
      </trkpt>
      <trkpt lat="44.76235" lon="2.67154">
        <ele>511.2</ele>
        <time>2024-08-16T09:39:07Z</time>
      </trkpt>
      <trkpt lat="44.76235" lon="2.67157">
        <ele>511.3</ele>
        <time>2024-08-16T09:39:08Z</time>
      </trkpt>
      <trkpt lat="44.76233" lon="2.6716">
        <ele>511.4</ele>
        <time>2024-08-16T09:39:10Z</time>
      </trkpt>
      <trkpt lat="44.76234" lon="2.67164">
        <ele>511.4</ele>
        <time>2024-08-16T09:39:12Z</time>
      </trkpt>
      <trkpt lat="44.76233" lon="2.67168">
        <ele>511.5</ele>
        <time>2024-08-16T09:39:14Z</time>
      </trkpt>
      <trkpt lat="44.76233" lon="2.67171">
        <ele>511.6</ele>
        <time>2024-08-16T09:39:16Z</time>
      </trkpt>
      <trkpt lat="44.76233" lon="2.67175">
        <ele>511.7</ele>
        <time>2024-08-16T09:39:18Z</time>
      </trkpt>
      <trkpt lat="44.76234" lon="2.67178">
        <ele>511.8</ele>
        <time>2024-08-16T09:39:20Z</time>
      </trkpt>
      <trkpt lat="44.76234" lon="2.67181">
        <ele>511.9</ele>
        <time>2024-08-16T09:39:22Z</time>
      </trkpt>
      <trkpt lat="44.76234" lon="2.67185">
        <ele>512</ele>
        <time>2024-08-16T09:39:24Z</time>
      </trkpt>
      <trkpt lat="44.76234" lon="2.67187">
        <ele>512.1</ele>
        <time>2024-08-16T09:39:25Z</time>
      </trkpt>
      <trkpt lat="44.76234" lon="2.67188">
        <ele>512.1</ele>
        <time>2024-08-16T09:39:26Z</time>
      </trkpt>
      <trkpt lat="44.76234" lon="2.67192">
        <ele>512.2</ele>
        <time>2024-08-16T09:39:28Z</time>
      </trkpt>
      <trkpt lat="44.76233" lon="2.67195">
        <ele>512.4</ele>
        <time>2024-08-16T09:39:30Z</time>
      </trkpt>
      <trkpt lat="44.76223" lon="2.67202">
        <ele>512.9</ele>
        <time>2024-08-16T09:39:32Z</time>
      </trkpt>
      <trkpt lat="44.76222" lon="2.67206">
        <ele>513</ele>
        <time>2024-08-16T09:39:34Z</time>
      </trkpt>
      <trkpt lat="44.76221" lon="2.67208">
        <ele>513.1</ele>
        <time>2024-08-16T09:39:35Z</time>
      </trkpt>
      <trkpt lat="44.76221" lon="2.67209">
        <ele>513.2</ele>
        <time>2024-08-16T09:39:36Z</time>
      </trkpt>
      <trkpt lat="44.7622" lon="2.67213">
        <ele>513.3</ele>
        <time>2024-08-16T09:39:38Z</time>
      </trkpt>
      <trkpt lat="44.7622" lon="2.67215">
        <ele>513.3</ele>
        <time>2024-08-16T09:39:39Z</time>
      </trkpt>
      <trkpt lat="44.7622" lon="2.67216">
        <ele>513.4</ele>
        <time>2024-08-16T09:39:40Z</time>
      </trkpt>
      <trkpt lat="44.7622" lon="2.67218">
        <ele>513.5</ele>
        <time>2024-08-16T09:39:42Z</time>
      </trkpt>
      <trkpt lat="44.7622" lon="2.6722">
        <ele>513.5</ele>
        <time>2024-08-16T09:39:43Z</time>
      </trkpt>
      <trkpt lat="44.7622" lon="2.67221">
        <ele>513.6</ele>
        <time>2024-08-16T09:39:44Z</time>
      </trkpt>
      <trkpt lat="44.7622" lon="2.67224">
        <ele>513.7</ele>
        <time>2024-08-16T09:39:46Z</time>
      </trkpt>
      <trkpt lat="44.7622" lon="2.67227">
        <ele>513.8</ele>
        <time>2024-08-16T09:39:48Z</time>
      </trkpt>
      <trkpt lat="44.76221" lon="2.6723">
        <ele>513.9</ele>
        <time>2024-08-16T09:39:50Z</time>
      </trkpt>
      <trkpt lat="44.76221" lon="2.67233">
        <ele>514</ele>
        <time>2024-08-16T09:39:52Z</time>
      </trkpt>
      <trkpt lat="44.76222" lon="2.67236">
        <ele>514.2</ele>
        <time>2024-08-16T09:39:54Z</time>
      </trkpt>
      <trkpt lat="44.7622" lon="2.67235">
        <ele>514.3</ele>
        <time>2024-08-16T09:39:55Z</time>
      </trkpt>
      <trkpt lat="44.76219" lon="2.67236">
        <ele>514.4</ele>
        <time>2024-08-16T09:39:56Z</time>
      </trkpt>
      <trkpt lat="44.76218" lon="2.6724">
        <ele>514.5</ele>
        <time>2024-08-16T09:39:58Z</time>
      </trkpt>
      <trkpt lat="44.76217" lon="2.67243">
        <ele>514.7</ele>
        <time>2024-08-16T09:39:59Z</time>
      </trkpt>
      <trkpt lat="44.76217" lon="2.67244">
        <ele>514.7</ele>
        <time>2024-08-16T09:40:00Z</time>
      </trkpt>
      <trkpt lat="44.76216" lon="2.67248">
        <ele>515</ele>
        <time>2024-08-16T09:40:02Z</time>
      </trkpt>
      <trkpt lat="44.76217" lon="2.67252">
        <ele>515.2</ele>
        <time>2024-08-16T09:40:04Z</time>
      </trkpt>
      <trkpt lat="44.76217" lon="2.67257">
        <ele>515.5</ele>
        <time>2024-08-16T09:40:06Z</time>
      </trkpt>
      <trkpt lat="44.76218" lon="2.67261">
        <ele>515.8</ele>
        <time>2024-08-16T09:40:08Z</time>
      </trkpt>
      <trkpt lat="44.76219" lon="2.67264">
        <ele>516.1</ele>
        <time>2024-08-16T09:40:10Z</time>
      </trkpt>
      <trkpt lat="44.7622" lon="2.67266">
        <ele>516.3</ele>
        <time>2024-08-16T09:40:11Z</time>
      </trkpt>
      <trkpt lat="44.76221" lon="2.67267">
        <ele>516.5</ele>
        <time>2024-08-16T09:40:12Z</time>
      </trkpt>
      <trkpt lat="44.76223" lon="2.67269">
        <ele>516.8</ele>
        <time>2024-08-16T09:40:14Z</time>
      </trkpt>
      <trkpt lat="44.76224" lon="2.6727">
        <ele>517</ele>
        <time>2024-08-16T09:40:15Z</time>
      </trkpt>
      <trkpt lat="44.76225" lon="2.6727">
        <ele>517.1</ele>
        <time>2024-08-16T09:40:16Z</time>
      </trkpt>
      <trkpt lat="44.76226" lon="2.67269">
        <ele>517.4</ele>
        <time>2024-08-16T09:40:17Z</time>
      </trkpt>
      <trkpt lat="44.76227" lon="2.67268">
        <ele>517.5</ele>
        <time>2024-08-16T09:40:18Z</time>
      </trkpt>
      <trkpt lat="44.76228" lon="2.67266">
        <ele>517.7</ele>
        <time>2024-08-16T09:40:20Z</time>
      </trkpt>
      <trkpt lat="44.76228" lon="2.67266">
        <ele>517.8</ele>
        <time>2024-08-16T09:40:22Z</time>
      </trkpt>
      <trkpt lat="44.76229" lon="2.67259">
        <ele>518.2</ele>
        <time>2024-08-16T09:41:26Z</time>
      </trkpt>
      <trkpt lat="44.76228" lon="2.67255">
        <ele>518.5</ele>
        <time>2024-08-16T09:41:28Z</time>
      </trkpt>
      <trkpt lat="44.76228" lon="2.67253">
        <ele>518.6</ele>
        <time>2024-08-16T09:41:29Z</time>
      </trkpt>
      <trkpt lat="44.76228" lon="2.67251">
        <ele>518.7</ele>
        <time>2024-08-16T09:41:30Z</time>
      </trkpt>
      <trkpt lat="44.76229" lon="2.67247">
        <ele>518.9</ele>
        <time>2024-08-16T09:41:32Z</time>
      </trkpt>
      <trkpt lat="44.7623" lon="2.67243">
        <ele>519.1</ele>
        <time>2024-08-16T09:41:34Z</time>
      </trkpt>
      <trkpt lat="44.76229" lon="2.67241">
        <ele>519.2</ele>
        <time>2024-08-16T09:41:35Z</time>
      </trkpt>
      <trkpt lat="44.76229" lon="2.67239">
        <ele>519.3</ele>
        <time>2024-08-16T09:41:36Z</time>
      </trkpt>
      <trkpt lat="44.76229" lon="2.67235">
        <ele>519.5</ele>
        <time>2024-08-16T09:41:38Z</time>
      </trkpt>
      <trkpt lat="44.76229" lon="2.67231">
        <ele>519.7</ele>
        <time>2024-08-16T09:41:40Z</time>
      </trkpt>
      <trkpt lat="44.7623" lon="2.67229">
        <ele>519.8</ele>
        <time>2024-08-16T09:41:41Z</time>
      </trkpt>
      <trkpt lat="44.7623" lon="2.67227">
        <ele>519.9</ele>
        <time>2024-08-16T09:41:42Z</time>
      </trkpt>
      <trkpt lat="44.7623" lon="2.67225">
        <ele>520.1</ele>
        <time>2024-08-16T09:41:43Z</time>
      </trkpt>
      <trkpt lat="44.7623" lon="2.67223">
        <ele>520.2</ele>
        <time>2024-08-16T09:41:44Z</time>
      </trkpt>
      <trkpt lat="44.76231" lon="2.6722">
        <ele>520.4</ele>
        <time>2024-08-16T09:41:46Z</time>
      </trkpt>
      <trkpt lat="44.76231" lon="2.67219">
        <ele>520.5</ele>
        <time>2024-08-16T09:41:47Z</time>
      </trkpt>
      <trkpt lat="44.76232" lon="2.67217">
        <ele>520.6</ele>
        <time>2024-08-16T09:41:48Z</time>
      </trkpt>
      <trkpt lat="44.76233" lon="2.67214">
        <ele>520.8</ele>
        <time>2024-08-16T09:41:50Z</time>
      </trkpt>
      <trkpt lat="44.76234" lon="2.6721">
        <ele>521.1</ele>
        <time>2024-08-16T09:41:52Z</time>
      </trkpt>
      <trkpt lat="44.76235" lon="2.67207">
        <ele>521.4</ele>
        <time>2024-08-16T09:41:54Z</time>
      </trkpt>
      <trkpt lat="44.76236" lon="2.67205">
        <ele>521.5</ele>
        <time>2024-08-16T09:41:55Z</time>
      </trkpt>
      <trkpt lat="44.76237" lon="2.67204">
        <ele>521.6</ele>
        <time>2024-08-16T09:41:56Z</time>
      </trkpt>
      <trkpt lat="44.76238" lon="2.67203">
        <ele>521.7</ele>
        <time>2024-08-16T09:41:57Z</time>
      </trkpt>
      <trkpt lat="44.76238" lon="2.67201">
        <ele>521.8</ele>
        <time>2024-08-16T09:41:58Z</time>
      </trkpt>
      <trkpt lat="44.76239" lon="2.67199">
        <ele>522</ele>
        <time>2024-08-16T09:41:59Z</time>
      </trkpt>
      <trkpt lat="44.7624" lon="2.67198">
        <ele>522.1</ele>
        <time>2024-08-16T09:42:00Z</time>
      </trkpt>
      <trkpt lat="44.76242" lon="2.67194">
        <ele>522.5</ele>
        <time>2024-08-16T09:42:02Z</time>
      </trkpt>
      <trkpt lat="44.76244" lon="2.6719">
        <ele>522.7</ele>
        <time>2024-08-16T09:42:04Z</time>
      </trkpt>
      <trkpt lat="44.76246" lon="2.67187">
        <ele>523</ele>
        <time>2024-08-16T09:42:06Z</time>
      </trkpt>
      <trkpt lat="44.76247" lon="2.67185">
        <ele>523.2</ele>
        <time>2024-08-16T09:42:08Z</time>
      </trkpt>
      <trkpt lat="44.76247" lon="2.67185">
        <ele>523.2</ele>
        <time>2024-08-16T09:42:09Z</time>
      </trkpt>
      <trkpt lat="44.76248" lon="2.67183">
        <ele>523.3</ele>
        <time>2024-08-16T09:42:10Z</time>
      </trkpt>
      <trkpt lat="44.76249" lon="2.6718">
        <ele>523.6</ele>
        <time>2024-08-16T09:42:12Z</time>
      </trkpt>
      <trkpt lat="44.76251" lon="2.67178">
        <ele>523.8</ele>
        <time>2024-08-16T09:42:13Z</time>
      </trkpt>
      <trkpt lat="44.76252" lon="2.67176">
        <ele>523.9</ele>
        <time>2024-08-16T09:42:14Z</time>
      </trkpt>
      <trkpt lat="44.76253" lon="2.67174">
        <ele>524.2</ele>
        <time>2024-08-16T09:42:16Z</time>
      </trkpt>
      <trkpt lat="44.76255" lon="2.67171">
        <ele>524.4</ele>
        <time>2024-08-16T09:42:18Z</time>
      </trkpt>
      <trkpt lat="44.76255" lon="2.67169">
        <ele>524.5</ele>
        <time>2024-08-16T09:42:19Z</time>
      </trkpt>
      <trkpt lat="44.76256" lon="2.67167">
        <ele>524.6</ele>
        <time>2024-08-16T09:42:20Z</time>
      </trkpt>
      <trkpt lat="44.76256" lon="2.67163">
        <ele>524.9</ele>
        <time>2024-08-16T09:42:22Z</time>
      </trkpt>
      <trkpt lat="44.76257" lon="2.6716">
        <ele>525.1</ele>
        <time>2024-08-16T09:42:24Z</time>
      </trkpt>
      <trkpt lat="44.76257" lon="2.67158">
        <ele>525.2</ele>
        <time>2024-08-16T09:42:25Z</time>
      </trkpt>
      <trkpt lat="44.76258" lon="2.67156">
        <ele>525.4</ele>
        <time>2024-08-16T09:42:26Z</time>
      </trkpt>
      <trkpt lat="44.76259" lon="2.67154">
        <ele>525.5</ele>
        <time>2024-08-16T09:42:27Z</time>
      </trkpt>
      <trkpt lat="44.7626" lon="2.67153">
        <ele>525.6</ele>
        <time>2024-08-16T09:42:28Z</time>
      </trkpt>
      <trkpt lat="44.76261" lon="2.67151">
        <ele>525.8</ele>
        <time>2024-08-16T09:42:29Z</time>
      </trkpt>
      <trkpt lat="44.76261" lon="2.67149">
        <ele>525.9</ele>
        <time>2024-08-16T09:42:30Z</time>
      </trkpt>
      <trkpt lat="44.76262" lon="2.67146">
        <ele>526.1</ele>
        <time>2024-08-16T09:42:32Z</time>
      </trkpt>
      <trkpt lat="44.76264" lon="2.67143">
        <ele>526.3</ele>
        <time>2024-08-16T09:42:34Z</time>
      </trkpt>
      <trkpt lat="44.76265" lon="2.6714">
        <ele>526.6</ele>
        <time>2024-08-16T09:42:36Z</time>
      </trkpt>
      <trkpt lat="44.76267" lon="2.67138">
        <ele>526.8</ele>
        <time>2024-08-16T09:42:38Z</time>
      </trkpt>
      <trkpt lat="44.76269" lon="2.67135">
        <ele>527.1</ele>
        <time>2024-08-16T09:42:40Z</time>
      </trkpt>
      <trkpt lat="44.76271" lon="2.67133">
        <ele>527.2</ele>
        <time>2024-08-16T09:42:42Z</time>
      </trkpt>
      <trkpt lat="44.7627" lon="2.6713">
        <ele>527.4</ele>
        <time>2024-08-16T09:42:44Z</time>
      </trkpt>
      <trkpt lat="44.76271" lon="2.67129">
        <ele>527.5</ele>
        <time>2024-08-16T09:42:45Z</time>
      </trkpt>
      <trkpt lat="44.7632" lon="2.67047">
        <ele>535</ele>
        <time>2024-08-16T09:43:51Z</time>
      </trkpt>
      <trkpt lat="44.76321" lon="2.67045">
        <ele>535.1</ele>
        <time>2024-08-16T09:43:52Z</time>
      </trkpt>
      <trkpt lat="44.76322" lon="2.67044">
        <ele>535.3</ele>
        <time>2024-08-16T09:43:53Z</time>
      </trkpt>
      <trkpt lat="44.76323" lon="2.67043">
        <ele>535.4</ele>
        <time>2024-08-16T09:43:54Z</time>
      </trkpt>
      <trkpt lat="44.76325" lon="2.6704">
        <ele>535.7</ele>
        <time>2024-08-16T09:43:56Z</time>
      </trkpt>
      <trkpt lat="44.76326" lon="2.67039">
        <ele>535.8</ele>
        <time>2024-08-16T09:43:57Z</time>
      </trkpt>
      <trkpt lat="44.76327" lon="2.67038">
        <ele>535.9</ele>
        <time>2024-08-16T09:43:58Z</time>
      </trkpt>
      <trkpt lat="44.7633" lon="2.67035">
        <ele>536.2</ele>
        <time>2024-08-16T09:44:00Z</time>
      </trkpt>
      <trkpt lat="44.76331" lon="2.67034">
        <ele>536.4</ele>
        <time>2024-08-16T09:44:01Z</time>
      </trkpt>
      <trkpt lat="44.76333" lon="2.67034">
        <ele>536.6</ele>
        <time>2024-08-16T09:44:02Z</time>
      </trkpt>
      <trkpt lat="44.76337" lon="2.67032">
        <ele>537</ele>
        <time>2024-08-16T09:44:04Z</time>
      </trkpt>
      <trkpt lat="44.76341" lon="2.67029">
        <ele>537.4</ele>
        <time>2024-08-16T09:44:06Z</time>
      </trkpt>
      <trkpt lat="44.76343" lon="2.67027">
        <ele>537.6</ele>
        <time>2024-08-16T09:44:08Z</time>
      </trkpt>
      <trkpt lat="44.76345" lon="2.67024">
        <ele>537.9</ele>
        <time>2024-08-16T09:44:10Z</time>
      </trkpt>
      <trkpt lat="44.76347" lon="2.67022">
        <ele>538.1</ele>
        <time>2024-08-16T09:44:11Z</time>
      </trkpt>
      <trkpt lat="44.76347" lon="2.6702">
        <ele>538.2</ele>
        <time>2024-08-16T09:44:12Z</time>
      </trkpt>
      <trkpt lat="44.76349" lon="2.67018">
        <ele>538.4</ele>
        <time>2024-08-16T09:44:13Z</time>
      </trkpt>
      <trkpt lat="44.7635" lon="2.67016">
        <ele>538.5</ele>
        <time>2024-08-16T09:44:14Z</time>
      </trkpt>
      <trkpt lat="44.76352" lon="2.67013">
        <ele>538.7</ele>
        <time>2024-08-16T09:44:16Z</time>
      </trkpt>
      <trkpt lat="44.76354" lon="2.6701">
        <ele>539</ele>
        <time>2024-08-16T09:44:18Z</time>
      </trkpt>
      <trkpt lat="44.76355" lon="2.67007">
        <ele>539.2</ele>
        <time>2024-08-16T09:44:20Z</time>
      </trkpt>
      <trkpt lat="44.76357" lon="2.67005">
        <ele>539.4</ele>
        <time>2024-08-16T09:44:22Z</time>
      </trkpt>
      <trkpt lat="44.76432" lon="2.66956">
        <ele>547.6</ele>
        <time>2024-08-16T09:45:43Z</time>
      </trkpt>
      <trkpt lat="44.76433" lon="2.66957">
        <ele>547.8</ele>
        <time>2024-08-16T09:45:44Z</time>
      </trkpt>
      <trkpt lat="44.76437" lon="2.66957">
        <ele>548.1</ele>
        <time>2024-08-16T09:45:46Z</time>
      </trkpt>
      <trkpt lat="44.76439" lon="2.66957">
        <ele>548.3</ele>
        <time>2024-08-16T09:45:47Z</time>
      </trkpt>
      <trkpt lat="44.76464" lon="2.66935">
        <ele>550.8</ele>
        <time>2024-08-16T09:46:15Z</time>
      </trkpt>
      <trkpt lat="44.76464" lon="2.66933">
        <ele>551</ele>
        <time>2024-08-16T09:46:16Z</time>
      </trkpt>
      <trkpt lat="44.76464" lon="2.66928">
        <ele>551.2</ele>
        <time>2024-08-16T09:46:18Z</time>
      </trkpt>
      <trkpt lat="44.76465" lon="2.66924">
        <ele>551.5</ele>
        <time>2024-08-16T09:46:20Z</time>
      </trkpt>
      <trkpt lat="44.76467" lon="2.66918">
        <ele>551.8</ele>
        <time>2024-08-16T09:46:22Z</time>
      </trkpt>
      <trkpt lat="44.76468" lon="2.66916">
        <ele>551.9</ele>
        <time>2024-08-16T09:46:23Z</time>
      </trkpt>
      <trkpt lat="44.76468" lon="2.66914">
        <ele>552</ele>
        <time>2024-08-16T09:46:24Z</time>
      </trkpt>
      <trkpt lat="44.76468" lon="2.6691">
        <ele>552.2</ele>
        <time>2024-08-16T09:46:26Z</time>
      </trkpt>
      <trkpt lat="44.76468" lon="2.66907">
        <ele>552.3</ele>
        <time>2024-08-16T09:46:27Z</time>
      </trkpt>
      <trkpt lat="44.76469" lon="2.66906">
        <ele>552.4</ele>
        <time>2024-08-16T09:46:28Z</time>
      </trkpt>
      <trkpt lat="44.7647" lon="2.66901">
        <ele>552.6</ele>
        <time>2024-08-16T09:46:30Z</time>
      </trkpt>
      <trkpt lat="44.76471" lon="2.669">
        <ele>552.8</ele>
        <time>2024-08-16T09:46:31Z</time>
      </trkpt>
      <trkpt lat="44.76479" lon="2.66899">
        <ele>553.3</ele>
        <time>2024-08-16T09:46:32Z</time>
      </trkpt>
      <trkpt lat="44.7649" lon="2.66897">
        <ele>554</ele>
        <time>2024-08-16T09:46:34Z</time>
      </trkpt>
      <trkpt lat="44.76492" lon="2.66896">
        <ele>554.1</ele>
        <time>2024-08-16T09:46:35Z</time>
      </trkpt>
      <trkpt lat="44.76493" lon="2.66895">
        <ele>554.3</ele>
        <time>2024-08-16T09:46:36Z</time>
      </trkpt>
      <trkpt lat="44.76495" lon="2.66892">
        <ele>554.5</ele>
        <time>2024-08-16T09:46:38Z</time>
      </trkpt>
      <trkpt lat="44.76495" lon="2.66888">
        <ele>554.6</ele>
        <time>2024-08-16T09:46:40Z</time>
      </trkpt>
      <trkpt lat="44.76496" lon="2.66887">
        <ele>554.7</ele>
        <time>2024-08-16T09:46:41Z</time>
      </trkpt>
      <trkpt lat="44.76496" lon="2.66885">
        <ele>554.8</ele>
        <time>2024-08-16T09:46:42Z</time>
      </trkpt>
      <trkpt lat="44.76497" lon="2.66881">
        <ele>555</ele>
        <time>2024-08-16T09:46:44Z</time>
      </trkpt>
      <trkpt lat="44.76497" lon="2.66879">
        <ele>555.1</ele>
        <time>2024-08-16T09:46:45Z</time>
      </trkpt>
      <trkpt lat="44.76497" lon="2.66877">
        <ele>555.2</ele>
        <time>2024-08-16T09:46:46Z</time>
      </trkpt>
      <trkpt lat="44.76497" lon="2.66874">
        <ele>555.3</ele>
        <time>2024-08-16T09:46:47Z</time>
      </trkpt>
      <trkpt lat="44.76498" lon="2.66872">
        <ele>555.4</ele>
        <time>2024-08-16T09:46:48Z</time>
      </trkpt>
      <trkpt lat="44.76498" lon="2.6687">
        <ele>555.5</ele>
        <time>2024-08-16T09:46:49Z</time>
      </trkpt>
      <trkpt lat="44.76499" lon="2.66868">
        <ele>555.6</ele>
        <time>2024-08-16T09:46:50Z</time>
      </trkpt>
      <trkpt lat="44.76499" lon="2.66864">
        <ele>555.8</ele>
        <time>2024-08-16T09:46:52Z</time>
      </trkpt>
      <trkpt lat="44.76499" lon="2.66862">
        <ele>555.9</ele>
        <time>2024-08-16T09:46:53Z</time>
      </trkpt>
      <trkpt lat="44.765" lon="2.6686">
        <ele>556</ele>
        <time>2024-08-16T09:46:54Z</time>
      </trkpt>
      <trkpt lat="44.765" lon="2.66856">
        <ele>556.2</ele>
        <time>2024-08-16T09:46:56Z</time>
      </trkpt>
      <trkpt lat="44.76501" lon="2.66851">
        <ele>556.4</ele>
        <time>2024-08-16T09:46:58Z</time>
      </trkpt>
      <trkpt lat="44.76502" lon="2.66848">
        <ele>556.7</ele>
        <time>2024-08-16T09:47:00Z</time>
      </trkpt>
      <trkpt lat="44.76503" lon="2.66846">
        <ele>556.8</ele>
        <time>2024-08-16T09:47:01Z</time>
      </trkpt>
      <trkpt lat="44.76504" lon="2.66844">
        <ele>556.9</ele>
        <time>2024-08-16T09:47:02Z</time>
      </trkpt>
      <trkpt lat="44.76505" lon="2.6684">
        <ele>557.1</ele>
        <time>2024-08-16T09:47:04Z</time>
      </trkpt>
      <trkpt lat="44.76506" lon="2.66837">
        <ele>557.4</ele>
        <time>2024-08-16T09:47:06Z</time>
      </trkpt>
      <trkpt lat="44.76507" lon="2.66835">
        <ele>557.5</ele>
        <time>2024-08-16T09:47:07Z</time>
      </trkpt>
      <trkpt lat="44.76508" lon="2.66834">
        <ele>557.6</ele>
        <time>2024-08-16T09:47:08Z</time>
      </trkpt>
      <trkpt lat="44.76509" lon="2.6683">
        <ele>557.9</ele>
        <time>2024-08-16T09:47:10Z</time>
      </trkpt>
      <trkpt lat="44.7651" lon="2.66828">
        <ele>558</ele>
        <time>2024-08-16T09:47:11Z</time>
      </trkpt>
      <trkpt lat="44.7651" lon="2.66827">
        <ele>558.1</ele>
        <time>2024-08-16T09:47:12Z</time>
      </trkpt>
      <trkpt lat="44.76512" lon="2.66823">
        <ele>558.4</ele>
        <time>2024-08-16T09:47:14Z</time>
      </trkpt>
      <trkpt lat="44.76512" lon="2.66821">
        <ele>558.5</ele>
        <time>2024-08-16T09:47:15Z</time>
      </trkpt>
      <trkpt lat="44.76513" lon="2.66819">
        <ele>558.7</ele>
        <time>2024-08-16T09:47:16Z</time>
      </trkpt>
      <trkpt lat="44.76514" lon="2.66816">
        <ele>558.9</ele>
        <time>2024-08-16T09:47:18Z</time>
      </trkpt>
      <trkpt lat="44.76515" lon="2.66815">
        <ele>559</ele>
        <time>2024-08-16T09:47:19Z</time>
      </trkpt>
      <trkpt lat="44.76516" lon="2.66813">
        <ele>559.2</ele>
        <time>2024-08-16T09:47:20Z</time>
      </trkpt>
      <trkpt lat="44.76518" lon="2.66809">
        <ele>559.4</ele>
        <time>2024-08-16T09:47:22Z</time>
      </trkpt>
      <trkpt lat="44.76519" lon="2.66806">
        <ele>559.7</ele>
        <time>2024-08-16T09:47:24Z</time>
      </trkpt>
      <trkpt lat="44.7652" lon="2.66804">
        <ele>559.8</ele>
        <time>2024-08-16T09:47:25Z</time>
      </trkpt>
      <trkpt lat="44.76521" lon="2.66803">
        <ele>559.9</ele>
        <time>2024-08-16T09:47:26Z</time>
      </trkpt>
      <trkpt lat="44.76522" lon="2.66799">
        <ele>560.2</ele>
        <time>2024-08-16T09:47:28Z</time>
      </trkpt>
      <trkpt lat="44.76523" lon="2.66796">
        <ele>560.4</ele>
        <time>2024-08-16T09:47:30Z</time>
      </trkpt>
      <trkpt lat="44.76524" lon="2.66793">
        <ele>560.7</ele>
        <time>2024-08-16T09:47:32Z</time>
      </trkpt>
      <trkpt lat="44.76525" lon="2.66792">
        <ele>560.8</ele>
        <time>2024-08-16T09:47:33Z</time>
      </trkpt>
      <trkpt lat="44.76526" lon="2.6679">
        <ele>561</ele>
        <time>2024-08-16T09:47:34Z</time>
      </trkpt>
      <trkpt lat="44.76527" lon="2.66788">
        <ele>561.1</ele>
        <time>2024-08-16T09:47:35Z</time>
      </trkpt>
      <trkpt lat="44.76529" lon="2.66787">
        <ele>561.3</ele>
        <time>2024-08-16T09:47:36Z</time>
      </trkpt>
      <trkpt lat="44.76529" lon="2.66785">
        <ele>561.4</ele>
        <time>2024-08-16T09:47:37Z</time>
      </trkpt>
      <trkpt lat="44.7653" lon="2.66783">
        <ele>561.6</ele>
        <time>2024-08-16T09:47:38Z</time>
      </trkpt>
      <trkpt lat="44.76531" lon="2.66782">
        <ele>561.7</ele>
        <time>2024-08-16T09:47:39Z</time>
      </trkpt>
      <trkpt lat="44.76531" lon="2.66781">
        <ele>561.8</ele>
        <time>2024-08-16T09:47:40Z</time>
      </trkpt>
      <trkpt lat="44.7653" lon="2.66777">
        <ele>562.1</ele>
        <time>2024-08-16T09:47:42Z</time>
      </trkpt>
      <trkpt lat="44.76534" lon="2.66775">
        <ele>562.4</ele>
        <time>2024-08-16T09:47:44Z</time>
      </trkpt>
      <trkpt lat="44.76536" lon="2.66773">
        <ele>562.7</ele>
        <time>2024-08-16T09:47:45Z</time>
      </trkpt>
      <trkpt lat="44.76537" lon="2.66772">
        <ele>562.8</ele>
        <time>2024-08-16T09:47:46Z</time>
      </trkpt>
      <trkpt lat="44.76536" lon="2.66768">
        <ele>563.1</ele>
        <time>2024-08-16T09:47:48Z</time>
      </trkpt>
      <trkpt lat="44.76539" lon="2.66765">
        <ele>563.4</ele>
        <time>2024-08-16T09:47:50Z</time>
      </trkpt>
      <trkpt lat="44.7654" lon="2.66764">
        <ele>563.5</ele>
        <time>2024-08-16T09:47:51Z</time>
      </trkpt>
      <trkpt lat="44.76541" lon="2.66762">
        <ele>563.7</ele>
        <time>2024-08-16T09:47:52Z</time>
      </trkpt>
      <trkpt lat="44.76542" lon="2.6676">
        <ele>563.8</ele>
        <time>2024-08-16T09:47:53Z</time>
      </trkpt>
      <trkpt lat="44.76543" lon="2.66758">
        <ele>564</ele>
        <time>2024-08-16T09:47:54Z</time>
      </trkpt>
      <trkpt lat="44.76545" lon="2.66756">
        <ele>564.3</ele>
        <time>2024-08-16T09:47:56Z</time>
      </trkpt>
      <trkpt lat="44.76548" lon="2.66752">
        <ele>564.6</ele>
        <time>2024-08-16T09:47:58Z</time>
      </trkpt>
      <trkpt lat="44.76549" lon="2.66749">
        <ele>564.9</ele>
        <time>2024-08-16T09:48:00Z</time>
      </trkpt>
      <trkpt lat="44.76551" lon="2.66746">
        <ele>565.1</ele>
        <time>2024-08-16T09:48:02Z</time>
      </trkpt>
      <trkpt lat="44.76551" lon="2.66741">
        <ele>565.4</ele>
        <time>2024-08-16T09:48:04Z</time>
      </trkpt>
      <trkpt lat="44.76552" lon="2.6674">
        <ele>565.5</ele>
        <time>2024-08-16T09:48:05Z</time>
      </trkpt>
      <trkpt lat="44.76553" lon="2.66738">
        <ele>565.6</ele>
        <time>2024-08-16T09:48:06Z</time>
      </trkpt>
      <trkpt lat="44.76554" lon="2.66734">
        <ele>565.8</ele>
        <time>2024-08-16T09:48:08Z</time>
      </trkpt>
      <trkpt lat="44.76555" lon="2.66731">
        <ele>566.1</ele>
        <time>2024-08-16T09:48:10Z</time>
      </trkpt>
      <trkpt lat="44.76557" lon="2.66727">
        <ele>566.3</ele>
        <time>2024-08-16T09:48:12Z</time>
      </trkpt>
      <trkpt lat="44.76558" lon="2.66725">
        <ele>566.4</ele>
        <time>2024-08-16T09:48:13Z</time>
      </trkpt>
      <trkpt lat="44.76559" lon="2.66723">
        <ele>566.5</ele>
        <time>2024-08-16T09:48:14Z</time>
      </trkpt>
      <trkpt lat="44.76559" lon="2.66719">
        <ele>566.7</ele>
        <time>2024-08-16T09:48:16Z</time>
      </trkpt>
      <trkpt lat="44.7656" lon="2.66715">
        <ele>566.9</ele>
        <time>2024-08-16T09:48:18Z</time>
      </trkpt>
      <trkpt lat="44.76561" lon="2.6671">
        <ele>567.1</ele>
        <time>2024-08-16T09:48:20Z</time>
      </trkpt>
      <trkpt lat="44.76562" lon="2.66708">
        <ele>567.2</ele>
        <time>2024-08-16T09:48:21Z</time>
      </trkpt>
      <trkpt lat="44.76562" lon="2.66706">
        <ele>567.3</ele>
        <time>2024-08-16T09:48:22Z</time>
      </trkpt>
      <trkpt lat="44.76563" lon="2.66702">
        <ele>567.5</ele>
        <time>2024-08-16T09:48:24Z</time>
      </trkpt>
      <trkpt lat="44.76564" lon="2.66698">
        <ele>567.7</ele>
        <time>2024-08-16T09:48:26Z</time>
      </trkpt>
      <trkpt lat="44.76566" lon="2.66693">
        <ele>567.9</ele>
        <time>2024-08-16T09:48:28Z</time>
      </trkpt>
      <trkpt lat="44.76567" lon="2.66689">
        <ele>568.1</ele>
        <time>2024-08-16T09:48:30Z</time>
      </trkpt>
      <trkpt lat="44.76569" lon="2.66687">
        <ele>568.3</ele>
        <time>2024-08-16T09:48:31Z</time>
      </trkpt>
      <trkpt lat="44.76569" lon="2.66684">
        <ele>568.4</ele>
        <time>2024-08-16T09:48:32Z</time>
      </trkpt>
      <trkpt lat="44.7657" lon="2.6668">
        <ele>568.6</ele>
        <time>2024-08-16T09:48:34Z</time>
      </trkpt>
      <trkpt lat="44.76571" lon="2.66675">
        <ele>568.8</ele>
        <time>2024-08-16T09:48:36Z</time>
      </trkpt>
      <trkpt lat="44.76572" lon="2.66673">
        <ele>569</ele>
        <time>2024-08-16T09:48:37Z</time>
      </trkpt>
      <trkpt lat="44.76572" lon="2.66671">
        <ele>569.1</ele>
        <time>2024-08-16T09:48:38Z</time>
      </trkpt>
      <trkpt lat="44.76573" lon="2.66666">
        <ele>569.2</ele>
        <time>2024-08-16T09:48:40Z</time>
      </trkpt>
      <trkpt lat="44.76576" lon="2.66661">
        <ele>569.4</ele>
        <time>2024-08-16T09:48:42Z</time>
      </trkpt>
      <trkpt lat="44.76577" lon="2.66657">
        <ele>569.6</ele>
        <time>2024-08-16T09:48:44Z</time>
      </trkpt>
      <trkpt lat="44.76578" lon="2.66652">
        <ele>569.7</ele>
        <time>2024-08-16T09:48:46Z</time>
      </trkpt>
      <trkpt lat="44.76579" lon="2.66647">
        <ele>569.8</ele>
        <time>2024-08-16T09:48:48Z</time>
      </trkpt>
      <trkpt lat="44.7658" lon="2.66643">
        <ele>569.8</ele>
        <time>2024-08-16T09:48:50Z</time>
      </trkpt>
      <trkpt lat="44.76581" lon="2.66641">
        <ele>569.9</ele>
        <time>2024-08-16T09:48:51Z</time>
      </trkpt>
      <trkpt lat="44.76582" lon="2.66638">
        <ele>569.9</ele>
        <time>2024-08-16T09:48:52Z</time>
      </trkpt>
      <trkpt lat="44.76584" lon="2.66634">
        <ele>570</ele>
        <time>2024-08-16T09:48:54Z</time>
      </trkpt>
      <trkpt lat="44.76586" lon="2.66631">
        <ele>570</ele>
        <time>2024-08-16T09:48:56Z</time>
      </trkpt>
      <trkpt lat="44.76588" lon="2.66627">
        <ele>570.1</ele>
        <time>2024-08-16T09:48:58Z</time>
      </trkpt>
      <trkpt lat="44.76589" lon="2.66623">
        <ele>570.1</ele>
        <time>2024-08-16T09:49:00Z</time>
      </trkpt>
      <trkpt lat="44.76591" lon="2.66618">
        <ele>570.1</ele>
        <time>2024-08-16T09:49:02Z</time>
      </trkpt>
      <trkpt lat="44.76593" lon="2.66613">
        <ele>570.1</ele>
        <time>2024-08-16T09:49:04Z</time>
      </trkpt>
      <trkpt lat="44.76594" lon="2.66611">
        <ele>570.1</ele>
        <time>2024-08-16T09:49:05Z</time>
      </trkpt>
      <trkpt lat="44.76596" lon="2.66609">
        <ele>570.2</ele>
        <time>2024-08-16T09:49:06Z</time>
      </trkpt>
      <trkpt lat="44.76598" lon="2.66605">
        <ele>570.2</ele>
        <time>2024-08-16T09:49:08Z</time>
      </trkpt>
      <trkpt lat="44.76599" lon="2.66601">
        <ele>570.3</ele>
        <time>2024-08-16T09:49:10Z</time>
      </trkpt>
      <trkpt lat="44.76601" lon="2.66597">
        <ele>570.4</ele>
        <time>2024-08-16T09:49:12Z</time>
      </trkpt>
      <trkpt lat="44.76603" lon="2.66593">
        <ele>570.5</ele>
        <time>2024-08-16T09:49:14Z</time>
      </trkpt>
      <trkpt lat="44.76606" lon="2.66589">
        <ele>570.6</ele>
        <time>2024-08-16T09:49:16Z</time>
      </trkpt>
      <trkpt lat="44.76607" lon="2.66586">
        <ele>570.7</ele>
        <time>2024-08-16T09:49:18Z</time>
      </trkpt>
      <trkpt lat="44.76608" lon="2.66584">
        <ele>570.8</ele>
        <time>2024-08-16T09:49:19Z</time>
      </trkpt>
      <trkpt lat="44.76609" lon="2.66583">
        <ele>570.9</ele>
        <time>2024-08-16T09:49:20Z</time>
      </trkpt>
      <trkpt lat="44.76611" lon="2.6658">
        <ele>571.1</ele>
        <time>2024-08-16T09:49:22Z</time>
      </trkpt>
      <trkpt lat="44.76612" lon="2.66578">
        <ele>571.3</ele>
        <time>2024-08-16T09:49:24Z</time>
      </trkpt>
      <trkpt lat="44.76615" lon="2.66578">
        <ele>571.5</ele>
        <time>2024-08-16T09:49:26Z</time>
      </trkpt>
      <trkpt lat="44.76619" lon="2.66574">
        <ele>572.1</ele>
        <time>2024-08-16T09:58:37Z</time>
      </trkpt>
      <trkpt lat="44.76621" lon="2.66576">
        <ele>572.4</ele>
        <time>2024-08-16T09:58:38Z</time>
      </trkpt>
      <trkpt lat="44.76621" lon="2.6658">
        <ele>572.5</ele>
        <time>2024-08-16T09:58:40Z</time>
      </trkpt>
      <trkpt lat="44.7662" lon="2.66583">
        <ele>572.7</ele>
        <time>2024-08-16T09:58:42Z</time>
      </trkpt>
      <trkpt lat="44.76619" lon="2.66587">
        <ele>572.9</ele>
        <time>2024-08-16T09:58:44Z</time>
      </trkpt>
      <trkpt lat="44.76618" lon="2.6659">
        <ele>573.1</ele>
        <time>2024-08-16T09:58:46Z</time>
      </trkpt>
      <trkpt lat="44.76617" lon="2.66593">
        <ele>573.3</ele>
        <time>2024-08-16T09:58:48Z</time>
      </trkpt>
      <trkpt lat="44.76616" lon="2.66594">
        <ele>573.3</ele>
        <time>2024-08-16T09:58:49Z</time>
      </trkpt>
      <trkpt lat="44.76616" lon="2.66596">
        <ele>573.5</ele>
        <time>2024-08-16T09:58:50Z</time>
      </trkpt>
      <trkpt lat="44.76616" lon="2.66598">
        <ele>573.6</ele>
        <time>2024-08-16T09:58:51Z</time>
      </trkpt>
      <trkpt lat="44.76615" lon="2.666">
        <ele>573.7</ele>
        <time>2024-08-16T09:58:52Z</time>
      </trkpt>
      <trkpt lat="44.76613" lon="2.66603">
        <ele>574</ele>
        <time>2024-08-16T09:58:54Z</time>
      </trkpt>
      <trkpt lat="44.7661" lon="2.66605">
        <ele>574.2</ele>
        <time>2024-08-16T09:58:56Z</time>
      </trkpt>
      <trkpt lat="44.76609" lon="2.66608">
        <ele>574.4</ele>
        <time>2024-08-16T09:58:58Z</time>
      </trkpt>
      <trkpt lat="44.76608" lon="2.66612">
        <ele>574.7</ele>
        <time>2024-08-16T09:59:00Z</time>
      </trkpt>
      <trkpt lat="44.76605" lon="2.66615">
        <ele>575</ele>
        <time>2024-08-16T09:59:02Z</time>
      </trkpt>
      <trkpt lat="44.76604" lon="2.66616">
        <ele>575.1</ele>
        <time>2024-08-16T09:59:03Z</time>
      </trkpt>
      <trkpt lat="44.76604" lon="2.66618">
        <ele>575.2</ele>
        <time>2024-08-16T09:59:04Z</time>
      </trkpt>
      <trkpt lat="44.76603" lon="2.66619">
        <ele>575.4</ele>
        <time>2024-08-16T09:59:05Z</time>
      </trkpt>
      <trkpt lat="44.76604" lon="2.66622">
        <ele>575.6</ele>
        <time>2024-08-16T09:59:06Z</time>
      </trkpt>
      <trkpt lat="44.76604" lon="2.66624">
        <ele>575.7</ele>
        <time>2024-08-16T09:59:07Z</time>
      </trkpt>
      <trkpt lat="44.76602" lon="2.66625">
        <ele>575.9</ele>
        <time>2024-08-16T09:59:08Z</time>
      </trkpt>
      <trkpt lat="44.76601" lon="2.66629">
        <ele>576.2</ele>
        <time>2024-08-16T09:59:10Z</time>
      </trkpt>
      <trkpt lat="44.76601" lon="2.66632">
        <ele>576.5</ele>
        <time>2024-08-16T09:59:12Z</time>
      </trkpt>
      <trkpt lat="44.766" lon="2.66636">
        <ele>576.8</ele>
        <time>2024-08-16T09:59:14Z</time>
      </trkpt>
      <trkpt lat="44.766" lon="2.66638">
        <ele>577</ele>
        <time>2024-08-16T09:59:15Z</time>
      </trkpt>
      <trkpt lat="44.766" lon="2.6664">
        <ele>577.1</ele>
        <time>2024-08-16T09:59:16Z</time>
      </trkpt>
      <trkpt lat="44.766" lon="2.66644">
        <ele>577.4</ele>
        <time>2024-08-16T09:59:18Z</time>
      </trkpt>
      <trkpt lat="44.76601" lon="2.66648">
        <ele>577.7</ele>
        <time>2024-08-16T09:59:20Z</time>
      </trkpt>
      <trkpt lat="44.76601" lon="2.66652">
        <ele>578</ele>
        <time>2024-08-16T09:59:22Z</time>
      </trkpt>
      <trkpt lat="44.76601" lon="2.66656">
        <ele>578.2</ele>
        <time>2024-08-16T09:59:24Z</time>
      </trkpt>
      <trkpt lat="44.76602" lon="2.66658">
        <ele>578.4</ele>
        <time>2024-08-16T09:59:25Z</time>
      </trkpt>
      <trkpt lat="44.76601" lon="2.6666">
        <ele>578.5</ele>
        <time>2024-08-16T09:59:26Z</time>
      </trkpt>
      <trkpt lat="44.766" lon="2.66661">
        <ele>578.6</ele>
        <time>2024-08-16T09:59:27Z</time>
      </trkpt>
      <trkpt lat="44.76598" lon="2.66662">
        <ele>578.8</ele>
        <time>2024-08-16T09:59:28Z</time>
      </trkpt>
      <trkpt lat="44.76598" lon="2.66664">
        <ele>578.9</ele>
        <time>2024-08-16T09:59:29Z</time>
      </trkpt>
      <trkpt lat="44.76598" lon="2.66666">
        <ele>579.1</ele>
        <time>2024-08-16T09:59:30Z</time>
      </trkpt>
      <trkpt lat="44.76598" lon="2.6667">
        <ele>579.3</ele>
        <time>2024-08-16T09:59:32Z</time>
      </trkpt>
      <trkpt lat="44.76597" lon="2.66671">
        <ele>579.5</ele>
        <time>2024-08-16T09:59:33Z</time>
      </trkpt>
      <trkpt lat="44.76597" lon="2.66673">
        <ele>579.6</ele>
        <time>2024-08-16T09:59:34Z</time>
      </trkpt>
      <trkpt lat="44.76595" lon="2.66675">
        <ele>579.8</ele>
        <time>2024-08-16T09:59:36Z</time>
      </trkpt>
      <trkpt lat="44.76594" lon="2.66678">
        <ele>580.1</ele>
        <time>2024-08-16T09:59:38Z</time>
      </trkpt>
      <trkpt lat="44.76594" lon="2.66682">
        <ele>580.3</ele>
        <time>2024-08-16T09:59:40Z</time>
      </trkpt>
      <trkpt lat="44.76594" lon="2.66685">
        <ele>580.6</ele>
        <time>2024-08-16T09:59:42Z</time>
      </trkpt>
      <trkpt lat="44.76595" lon="2.66687">
        <ele>580.7</ele>
        <time>2024-08-16T09:59:43Z</time>
      </trkpt>
      <trkpt lat="44.76593" lon="2.66688">
        <ele>580.9</ele>
        <time>2024-08-16T09:59:44Z</time>
      </trkpt>
      <trkpt lat="44.76591" lon="2.66691">
        <ele>581.3</ele>
        <time>2024-08-16T09:59:46Z</time>
      </trkpt>
      <trkpt lat="44.7659" lon="2.66694">
        <ele>581.6</ele>
        <time>2024-08-16T09:59:48Z</time>
      </trkpt>
      <trkpt lat="44.7659" lon="2.66696">
        <ele>581.7</ele>
        <time>2024-08-16T09:59:49Z</time>
      </trkpt>
      <trkpt lat="44.7659" lon="2.66698">
        <ele>581.8</ele>
        <time>2024-08-16T09:59:50Z</time>
      </trkpt>
      <trkpt lat="44.7659" lon="2.66702">
        <ele>582.2</ele>
        <time>2024-08-16T09:59:52Z</time>
      </trkpt>
      <trkpt lat="44.7659" lon="2.66704">
        <ele>582.4</ele>
        <time>2024-08-16T09:59:53Z</time>
      </trkpt>
      <trkpt lat="44.7659" lon="2.66706">
        <ele>582.5</ele>
        <time>2024-08-16T09:59:54Z</time>
      </trkpt>
      <trkpt lat="44.7659" lon="2.6671">
        <ele>582.9</ele>
        <time>2024-08-16T09:59:56Z</time>
      </trkpt>
      <trkpt lat="44.7659" lon="2.66712">
        <ele>583.1</ele>
        <time>2024-08-16T09:59:57Z</time>
      </trkpt>
      <trkpt lat="44.7659" lon="2.66714">
        <ele>583.2</ele>
        <time>2024-08-16T09:59:58Z</time>
      </trkpt>
      <trkpt lat="44.76591" lon="2.66716">
        <ele>583.4</ele>
        <time>2024-08-16T09:59:59Z</time>
      </trkpt>
      <trkpt lat="44.7659" lon="2.66717">
        <ele>583.5</ele>
        <time>2024-08-16T10:00:00Z</time>
      </trkpt>
      <trkpt lat="44.76591" lon="2.66722">
        <ele>583.8</ele>
        <time>2024-08-16T10:00:02Z</time>
      </trkpt>
      <trkpt lat="44.76591" lon="2.66724">
        <ele>584</ele>
        <time>2024-08-16T10:00:03Z</time>
      </trkpt>
      <trkpt lat="44.76591" lon="2.66726">
        <ele>584.1</ele>
        <time>2024-08-16T10:00:04Z</time>
      </trkpt>
      <trkpt lat="44.7659" lon="2.66729">
        <ele>584.4</ele>
        <time>2024-08-16T10:00:06Z</time>
      </trkpt>
      <trkpt lat="44.76589" lon="2.66732">
        <ele>584.6</ele>
        <time>2024-08-16T10:00:08Z</time>
      </trkpt>
      <trkpt lat="44.76588" lon="2.66736">
        <ele>584.9</ele>
        <time>2024-08-16T10:00:10Z</time>
      </trkpt>
      <trkpt lat="44.76587" lon="2.66737">
        <ele>585.1</ele>
        <time>2024-08-16T10:00:11Z</time>
      </trkpt>
      <trkpt lat="44.76588" lon="2.66739">
        <ele>585.2</ele>
        <time>2024-08-16T10:00:12Z</time>
      </trkpt>
      <trkpt lat="44.76588" lon="2.66743">
        <ele>585.5</ele>
        <time>2024-08-16T10:00:14Z</time>
      </trkpt>
      <trkpt lat="44.76587" lon="2.66746">
        <ele>585.7</ele>
        <time>2024-08-16T10:00:16Z</time>
      </trkpt>
      <trkpt lat="44.76587" lon="2.6675">
        <ele>586</ele>
        <time>2024-08-16T10:00:18Z</time>
      </trkpt>
      <trkpt lat="44.76588" lon="2.66751">
        <ele>586.2</ele>
        <time>2024-08-16T10:00:19Z</time>
      </trkpt>
      <trkpt lat="44.7659" lon="2.66753">
        <ele>586.4</ele>
        <time>2024-08-16T10:00:20Z</time>
      </trkpt>
      <trkpt lat="44.7659" lon="2.66755">
        <ele>586.5</ele>
        <time>2024-08-16T10:00:21Z</time>
      </trkpt>
      <trkpt lat="44.7659" lon="2.66757">
        <ele>586.6</ele>
        <time>2024-08-16T10:00:22Z</time>
      </trkpt>
      <trkpt lat="44.76592" lon="2.6676">
        <ele>587</ele>
        <time>2024-08-16T10:00:24Z</time>
      </trkpt>
      <trkpt lat="44.76592" lon="2.66765">
        <ele>587.4</ele>
        <time>2024-08-16T10:00:26Z</time>
      </trkpt>
      <trkpt lat="44.76592" lon="2.66769">
        <ele>587.7</ele>
        <time>2024-08-16T10:00:28Z</time>
      </trkpt>
      <trkpt lat="44.76592" lon="2.66773">
        <ele>588</ele>
        <time>2024-08-16T10:00:30Z</time>
      </trkpt>
      <trkpt lat="44.76591" lon="2.66776">
        <ele>588.3</ele>
        <time>2024-08-16T10:00:32Z</time>
      </trkpt>
      <trkpt lat="44.76591" lon="2.6678">
        <ele>588.6</ele>
        <time>2024-08-16T10:00:34Z</time>
      </trkpt>
      <trkpt lat="44.76592" lon="2.66782">
        <ele>588.7</ele>
        <time>2024-08-16T10:00:35Z</time>
      </trkpt>
      <trkpt lat="44.76592" lon="2.66783">
        <ele>588.9</ele>
        <time>2024-08-16T10:00:36Z</time>
      </trkpt>
      <trkpt lat="44.76592" lon="2.66785">
        <ele>589</ele>
        <time>2024-08-16T10:00:37Z</time>
      </trkpt>
      <trkpt lat="44.76592" lon="2.66787">
        <ele>589.1</ele>
        <time>2024-08-16T10:00:38Z</time>
      </trkpt>
      <trkpt lat="44.76592" lon="2.66789">
        <ele>589.3</ele>
        <time>2024-08-16T10:00:40Z</time>
      </trkpt>
      <trkpt lat="44.76592" lon="2.66792">
        <ele>589.5</ele>
        <time>2024-08-16T10:00:41Z</time>
      </trkpt>
      <trkpt lat="44.76593" lon="2.66794">
        <ele>589.7</ele>
        <time>2024-08-16T10:00:42Z</time>
      </trkpt>
      <trkpt lat="44.76593" lon="2.66795">
        <ele>589.8</ele>
        <time>2024-08-16T10:00:43Z</time>
      </trkpt>
      <trkpt lat="44.76594" lon="2.66797">
        <ele>589.9</ele>
        <time>2024-08-16T10:00:44Z</time>
      </trkpt>
      <trkpt lat="44.76595" lon="2.66799">
        <ele>590.1</ele>
        <time>2024-08-16T10:00:45Z</time>
      </trkpt>
      <trkpt lat="44.76596" lon="2.66801">
        <ele>590.2</ele>
        <time>2024-08-16T10:00:46Z</time>
      </trkpt>
      <trkpt lat="44.76596" lon="2.66805">
        <ele>590.5</ele>
        <time>2024-08-16T10:00:48Z</time>
      </trkpt>
      <trkpt lat="44.76597" lon="2.6681">
        <ele>590.8</ele>
        <time>2024-08-16T10:00:50Z</time>
      </trkpt>
      <trkpt lat="44.76597" lon="2.66811">
        <ele>590.9</ele>
        <time>2024-08-16T10:00:51Z</time>
      </trkpt>
      <trkpt lat="44.76597" lon="2.66813">
        <ele>591</ele>
        <time>2024-08-16T10:00:52Z</time>
      </trkpt>
      <trkpt lat="44.76598" lon="2.66817">
        <ele>591.3</ele>
        <time>2024-08-16T10:00:54Z</time>
      </trkpt>
      <trkpt lat="44.76599" lon="2.6682">
        <ele>591.5</ele>
        <time>2024-08-16T10:00:55Z</time>
      </trkpt>
      <trkpt lat="44.766" lon="2.66822">
        <ele>591.7</ele>
        <time>2024-08-16T10:00:56Z</time>
      </trkpt>
      <trkpt lat="44.766" lon="2.66826">
        <ele>591.9</ele>
        <time>2024-08-16T10:00:58Z</time>
      </trkpt>
      <trkpt lat="44.76599" lon="2.66827">
        <ele>592</ele>
        <time>2024-08-16T10:00:59Z</time>
      </trkpt>
      <trkpt lat="44.766" lon="2.6683">
        <ele>592.2</ele>
        <time>2024-08-16T10:01:00Z</time>
      </trkpt>
      <trkpt lat="44.76599" lon="2.66834">
        <ele>592.5</ele>
        <time>2024-08-16T10:01:02Z</time>
      </trkpt>
      <trkpt lat="44.76599" lon="2.66839">
        <ele>592.8</ele>
        <time>2024-08-16T10:01:04Z</time>
      </trkpt>
      <trkpt lat="44.76599" lon="2.66844">
        <ele>593.1</ele>
        <time>2024-08-16T10:01:06Z</time>
      </trkpt>
      <trkpt lat="44.76597" lon="2.66847">
        <ele>593.4</ele>
        <time>2024-08-16T10:01:08Z</time>
      </trkpt>
      <trkpt lat="44.76596" lon="2.66851">
        <ele>593.6</ele>
        <time>2024-08-16T10:01:10Z</time>
      </trkpt>
      <trkpt lat="44.76595" lon="2.66854">
        <ele>594</ele>
        <time>2024-08-16T10:01:12Z</time>
      </trkpt>
      <trkpt lat="44.76594" lon="2.66856">
        <ele>594.1</ele>
        <time>2024-08-16T10:01:13Z</time>
      </trkpt>
      <trkpt lat="44.76593" lon="2.66858">
        <ele>594.3</ele>
        <time>2024-08-16T10:01:14Z</time>
      </trkpt>
      <trkpt lat="44.76592" lon="2.6686">
        <ele>594.5</ele>
        <time>2024-08-16T10:01:16Z</time>
      </trkpt>
      <trkpt lat="44.76592" lon="2.66865">
        <ele>594.8</ele>
        <time>2024-08-16T10:01:18Z</time>
      </trkpt>
      <trkpt lat="44.76591" lon="2.66866">
        <ele>595</ele>
        <time>2024-08-16T10:01:19Z</time>
      </trkpt>
      <trkpt lat="44.7659" lon="2.66867">
        <ele>595.1</ele>
        <time>2024-08-16T10:01:20Z</time>
      </trkpt>
      <trkpt lat="44.7659" lon="2.66871">
        <ele>595.3</ele>
        <time>2024-08-16T10:01:22Z</time>
      </trkpt>
      <trkpt lat="44.76589" lon="2.66872">
        <ele>595.5</ele>
        <time>2024-08-16T10:01:23Z</time>
      </trkpt>
      <trkpt lat="44.76588" lon="2.66874">
        <ele>595.6</ele>
        <time>2024-08-16T10:01:24Z</time>
      </trkpt>
      <trkpt lat="44.76586" lon="2.66876">
        <ele>595.8</ele>
        <time>2024-08-16T10:01:25Z</time>
      </trkpt>
      <trkpt lat="44.76585" lon="2.66877">
        <ele>596</ele>
        <time>2024-08-16T10:01:26Z</time>
      </trkpt>
      <trkpt lat="44.76583" lon="2.66879">
        <ele>596.2</ele>
        <time>2024-08-16T10:01:28Z</time>
      </trkpt>
      <trkpt lat="44.76583" lon="2.6688">
        <ele>596.3</ele>
        <time>2024-08-16T10:01:29Z</time>
      </trkpt>
      <trkpt lat="44.76584" lon="2.66882">
        <ele>596.4</ele>
        <time>2024-08-16T10:01:30Z</time>
      </trkpt>
      <trkpt lat="44.76586" lon="2.66886">
        <ele>596.7</ele>
        <time>2024-08-16T10:01:32Z</time>
      </trkpt>
      <trkpt lat="44.76587" lon="2.66888">
        <ele>596.9</ele>
        <time>2024-08-16T10:01:33Z</time>
      </trkpt>
      <trkpt lat="44.76586" lon="2.66889">
        <ele>597</ele>
        <time>2024-08-16T10:01:34Z</time>
      </trkpt>
      <trkpt lat="44.76583" lon="2.66892">
        <ele>597.3</ele>
        <time>2024-08-16T10:01:36Z</time>
      </trkpt>
      <trkpt lat="44.76582" lon="2.66896">
        <ele>597.5</ele>
        <time>2024-08-16T10:01:38Z</time>
      </trkpt>
      <trkpt lat="44.76581" lon="2.669">
        <ele>597.6</ele>
        <time>2024-08-16T10:01:40Z</time>
      </trkpt>
      <trkpt lat="44.76581" lon="2.66904">
        <ele>597.8</ele>
        <time>2024-08-16T10:01:42Z</time>
      </trkpt>
      <trkpt lat="44.76579" lon="2.66908">
        <ele>598</ele>
        <time>2024-08-16T10:01:44Z</time>
      </trkpt>
      <trkpt lat="44.76578" lon="2.66913">
        <ele>598.3</ele>
        <time>2024-08-16T10:01:46Z</time>
      </trkpt>
      <trkpt lat="44.76577" lon="2.66917">
        <ele>598.5</ele>
        <time>2024-08-16T10:01:48Z</time>
      </trkpt>
      <trkpt lat="44.76576" lon="2.66921">
        <ele>598.8</ele>
        <time>2024-08-16T10:01:50Z</time>
      </trkpt>
      <trkpt lat="44.76576" lon="2.66926">
        <ele>599</ele>
        <time>2024-08-16T10:01:52Z</time>
      </trkpt>
      <trkpt lat="44.76576" lon="2.66931">
        <ele>599.3</ele>
        <time>2024-08-16T10:01:54Z</time>
      </trkpt>
      <trkpt lat="44.76576" lon="2.66936">
        <ele>599.6</ele>
        <time>2024-08-16T10:01:56Z</time>
      </trkpt>
      <trkpt lat="44.76574" lon="2.66941">
        <ele>600</ele>
        <time>2024-08-16T10:01:58Z</time>
      </trkpt>
      <trkpt lat="44.76573" lon="2.66946">
        <ele>600.2</ele>
        <time>2024-08-16T10:02:00Z</time>
      </trkpt>
      <trkpt lat="44.76574" lon="2.66948">
        <ele>600.4</ele>
        <time>2024-08-16T10:02:01Z</time>
      </trkpt>
      <trkpt lat="44.76574" lon="2.66951">
        <ele>600.6</ele>
        <time>2024-08-16T10:02:02Z</time>
      </trkpt>
      <trkpt lat="44.76574" lon="2.66956">
        <ele>600.9</ele>
        <time>2024-08-16T10:02:04Z</time>
      </trkpt>
      <trkpt lat="44.76574" lon="2.66962">
        <ele>601.4</ele>
        <time>2024-08-16T10:02:06Z</time>
      </trkpt>
      <trkpt lat="44.76575" lon="2.66967">
        <ele>601.7</ele>
        <time>2024-08-16T10:02:08Z</time>
      </trkpt>
      <trkpt lat="44.76574" lon="2.66971">
        <ele>602.1</ele>
        <time>2024-08-16T10:02:10Z</time>
      </trkpt>
      <trkpt lat="44.76576" lon="2.66976">
        <ele>602.5</ele>
        <time>2024-08-16T10:02:12Z</time>
      </trkpt>
      <trkpt lat="44.76576" lon="2.6698">
        <ele>602.8</ele>
        <time>2024-08-16T10:02:14Z</time>
      </trkpt>
      <trkpt lat="44.76577" lon="2.66983">
        <ele>603.1</ele>
        <time>2024-08-16T10:02:16Z</time>
      </trkpt>
      <trkpt lat="44.76577" lon="2.66986">
        <ele>603.3</ele>
        <time>2024-08-16T10:02:18Z</time>
      </trkpt>
      <trkpt lat="44.7658" lon="2.66989">
        <ele>603.7</ele>
        <time>2024-08-16T10:02:20Z</time>
      </trkpt>
      <trkpt lat="44.76582" lon="2.66993">
        <ele>604.1</ele>
        <time>2024-08-16T10:02:22Z</time>
      </trkpt>
      <trkpt lat="44.76582" lon="2.66995">
        <ele>604.2</ele>
        <time>2024-08-16T10:02:23Z</time>
      </trkpt>
      <trkpt lat="44.76583" lon="2.66997">
        <ele>604.4</ele>
        <time>2024-08-16T10:02:24Z</time>
      </trkpt>
      <trkpt lat="44.76584" lon="2.67001">
        <ele>604.8</ele>
        <time>2024-08-16T10:02:26Z</time>
      </trkpt>
      <trkpt lat="44.76584" lon="2.67006">
        <ele>605.1</ele>
        <time>2024-08-16T10:02:28Z</time>
      </trkpt>
      <trkpt lat="44.76584" lon="2.67008">
        <ele>605.3</ele>
        <time>2024-08-16T10:02:29Z</time>
      </trkpt>
      <trkpt lat="44.76584" lon="2.67009">
        <ele>605.4</ele>
        <time>2024-08-16T10:02:30Z</time>
      </trkpt>
      <trkpt lat="44.76582" lon="2.67011">
        <ele>605.6</ele>
        <time>2024-08-16T10:02:31Z</time>
      </trkpt>
      <trkpt lat="44.76581" lon="2.67012">
        <ele>605.7</ele>
        <time>2024-08-16T10:02:32Z</time>
      </trkpt>
      <trkpt lat="44.76581" lon="2.67014">
        <ele>605.9</ele>
        <time>2024-08-16T10:02:33Z</time>
      </trkpt>
      <trkpt lat="44.76579" lon="2.67016">
        <ele>606</ele>
        <time>2024-08-16T10:02:34Z</time>
      </trkpt>
      <trkpt lat="44.76578" lon="2.67019">
        <ele>606.3</ele>
        <time>2024-08-16T10:02:36Z</time>
      </trkpt>
      <trkpt lat="44.76574" lon="2.67021">
        <ele>606.7</ele>
        <time>2024-08-16T10:02:38Z</time>
      </trkpt>
      <trkpt lat="44.76571" lon="2.67023">
        <ele>607.1</ele>
        <time>2024-08-16T10:02:40Z</time>
      </trkpt>
      <trkpt lat="44.76568" lon="2.67024">
        <ele>607.4</ele>
        <time>2024-08-16T10:02:42Z</time>
      </trkpt>
      <trkpt lat="44.76566" lon="2.67026">
        <ele>607.6</ele>
        <time>2024-08-16T10:02:44Z</time>
      </trkpt>
      <trkpt lat="44.76565" lon="2.67027">
        <ele>607.7</ele>
        <time>2024-08-16T10:02:45Z</time>
      </trkpt>
      <trkpt lat="44.76565" lon="2.67029">
        <ele>607.9</ele>
        <time>2024-08-16T10:02:46Z</time>
      </trkpt>
      <trkpt lat="44.76564" lon="2.67032">
        <ele>608.1</ele>
        <time>2024-08-16T10:02:48Z</time>
      </trkpt>
      <trkpt lat="44.76563" lon="2.67034">
        <ele>608.3</ele>
        <time>2024-08-16T10:02:50Z</time>
      </trkpt>
      <trkpt lat="44.76561" lon="2.67036">
        <ele>608.6</ele>
        <time>2024-08-16T10:02:52Z</time>
      </trkpt>
      <trkpt lat="44.76562" lon="2.6704">
        <ele>608.8</ele>
        <time>2024-08-16T10:02:54Z</time>
      </trkpt>
      <trkpt lat="44.76559" lon="2.67041">
        <ele>609.1</ele>
        <time>2024-08-16T10:02:56Z</time>
      </trkpt>
      <trkpt lat="44.76558" lon="2.67041">
        <ele>609.2</ele>
        <time>2024-08-16T10:02:58Z</time>
      </trkpt>
      <trkpt lat="44.76556" lon="2.67044">
        <ele>609.5</ele>
        <time>2024-08-16T10:03:00Z</time>
      </trkpt>
      <trkpt lat="44.76554" lon="2.67047">
        <ele>609.8</ele>
        <time>2024-08-16T10:03:02Z</time>
      </trkpt>
      <trkpt lat="44.76551" lon="2.6705">
        <ele>610.2</ele>
        <time>2024-08-16T10:03:04Z</time>
      </trkpt>
      <trkpt lat="44.7655" lon="2.67052">
        <ele>610.4</ele>
        <time>2024-08-16T10:03:05Z</time>
      </trkpt>
      <trkpt lat="44.76548" lon="2.67053">
        <ele>610.6</ele>
        <time>2024-08-16T10:03:06Z</time>
      </trkpt>
      <trkpt lat="44.76545" lon="2.67055">
        <ele>610.9</ele>
        <time>2024-08-16T10:03:08Z</time>
      </trkpt>
      <trkpt lat="44.76545" lon="2.67056">
        <ele>611</ele>
        <time>2024-08-16T10:03:09Z</time>
      </trkpt>
      <trkpt lat="44.76544" lon="2.67057">
        <ele>611.2</ele>
        <time>2024-08-16T10:03:10Z</time>
      </trkpt>
      <trkpt lat="44.76542" lon="2.67058">
        <ele>611.3</ele>
        <time>2024-08-16T10:03:11Z</time>
      </trkpt>
      <trkpt lat="44.7653" lon="2.67073">
        <ele>613.3</ele>
        <time>2024-08-16T10:03:23Z</time>
      </trkpt>
      <trkpt lat="44.76528" lon="2.67075">
        <ele>613.5</ele>
        <time>2024-08-16T10:03:24Z</time>
      </trkpt>
      <trkpt lat="44.76526" lon="2.67076">
        <ele>613.8</ele>
        <time>2024-08-16T10:03:25Z</time>
      </trkpt>
      <trkpt lat="44.76526" lon="2.67078">
        <ele>613.9</ele>
        <time>2024-08-16T10:03:26Z</time>
      </trkpt>
      <trkpt lat="44.76523" lon="2.67081">
        <ele>614.4</ele>
        <time>2024-08-16T10:03:28Z</time>
      </trkpt>
      <trkpt lat="44.76521" lon="2.67082">
        <ele>614.6</ele>
        <time>2024-08-16T10:03:29Z</time>
      </trkpt>
      <trkpt lat="44.7652" lon="2.67082">
        <ele>614.8</ele>
        <time>2024-08-16T10:03:30Z</time>
      </trkpt>
      <trkpt lat="44.76517" lon="2.67084">
        <ele>615.2</ele>
        <time>2024-08-16T10:03:32Z</time>
      </trkpt>
      <trkpt lat="44.76515" lon="2.67086">
        <ele>615.5</ele>
        <time>2024-08-16T10:03:34Z</time>
      </trkpt>
      <trkpt lat="44.76513" lon="2.67088">
        <ele>615.9</ele>
        <time>2024-08-16T10:03:36Z</time>
      </trkpt>
      <trkpt lat="44.76511" lon="2.6709">
        <ele>616.3</ele>
        <time>2024-08-16T10:03:38Z</time>
      </trkpt>
      <trkpt lat="44.76509" lon="2.67093">
        <ele>616.6</ele>
        <time>2024-08-16T10:03:40Z</time>
      </trkpt>
      <trkpt lat="44.76508" lon="2.67096">
        <ele>617</ele>
        <time>2024-08-16T10:03:42Z</time>
      </trkpt>
      <trkpt lat="44.76507" lon="2.67096">
        <ele>617.1</ele>
        <time>2024-08-16T10:03:43Z</time>
      </trkpt>
      <trkpt lat="44.76505" lon="2.67097">
        <ele>617.3</ele>
        <time>2024-08-16T10:03:44Z</time>
      </trkpt>
      <trkpt lat="44.76505" lon="2.67098">
        <ele>617.5</ele>
        <time>2024-08-16T10:03:45Z</time>
      </trkpt>
      <trkpt lat="44.76504" lon="2.671">
        <ele>617.6</ele>
        <time>2024-08-16T10:03:46Z</time>
      </trkpt>
      <trkpt lat="44.76501" lon="2.67103">
        <ele>618.2</ele>
        <time>2024-08-16T10:03:48Z</time>
      </trkpt>
      <trkpt lat="44.76499" lon="2.67106">
        <ele>618.5</ele>
        <time>2024-08-16T10:03:50Z</time>
      </trkpt>
      <trkpt lat="44.76497" lon="2.67108">
        <ele>618.8</ele>
        <time>2024-08-16T10:03:52Z</time>
      </trkpt>
      <trkpt lat="44.76498" lon="2.67112">
        <ele>619.1</ele>
        <time>2024-08-16T10:03:54Z</time>
      </trkpt>
      <trkpt lat="44.76498" lon="2.67114">
        <ele>619.3</ele>
        <time>2024-08-16T10:03:55Z</time>
      </trkpt>
      <trkpt lat="44.76495" lon="2.67114">
        <ele>619.7</ele>
        <time>2024-08-16T10:03:56Z</time>
      </trkpt>
      <trkpt lat="44.76492" lon="2.67116">
        <ele>620.1</ele>
        <time>2024-08-16T10:03:58Z</time>
      </trkpt>
      <trkpt lat="44.76491" lon="2.67118">
        <ele>620.3</ele>
        <time>2024-08-16T10:04:00Z</time>
      </trkpt>
      <trkpt lat="44.7649" lon="2.6712">
        <ele>620.4</ele>
        <time>2024-08-16T10:04:01Z</time>
      </trkpt>
      <trkpt lat="44.7649" lon="2.67121">
        <ele>620.6</ele>
        <time>2024-08-16T10:04:02Z</time>
      </trkpt>
      <trkpt lat="44.76489" lon="2.67125">
        <ele>620.9</ele>
        <time>2024-08-16T10:04:04Z</time>
      </trkpt>
      <trkpt lat="44.7649" lon="2.6713">
        <ele>621.3</ele>
        <time>2024-08-16T10:04:06Z</time>
      </trkpt>
      <trkpt lat="44.76491" lon="2.67134">
        <ele>621.7</ele>
        <time>2024-08-16T10:04:08Z</time>
      </trkpt>
      <trkpt lat="44.76491" lon="2.67136">
        <ele>621.9</ele>
        <time>2024-08-16T10:04:10Z</time>
      </trkpt>
      <trkpt lat="44.76493" lon="2.67139">
        <ele>622.3</ele>
        <time>2024-08-16T10:04:12Z</time>
      </trkpt>
      <trkpt lat="44.76493" lon="2.67141">
        <ele>622.4</ele>
        <time>2024-08-16T10:04:13Z</time>
      </trkpt>
      <trkpt lat="44.76494" lon="2.67142">
        <ele>622.5</ele>
        <time>2024-08-16T10:04:14Z</time>
      </trkpt>
      <trkpt lat="44.76496" lon="2.67145">
        <ele>622.9</ele>
        <time>2024-08-16T10:04:16Z</time>
      </trkpt>
      <trkpt lat="44.76497" lon="2.67148">
        <ele>623.2</ele>
        <time>2024-08-16T10:04:18Z</time>
      </trkpt>
      <trkpt lat="44.76498" lon="2.67151">
        <ele>623.5</ele>
        <time>2024-08-16T10:04:20Z</time>
      </trkpt>
      <trkpt lat="44.76499" lon="2.67154">
        <ele>623.8</ele>
        <time>2024-08-16T10:04:22Z</time>
      </trkpt>
      <trkpt lat="44.765" lon="2.67157">
        <ele>624.1</ele>
        <time>2024-08-16T10:04:24Z</time>
      </trkpt>
      <trkpt lat="44.76502" lon="2.67159">
        <ele>624.4</ele>
        <time>2024-08-16T10:04:26Z</time>
      </trkpt>
      <trkpt lat="44.76503" lon="2.6716">
        <ele>624.6</ele>
        <time>2024-08-16T10:04:28Z</time>
      </trkpt>
      <trkpt lat="44.76505" lon="2.67162">
        <ele>624.8</ele>
        <time>2024-08-16T10:04:30Z</time>
      </trkpt>
      <trkpt lat="44.76506" lon="2.67164">
        <ele>625.1</ele>
        <time>2024-08-16T10:04:32Z</time>
      </trkpt>
      <trkpt lat="44.76508" lon="2.67167">
        <ele>625.5</ele>
        <time>2024-08-16T10:04:34Z</time>
      </trkpt>
      <trkpt lat="44.76509" lon="2.67168">
        <ele>625.6</ele>
        <time>2024-08-16T10:04:35Z</time>
      </trkpt>
      <trkpt lat="44.7651" lon="2.67169">
        <ele>625.7</ele>
        <time>2024-08-16T10:04:36Z</time>
      </trkpt>
      <trkpt lat="44.76511" lon="2.67169">
        <ele>625.9</ele>
        <time>2024-08-16T10:04:37Z</time>
      </trkpt>
      <trkpt lat="44.76513" lon="2.6717">
        <ele>626.1</ele>
        <time>2024-08-16T10:04:38Z</time>
      </trkpt>
      <trkpt lat="44.76515" lon="2.67169">
        <ele>626.4</ele>
        <time>2024-08-16T10:04:40Z</time>
      </trkpt>
      <trkpt lat="44.7652" lon="2.67165">
        <ele>627</ele>
        <time>2024-08-16T10:04:45Z</time>
      </trkpt>
      <trkpt lat="44.7652" lon="2.67164">
        <ele>627.2</ele>
        <time>2024-08-16T10:04:46Z</time>
      </trkpt>
      <trkpt lat="44.7652" lon="2.67162">
        <ele>627.3</ele>
        <time>2024-08-16T10:04:47Z</time>
      </trkpt>
      <trkpt lat="44.76521" lon="2.67161">
        <ele>627.5</ele>
        <time>2024-08-16T10:04:48Z</time>
      </trkpt>
      <trkpt lat="44.76522" lon="2.67158">
        <ele>627.8</ele>
        <time>2024-08-16T10:04:50Z</time>
      </trkpt>
      <trkpt lat="44.76522" lon="2.67155">
        <ele>628.1</ele>
        <time>2024-08-16T10:04:52Z</time>
      </trkpt>
      <trkpt lat="44.76522" lon="2.67153">
        <ele>628.3</ele>
        <time>2024-08-16T10:04:53Z</time>
      </trkpt>
      <trkpt lat="44.76521" lon="2.67152">
        <ele>628.4</ele>
        <time>2024-08-16T10:04:54Z</time>
      </trkpt>
      <trkpt lat="44.76521" lon="2.67148">
        <ele>628.8</ele>
        <time>2024-08-16T10:04:56Z</time>
      </trkpt>
      <trkpt lat="44.76521" lon="2.67146">
        <ele>629</ele>
        <time>2024-08-16T10:04:57Z</time>
      </trkpt>
      <trkpt lat="44.76521" lon="2.67145">
        <ele>629.1</ele>
        <time>2024-08-16T10:04:58Z</time>
      </trkpt>
      <trkpt lat="44.76522" lon="2.67141">
        <ele>629.5</ele>
        <time>2024-08-16T10:05:00Z</time>
      </trkpt>
      <trkpt lat="44.76522" lon="2.67138">
        <ele>629.9</ele>
        <time>2024-08-16T10:05:02Z</time>
      </trkpt>
      <trkpt lat="44.76522" lon="2.67137">
        <ele>630</ele>
        <time>2024-08-16T10:05:03Z</time>
      </trkpt>
      <trkpt lat="44.76523" lon="2.67135">
        <ele>630.2</ele>
        <time>2024-08-16T10:05:04Z</time>
      </trkpt>
      <trkpt lat="44.76524" lon="2.67131">
        <ele>630.6</ele>
        <time>2024-08-16T10:05:06Z</time>
      </trkpt>
      <trkpt lat="44.76525" lon="2.67128">
        <ele>631</ele>
        <time>2024-08-16T10:05:08Z</time>
      </trkpt>
      <trkpt lat="44.76526" lon="2.67125">
        <ele>631.4</ele>
        <time>2024-08-16T10:05:10Z</time>
      </trkpt>
      <trkpt lat="44.76528" lon="2.67122">
        <ele>631.7</ele>
        <time>2024-08-16T10:05:12Z</time>
      </trkpt>
      <trkpt lat="44.76529" lon="2.67121">
        <ele>631.9</ele>
        <time>2024-08-16T10:05:13Z</time>
      </trkpt>
      <trkpt lat="44.76531" lon="2.67121">
        <ele>632.1</ele>
        <time>2024-08-16T10:05:14Z</time>
      </trkpt>
      <trkpt lat="44.76532" lon="2.6712">
        <ele>632.3</ele>
        <time>2024-08-16T10:05:15Z</time>
      </trkpt>
      <trkpt lat="44.76533" lon="2.67119">
        <ele>632.5</ele>
        <time>2024-08-16T10:05:16Z</time>
      </trkpt>
      <trkpt lat="44.76535" lon="2.67117">
        <ele>632.7</ele>
        <time>2024-08-16T10:05:18Z</time>
      </trkpt>
      <trkpt lat="44.76538" lon="2.67115">
        <ele>632.9</ele>
        <time>2024-08-16T10:05:20Z</time>
      </trkpt>
      <trkpt lat="44.7654" lon="2.67113">
        <ele>633.1</ele>
        <time>2024-08-16T10:05:22Z</time>
      </trkpt>
      <trkpt lat="44.76542" lon="2.67113">
        <ele>633.2</ele>
        <time>2024-08-16T10:05:23Z</time>
      </trkpt>
      <trkpt lat="44.76543" lon="2.67112">
        <ele>633.3</ele>
        <time>2024-08-16T10:05:24Z</time>
      </trkpt>
      <trkpt lat="44.76545" lon="2.67111">
        <ele>633.5</ele>
        <time>2024-08-16T10:05:26Z</time>
      </trkpt>
      <trkpt lat="44.76548" lon="2.67111">
        <ele>633.8</ele>
        <time>2024-08-16T10:05:28Z</time>
      </trkpt>
      <trkpt lat="44.76549" lon="2.67111">
        <ele>633.9</ele>
        <time>2024-08-16T10:05:29Z</time>
      </trkpt>
      <trkpt lat="44.7655" lon="2.6711">
        <ele>634</ele>
        <time>2024-08-16T10:05:30Z</time>
      </trkpt>
      <trkpt lat="44.76552" lon="2.67109">
        <ele>634.2</ele>
        <time>2024-08-16T10:05:31Z</time>
      </trkpt>
      <trkpt lat="44.76553" lon="2.67108">
        <ele>634.3</ele>
        <time>2024-08-16T10:05:32Z</time>
      </trkpt>
      <trkpt lat="44.76554" lon="2.67107">
        <ele>634.4</ele>
        <time>2024-08-16T10:05:33Z</time>
      </trkpt>
      <trkpt lat="44.76555" lon="2.67107">
        <ele>634.6</ele>
        <time>2024-08-16T10:05:34Z</time>
      </trkpt>
      <trkpt lat="44.76558" lon="2.67105">
        <ele>634.8</ele>
        <time>2024-08-16T10:05:36Z</time>
      </trkpt>
      <trkpt lat="44.76561" lon="2.67104">
        <ele>635.2</ele>
        <time>2024-08-16T10:05:38Z</time>
      </trkpt>
      <trkpt lat="44.76563" lon="2.67102">
        <ele>635.5</ele>
        <time>2024-08-16T10:05:40Z</time>
      </trkpt>
      <trkpt lat="44.76565" lon="2.67101">
        <ele>635.6</ele>
        <time>2024-08-16T10:05:41Z</time>
      </trkpt>
      <trkpt lat="44.76566" lon="2.671">
        <ele>635.8</ele>
        <time>2024-08-16T10:05:42Z</time>
      </trkpt>
      <trkpt lat="44.76569" lon="2.67097">
        <ele>636.1</ele>
        <time>2024-08-16T10:05:44Z</time>
      </trkpt>
      <trkpt lat="44.7657" lon="2.67096">
        <ele>636.3</ele>
        <time>2024-08-16T10:05:45Z</time>
      </trkpt>
      <trkpt lat="44.76571" lon="2.67095">
        <ele>636.4</ele>
        <time>2024-08-16T10:05:46Z</time>
      </trkpt>
      <trkpt lat="44.76573" lon="2.67093">
        <ele>636.7</ele>
        <time>2024-08-16T10:05:48Z</time>
      </trkpt>
      <trkpt lat="44.76575" lon="2.67091">
        <ele>636.9</ele>
        <time>2024-08-16T10:05:50Z</time>
      </trkpt>
      <trkpt lat="44.76576" lon="2.67089">
        <ele>637.2</ele>
        <time>2024-08-16T10:05:52Z</time>
      </trkpt>
      <trkpt lat="44.76578" lon="2.67089">
        <ele>637.4</ele>
        <time>2024-08-16T10:05:53Z</time>
      </trkpt>
      <trkpt lat="44.7658" lon="2.67088">
        <ele>637.6</ele>
        <time>2024-08-16T10:05:54Z</time>
      </trkpt>
      <trkpt lat="44.76582" lon="2.67088">
        <ele>637.8</ele>
        <time>2024-08-16T10:05:56Z</time>
      </trkpt>
      <trkpt lat="44.76585" lon="2.67087">
        <ele>638.1</ele>
        <time>2024-08-16T10:05:58Z</time>
      </trkpt>
      <trkpt lat="44.76587" lon="2.67085">
        <ele>638.3</ele>
        <time>2024-08-16T10:06:00Z</time>
      </trkpt>
      <trkpt lat="44.76589" lon="2.67083">
        <ele>638.6</ele>
        <time>2024-08-16T10:06:02Z</time>
      </trkpt>
      <trkpt lat="44.76592" lon="2.67082">
        <ele>638.9</ele>
        <time>2024-08-16T10:06:04Z</time>
      </trkpt>
      <trkpt lat="44.76594" lon="2.67081">
        <ele>639.2</ele>
        <time>2024-08-16T10:06:06Z</time>
      </trkpt>
      <trkpt lat="44.76598" lon="2.6708">
        <ele>639.6</ele>
        <time>2024-08-16T10:06:08Z</time>
      </trkpt>
      <trkpt lat="44.76602" lon="2.67079">
        <ele>639.9</ele>
        <time>2024-08-16T10:06:10Z</time>
      </trkpt>
      <trkpt lat="44.76604" lon="2.67077">
        <ele>640.1</ele>
        <time>2024-08-16T10:06:12Z</time>
      </trkpt>
      <trkpt lat="44.76607" lon="2.67076">
        <ele>640.4</ele>
        <time>2024-08-16T10:06:14Z</time>
      </trkpt>
      <trkpt lat="44.76609" lon="2.67076">
        <ele>640.6</ele>
        <time>2024-08-16T10:06:16Z</time>
      </trkpt>
      <trkpt lat="44.76612" lon="2.67075">
        <ele>640.9</ele>
        <time>2024-08-16T10:06:18Z</time>
      </trkpt>
      <trkpt lat="44.76613" lon="2.67075">
        <ele>641</ele>
        <time>2024-08-16T10:06:19Z</time>
      </trkpt>
      <trkpt lat="44.76614" lon="2.67074">
        <ele>641.1</ele>
        <time>2024-08-16T10:06:20Z</time>
      </trkpt>
      <trkpt lat="44.76617" lon="2.67075">
        <ele>641.4</ele>
        <time>2024-08-16T10:06:22Z</time>
      </trkpt>
      <trkpt lat="44.7662" lon="2.67074">
        <ele>641.6</ele>
        <time>2024-08-16T10:06:24Z</time>
      </trkpt>
      <trkpt lat="44.76621" lon="2.67073">
        <ele>641.7</ele>
        <time>2024-08-16T10:06:25Z</time>
      </trkpt>
      <trkpt lat="44.76647" lon="2.67067">
        <ele>645</ele>
        <time>2024-08-16T10:06:43Z</time>
      </trkpt>
      <trkpt lat="44.76649" lon="2.67067">
        <ele>645.2</ele>
        <time>2024-08-16T10:06:44Z</time>
      </trkpt>
      <trkpt lat="44.7665" lon="2.67066">
        <ele>645.4</ele>
        <time>2024-08-16T10:06:45Z</time>
      </trkpt>
      <trkpt lat="44.76652" lon="2.67066">
        <ele>645.6</ele>
        <time>2024-08-16T10:06:46Z</time>
      </trkpt>
      <trkpt lat="44.76653" lon="2.67067">
        <ele>645.9</ele>
        <time>2024-08-16T10:06:47Z</time>
      </trkpt>
      <trkpt lat="44.76654" lon="2.67068">
        <ele>646.1</ele>
        <time>2024-08-16T10:06:48Z</time>
      </trkpt>
      <trkpt lat="44.76657" lon="2.67071">
        <ele>646.6</ele>
        <time>2024-08-16T10:06:50Z</time>
      </trkpt>
      <trkpt lat="44.7666" lon="2.67076">
        <ele>647.2</ele>
        <time>2024-08-16T10:06:52Z</time>
      </trkpt>
      <trkpt lat="44.76664" lon="2.67083">
        <ele>647.9</ele>
        <time>2024-08-16T10:06:54Z</time>
      </trkpt>
      <trkpt lat="44.76663" lon="2.67085">
        <ele>648</ele>
        <time>2024-08-16T10:06:55Z</time>
      </trkpt>
      <trkpt lat="44.76662" lon="2.67086">
        <ele>648.2</ele>
        <time>2024-08-16T10:06:56Z</time>
      </trkpt>
      <trkpt lat="44.76659" lon="2.67087">
        <ele>648.5</ele>
        <time>2024-08-16T10:06:58Z</time>
      </trkpt>
      <trkpt lat="44.76657" lon="2.67089">
        <ele>648.7</ele>
        <time>2024-08-16T10:07:00Z</time>
      </trkpt>
      <trkpt lat="44.76654" lon="2.6709">
        <ele>648.9</ele>
        <time>2024-08-16T10:07:02Z</time>
      </trkpt>
      <trkpt lat="44.7665" lon="2.6709">
        <ele>649.2</ele>
        <time>2024-08-16T10:07:04Z</time>
      </trkpt>
      <trkpt lat="44.76648" lon="2.67092">
        <ele>649.4</ele>
        <time>2024-08-16T10:07:06Z</time>
      </trkpt>
      <trkpt lat="44.76647" lon="2.67093">
        <ele>649.5</ele>
        <time>2024-08-16T10:07:07Z</time>
      </trkpt>
      <trkpt lat="44.76647" lon="2.67094">
        <ele>649.6</ele>
        <time>2024-08-16T10:07:08Z</time>
      </trkpt>
      <trkpt lat="44.76645" lon="2.67097">
        <ele>649.8</ele>
        <time>2024-08-16T10:07:10Z</time>
      </trkpt>
      <trkpt lat="44.76624" lon="2.67126">
        <ele>653.1</ele>
        <time>2024-08-16T10:07:37Z</time>
      </trkpt>
      <trkpt lat="44.76624" lon="2.67128">
        <ele>653.2</ele>
        <time>2024-08-16T10:07:38Z</time>
      </trkpt>
      <trkpt lat="44.76622" lon="2.67132">
        <ele>653.6</ele>
        <time>2024-08-16T10:07:40Z</time>
      </trkpt>
      <trkpt lat="44.76621" lon="2.67136">
        <ele>653.9</ele>
        <time>2024-08-16T10:07:42Z</time>
      </trkpt>
      <trkpt lat="44.7662" lon="2.67139">
        <ele>654.2</ele>
        <time>2024-08-16T10:07:44Z</time>
      </trkpt>
      <trkpt lat="44.76619" lon="2.6714">
        <ele>654.3</ele>
        <time>2024-08-16T10:07:45Z</time>
      </trkpt>
      <trkpt lat="44.76618" lon="2.67141">
        <ele>654.4</ele>
        <time>2024-08-16T10:07:46Z</time>
      </trkpt>
      <trkpt lat="44.76618" lon="2.67143">
        <ele>654.6</ele>
        <time>2024-08-16T10:07:48Z</time>
      </trkpt>
      <trkpt lat="44.76617" lon="2.67146">
        <ele>654.8</ele>
        <time>2024-08-16T10:07:50Z</time>
      </trkpt>
      <trkpt lat="44.76616" lon="2.67149">
        <ele>655.1</ele>
        <time>2024-08-16T10:07:52Z</time>
      </trkpt>
      <trkpt lat="44.76615" lon="2.67152">
        <ele>655.3</ele>
        <time>2024-08-16T10:07:54Z</time>
      </trkpt>
      <trkpt lat="44.76616" lon="2.67156">
        <ele>655.5</ele>
        <time>2024-08-16T10:07:56Z</time>
      </trkpt>
      <trkpt lat="44.76617" lon="2.67157">
        <ele>655.6</ele>
        <time>2024-08-16T10:07:57Z</time>
      </trkpt>
      <trkpt lat="44.76617" lon="2.67159">
        <ele>655.8</ele>
        <time>2024-08-16T10:07:58Z</time>
      </trkpt>
      <trkpt lat="44.76619" lon="2.67162">
        <ele>656</ele>
        <time>2024-08-16T10:08:00Z</time>
      </trkpt>
      <trkpt lat="44.7662" lon="2.67165">
        <ele>656.2</ele>
        <time>2024-08-16T10:08:02Z</time>
      </trkpt>
      <trkpt lat="44.76621" lon="2.67166">
        <ele>656.3</ele>
        <time>2024-08-16T10:08:03Z</time>
      </trkpt>
      <trkpt lat="44.76622" lon="2.67167">
        <ele>656.4</ele>
        <time>2024-08-16T10:08:04Z</time>
      </trkpt>
      <trkpt lat="44.76643" lon="2.67185">
        <ele>658.5</ele>
        <time>2024-08-16T10:08:25Z</time>
      </trkpt>
      <trkpt lat="44.76644" lon="2.67185">
        <ele>658.6</ele>
        <time>2024-08-16T10:08:26Z</time>
      </trkpt>
      <trkpt lat="44.76644" lon="2.67185">
        <ele>658.6</ele>
        <time>2024-08-16T10:08:27Z</time>
      </trkpt>
      <trkpt lat="44.76655" lon="2.67189">
        <ele>659.8</ele>
        <time>2024-08-16T10:08:32Z</time>
      </trkpt>
      <trkpt lat="44.7666" lon="2.67191">
        <ele>660.5</ele>
        <time>2024-08-16T10:08:34Z</time>
      </trkpt>
      <trkpt lat="44.76664" lon="2.67192">
        <ele>661.1</ele>
        <time>2024-08-16T10:08:36Z</time>
      </trkpt>
      <trkpt lat="44.76668" lon="2.67192">
        <ele>661.5</ele>
        <time>2024-08-16T10:08:38Z</time>
      </trkpt>
      <trkpt lat="44.7667" lon="2.6719">
        <ele>661.8</ele>
        <time>2024-08-16T10:08:40Z</time>
      </trkpt>
      <trkpt lat="44.76671" lon="2.67191">
        <ele>662</ele>
        <time>2024-08-16T10:08:41Z</time>
      </trkpt>
      <trkpt lat="44.76672" lon="2.67191">
        <ele>662.3</ele>
        <time>2024-08-16T10:08:42Z</time>
      </trkpt>
      <trkpt lat="44.76675" lon="2.6719">
        <ele>662.6</ele>
        <time>2024-08-16T10:08:44Z</time>
      </trkpt>
      <trkpt lat="44.76678" lon="2.67189">
        <ele>663.1</ele>
        <time>2024-08-16T10:08:46Z</time>
      </trkpt>
      <trkpt lat="44.76681" lon="2.6719">
        <ele>663.6</ele>
        <time>2024-08-16T10:08:48Z</time>
      </trkpt>
      <trkpt lat="44.76684" lon="2.6719">
        <ele>664.1</ele>
        <time>2024-08-16T10:08:50Z</time>
      </trkpt>
      <trkpt lat="44.76685" lon="2.6719">
        <ele>664.3</ele>
        <time>2024-08-16T10:08:51Z</time>
      </trkpt>
      <trkpt lat="44.76687" lon="2.6719">
        <ele>664.6</ele>
        <time>2024-08-16T10:08:52Z</time>
      </trkpt>
      <trkpt lat="44.7669" lon="2.6719">
        <ele>665.1</ele>
        <time>2024-08-16T10:08:54Z</time>
      </trkpt>
      <trkpt lat="44.76693" lon="2.6719">
        <ele>665.5</ele>
        <time>2024-08-16T10:08:56Z</time>
      </trkpt>
      <trkpt lat="44.76694" lon="2.67191">
        <ele>665.7</ele>
        <time>2024-08-16T10:08:57Z</time>
      </trkpt>
      <trkpt lat="44.76696" lon="2.67191">
        <ele>665.9</ele>
        <time>2024-08-16T10:08:58Z</time>
      </trkpt>
      <trkpt lat="44.76699" lon="2.67192">
        <ele>666.3</ele>
        <time>2024-08-16T10:09:00Z</time>
      </trkpt>
      <trkpt lat="44.76701" lon="2.67193">
        <ele>666.6</ele>
        <time>2024-08-16T10:09:02Z</time>
      </trkpt>
      <trkpt lat="44.76703" lon="2.67194">
        <ele>666.7</ele>
        <time>2024-08-16T10:09:03Z</time>
      </trkpt>
      <trkpt lat="44.76704" lon="2.67194">
        <ele>666.8</ele>
        <time>2024-08-16T10:09:04Z</time>
      </trkpt>
      <trkpt lat="44.76705" lon="2.67196">
        <ele>667</ele>
        <time>2024-08-16T10:09:06Z</time>
      </trkpt>
      <trkpt lat="44.76706" lon="2.67198">
        <ele>667.1</ele>
        <time>2024-08-16T10:09:07Z</time>
      </trkpt>
      <trkpt lat="44.76707" lon="2.67199">
        <ele>667.2</ele>
        <time>2024-08-16T10:09:08Z</time>
      </trkpt>
      <trkpt lat="44.76709" lon="2.67201">
        <ele>667.4</ele>
        <time>2024-08-16T10:09:10Z</time>
      </trkpt>
      <trkpt lat="44.76711" lon="2.67204">
        <ele>667.6</ele>
        <time>2024-08-16T10:09:12Z</time>
      </trkpt>
      <trkpt lat="44.76713" lon="2.67207">
        <ele>667.9</ele>
        <time>2024-08-16T10:09:14Z</time>
      </trkpt>
      <trkpt lat="44.76715" lon="2.67209">
        <ele>668.1</ele>
        <time>2024-08-16T10:09:16Z</time>
      </trkpt>
      <trkpt lat="44.76716" lon="2.67211">
        <ele>668.3</ele>
        <time>2024-08-16T10:09:17Z</time>
      </trkpt>
      <trkpt lat="44.76717" lon="2.67213">
        <ele>668.5</ele>
        <time>2024-08-16T10:09:18Z</time>
      </trkpt>
      <trkpt lat="44.76719" lon="2.67216">
        <ele>668.7</ele>
        <time>2024-08-16T10:09:20Z</time>
      </trkpt>
      <trkpt lat="44.7672" lon="2.67218">
        <ele>668.9</ele>
        <time>2024-08-16T10:09:22Z</time>
      </trkpt>
      <trkpt lat="44.76723" lon="2.67221">
        <ele>669.2</ele>
        <time>2024-08-16T10:09:24Z</time>
      </trkpt>
      <trkpt lat="44.76725" lon="2.67223">
        <ele>669.5</ele>
        <time>2024-08-16T10:09:26Z</time>
      </trkpt>
      <trkpt lat="44.76726" lon="2.67224">
        <ele>669.6</ele>
        <time>2024-08-16T10:09:27Z</time>
      </trkpt>
      <trkpt lat="44.76727" lon="2.67225">
        <ele>669.7</ele>
        <time>2024-08-16T10:09:28Z</time>
      </trkpt>
      <trkpt lat="44.76729" lon="2.67227">
        <ele>669.9</ele>
        <time>2024-08-16T10:09:30Z</time>
      </trkpt>
      <trkpt lat="44.7673" lon="2.6723">
        <ele>670.1</ele>
        <time>2024-08-16T10:09:32Z</time>
      </trkpt>
      <trkpt lat="44.76731" lon="2.67231">
        <ele>670.3</ele>
        <time>2024-08-16T10:09:33Z</time>
      </trkpt>
      <trkpt lat="44.76731" lon="2.67232">
        <ele>670.4</ele>
        <time>2024-08-16T10:09:34Z</time>
      </trkpt>
      <trkpt lat="44.76732" lon="2.67233">
        <ele>670.5</ele>
        <time>2024-08-16T10:09:35Z</time>
      </trkpt>
      <trkpt lat="44.76744" lon="2.67256">
        <ele>672.7</ele>
        <time>2024-08-16T10:09:54Z</time>
      </trkpt>
      <trkpt lat="44.76746" lon="2.67258">
        <ele>673</ele>
        <time>2024-08-16T10:09:56Z</time>
      </trkpt>
      <trkpt lat="44.76748" lon="2.6726">
        <ele>673.2</ele>
        <time>2024-08-16T10:09:57Z</time>
      </trkpt>
      <trkpt lat="44.76749" lon="2.67262">
        <ele>673.4</ele>
        <time>2024-08-16T10:09:58Z</time>
      </trkpt>
      <trkpt lat="44.76751" lon="2.67266">
        <ele>673.8</ele>
        <time>2024-08-16T10:10:00Z</time>
      </trkpt>
      <trkpt lat="44.76752" lon="2.67267">
        <ele>673.9</ele>
        <time>2024-08-16T10:10:01Z</time>
      </trkpt>
      <trkpt lat="44.76753" lon="2.67268">
        <ele>674.1</ele>
        <time>2024-08-16T10:10:02Z</time>
      </trkpt>
      <trkpt lat="44.76755" lon="2.67271">
        <ele>674.4</ele>
        <time>2024-08-16T10:10:04Z</time>
      </trkpt>
      <trkpt lat="44.76758" lon="2.67273">
        <ele>674.6</ele>
        <time>2024-08-16T10:10:06Z</time>
      </trkpt>
      <trkpt lat="44.7676" lon="2.67274">
        <ele>675</ele>
        <time>2024-08-16T10:10:08Z</time>
      </trkpt>
      <trkpt lat="44.76762" lon="2.67276">
        <ele>675.1</ele>
        <time>2024-08-16T10:10:10Z</time>
      </trkpt>
      <trkpt lat="44.76809" lon="2.6729">
        <ele>679.5</ele>
        <time>2024-08-16T10:10:49Z</time>
      </trkpt>
      <trkpt lat="44.7681" lon="2.67289">
        <ele>679.6</ele>
        <time>2024-08-16T10:10:50Z</time>
      </trkpt>
      <trkpt lat="44.76811" lon="2.67288">
        <ele>679.7</ele>
        <time>2024-08-16T10:10:51Z</time>
      </trkpt>
      <trkpt lat="44.76812" lon="2.67288">
        <ele>679.8</ele>
        <time>2024-08-16T10:10:52Z</time>
      </trkpt>
      <trkpt lat="44.76815" lon="2.67287">
        <ele>680</ele>
        <time>2024-08-16T10:10:54Z</time>
      </trkpt>
      <trkpt lat="44.76816" lon="2.67287">
        <ele>680.1</ele>
        <time>2024-08-16T10:10:55Z</time>
      </trkpt>
      <trkpt lat="44.76817" lon="2.67287">
        <ele>680.2</ele>
        <time>2024-08-16T10:10:56Z</time>
      </trkpt>
      <trkpt lat="44.76819" lon="2.67285">
        <ele>680.4</ele>
        <time>2024-08-16T10:10:58Z</time>
      </trkpt>
      <trkpt lat="44.76821" lon="2.67284">
        <ele>680.6</ele>
        <time>2024-08-16T10:11:00Z</time>
      </trkpt>
      <trkpt lat="44.76825" lon="2.67284">
        <ele>680.8</ele>
        <time>2024-08-16T10:11:02Z</time>
      </trkpt>
      <trkpt lat="44.7693" lon="2.67316">
        <ele>692.6</ele>
        <time>2024-08-16T10:12:42Z</time>
      </trkpt>
      <trkpt lat="44.76934" lon="2.67316">
        <ele>693.1</ele>
        <time>2024-08-16T10:12:44Z</time>
      </trkpt>
      <trkpt lat="44.76938" lon="2.67317">
        <ele>693.8</ele>
        <time>2024-08-16T10:12:46Z</time>
      </trkpt>
      <trkpt lat="44.76961" lon="2.67331">
        <ele>697.6</ele>
        <time>2024-08-16T10:12:53Z</time>
      </trkpt>
      <trkpt lat="44.76962" lon="2.67332">
        <ele>697.8</ele>
        <time>2024-08-16T10:12:54Z</time>
      </trkpt>
      <trkpt lat="44.76963" lon="2.67333">
        <ele>698.1</ele>
        <time>2024-08-16T10:12:55Z</time>
      </trkpt>
      <trkpt lat="44.76965" lon="2.67334">
        <ele>698.3</ele>
        <time>2024-08-16T10:12:56Z</time>
      </trkpt>
      <trkpt lat="44.77026" lon="2.67335">
        <ele>707.2</ele>
        <time>2024-08-16T10:13:47Z</time>
      </trkpt>
      <trkpt lat="44.77027" lon="2.67335">
        <ele>707.4</ele>
        <time>2024-08-16T10:13:48Z</time>
      </trkpt>
      <trkpt lat="44.7703" lon="2.67334">
        <ele>707.8</ele>
        <time>2024-08-16T10:13:50Z</time>
      </trkpt>
      <trkpt lat="44.77033" lon="2.67335">
        <ele>708.1</ele>
        <time>2024-08-16T10:13:52Z</time>
      </trkpt>
      <trkpt lat="44.77035" lon="2.67336">
        <ele>708.5</ele>
        <time>2024-08-16T10:13:54Z</time>
      </trkpt>
      <trkpt lat="44.77037" lon="2.67336">
        <ele>708.7</ele>
        <time>2024-08-16T10:13:56Z</time>
      </trkpt>
      <trkpt lat="44.77039" lon="2.67336">
        <ele>708.9</ele>
        <time>2024-08-16T10:13:57Z</time>
      </trkpt>
      <trkpt lat="44.7704" lon="2.67336">
        <ele>709.1</ele>
        <time>2024-08-16T10:13:58Z</time>
      </trkpt>
      <trkpt lat="44.77042" lon="2.67335">
        <ele>709.3</ele>
        <time>2024-08-16T10:14:00Z</time>
      </trkpt>
      <trkpt lat="44.77044" lon="2.67335">
        <ele>709.6</ele>
        <time>2024-08-16T10:14:02Z</time>
      </trkpt>
      <trkpt lat="44.77046" lon="2.67335">
        <ele>709.9</ele>
        <time>2024-08-16T10:14:04Z</time>
      </trkpt>
      <trkpt lat="44.77048" lon="2.67335">
        <ele>710.1</ele>
        <time>2024-08-16T10:14:06Z</time>
      </trkpt>
      <trkpt lat="44.7705" lon="2.67335">
        <ele>710.2</ele>
        <time>2024-08-16T10:14:07Z</time>
      </trkpt>
      <trkpt lat="44.77051" lon="2.67335">
        <ele>710.4</ele>
        <time>2024-08-16T10:14:08Z</time>
      </trkpt>
      <trkpt lat="44.77053" lon="2.67334">
        <ele>710.6</ele>
        <time>2024-08-16T10:14:10Z</time>
      </trkpt>
      <trkpt lat="44.77055" lon="2.67334">
        <ele>710.8</ele>
        <time>2024-08-16T10:14:12Z</time>
      </trkpt>
      <trkpt lat="44.77058" lon="2.67334">
        <ele>711.1</ele>
        <time>2024-08-16T10:14:14Z</time>
      </trkpt>
      <trkpt lat="44.7706" lon="2.67335">
        <ele>711.4</ele>
        <time>2024-08-16T10:14:16Z</time>
      </trkpt>
      <trkpt lat="44.77063" lon="2.67335">
        <ele>711.7</ele>
        <time>2024-08-16T10:14:18Z</time>
      </trkpt>
      <trkpt lat="44.77065" lon="2.67335">
        <ele>712</ele>
        <time>2024-08-16T10:14:20Z</time>
      </trkpt>
      <trkpt lat="44.77068" lon="2.67335">
        <ele>712.2</ele>
        <time>2024-08-16T10:14:22Z</time>
      </trkpt>
      <trkpt lat="44.7707" lon="2.67334">
        <ele>712.4</ele>
        <time>2024-08-16T10:14:24Z</time>
      </trkpt>
      <trkpt lat="44.77072" lon="2.67334">
        <ele>712.6</ele>
        <time>2024-08-16T10:14:26Z</time>
      </trkpt>
      <trkpt lat="44.77075" lon="2.67334">
        <ele>712.9</ele>
        <time>2024-08-16T10:14:28Z</time>
      </trkpt>
      <trkpt lat="44.77078" lon="2.67334">
        <ele>713.2</ele>
        <time>2024-08-16T10:14:30Z</time>
      </trkpt>
      <trkpt lat="44.77081" lon="2.67334">
        <ele>713.4</ele>
        <time>2024-08-16T10:14:32Z</time>
      </trkpt>
      <trkpt lat="44.77082" lon="2.67333">
        <ele>713.5</ele>
        <time>2024-08-16T10:14:33Z</time>
      </trkpt>
      <trkpt lat="44.77083" lon="2.67333">
        <ele>713.6</ele>
        <time>2024-08-16T10:14:34Z</time>
      </trkpt>
      <trkpt lat="44.77085" lon="2.67333">
        <ele>713.8</ele>
        <time>2024-08-16T10:14:36Z</time>
      </trkpt>
      <trkpt lat="44.77088" lon="2.67333">
        <ele>714</ele>
        <time>2024-08-16T10:14:38Z</time>
      </trkpt>
      <trkpt lat="44.77091" lon="2.67333">
        <ele>714.3</ele>
        <time>2024-08-16T10:14:40Z</time>
      </trkpt>
      <trkpt lat="44.77093" lon="2.67332">
        <ele>714.5</ele>
        <time>2024-08-16T10:14:42Z</time>
      </trkpt>
      <trkpt lat="44.77096" lon="2.67331">
        <ele>714.8</ele>
        <time>2024-08-16T10:14:44Z</time>
      </trkpt>
      <trkpt lat="44.77099" lon="2.6733">
        <ele>715</ele>
        <time>2024-08-16T10:14:46Z</time>
      </trkpt>
      <trkpt lat="44.77102" lon="2.67329">
        <ele>715.2</ele>
        <time>2024-08-16T10:14:48Z</time>
      </trkpt>
      <trkpt lat="44.77104" lon="2.67328">
        <ele>715.5</ele>
        <time>2024-08-16T10:14:50Z</time>
      </trkpt>
      <trkpt lat="44.77107" lon="2.67328">
        <ele>715.7</ele>
        <time>2024-08-16T10:14:52Z</time>
      </trkpt>
      <trkpt lat="44.7711" lon="2.67327">
        <ele>715.9</ele>
        <time>2024-08-16T10:14:54Z</time>
      </trkpt>
      <trkpt lat="44.77113" lon="2.67326">
        <ele>716.1</ele>
        <time>2024-08-16T10:14:56Z</time>
      </trkpt>
      <trkpt lat="44.77115" lon="2.67325">
        <ele>716.3</ele>
        <time>2024-08-16T10:14:58Z</time>
      </trkpt>
      <trkpt lat="44.77116" lon="2.67324">
        <ele>716.4</ele>
        <time>2024-08-16T10:14:59Z</time>
      </trkpt>
      <trkpt lat="44.77117" lon="2.67323">
        <ele>716.5</ele>
        <time>2024-08-16T10:15:00Z</time>
      </trkpt>
      <trkpt lat="44.7712" lon="2.67323">
        <ele>716.7</ele>
        <time>2024-08-16T10:15:02Z</time>
      </trkpt>
      <trkpt lat="44.77123" lon="2.67323">
        <ele>716.9</ele>
        <time>2024-08-16T10:15:04Z</time>
      </trkpt>
      <trkpt lat="44.77125" lon="2.67323">
        <ele>717</ele>
        <time>2024-08-16T10:15:05Z</time>
      </trkpt>
      <trkpt lat="44.77126" lon="2.67322">
        <ele>717.2</ele>
        <time>2024-08-16T10:15:06Z</time>
      </trkpt>
      <trkpt lat="44.77129" lon="2.67323">
        <ele>717.4</ele>
        <time>2024-08-16T10:15:08Z</time>
      </trkpt>
      <trkpt lat="44.77132" lon="2.67323">
        <ele>717.6</ele>
        <time>2024-08-16T10:15:10Z</time>
      </trkpt>
      <trkpt lat="44.77133" lon="2.67323">
        <ele>717.7</ele>
        <time>2024-08-16T10:15:12Z</time>
      </trkpt>
      <trkpt lat="44.77138" lon="2.67322">
        <ele>718</ele>
        <time>2024-08-16T10:19:27Z</time>
      </trkpt>
      <trkpt lat="44.7714" lon="2.67322">
        <ele>718.1</ele>
        <time>2024-08-16T10:19:28Z</time>
      </trkpt>
      <trkpt lat="44.77144" lon="2.67322">
        <ele>718.3</ele>
        <time>2024-08-16T10:19:30Z</time>
      </trkpt>
      <trkpt lat="44.77148" lon="2.67321">
        <ele>718.5</ele>
        <time>2024-08-16T10:19:32Z</time>
      </trkpt>
      <trkpt lat="44.77152" lon="2.67322">
        <ele>718.7</ele>
        <time>2024-08-16T10:19:34Z</time>
      </trkpt>
      <trkpt lat="44.77154" lon="2.67322">
        <ele>718.7</ele>
        <time>2024-08-16T10:19:35Z</time>
      </trkpt>
      <trkpt lat="44.77156" lon="2.67322">
        <ele>718.8</ele>
        <time>2024-08-16T10:19:36Z</time>
      </trkpt>
      <trkpt lat="44.7716" lon="2.67322">
        <ele>718.9</ele>
        <time>2024-08-16T10:19:38Z</time>
      </trkpt>
      <trkpt lat="44.77164" lon="2.67323">
        <ele>718.9</ele>
        <time>2024-08-16T10:19:40Z</time>
      </trkpt>
      <trkpt lat="44.77166" lon="2.67323">
        <ele>719</ele>
        <time>2024-08-16T10:19:41Z</time>
      </trkpt>
      <trkpt lat="44.77167" lon="2.67324">
        <ele>719</ele>
        <time>2024-08-16T10:19:42Z</time>
      </trkpt>
      <trkpt lat="44.77167" lon="2.67326">
        <ele>719</ele>
        <time>2024-08-16T10:19:43Z</time>
      </trkpt>
      <trkpt lat="44.77168" lon="2.67326">
        <ele>719</ele>
        <time>2024-08-16T10:19:44Z</time>
      </trkpt>
      <trkpt lat="44.7717" lon="2.67325">
        <ele>719.1</ele>
        <time>2024-08-16T10:19:46Z</time>
      </trkpt>
      <trkpt lat="44.77173" lon="2.67324">
        <ele>719.1</ele>
        <time>2024-08-16T10:19:48Z</time>
      </trkpt>
      <trkpt lat="44.77175" lon="2.67322">
        <ele>719.2</ele>
        <time>2024-08-16T10:19:50Z</time>
      </trkpt>
      <trkpt lat="44.77178" lon="2.67321">
        <ele>719.3</ele>
        <time>2024-08-16T10:19:52Z</time>
      </trkpt>
      <trkpt lat="44.77181" lon="2.67319">
        <ele>719.3</ele>
        <time>2024-08-16T10:19:54Z</time>
      </trkpt>
      <trkpt lat="44.77182" lon="2.67318">
        <ele>719.4</ele>
        <time>2024-08-16T10:19:55Z</time>
      </trkpt>
      <trkpt lat="44.77184" lon="2.67317">
        <ele>719.4</ele>
        <time>2024-08-16T10:19:56Z</time>
      </trkpt>
      <trkpt lat="44.77187" lon="2.67317">
        <ele>719.6</ele>
        <time>2024-08-16T10:19:58Z</time>
      </trkpt>
      <trkpt lat="44.77189" lon="2.67316">
        <ele>719.6</ele>
        <time>2024-08-16T10:19:59Z</time>
      </trkpt>
      <trkpt lat="44.7719" lon="2.67315">
        <ele>719.7</ele>
        <time>2024-08-16T10:20:00Z</time>
      </trkpt>
      <trkpt lat="44.77194" lon="2.67314">
        <ele>719.9</ele>
        <time>2024-08-16T10:20:02Z</time>
      </trkpt>
      <trkpt lat="44.77196" lon="2.67312">
        <ele>720</ele>
        <time>2024-08-16T10:20:04Z</time>
      </trkpt>
      <trkpt lat="44.77198" lon="2.6731">
        <ele>720.1</ele>
        <time>2024-08-16T10:20:06Z</time>
      </trkpt>
      <trkpt lat="44.772" lon="2.67308">
        <ele>720.3</ele>
        <time>2024-08-16T10:20:08Z</time>
      </trkpt>
      <trkpt lat="44.77204" lon="2.67305">
        <ele>720.5</ele>
        <time>2024-08-16T10:20:10Z</time>
      </trkpt>
      <trkpt lat="44.77209" lon="2.67303">
        <ele>720.8</ele>
        <time>2024-08-16T10:20:12Z</time>
      </trkpt>
      <trkpt lat="44.77214" lon="2.673">
        <ele>721.1</ele>
        <time>2024-08-16T10:20:14Z</time>
      </trkpt>
      <trkpt lat="44.77218" lon="2.67297">
        <ele>721.4</ele>
        <time>2024-08-16T10:20:16Z</time>
      </trkpt>
      <trkpt lat="44.77222" lon="2.67295">
        <ele>721.6</ele>
        <time>2024-08-16T10:20:18Z</time>
      </trkpt>
      <trkpt lat="44.77224" lon="2.67293">
        <ele>721.8</ele>
        <time>2024-08-16T10:20:19Z</time>
      </trkpt>
      <trkpt lat="44.77225" lon="2.67291">
        <ele>721.9</ele>
        <time>2024-08-16T10:20:20Z</time>
      </trkpt>
      <trkpt lat="44.77229" lon="2.67287">
        <ele>722.2</ele>
        <time>2024-08-16T10:20:22Z</time>
      </trkpt>
      <trkpt lat="44.77233" lon="2.67284">
        <ele>722.5</ele>
        <time>2024-08-16T10:20:24Z</time>
      </trkpt>
      <trkpt lat="44.77238" lon="2.67281">
        <ele>722.9</ele>
        <time>2024-08-16T10:20:26Z</time>
      </trkpt>
      <trkpt lat="44.77241" lon="2.67279">
        <ele>723.2</ele>
        <time>2024-08-16T10:20:28Z</time>
      </trkpt>
      <trkpt lat="44.77246" lon="2.67276">
        <ele>723.5</ele>
        <time>2024-08-16T10:20:30Z</time>
      </trkpt>
      <trkpt lat="44.77248" lon="2.67275">
        <ele>723.8</ele>
        <time>2024-08-16T10:20:31Z</time>
      </trkpt>
      <trkpt lat="44.7725" lon="2.67275">
        <ele>724</ele>
        <time>2024-08-16T10:20:32Z</time>
      </trkpt>
      <trkpt lat="44.77252" lon="2.67274">
        <ele>724.1</ele>
        <time>2024-08-16T10:20:33Z</time>
      </trkpt>
      <trkpt lat="44.77253" lon="2.67273">
        <ele>724.3</ele>
        <time>2024-08-16T10:20:34Z</time>
      </trkpt>
      <trkpt lat="44.77257" lon="2.67272">
        <ele>724.6</ele>
        <time>2024-08-16T10:20:36Z</time>
      </trkpt>
      <trkpt lat="44.7726" lon="2.67272">
        <ele>724.9</ele>
        <time>2024-08-16T10:20:38Z</time>
      </trkpt>
      <trkpt lat="44.77263" lon="2.67271">
        <ele>725.2</ele>
        <time>2024-08-16T10:20:40Z</time>
      </trkpt>
      <trkpt lat="44.77264" lon="2.67271">
        <ele>725.3</ele>
        <time>2024-08-16T10:20:41Z</time>
      </trkpt>
      <trkpt lat="44.77267" lon="2.67269">
        <ele>725.6</ele>
        <time>2024-08-16T10:20:43Z</time>
      </trkpt>
      <trkpt lat="44.77269" lon="2.67268">
        <ele>725.7</ele>
        <time>2024-08-16T10:20:44Z</time>
      </trkpt>
      <trkpt lat="44.77272" lon="2.67265">
        <ele>726</ele>
        <time>2024-08-16T10:20:46Z</time>
      </trkpt>
      <trkpt lat="44.77273" lon="2.67264">
        <ele>726.2</ele>
        <time>2024-08-16T10:20:47Z</time>
      </trkpt>
      <trkpt lat="44.77275" lon="2.67262">
        <ele>726.4</ele>
        <time>2024-08-16T10:20:48Z</time>
      </trkpt>
      <trkpt lat="44.77276" lon="2.67261">
        <ele>726.6</ele>
        <time>2024-08-16T10:20:49Z</time>
      </trkpt>
      <trkpt lat="44.77278" lon="2.67259">
        <ele>726.7</ele>
        <time>2024-08-16T10:20:50Z</time>
      </trkpt>
      <trkpt lat="44.77281" lon="2.67257">
        <ele>727.1</ele>
        <time>2024-08-16T10:20:52Z</time>
      </trkpt>
      <trkpt lat="44.77282" lon="2.67255">
        <ele>727.2</ele>
        <time>2024-08-16T10:20:53Z</time>
      </trkpt>
      <trkpt lat="44.77283" lon="2.67253">
        <ele>727.4</ele>
        <time>2024-08-16T10:20:54Z</time>
      </trkpt>
      <trkpt lat="44.77284" lon="2.67252">
        <ele>727.5</ele>
        <time>2024-08-16T10:20:55Z</time>
      </trkpt>
      <trkpt lat="44.77286" lon="2.6725">
        <ele>727.7</ele>
        <time>2024-08-16T10:20:56Z</time>
      </trkpt>
      <trkpt lat="44.77287" lon="2.67249">
        <ele>727.8</ele>
        <time>2024-08-16T10:20:57Z</time>
      </trkpt>
      <trkpt lat="44.77288" lon="2.67247">
        <ele>728</ele>
        <time>2024-08-16T10:20:58Z</time>
      </trkpt>
      <trkpt lat="44.77292" lon="2.67245">
        <ele>728.3</ele>
        <time>2024-08-16T10:21:00Z</time>
      </trkpt>
      <trkpt lat="44.77293" lon="2.67243">
        <ele>728.5</ele>
        <time>2024-08-16T10:21:01Z</time>
      </trkpt>
      <trkpt lat="44.77294" lon="2.67242">
        <ele>728.6</ele>
        <time>2024-08-16T10:21:02Z</time>
      </trkpt>
      <trkpt lat="44.77297" lon="2.67239">
        <ele>729</ele>
        <time>2024-08-16T10:21:04Z</time>
      </trkpt>
      <trkpt lat="44.77299" lon="2.67236">
        <ele>729.3</ele>
        <time>2024-08-16T10:21:06Z</time>
      </trkpt>
      <trkpt lat="44.77301" lon="2.67235">
        <ele>729.5</ele>
        <time>2024-08-16T10:21:07Z</time>
      </trkpt>
      <trkpt lat="44.77303" lon="2.67233">
        <ele>729.6</ele>
        <time>2024-08-16T10:21:08Z</time>
      </trkpt>
      <trkpt lat="44.77306" lon="2.67231">
        <ele>730</ele>
        <time>2024-08-16T10:21:10Z</time>
      </trkpt>
      <trkpt lat="44.77309" lon="2.67228">
        <ele>730.3</ele>
        <time>2024-08-16T10:21:12Z</time>
      </trkpt>
      <trkpt lat="44.77311" lon="2.67225">
        <ele>730.6</ele>
        <time>2024-08-16T10:21:14Z</time>
      </trkpt>
      <trkpt lat="44.77313" lon="2.67224">
        <ele>730.7</ele>
        <time>2024-08-16T10:21:15Z</time>
      </trkpt>
      <trkpt lat="44.77314" lon="2.67223">
        <ele>730.8</ele>
        <time>2024-08-16T10:21:16Z</time>
      </trkpt>
      <trkpt lat="44.77317" lon="2.6722">
        <ele>731.1</ele>
        <time>2024-08-16T10:21:18Z</time>
      </trkpt>
      <trkpt lat="44.7732" lon="2.67217">
        <ele>731.4</ele>
        <time>2024-08-16T10:21:20Z</time>
      </trkpt>
      <trkpt lat="44.77321" lon="2.67215">
        <ele>731.5</ele>
        <time>2024-08-16T10:21:21Z</time>
      </trkpt>
      <trkpt lat="44.77323" lon="2.67214">
        <ele>731.6</ele>
        <time>2024-08-16T10:21:22Z</time>
      </trkpt>
      <trkpt lat="44.77324" lon="2.67212">
        <ele>731.8</ele>
        <time>2024-08-16T10:21:23Z</time>
      </trkpt>
      <trkpt lat="44.77326" lon="2.67211">
        <ele>731.9</ele>
        <time>2024-08-16T10:21:24Z</time>
      </trkpt>
      <trkpt lat="44.7733" lon="2.67209">
        <ele>732.1</ele>
        <time>2024-08-16T10:21:26Z</time>
      </trkpt>
      <trkpt lat="44.77333" lon="2.67207">
        <ele>732.4</ele>
        <time>2024-08-16T10:21:28Z</time>
      </trkpt>
      <trkpt lat="44.77337" lon="2.67205">
        <ele>732.6</ele>
        <time>2024-08-16T10:21:30Z</time>
      </trkpt>
      <trkpt lat="44.77338" lon="2.67204">
        <ele>732.7</ele>
        <time>2024-08-16T10:21:31Z</time>
      </trkpt>
      <trkpt lat="44.7734" lon="2.67202">
        <ele>732.8</ele>
        <time>2024-08-16T10:21:32Z</time>
      </trkpt>
      <trkpt lat="44.77344" lon="2.672">
        <ele>733</ele>
        <time>2024-08-16T10:21:34Z</time>
      </trkpt>
      <trkpt lat="44.77347" lon="2.67198">
        <ele>733.2</ele>
        <time>2024-08-16T10:21:36Z</time>
      </trkpt>
      <trkpt lat="44.7735" lon="2.67196">
        <ele>733.4</ele>
        <time>2024-08-16T10:21:38Z</time>
      </trkpt>
      <trkpt lat="44.77351" lon="2.67195">
        <ele>733.5</ele>
        <time>2024-08-16T10:21:39Z</time>
      </trkpt>
      <trkpt lat="44.77353" lon="2.67194">
        <ele>733.6</ele>
        <time>2024-08-16T10:21:40Z</time>
      </trkpt>
      <trkpt lat="44.77356" lon="2.67191">
        <ele>733.8</ele>
        <time>2024-08-16T10:21:42Z</time>
      </trkpt>
      <trkpt lat="44.77359" lon="2.67189">
        <ele>734</ele>
        <time>2024-08-16T10:21:44Z</time>
      </trkpt>
      <trkpt lat="44.7736" lon="2.67187">
        <ele>734.1</ele>
        <time>2024-08-16T10:21:45Z</time>
      </trkpt>
      <trkpt lat="44.77361" lon="2.67185">
        <ele>734.2</ele>
        <time>2024-08-16T10:21:46Z</time>
      </trkpt>
      <trkpt lat="44.77364" lon="2.67182">
        <ele>734.5</ele>
        <time>2024-08-16T10:21:48Z</time>
      </trkpt>
      <trkpt lat="44.77367" lon="2.6718">
        <ele>734.8</ele>
        <time>2024-08-16T10:21:50Z</time>
      </trkpt>
      <trkpt lat="44.7737" lon="2.67176">
        <ele>735.1</ele>
        <time>2024-08-16T10:21:52Z</time>
      </trkpt>
      <trkpt lat="44.77373" lon="2.67172">
        <ele>735.4</ele>
        <time>2024-08-16T10:21:54Z</time>
      </trkpt>
      <trkpt lat="44.77376" lon="2.67168">
        <ele>735.8</ele>
        <time>2024-08-16T10:21:56Z</time>
      </trkpt>
      <trkpt lat="44.77379" lon="2.67165">
        <ele>736.1</ele>
        <time>2024-08-16T10:21:58Z</time>
      </trkpt>
      <trkpt lat="44.77382" lon="2.67161">
        <ele>736.4</ele>
        <time>2024-08-16T10:22:00Z</time>
      </trkpt>
      <trkpt lat="44.77383" lon="2.67157">
        <ele>736.7</ele>
        <time>2024-08-16T10:22:02Z</time>
      </trkpt>
      <trkpt lat="44.77386" lon="2.67153">
        <ele>737</ele>
        <time>2024-08-16T10:22:04Z</time>
      </trkpt>
      <trkpt lat="44.77387" lon="2.67148">
        <ele>737.2</ele>
        <time>2024-08-16T10:22:06Z</time>
      </trkpt>
      <trkpt lat="44.77388" lon="2.67143">
        <ele>737.4</ele>
        <time>2024-08-16T10:22:08Z</time>
      </trkpt>
      <trkpt lat="44.7739" lon="2.67138">
        <ele>737.6</ele>
        <time>2024-08-16T10:22:10Z</time>
      </trkpt>
      <trkpt lat="44.7739" lon="2.67133">
        <ele>737.8</ele>
        <time>2024-08-16T10:22:12Z</time>
      </trkpt>
      <trkpt lat="44.77391" lon="2.67127">
        <ele>737.9</ele>
        <time>2024-08-16T10:22:14Z</time>
      </trkpt>
      <trkpt lat="44.77392" lon="2.67121">
        <ele>738.1</ele>
        <time>2024-08-16T10:22:16Z</time>
      </trkpt>
      <trkpt lat="44.77393" lon="2.67115">
        <ele>738.3</ele>
        <time>2024-08-16T10:22:18Z</time>
      </trkpt>
      <trkpt lat="44.77395" lon="2.67109">
        <ele>738.6</ele>
        <time>2024-08-16T10:22:20Z</time>
      </trkpt>
      <trkpt lat="44.77397" lon="2.67103">
        <ele>738.8</ele>
        <time>2024-08-16T10:22:22Z</time>
      </trkpt>
      <trkpt lat="44.77399" lon="2.67098">
        <ele>739.1</ele>
        <time>2024-08-16T10:22:24Z</time>
      </trkpt>
      <trkpt lat="44.77401" lon="2.67093">
        <ele>739.4</ele>
        <time>2024-08-16T10:22:26Z</time>
      </trkpt>
      <trkpt lat="44.77403" lon="2.67091">
        <ele>739.5</ele>
        <time>2024-08-16T10:22:27Z</time>
      </trkpt>
      <trkpt lat="44.77405" lon="2.67089">
        <ele>739.5</ele>
        <time>2024-08-16T10:22:28Z</time>
      </trkpt>
      <trkpt lat="44.77409" lon="2.67086">
        <ele>739.6</ele>
        <time>2024-08-16T10:22:30Z</time>
      </trkpt>
      <trkpt lat="44.77412" lon="2.67083">
        <ele>739.6</ele>
        <time>2024-08-16T10:22:32Z</time>
      </trkpt>
      <trkpt lat="44.77415" lon="2.67082">
        <ele>739.6</ele>
        <time>2024-08-16T10:22:33Z</time>
      </trkpt>
      <trkpt lat="44.77417" lon="2.67081">
        <ele>739.6</ele>
        <time>2024-08-16T10:22:34Z</time>
      </trkpt>
      <trkpt lat="44.77423" lon="2.67079">
        <ele>739.5</ele>
        <time>2024-08-16T10:22:36Z</time>
      </trkpt>
      <trkpt lat="44.77429" lon="2.67076">
        <ele>739.5</ele>
        <time>2024-08-16T10:22:38Z</time>
      </trkpt>
      <trkpt lat="44.77432" lon="2.67074">
        <ele>739.5</ele>
        <time>2024-08-16T10:22:39Z</time>
      </trkpt>
      <trkpt lat="44.77436" lon="2.67071">
        <ele>739.4</ele>
        <time>2024-08-16T10:22:40Z</time>
      </trkpt>
      <trkpt lat="44.77442" lon="2.67066">
        <ele>739.4</ele>
        <time>2024-08-16T10:22:42Z</time>
      </trkpt>
      <trkpt lat="44.77448" lon="2.6706">
        <ele>739.3</ele>
        <time>2024-08-16T10:22:44Z</time>
      </trkpt>
      <trkpt lat="44.77451" lon="2.67056">
        <ele>739.3</ele>
        <time>2024-08-16T10:22:45Z</time>
      </trkpt>
      <trkpt lat="44.77454" lon="2.67052">
        <ele>739.3</ele>
        <time>2024-08-16T10:22:46Z</time>
      </trkpt>
      <trkpt lat="44.77457" lon="2.67048">
        <ele>739.3</ele>
        <time>2024-08-16T10:22:47Z</time>
      </trkpt>
      <trkpt lat="44.77459" lon="2.67043">
        <ele>739.2</ele>
        <time>2024-08-16T10:22:48Z</time>
      </trkpt>
      <trkpt lat="44.7746" lon="2.67037">
        <ele>739.2</ele>
        <time>2024-08-16T10:22:49Z</time>
      </trkpt>
      <trkpt lat="44.77462" lon="2.67032">
        <ele>739.1</ele>
        <time>2024-08-16T10:22:50Z</time>
      </trkpt>
      <trkpt lat="44.77465" lon="2.6702">
        <ele>739</ele>
        <time>2024-08-16T10:22:52Z</time>
      </trkpt>
      <trkpt lat="44.77468" lon="2.67008">
        <ele>738.9</ele>
        <time>2024-08-16T10:22:54Z</time>
      </trkpt>
      <trkpt lat="44.77471" lon="2.66996">
        <ele>738.8</ele>
        <time>2024-08-16T10:22:56Z</time>
      </trkpt>
      <trkpt lat="44.77473" lon="2.66984">
        <ele>738.7</ele>
        <time>2024-08-16T10:22:58Z</time>
      </trkpt>
      <trkpt lat="44.77475" lon="2.66979">
        <ele>738.6</ele>
        <time>2024-08-16T10:22:59Z</time>
      </trkpt>
      <trkpt lat="44.77476" lon="2.66974">
        <ele>738.6</ele>
        <time>2024-08-16T10:23:00Z</time>
      </trkpt>
      <trkpt lat="44.77477" lon="2.66969">
        <ele>738.5</ele>
        <time>2024-08-16T10:23:01Z</time>
      </trkpt>
      <trkpt lat="44.77478" lon="2.66963">
        <ele>738.4</ele>
        <time>2024-08-16T10:23:02Z</time>
      </trkpt>
      <trkpt lat="44.7748" lon="2.66958">
        <ele>738.4</ele>
        <time>2024-08-16T10:23:03Z</time>
      </trkpt>
      <trkpt lat="44.77483" lon="2.66953">
        <ele>738.3</ele>
        <time>2024-08-16T10:23:04Z</time>
      </trkpt>
      <trkpt lat="44.77486" lon="2.66948">
        <ele>738.3</ele>
        <time>2024-08-16T10:23:05Z</time>
      </trkpt>
      <trkpt lat="44.77489" lon="2.66944">
        <ele>738.2</ele>
        <time>2024-08-16T10:23:06Z</time>
      </trkpt>
      <trkpt lat="44.77496" lon="2.66938">
        <ele>738.1</ele>
        <time>2024-08-16T10:23:08Z</time>
      </trkpt>
      <trkpt lat="44.775" lon="2.66935">
        <ele>738.1</ele>
        <time>2024-08-16T10:23:09Z</time>
      </trkpt>
      <trkpt lat="44.77503" lon="2.66933">
        <ele>738</ele>
        <time>2024-08-16T10:23:10Z</time>
      </trkpt>
      <trkpt lat="44.77507" lon="2.66931">
        <ele>738</ele>
        <time>2024-08-16T10:23:11Z</time>
      </trkpt>
      <trkpt lat="44.77512" lon="2.66929">
        <ele>737.9</ele>
        <time>2024-08-16T10:23:12Z</time>
      </trkpt>
      <trkpt lat="44.77516" lon="2.66927">
        <ele>737.8</ele>
        <time>2024-08-16T10:23:13Z</time>
      </trkpt>
      <trkpt lat="44.7752" lon="2.66925">
        <ele>737.7</ele>
        <time>2024-08-16T10:23:14Z</time>
      </trkpt>
      <trkpt lat="44.77527" lon="2.66922">
        <ele>737.6</ele>
        <time>2024-08-16T10:23:16Z</time>
      </trkpt>
      <trkpt lat="44.77531" lon="2.66921">
        <ele>737.5</ele>
        <time>2024-08-16T10:23:17Z</time>
      </trkpt>
      <trkpt lat="44.77535" lon="2.66919">
        <ele>737.5</ele>
        <time>2024-08-16T10:23:18Z</time>
      </trkpt>
      <trkpt lat="44.77543" lon="2.66916">
        <ele>737.5</ele>
        <time>2024-08-16T10:23:20Z</time>
      </trkpt>
      <trkpt lat="44.77552" lon="2.66912">
        <ele>737.5</ele>
        <time>2024-08-16T10:23:22Z</time>
      </trkpt>
      <trkpt lat="44.7756" lon="2.66907">
        <ele>737.5</ele>
        <time>2024-08-16T10:23:24Z</time>
      </trkpt>
      <trkpt lat="44.77569" lon="2.66899">
        <ele>737.1</ele>
        <time>2024-08-16T10:23:26Z</time>
      </trkpt>
      <trkpt lat="44.77577" lon="2.66891">
        <ele>736.8</ele>
        <time>2024-08-16T10:23:28Z</time>
      </trkpt>
      <trkpt lat="44.77586" lon="2.66884">
        <ele>736.5</ele>
        <time>2024-08-16T10:23:30Z</time>
      </trkpt>
      <trkpt lat="44.77594" lon="2.66876">
        <ele>736.2</ele>
        <time>2024-08-16T10:23:32Z</time>
      </trkpt>
      <trkpt lat="44.77602" lon="2.66868">
        <ele>735.8</ele>
        <time>2024-08-16T10:23:34Z</time>
      </trkpt>
      <trkpt lat="44.77611" lon="2.66859">
        <ele>735.4</ele>
        <time>2024-08-16T10:23:36Z</time>
      </trkpt>
      <trkpt lat="44.77616" lon="2.66855">
        <ele>735.2</ele>
        <time>2024-08-16T10:23:37Z</time>
      </trkpt>
      <trkpt lat="44.7762" lon="2.6685">
        <ele>735</ele>
        <time>2024-08-16T10:23:38Z</time>
      </trkpt>
      <trkpt lat="44.77629" lon="2.66841">
        <ele>734.7</ele>
        <time>2024-08-16T10:23:40Z</time>
      </trkpt>
      <trkpt lat="44.77637" lon="2.66832">
        <ele>734.4</ele>
        <time>2024-08-16T10:23:42Z</time>
      </trkpt>
      <trkpt lat="44.77645" lon="2.66823">
        <ele>734.3</ele>
        <time>2024-08-16T10:23:44Z</time>
      </trkpt>
      <trkpt lat="44.77653" lon="2.66813">
        <ele>734.2</ele>
        <time>2024-08-16T10:23:46Z</time>
      </trkpt>
      <trkpt lat="44.7766" lon="2.66802">
        <ele>734.2</ele>
        <time>2024-08-16T10:23:48Z</time>
      </trkpt>
      <trkpt lat="44.77663" lon="2.66796">
        <ele>734.2</ele>
        <time>2024-08-16T10:23:49Z</time>
      </trkpt>
      <trkpt lat="44.77666" lon="2.6679">
        <ele>734.2</ele>
        <time>2024-08-16T10:23:50Z</time>
      </trkpt>
      <trkpt lat="44.77672" lon="2.66778">
        <ele>734.3</ele>
        <time>2024-08-16T10:23:52Z</time>
      </trkpt>
      <trkpt lat="44.77678" lon="2.66766">
        <ele>734.5</ele>
        <time>2024-08-16T10:23:54Z</time>
      </trkpt>
      <trkpt lat="44.77684" lon="2.66755">
        <ele>734.8</ele>
        <time>2024-08-16T10:23:56Z</time>
      </trkpt>
      <trkpt lat="44.77689" lon="2.66745">
        <ele>735.1</ele>
        <time>2024-08-16T10:23:58Z</time>
      </trkpt>
      <trkpt lat="44.77692" lon="2.6674">
        <ele>735.2</ele>
        <time>2024-08-16T10:23:59Z</time>
      </trkpt>
      <trkpt lat="44.77695" lon="2.66735">
        <ele>735.4</ele>
        <time>2024-08-16T10:24:00Z</time>
      </trkpt>
      <trkpt lat="44.77698" lon="2.6673">
        <ele>735.5</ele>
        <time>2024-08-16T10:24:01Z</time>
      </trkpt>
      <trkpt lat="44.77701" lon="2.66726">
        <ele>735.6</ele>
        <time>2024-08-16T10:24:02Z</time>
      </trkpt>
      <trkpt lat="44.77703" lon="2.66722">
        <ele>735.8</ele>
        <time>2024-08-16T10:24:03Z</time>
      </trkpt>
      <trkpt lat="44.77706" lon="2.66718">
        <ele>735.9</ele>
        <time>2024-08-16T10:24:04Z</time>
      </trkpt>
      <trkpt lat="44.77708" lon="2.66713">
        <ele>736.1</ele>
        <time>2024-08-16T10:24:05Z</time>
      </trkpt>
      <trkpt lat="44.7771" lon="2.66708">
        <ele>736.3</ele>
        <time>2024-08-16T10:24:06Z</time>
      </trkpt>
      <trkpt lat="44.77711" lon="2.66702">
        <ele>736.5</ele>
        <time>2024-08-16T10:24:07Z</time>
      </trkpt>
      <trkpt lat="44.77712" lon="2.66696">
        <ele>736.6</ele>
        <time>2024-08-16T10:24:08Z</time>
      </trkpt>
      <trkpt lat="44.77712" lon="2.66685">
        <ele>736.5</ele>
        <time>2024-08-16T10:24:10Z</time>
      </trkpt>
      <trkpt lat="44.77712" lon="2.66679">
        <ele>736.5</ele>
        <time>2024-08-16T10:24:11Z</time>
      </trkpt>
      <trkpt lat="44.77712" lon="2.66673">
        <ele>736.4</ele>
        <time>2024-08-16T10:24:12Z</time>
      </trkpt>
      <trkpt lat="44.77712" lon="2.66663">
        <ele>736.4</ele>
        <time>2024-08-16T10:24:14Z</time>
      </trkpt>
      <trkpt lat="44.77712" lon="2.66652">
        <ele>736.3</ele>
        <time>2024-08-16T10:24:16Z</time>
      </trkpt>
      <trkpt lat="44.77714" lon="2.66641">
        <ele>736.8</ele>
        <time>2024-08-16T10:24:18Z</time>
      </trkpt>
      <trkpt lat="44.77716" lon="2.66632">
        <ele>737.4</ele>
        <time>2024-08-16T10:24:20Z</time>
      </trkpt>
      <trkpt lat="44.77719" lon="2.66624">
        <ele>737.8</ele>
        <time>2024-08-16T10:24:22Z</time>
      </trkpt>
      <trkpt lat="44.77722" lon="2.66615">
        <ele>738.3</ele>
        <time>2024-08-16T10:24:24Z</time>
      </trkpt>
      <trkpt lat="44.77724" lon="2.66608">
        <ele>738.8</ele>
        <time>2024-08-16T10:24:26Z</time>
      </trkpt>
      <trkpt lat="44.77728" lon="2.666">
        <ele>739.3</ele>
        <time>2024-08-16T10:24:28Z</time>
      </trkpt>
      <trkpt lat="44.77732" lon="2.66593">
        <ele>739.7</ele>
        <time>2024-08-16T10:24:30Z</time>
      </trkpt>
      <trkpt lat="44.77736" lon="2.66585">
        <ele>740.1</ele>
        <time>2024-08-16T10:24:32Z</time>
      </trkpt>
      <trkpt lat="44.77739" lon="2.66577">
        <ele>740.4</ele>
        <time>2024-08-16T10:24:34Z</time>
      </trkpt>
      <trkpt lat="44.77742" lon="2.66571">
        <ele>740.7</ele>
        <time>2024-08-16T10:24:36Z</time>
      </trkpt>
      <trkpt lat="44.77745" lon="2.66564">
        <ele>741</ele>
        <time>2024-08-16T10:24:38Z</time>
      </trkpt>
      <trkpt lat="44.77748" lon="2.66556">
        <ele>741.2</ele>
        <time>2024-08-16T10:24:40Z</time>
      </trkpt>
      <trkpt lat="44.77751" lon="2.66548">
        <ele>741.4</ele>
        <time>2024-08-16T10:24:42Z</time>
      </trkpt>
      <trkpt lat="44.77753" lon="2.6654">
        <ele>741.6</ele>
        <time>2024-08-16T10:24:44Z</time>
      </trkpt>
      <trkpt lat="44.77754" lon="2.66531">
        <ele>741.8</ele>
        <time>2024-08-16T10:24:46Z</time>
      </trkpt>
      <trkpt lat="44.77755" lon="2.66522">
        <ele>742</ele>
        <time>2024-08-16T10:24:48Z</time>
      </trkpt>
      <trkpt lat="44.77755" lon="2.66514">
        <ele>742.2</ele>
        <time>2024-08-16T10:24:50Z</time>
      </trkpt>
      <trkpt lat="44.77754" lon="2.66505">
        <ele>742.4</ele>
        <time>2024-08-16T10:24:52Z</time>
      </trkpt>
      <trkpt lat="44.77754" lon="2.66497">
        <ele>742.6</ele>
        <time>2024-08-16T10:24:54Z</time>
      </trkpt>
      <trkpt lat="44.77754" lon="2.66489">
        <ele>742.9</ele>
        <time>2024-08-16T10:24:56Z</time>
      </trkpt>
      <trkpt lat="44.77754" lon="2.66481">
        <ele>743.2</ele>
        <time>2024-08-16T10:24:58Z</time>
      </trkpt>
      <trkpt lat="44.77754" lon="2.66473">
        <ele>743.5</ele>
        <time>2024-08-16T10:25:00Z</time>
      </trkpt>
      <trkpt lat="44.77754" lon="2.66467">
        <ele>743.8</ele>
        <time>2024-08-16T10:25:02Z</time>
      </trkpt>
      <trkpt lat="44.77754" lon="2.6646">
        <ele>744.1</ele>
        <time>2024-08-16T10:25:04Z</time>
      </trkpt>
      <trkpt lat="44.77753" lon="2.66454">
        <ele>744.4</ele>
        <time>2024-08-16T10:25:06Z</time>
      </trkpt>
      <trkpt lat="44.77753" lon="2.66448">
        <ele>744.7</ele>
        <time>2024-08-16T10:25:08Z</time>
      </trkpt>
      <trkpt lat="44.77753" lon="2.66445">
        <ele>744.8</ele>
        <time>2024-08-16T10:25:09Z</time>
      </trkpt>
      <trkpt lat="44.77753" lon="2.66442">
        <ele>745</ele>
        <time>2024-08-16T10:25:10Z</time>
      </trkpt>
      <trkpt lat="44.77753" lon="2.66437">
        <ele>745.3</ele>
        <time>2024-08-16T10:25:12Z</time>
      </trkpt>
      <trkpt lat="44.77753" lon="2.66431">
        <ele>745.5</ele>
        <time>2024-08-16T10:25:14Z</time>
      </trkpt>
      <trkpt lat="44.77753" lon="2.66428">
        <ele>745.7</ele>
        <time>2024-08-16T10:25:15Z</time>
      </trkpt>
      <trkpt lat="44.77752" lon="2.66425">
        <ele>745.8</ele>
        <time>2024-08-16T10:25:16Z</time>
      </trkpt>
      <trkpt lat="44.77752" lon="2.6642">
        <ele>746.2</ele>
        <time>2024-08-16T10:25:18Z</time>
      </trkpt>
      <trkpt lat="44.77753" lon="2.66414">
        <ele>746.5</ele>
        <time>2024-08-16T10:25:20Z</time>
      </trkpt>
      <trkpt lat="44.77753" lon="2.66409">
        <ele>746.8</ele>
        <time>2024-08-16T10:25:22Z</time>
      </trkpt>
      <trkpt lat="44.77753" lon="2.66407">
        <ele>747</ele>
        <time>2024-08-16T10:25:23Z</time>
      </trkpt>
      <trkpt lat="44.77753" lon="2.66404">
        <ele>747.2</ele>
        <time>2024-08-16T10:25:24Z</time>
      </trkpt>
      <trkpt lat="44.77752" lon="2.66399">
        <ele>747.5</ele>
        <time>2024-08-16T10:25:26Z</time>
      </trkpt>
      <trkpt lat="44.77752" lon="2.66393">
        <ele>747.8</ele>
        <time>2024-08-16T10:25:28Z</time>
      </trkpt>
      <trkpt lat="44.77752" lon="2.66388">
        <ele>748.1</ele>
        <time>2024-08-16T10:25:30Z</time>
      </trkpt>
      <trkpt lat="44.77753" lon="2.66383">
        <ele>748.4</ele>
        <time>2024-08-16T10:25:32Z</time>
      </trkpt>
      <trkpt lat="44.77753" lon="2.66378">
        <ele>748.7</ele>
        <time>2024-08-16T10:25:34Z</time>
      </trkpt>
      <trkpt lat="44.77753" lon="2.66372">
        <ele>749.1</ele>
        <time>2024-08-16T10:25:36Z</time>
      </trkpt>
      <trkpt lat="44.77754" lon="2.66367">
        <ele>749.4</ele>
        <time>2024-08-16T10:25:38Z</time>
      </trkpt>
      <trkpt lat="44.77754" lon="2.66362">
        <ele>749.8</ele>
        <time>2024-08-16T10:25:40Z</time>
      </trkpt>
      <trkpt lat="44.77754" lon="2.66359">
        <ele>750</ele>
        <time>2024-08-16T10:25:41Z</time>
      </trkpt>
      <trkpt lat="44.77754" lon="2.66356">
        <ele>750.1</ele>
        <time>2024-08-16T10:25:42Z</time>
      </trkpt>
      <trkpt lat="44.77755" lon="2.66351">
        <ele>750.5</ele>
        <time>2024-08-16T10:25:44Z</time>
      </trkpt>
      <trkpt lat="44.77755" lon="2.66346">
        <ele>750.9</ele>
        <time>2024-08-16T10:25:46Z</time>
      </trkpt>
      <trkpt lat="44.77756" lon="2.6634">
        <ele>751.2</ele>
        <time>2024-08-16T10:25:48Z</time>
      </trkpt>
      <trkpt lat="44.77757" lon="2.66334">
        <ele>751.6</ele>
        <time>2024-08-16T10:25:50Z</time>
      </trkpt>
      <trkpt lat="44.77758" lon="2.66328">
        <ele>752</ele>
        <time>2024-08-16T10:25:52Z</time>
      </trkpt>
      <trkpt lat="44.77759" lon="2.66322">
        <ele>752.3</ele>
        <time>2024-08-16T10:25:54Z</time>
      </trkpt>
      <trkpt lat="44.77758" lon="2.66315">
        <ele>752.7</ele>
        <time>2024-08-16T10:25:56Z</time>
      </trkpt>
      <trkpt lat="44.77758" lon="2.66309">
        <ele>753</ele>
        <time>2024-08-16T10:25:58Z</time>
      </trkpt>
      <trkpt lat="44.77758" lon="2.66303">
        <ele>753.3</ele>
        <time>2024-08-16T10:26:00Z</time>
      </trkpt>
      <trkpt lat="44.77758" lon="2.66297">
        <ele>753.5</ele>
        <time>2024-08-16T10:26:02Z</time>
      </trkpt>
      <trkpt lat="44.77759" lon="2.66291">
        <ele>753.7</ele>
        <time>2024-08-16T10:26:04Z</time>
      </trkpt>
      <trkpt lat="44.77759" lon="2.66284">
        <ele>754</ele>
        <time>2024-08-16T10:26:06Z</time>
      </trkpt>
      <trkpt lat="44.77759" lon="2.66278">
        <ele>754.2</ele>
        <time>2024-08-16T10:26:08Z</time>
      </trkpt>
      <trkpt lat="44.77759" lon="2.66272">
        <ele>754.3</ele>
        <time>2024-08-16T10:26:10Z</time>
      </trkpt>
      <trkpt lat="44.77759" lon="2.66266">
        <ele>754.5</ele>
        <time>2024-08-16T10:26:12Z</time>
      </trkpt>
      <trkpt lat="44.7776" lon="2.6626">
        <ele>754.7</ele>
        <time>2024-08-16T10:26:14Z</time>
      </trkpt>
      <trkpt lat="44.77761" lon="2.66253">
        <ele>754.9</ele>
        <time>2024-08-16T10:26:16Z</time>
      </trkpt>
      <trkpt lat="44.77762" lon="2.66246">
        <ele>755.1</ele>
        <time>2024-08-16T10:26:18Z</time>
      </trkpt>
      <trkpt lat="44.77764" lon="2.66239">
        <ele>755.3</ele>
        <time>2024-08-16T10:26:20Z</time>
      </trkpt>
      <trkpt lat="44.77765" lon="2.66232">
        <ele>755.5</ele>
        <time>2024-08-16T10:26:22Z</time>
      </trkpt>
      <trkpt lat="44.77766" lon="2.66224">
        <ele>755.6</ele>
        <time>2024-08-16T10:26:24Z</time>
      </trkpt>
      <trkpt lat="44.77768" lon="2.66215">
        <ele>755.8</ele>
        <time>2024-08-16T10:26:26Z</time>
      </trkpt>
      <trkpt lat="44.7777" lon="2.66207">
        <ele>755.8</ele>
        <time>2024-08-16T10:26:28Z</time>
      </trkpt>
      <trkpt lat="44.77772" lon="2.66198">
        <ele>755.9</ele>
        <time>2024-08-16T10:26:30Z</time>
      </trkpt>
      <trkpt lat="44.77773" lon="2.66187">
        <ele>755.9</ele>
        <time>2024-08-16T10:26:32Z</time>
      </trkpt>
      <trkpt lat="44.77774" lon="2.66177">
        <ele>755.9</ele>
        <time>2024-08-16T10:26:34Z</time>
      </trkpt>
      <trkpt lat="44.77775" lon="2.66166">
        <ele>755.9</ele>
        <time>2024-08-16T10:26:36Z</time>
      </trkpt>
      <trkpt lat="44.77775" lon="2.66155">
        <ele>755.7</ele>
        <time>2024-08-16T10:26:38Z</time>
      </trkpt>
      <trkpt lat="44.77775" lon="2.66149">
        <ele>755.7</ele>
        <time>2024-08-16T10:26:39Z</time>
      </trkpt>
      <trkpt lat="44.77775" lon="2.66143">
        <ele>755.6</ele>
        <time>2024-08-16T10:26:40Z</time>
      </trkpt>
      <trkpt lat="44.77775" lon="2.66131">
        <ele>755.4</ele>
        <time>2024-08-16T10:26:42Z</time>
      </trkpt>
      <trkpt lat="44.77775" lon="2.66118">
        <ele>755.1</ele>
        <time>2024-08-16T10:26:44Z</time>
      </trkpt>
      <trkpt lat="44.77774" lon="2.66111">
        <ele>754.9</ele>
        <time>2024-08-16T10:26:45Z</time>
      </trkpt>
      <trkpt lat="44.77774" lon="2.66103">
        <ele>754.6</ele>
        <time>2024-08-16T10:26:46Z</time>
      </trkpt>
      <trkpt lat="44.77772" lon="2.66087">
        <ele>754.2</ele>
        <time>2024-08-16T10:26:48Z</time>
      </trkpt>
      <trkpt lat="44.77771" lon="2.6607">
        <ele>753.9</ele>
        <time>2024-08-16T10:26:50Z</time>
      </trkpt>
      <trkpt lat="44.77771" lon="2.66061">
        <ele>753.7</ele>
        <time>2024-08-16T10:26:51Z</time>
      </trkpt>
      <trkpt lat="44.7777" lon="2.66052">
        <ele>753.5</ele>
        <time>2024-08-16T10:26:52Z</time>
      </trkpt>
      <trkpt lat="44.77769" lon="2.66035">
        <ele>753.3</ele>
        <time>2024-08-16T10:26:54Z</time>
      </trkpt>
      <trkpt lat="44.77768" lon="2.66017">
        <ele>753</ele>
        <time>2024-08-16T10:26:56Z</time>
      </trkpt>
      <trkpt lat="44.77768" lon="2.66009">
        <ele>752.9</ele>
        <time>2024-08-16T10:26:57Z</time>
      </trkpt>
      <trkpt lat="44.77767" lon="2.66">
        <ele>752.8</ele>
        <time>2024-08-16T10:26:58Z</time>
      </trkpt>
      <trkpt lat="44.77766" lon="2.65983">
        <ele>752.7</ele>
        <time>2024-08-16T10:27:00Z</time>
      </trkpt>
      <trkpt lat="44.77765" lon="2.65968">
        <ele>752.7</ele>
        <time>2024-08-16T10:27:02Z</time>
      </trkpt>
      <trkpt lat="44.77763" lon="2.6596">
        <ele>752.7</ele>
        <time>2024-08-16T10:27:03Z</time>
      </trkpt>
      <trkpt lat="44.77762" lon="2.65953">
        <ele>752.7</ele>
        <time>2024-08-16T10:27:04Z</time>
      </trkpt>
      <trkpt lat="44.7776" lon="2.65939">
        <ele>752.8</ele>
        <time>2024-08-16T10:27:06Z</time>
      </trkpt>
      <trkpt lat="44.77758" lon="2.65925">
        <ele>752.8</ele>
        <time>2024-08-16T10:27:08Z</time>
      </trkpt>
      <trkpt lat="44.77757" lon="2.65918">
        <ele>752.9</ele>
        <time>2024-08-16T10:27:09Z</time>
      </trkpt>
      <trkpt lat="44.77756" lon="2.6591">
        <ele>752.9</ele>
        <time>2024-08-16T10:27:10Z</time>
      </trkpt>
      <trkpt lat="44.77753" lon="2.65896">
        <ele>753.1</ele>
        <time>2024-08-16T10:27:12Z</time>
      </trkpt>
      <trkpt lat="44.77751" lon="2.65883">
        <ele>753.2</ele>
        <time>2024-08-16T10:27:14Z</time>
      </trkpt>
      <trkpt lat="44.7775" lon="2.65876">
        <ele>753.3</ele>
        <time>2024-08-16T10:27:15Z</time>
      </trkpt>
      <trkpt lat="44.77749" lon="2.65869">
        <ele>753.4</ele>
        <time>2024-08-16T10:27:16Z</time>
      </trkpt>
      <trkpt lat="44.77748" lon="2.65855">
        <ele>753.6</ele>
        <time>2024-08-16T10:27:18Z</time>
      </trkpt>
      <trkpt lat="44.77747" lon="2.65841">
        <ele>753.8</ele>
        <time>2024-08-16T10:27:20Z</time>
      </trkpt>
      <trkpt lat="44.77746" lon="2.65827">
        <ele>754.1</ele>
        <time>2024-08-16T10:27:22Z</time>
      </trkpt>
      <trkpt lat="44.77746" lon="2.65813">
        <ele>754.3</ele>
        <time>2024-08-16T10:27:24Z</time>
      </trkpt>
      <trkpt lat="44.77746" lon="2.65799">
        <ele>754.5</ele>
        <time>2024-08-16T10:27:26Z</time>
      </trkpt>
      <trkpt lat="44.77745" lon="2.65784">
        <ele>754.7</ele>
        <time>2024-08-16T10:27:28Z</time>
      </trkpt>
      <trkpt lat="44.77744" lon="2.6577">
        <ele>754.8</ele>
        <time>2024-08-16T10:27:30Z</time>
      </trkpt>
      <trkpt lat="44.77743" lon="2.65755">
        <ele>755</ele>
        <time>2024-08-16T10:27:32Z</time>
      </trkpt>
      <trkpt lat="44.77742" lon="2.65748">
        <ele>755</ele>
        <time>2024-08-16T10:27:33Z</time>
      </trkpt>
      <trkpt lat="44.77741" lon="2.65741">
        <ele>755</ele>
        <time>2024-08-16T10:27:34Z</time>
      </trkpt>
      <trkpt lat="44.77739" lon="2.65726">
        <ele>754.9</ele>
        <time>2024-08-16T10:27:36Z</time>
      </trkpt>
      <trkpt lat="44.77737" lon="2.6571">
        <ele>754.6</ele>
        <time>2024-08-16T10:27:38Z</time>
      </trkpt>
      <trkpt lat="44.77734" lon="2.65695">
        <ele>754.5</ele>
        <time>2024-08-16T10:27:40Z</time>
      </trkpt>
      <trkpt lat="44.77729" lon="2.65678">
        <ele>754.3</ele>
        <time>2024-08-16T10:27:42Z</time>
      </trkpt>
      <trkpt lat="44.77725" lon="2.65662">
        <ele>754.2</ele>
        <time>2024-08-16T10:27:44Z</time>
      </trkpt>
      <trkpt lat="44.7772" lon="2.65647">
        <ele>754.1</ele>
        <time>2024-08-16T10:27:46Z</time>
      </trkpt>
      <trkpt lat="44.77718" lon="2.6564">
        <ele>754</ele>
        <time>2024-08-16T10:27:47Z</time>
      </trkpt>
      <trkpt lat="44.77716" lon="2.65632">
        <ele>754</ele>
        <time>2024-08-16T10:27:48Z</time>
      </trkpt>
      <trkpt lat="44.77711" lon="2.65618">
        <ele>754</ele>
        <time>2024-08-16T10:27:50Z</time>
      </trkpt>
      <trkpt lat="44.77708" lon="2.6561">
        <ele>754</ele>
        <time>2024-08-16T10:27:51Z</time>
      </trkpt>
      <trkpt lat="44.77705" lon="2.65603">
        <ele>754</ele>
        <time>2024-08-16T10:27:52Z</time>
      </trkpt>
      <trkpt lat="44.77701" lon="2.65597">
        <ele>753.9</ele>
        <time>2024-08-16T10:27:53Z</time>
      </trkpt>
      <trkpt lat="44.77698" lon="2.6559">
        <ele>753.9</ele>
        <time>2024-08-16T10:27:54Z</time>
      </trkpt>
      <trkpt lat="44.7769" lon="2.65578">
        <ele>753.9</ele>
        <time>2024-08-16T10:27:56Z</time>
      </trkpt>
      <trkpt lat="44.77682" lon="2.65566">
        <ele>753.9</ele>
        <time>2024-08-16T10:27:58Z</time>
      </trkpt>
      <trkpt lat="44.77679" lon="2.65559">
        <ele>754</ele>
        <time>2024-08-16T10:27:59Z</time>
      </trkpt>
      <trkpt lat="44.77676" lon="2.65552">
        <ele>754</ele>
        <time>2024-08-16T10:28:00Z</time>
      </trkpt>
      <trkpt lat="44.77673" lon="2.65546">
        <ele>754.1</ele>
        <time>2024-08-16T10:28:01Z</time>
      </trkpt>
      <trkpt lat="44.77671" lon="2.65539">
        <ele>754.2</ele>
        <time>2024-08-16T10:28:02Z</time>
      </trkpt>
      <trkpt lat="44.77667" lon="2.65526">
        <ele>754.5</ele>
        <time>2024-08-16T10:28:04Z</time>
      </trkpt>
      <trkpt lat="44.77664" lon="2.65513">
        <ele>754.8</ele>
        <time>2024-08-16T10:28:06Z</time>
      </trkpt>
      <trkpt lat="44.77663" lon="2.65507">
        <ele>755</ele>
        <time>2024-08-16T10:28:07Z</time>
      </trkpt>
      <trkpt lat="44.77662" lon="2.65501">
        <ele>755.2</ele>
        <time>2024-08-16T10:28:08Z</time>
      </trkpt>
      <trkpt lat="44.77662" lon="2.65489">
        <ele>755.5</ele>
        <time>2024-08-16T10:28:10Z</time>
      </trkpt>
      <trkpt lat="44.77661" lon="2.65475">
        <ele>755.8</ele>
        <time>2024-08-16T10:28:12Z</time>
      </trkpt>
      <trkpt lat="44.77661" lon="2.65468">
        <ele>756</ele>
        <time>2024-08-16T10:28:13Z</time>
      </trkpt>
      <trkpt lat="44.77662" lon="2.6546">
        <ele>756.2</ele>
        <time>2024-08-16T10:28:14Z</time>
      </trkpt>
      <trkpt lat="44.77663" lon="2.65452">
        <ele>756.5</ele>
        <time>2024-08-16T10:28:15Z</time>
      </trkpt>
      <trkpt lat="44.77663" lon="2.65444">
        <ele>756.9</ele>
        <time>2024-08-16T10:28:16Z</time>
      </trkpt>
      <trkpt lat="44.77664" lon="2.65437">
        <ele>757.2</ele>
        <time>2024-08-16T10:28:17Z</time>
      </trkpt>
      <trkpt lat="44.77665" lon="2.65429">
        <ele>757.5</ele>
        <time>2024-08-16T10:28:18Z</time>
      </trkpt>
      <trkpt lat="44.77667" lon="2.65414">
        <ele>758.1</ele>
        <time>2024-08-16T10:28:20Z</time>
      </trkpt>
      <trkpt lat="44.77669" lon="2.65402">
        <ele>758.5</ele>
        <time>2024-08-16T10:28:22Z</time>
      </trkpt>
      <trkpt lat="44.77671" lon="2.6539">
        <ele>758.9</ele>
        <time>2024-08-16T10:28:24Z</time>
      </trkpt>
      <trkpt lat="44.77672" lon="2.6538">
        <ele>759.2</ele>
        <time>2024-08-16T10:28:26Z</time>
      </trkpt>
      <trkpt lat="44.77673" lon="2.6537">
        <ele>759.6</ele>
        <time>2024-08-16T10:28:28Z</time>
      </trkpt>
      <trkpt lat="44.77673" lon="2.65361">
        <ele>759.9</ele>
        <time>2024-08-16T10:28:30Z</time>
      </trkpt>
      <trkpt lat="44.77674" lon="2.65352">
        <ele>760.3</ele>
        <time>2024-08-16T10:28:32Z</time>
      </trkpt>
      <trkpt lat="44.77675" lon="2.65343">
        <ele>760.5</ele>
        <time>2024-08-16T10:28:34Z</time>
      </trkpt>
      <trkpt lat="44.77676" lon="2.65335">
        <ele>760.8</ele>
        <time>2024-08-16T10:28:36Z</time>
      </trkpt>
      <trkpt lat="44.77676" lon="2.65326">
        <ele>760.9</ele>
        <time>2024-08-16T10:28:38Z</time>
      </trkpt>
      <trkpt lat="44.77676" lon="2.65321">
        <ele>761</ele>
        <time>2024-08-16T10:28:39Z</time>
      </trkpt>
      <trkpt lat="44.77676" lon="2.65317">
        <ele>761.1</ele>
        <time>2024-08-16T10:28:40Z</time>
      </trkpt>
      <trkpt lat="44.77676" lon="2.65311">
        <ele>761.1</ele>
        <time>2024-08-16T10:28:41Z</time>
      </trkpt>
      <trkpt lat="44.77677" lon="2.65306">
        <ele>761.1</ele>
        <time>2024-08-16T10:28:42Z</time>
      </trkpt>
      <trkpt lat="44.77677" lon="2.65296">
        <ele>761.2</ele>
        <time>2024-08-16T10:28:44Z</time>
      </trkpt>
      <trkpt lat="44.77677" lon="2.65285">
        <ele>761.2</ele>
        <time>2024-08-16T10:28:46Z</time>
      </trkpt>
      <trkpt lat="44.77676" lon="2.65274">
        <ele>761.2</ele>
        <time>2024-08-16T10:28:48Z</time>
      </trkpt>
      <trkpt lat="44.77675" lon="2.65263">
        <ele>761.2</ele>
        <time>2024-08-16T10:28:50Z</time>
      </trkpt>
      <trkpt lat="44.77675" lon="2.65251">
        <ele>761.2</ele>
        <time>2024-08-16T10:28:52Z</time>
      </trkpt>
      <trkpt lat="44.77676" lon="2.65245">
        <ele>761.1</ele>
        <time>2024-08-16T10:28:53Z</time>
      </trkpt>
      <trkpt lat="44.77676" lon="2.65239">
        <ele>761.1</ele>
        <time>2024-08-16T10:28:54Z</time>
      </trkpt>
      <trkpt lat="44.77677" lon="2.65227">
        <ele>760.9</ele>
        <time>2024-08-16T10:28:56Z</time>
      </trkpt>
      <trkpt lat="44.77678" lon="2.65216">
        <ele>760.7</ele>
        <time>2024-08-16T10:28:58Z</time>
      </trkpt>
      <trkpt lat="44.7768" lon="2.65205">
        <ele>760.4</ele>
        <time>2024-08-16T10:29:00Z</time>
      </trkpt>
      <trkpt lat="44.77683" lon="2.65195">
        <ele>760.1</ele>
        <time>2024-08-16T10:29:02Z</time>
      </trkpt>
      <trkpt lat="44.77685" lon="2.65184">
        <ele>759.8</ele>
        <time>2024-08-16T10:29:04Z</time>
      </trkpt>
      <trkpt lat="44.77688" lon="2.65172">
        <ele>759.5</ele>
        <time>2024-08-16T10:29:06Z</time>
      </trkpt>
      <trkpt lat="44.7769" lon="2.65161">
        <ele>759.3</ele>
        <time>2024-08-16T10:29:08Z</time>
      </trkpt>
      <trkpt lat="44.77693" lon="2.6515">
        <ele>759.1</ele>
        <time>2024-08-16T10:29:10Z</time>
      </trkpt>
      <trkpt lat="44.77695" lon="2.65144">
        <ele>759.1</ele>
        <time>2024-08-16T10:29:11Z</time>
      </trkpt>
      <trkpt lat="44.77698" lon="2.6514">
        <ele>759.1</ele>
        <time>2024-08-16T10:29:12Z</time>
      </trkpt>
      <trkpt lat="44.77703" lon="2.65132">
        <ele>759</ele>
        <time>2024-08-16T10:29:14Z</time>
      </trkpt>
      <trkpt lat="44.77707" lon="2.65128">
        <ele>758.9</ele>
        <time>2024-08-16T10:29:15Z</time>
      </trkpt>
      <trkpt lat="44.7771" lon="2.65125">
        <ele>758.9</ele>
        <time>2024-08-16T10:29:16Z</time>
      </trkpt>
      <trkpt lat="44.77718" lon="2.65118">
        <ele>758.7</ele>
        <time>2024-08-16T10:29:18Z</time>
      </trkpt>
      <trkpt lat="44.77727" lon="2.65111">
        <ele>758.6</ele>
        <time>2024-08-16T10:29:20Z</time>
      </trkpt>
      <trkpt lat="44.77735" lon="2.65104">
        <ele>758.4</ele>
        <time>2024-08-16T10:29:22Z</time>
      </trkpt>
      <trkpt lat="44.77744" lon="2.65097">
        <ele>758.3</ele>
        <time>2024-08-16T10:29:24Z</time>
      </trkpt>
      <trkpt lat="44.77754" lon="2.65089">
        <ele>758.2</ele>
        <time>2024-08-16T10:29:26Z</time>
      </trkpt>
      <trkpt lat="44.77763" lon="2.65082">
        <ele>758.1</ele>
        <time>2024-08-16T10:29:28Z</time>
      </trkpt>
      <trkpt lat="44.77768" lon="2.65078">
        <ele>758.1</ele>
        <time>2024-08-16T10:29:29Z</time>
      </trkpt>
      <trkpt lat="44.77773" lon="2.65074">
        <ele>758.1</ele>
        <time>2024-08-16T10:29:30Z</time>
      </trkpt>
      <trkpt lat="44.77777" lon="2.6507">
        <ele>758</ele>
        <time>2024-08-16T10:29:31Z</time>
      </trkpt>
      <trkpt lat="44.77782" lon="2.65066">
        <ele>757.9</ele>
        <time>2024-08-16T10:29:32Z</time>
      </trkpt>
      <trkpt lat="44.77792" lon="2.65057">
        <ele>757.6</ele>
        <time>2024-08-16T10:29:34Z</time>
      </trkpt>
      <trkpt lat="44.77796" lon="2.65052">
        <ele>757.5</ele>
        <time>2024-08-16T10:29:35Z</time>
      </trkpt>
      <trkpt lat="44.778" lon="2.65046">
        <ele>757.3</ele>
        <time>2024-08-16T10:29:36Z</time>
      </trkpt>
      <trkpt lat="44.77804" lon="2.6504">
        <ele>757.1</ele>
        <time>2024-08-16T10:29:37Z</time>
      </trkpt>
      <trkpt lat="44.77808" lon="2.65032">
        <ele>756.8</ele>
        <time>2024-08-16T10:29:38Z</time>
      </trkpt>
      <trkpt lat="44.77815" lon="2.65015">
        <ele>756.2</ele>
        <time>2024-08-16T10:29:40Z</time>
      </trkpt>
      <trkpt lat="44.77822" lon="2.64997">
        <ele>755.5</ele>
        <time>2024-08-16T10:29:42Z</time>
      </trkpt>
      <trkpt lat="44.7783" lon="2.64978">
        <ele>754.6</ele>
        <time>2024-08-16T10:29:44Z</time>
      </trkpt>
      <trkpt lat="44.77836" lon="2.64956">
        <ele>753.6</ele>
        <time>2024-08-16T10:29:46Z</time>
      </trkpt>
      <trkpt lat="44.77839" lon="2.64944">
        <ele>753</ele>
        <time>2024-08-16T10:29:47Z</time>
      </trkpt>
      <trkpt lat="44.7784" lon="2.64931">
        <ele>752.4</ele>
        <time>2024-08-16T10:29:48Z</time>
      </trkpt>
      <trkpt lat="44.77841" lon="2.64905">
        <ele>751.1</ele>
        <time>2024-08-16T10:29:50Z</time>
      </trkpt>
      <trkpt lat="44.7784" lon="2.64892">
        <ele>750.4</ele>
        <time>2024-08-16T10:29:51Z</time>
      </trkpt>
      <trkpt lat="44.7784" lon="2.64878">
        <ele>749.7</ele>
        <time>2024-08-16T10:29:52Z</time>
      </trkpt>
      <trkpt lat="44.77837" lon="2.6485">
        <ele>748.3</ele>
        <time>2024-08-16T10:29:54Z</time>
      </trkpt>
      <trkpt lat="44.77833" lon="2.64822">
        <ele>747</ele>
        <time>2024-08-16T10:29:56Z</time>
      </trkpt>
      <trkpt lat="44.7783" lon="2.64808">
        <ele>746.4</ele>
        <time>2024-08-16T10:29:57Z</time>
      </trkpt>
      <trkpt lat="44.77825" lon="2.64794">
        <ele>745.7</ele>
        <time>2024-08-16T10:29:58Z</time>
      </trkpt>
      <trkpt lat="44.77815" lon="2.64768">
        <ele>744.1</ele>
        <time>2024-08-16T10:30:00Z</time>
      </trkpt>
      <trkpt lat="44.77804" lon="2.64741">
        <ele>742.1</ele>
        <time>2024-08-16T10:30:02Z</time>
      </trkpt>
      <trkpt lat="44.77799" lon="2.64726">
        <ele>740.8</ele>
        <time>2024-08-16T10:30:03Z</time>
      </trkpt>
      <trkpt lat="44.77796" lon="2.6471">
        <ele>739.5</ele>
        <time>2024-08-16T10:30:04Z</time>
      </trkpt>
      <trkpt lat="44.77792" lon="2.64677">
        <ele>737.8</ele>
        <time>2024-08-16T10:30:06Z</time>
      </trkpt>
      <trkpt lat="44.77792" lon="2.64661">
        <ele>737.4</ele>
        <time>2024-08-16T10:30:07Z</time>
      </trkpt>
      <trkpt lat="44.77793" lon="2.64645">
        <ele>737.2</ele>
        <time>2024-08-16T10:30:08Z</time>
      </trkpt>
      <trkpt lat="44.77795" lon="2.64615">
        <ele>737.7</ele>
        <time>2024-08-16T10:30:10Z</time>
      </trkpt>
      <trkpt lat="44.77796" lon="2.64601">
        <ele>738</ele>
        <time>2024-08-16T10:30:11Z</time>
      </trkpt>
      <trkpt lat="44.77796" lon="2.64588">
        <ele>738.3</ele>
        <time>2024-08-16T10:30:12Z</time>
      </trkpt>
      <trkpt lat="44.77796" lon="2.64565">
        <ele>739.1</ele>
        <time>2024-08-16T10:30:14Z</time>
      </trkpt>
      <trkpt lat="44.77796" lon="2.64555">
        <ele>739.6</ele>
        <time>2024-08-16T10:30:15Z</time>
      </trkpt>
      <trkpt lat="44.77795" lon="2.64546">
        <ele>740.1</ele>
        <time>2024-08-16T10:30:16Z</time>
      </trkpt>
      <trkpt lat="44.77795" lon="2.64531">
        <ele>740.9</ele>
        <time>2024-08-16T10:30:18Z</time>
      </trkpt>
      <trkpt lat="44.77795" lon="2.64524">
        <ele>741.3</ele>
        <time>2024-08-16T10:30:19Z</time>
      </trkpt>
      <trkpt lat="44.77794" lon="2.64518">
        <ele>741.7</ele>
        <time>2024-08-16T10:30:20Z</time>
      </trkpt>
      <trkpt lat="44.77794" lon="2.64507">
        <ele>742.4</ele>
        <time>2024-08-16T10:30:22Z</time>
      </trkpt>
      <trkpt lat="44.77794" lon="2.64498">
        <ele>743</ele>
        <time>2024-08-16T10:30:24Z</time>
      </trkpt>
      <trkpt lat="44.77794" lon="2.64495">
        <ele>743.2</ele>
        <time>2024-08-16T10:30:25Z</time>
      </trkpt>
      <trkpt lat="44.77794" lon="2.64491">
        <ele>743.4</ele>
        <time>2024-08-16T10:30:26Z</time>
      </trkpt>
      <trkpt lat="44.77794" lon="2.64484">
        <ele>743.9</ele>
        <time>2024-08-16T10:30:28Z</time>
      </trkpt>
      <trkpt lat="44.77794" lon="2.64476">
        <ele>744.3</ele>
        <time>2024-08-16T10:30:30Z</time>
      </trkpt>
      <trkpt lat="44.77794" lon="2.64469">
        <ele>744.7</ele>
        <time>2024-08-16T10:30:32Z</time>
      </trkpt>
      <trkpt lat="44.77794" lon="2.64463">
        <ele>745.1</ele>
        <time>2024-08-16T10:30:34Z</time>
      </trkpt>
      <trkpt lat="44.77793" lon="2.64456">
        <ele>745.5</ele>
        <time>2024-08-16T10:30:36Z</time>
      </trkpt>
      <trkpt lat="44.77793" lon="2.6445">
        <ele>745.9</ele>
        <time>2024-08-16T10:30:38Z</time>
      </trkpt>
      <trkpt lat="44.77793" lon="2.64443">
        <ele>746.3</ele>
        <time>2024-08-16T10:30:40Z</time>
      </trkpt>
      <trkpt lat="44.77793" lon="2.64436">
        <ele>746.7</ele>
        <time>2024-08-16T10:30:42Z</time>
      </trkpt>
      <trkpt lat="44.77793" lon="2.64429">
        <ele>747.1</ele>
        <time>2024-08-16T10:30:44Z</time>
      </trkpt>
      <trkpt lat="44.77793" lon="2.64422">
        <ele>747.5</ele>
        <time>2024-08-16T10:30:46Z</time>
      </trkpt>
      <trkpt lat="44.77794" lon="2.64416">
        <ele>747.9</ele>
        <time>2024-08-16T10:30:48Z</time>
      </trkpt>
      <trkpt lat="44.77795" lon="2.64413">
        <ele>748.1</ele>
        <time>2024-08-16T10:30:49Z</time>
      </trkpt>
      <trkpt lat="44.77795" lon="2.6441">
        <ele>748.3</ele>
        <time>2024-08-16T10:30:50Z</time>
      </trkpt>
      <trkpt lat="44.77797" lon="2.64403">
        <ele>748.6</ele>
        <time>2024-08-16T10:30:52Z</time>
      </trkpt>
      <trkpt lat="44.77798" lon="2.64398">
        <ele>748.9</ele>
        <time>2024-08-16T10:30:54Z</time>
      </trkpt>
      <trkpt lat="44.778" lon="2.64394">
        <ele>749.2</ele>
        <time>2024-08-16T10:30:56Z</time>
      </trkpt>
      <trkpt lat="44.77802" lon="2.64389">
        <ele>749.5</ele>
        <time>2024-08-16T10:30:58Z</time>
      </trkpt>
      <trkpt lat="44.77803" lon="2.64388">
        <ele>749.6</ele>
        <time>2024-08-16T10:30:59Z</time>
      </trkpt>
      <trkpt lat="44.77804" lon="2.64386">
        <ele>749.7</ele>
        <time>2024-08-16T10:31:00Z</time>
      </trkpt>
      <trkpt lat="44.77807" lon="2.64383">
        <ele>750</ele>
        <time>2024-08-16T10:31:02Z</time>
      </trkpt>
      <trkpt lat="44.77809" lon="2.64379">
        <ele>750.2</ele>
        <time>2024-08-16T10:31:04Z</time>
      </trkpt>
      <trkpt lat="44.77812" lon="2.64376">
        <ele>750.4</ele>
        <time>2024-08-16T10:31:06Z</time>
      </trkpt>
      <trkpt lat="44.77813" lon="2.64374">
        <ele>750.6</ele>
        <time>2024-08-16T10:31:07Z</time>
      </trkpt>
      <trkpt lat="44.77815" lon="2.64373">
        <ele>750.7</ele>
        <time>2024-08-16T10:31:08Z</time>
      </trkpt>
      <trkpt lat="44.77817" lon="2.6437">
        <ele>750.8</ele>
        <time>2024-08-16T10:31:10Z</time>
      </trkpt>
      <trkpt lat="44.7782" lon="2.64368">
        <ele>751</ele>
        <time>2024-08-16T10:31:12Z</time>
      </trkpt>
      <trkpt lat="44.77823" lon="2.64365">
        <ele>751.2</ele>
        <time>2024-08-16T10:31:14Z</time>
      </trkpt>
      <trkpt lat="44.77824" lon="2.64364">
        <ele>751.3</ele>
        <time>2024-08-16T10:31:15Z</time>
      </trkpt>
      <trkpt lat="44.77825" lon="2.64362">
        <ele>751.4</ele>
        <time>2024-08-16T10:31:16Z</time>
      </trkpt>
      <trkpt lat="44.77828" lon="2.64358">
        <ele>751.6</ele>
        <time>2024-08-16T10:31:18Z</time>
      </trkpt>
      <trkpt lat="44.77831" lon="2.64356">
        <ele>751.8</ele>
        <time>2024-08-16T10:31:20Z</time>
      </trkpt>
      <trkpt lat="44.77832" lon="2.64355">
        <ele>751.8</ele>
        <time>2024-08-16T10:31:21Z</time>
      </trkpt>
      <trkpt lat="44.77833" lon="2.64354">
        <ele>751.9</ele>
        <time>2024-08-16T10:31:22Z</time>
      </trkpt>
      <trkpt lat="44.77835" lon="2.64351">
        <ele>752.1</ele>
        <time>2024-08-16T10:31:24Z</time>
      </trkpt>
      <trkpt lat="44.77838" lon="2.64346">
        <ele>752.3</ele>
        <time>2024-08-16T10:31:26Z</time>
      </trkpt>
      <trkpt lat="44.7784" lon="2.64343">
        <ele>752.5</ele>
        <time>2024-08-16T10:31:28Z</time>
      </trkpt>
      <trkpt lat="44.77843" lon="2.6434">
        <ele>752.7</ele>
        <time>2024-08-16T10:31:30Z</time>
      </trkpt>
      <trkpt lat="44.77846" lon="2.64338">
        <ele>752.8</ele>
        <time>2024-08-16T10:31:32Z</time>
      </trkpt>
      <trkpt lat="44.77847" lon="2.64337">
        <ele>752.9</ele>
        <time>2024-08-16T10:31:33Z</time>
      </trkpt>
      <trkpt lat="44.77848" lon="2.64337">
        <ele>753</ele>
        <time>2024-08-16T10:31:34Z</time>
      </trkpt>
      <trkpt lat="44.77849" lon="2.64335">
        <ele>753.1</ele>
        <time>2024-08-16T10:31:35Z</time>
      </trkpt>
      <trkpt lat="44.77851" lon="2.64333">
        <ele>753.2</ele>
        <time>2024-08-16T10:31:36Z</time>
      </trkpt>
      <trkpt lat="44.77853" lon="2.6433">
        <ele>753.4</ele>
        <time>2024-08-16T10:31:38Z</time>
      </trkpt>
      <trkpt lat="44.77854" lon="2.64327">
        <ele>753.6</ele>
        <time>2024-08-16T10:31:39Z</time>
      </trkpt>
      <trkpt lat="44.77855" lon="2.64325">
        <ele>753.7</ele>
        <time>2024-08-16T10:31:40Z</time>
      </trkpt>
      <trkpt lat="44.77858" lon="2.64322">
        <ele>753.9</ele>
        <time>2024-08-16T10:31:42Z</time>
      </trkpt>
      <trkpt lat="44.77859" lon="2.64316">
        <ele>754.2</ele>
        <time>2024-08-16T10:31:44Z</time>
      </trkpt>
      <trkpt lat="44.77861" lon="2.6431">
        <ele>754.5</ele>
        <time>2024-08-16T10:31:46Z</time>
      </trkpt>
      <trkpt lat="44.77861" lon="2.64304">
        <ele>754.7</ele>
        <time>2024-08-16T10:31:48Z</time>
      </trkpt>
      <trkpt lat="44.77862" lon="2.64297">
        <ele>755</ele>
        <time>2024-08-16T10:31:50Z</time>
      </trkpt>
      <trkpt lat="44.77863" lon="2.64291">
        <ele>755.2</ele>
        <time>2024-08-16T10:31:52Z</time>
      </trkpt>
      <trkpt lat="44.77863" lon="2.64286">
        <ele>755.4</ele>
        <time>2024-08-16T10:31:54Z</time>
      </trkpt>
      <trkpt lat="44.77863" lon="2.6428">
        <ele>755.6</ele>
        <time>2024-08-16T10:31:56Z</time>
      </trkpt>
      <trkpt lat="44.77863" lon="2.64275">
        <ele>755.8</ele>
        <time>2024-08-16T10:31:58Z</time>
      </trkpt>
      <trkpt lat="44.77863" lon="2.64271">
        <ele>756</ele>
        <time>2024-08-16T10:32:00Z</time>
      </trkpt>
      <trkpt lat="44.77863" lon="2.64266">
        <ele>756.2</ele>
        <time>2024-08-16T10:32:02Z</time>
      </trkpt>
      <trkpt lat="44.77864" lon="2.64261">
        <ele>756.4</ele>
        <time>2024-08-16T10:32:04Z</time>
      </trkpt>
      <trkpt lat="44.77864" lon="2.64259">
        <ele>756.5</ele>
        <time>2024-08-16T10:32:05Z</time>
      </trkpt>
      <trkpt lat="44.77865" lon="2.64256">
        <ele>756.7</ele>
        <time>2024-08-16T10:32:06Z</time>
      </trkpt>
      <trkpt lat="44.77865" lon="2.64251">
        <ele>756.9</ele>
        <time>2024-08-16T10:32:08Z</time>
      </trkpt>
      <trkpt lat="44.77866" lon="2.64246">
        <ele>757.1</ele>
        <time>2024-08-16T10:32:10Z</time>
      </trkpt>
      <trkpt lat="44.77867" lon="2.64238">
        <ele>757.5</ele>
        <time>2024-08-16T10:32:12Z</time>
      </trkpt>
      <trkpt lat="44.77868" lon="2.64232">
        <ele>757.8</ele>
        <time>2024-08-16T10:32:14Z</time>
      </trkpt>
      <trkpt lat="44.77869" lon="2.64227">
        <ele>758</ele>
        <time>2024-08-16T10:32:16Z</time>
      </trkpt>
      <trkpt lat="44.77871" lon="2.64222">
        <ele>758.3</ele>
        <time>2024-08-16T10:32:18Z</time>
      </trkpt>
      <trkpt lat="44.77873" lon="2.64218">
        <ele>758.5</ele>
        <time>2024-08-16T10:32:20Z</time>
      </trkpt>
      <trkpt lat="44.77875" lon="2.64214">
        <ele>758.8</ele>
        <time>2024-08-16T10:32:22Z</time>
      </trkpt>
      <trkpt lat="44.77877" lon="2.64209">
        <ele>759</ele>
        <time>2024-08-16T10:32:24Z</time>
      </trkpt>
      <trkpt lat="44.77879" lon="2.64205">
        <ele>759.3</ele>
        <time>2024-08-16T10:32:26Z</time>
      </trkpt>
      <trkpt lat="44.77881" lon="2.64201">
        <ele>759.5</ele>
        <time>2024-08-16T10:32:28Z</time>
      </trkpt>
      <trkpt lat="44.77883" lon="2.64196">
        <ele>759.8</ele>
        <time>2024-08-16T10:32:30Z</time>
      </trkpt>
      <trkpt lat="44.77884" lon="2.64191">
        <ele>760</ele>
        <time>2024-08-16T10:32:32Z</time>
      </trkpt>
      <trkpt lat="44.77885" lon="2.64186">
        <ele>760.2</ele>
        <time>2024-08-16T10:32:34Z</time>
      </trkpt>
      <trkpt lat="44.77885" lon="2.64181">
        <ele>760.5</ele>
        <time>2024-08-16T10:32:36Z</time>
      </trkpt>
      <trkpt lat="44.77884" lon="2.64176">
        <ele>760.8</ele>
        <time>2024-08-16T10:32:38Z</time>
      </trkpt>
      <trkpt lat="44.77883" lon="2.64174">
        <ele>761</ele>
        <time>2024-08-16T10:32:39Z</time>
      </trkpt>
      <trkpt lat="44.77883" lon="2.64172">
        <ele>761.1</ele>
        <time>2024-08-16T10:32:40Z</time>
      </trkpt>
      <trkpt lat="44.77881" lon="2.64167">
        <ele>761.4</ele>
        <time>2024-08-16T10:32:42Z</time>
      </trkpt>
      <trkpt lat="44.77879" lon="2.64163">
        <ele>761.7</ele>
        <time>2024-08-16T10:32:44Z</time>
      </trkpt>
      <trkpt lat="44.77877" lon="2.64159">
        <ele>762</ele>
        <time>2024-08-16T10:32:46Z</time>
      </trkpt>
      <trkpt lat="44.77876" lon="2.64154">
        <ele>762.4</ele>
        <time>2024-08-16T10:32:48Z</time>
      </trkpt>
      <trkpt lat="44.77874" lon="2.6415">
        <ele>762.7</ele>
        <time>2024-08-16T10:32:50Z</time>
      </trkpt>
      <trkpt lat="44.77873" lon="2.64145">
        <ele>763.1</ele>
        <time>2024-08-16T10:32:52Z</time>
      </trkpt>
      <trkpt lat="44.77872" lon="2.64141">
        <ele>763.4</ele>
        <time>2024-08-16T10:32:54Z</time>
      </trkpt>
      <trkpt lat="44.77871" lon="2.64136">
        <ele>763.8</ele>
        <time>2024-08-16T10:32:56Z</time>
      </trkpt>
      <trkpt lat="44.77871" lon="2.64131">
        <ele>764.2</ele>
        <time>2024-08-16T10:32:58Z</time>
      </trkpt>
      <trkpt lat="44.77872" lon="2.64127">
        <ele>764.5</ele>
        <time>2024-08-16T10:33:00Z</time>
      </trkpt>
      <trkpt lat="44.77873" lon="2.64122">
        <ele>764.9</ele>
        <time>2024-08-16T10:33:02Z</time>
      </trkpt>
      <trkpt lat="44.77874" lon="2.64117">
        <ele>765.2</ele>
        <time>2024-08-16T10:33:04Z</time>
      </trkpt>
      <trkpt lat="44.77876" lon="2.64112">
        <ele>765.6</ele>
        <time>2024-08-16T10:33:06Z</time>
      </trkpt>
      <trkpt lat="44.77878" lon="2.64108">
        <ele>766</ele>
        <time>2024-08-16T10:33:08Z</time>
      </trkpt>
      <trkpt lat="44.7788" lon="2.64105">
        <ele>766.1</ele>
        <time>2024-08-16T10:33:09Z</time>
      </trkpt>
      <trkpt lat="44.77881" lon="2.64103">
        <ele>766.3</ele>
        <time>2024-08-16T10:33:10Z</time>
      </trkpt>
      <trkpt lat="44.77882" lon="2.64101">
        <ele>766.5</ele>
        <time>2024-08-16T10:33:11Z</time>
      </trkpt>
      <trkpt lat="44.77883" lon="2.64099">
        <ele>766.6</ele>
        <time>2024-08-16T10:33:12Z</time>
      </trkpt>
      <trkpt lat="44.77886" lon="2.64096">
        <ele>766.8</ele>
        <time>2024-08-16T10:33:14Z</time>
      </trkpt>
      <trkpt lat="44.77888" lon="2.64092">
        <ele>767</ele>
        <time>2024-08-16T10:33:16Z</time>
      </trkpt>
      <trkpt lat="44.7789" lon="2.64088">
        <ele>767.2</ele>
        <time>2024-08-16T10:33:18Z</time>
      </trkpt>
      <trkpt lat="44.77893" lon="2.64083">
        <ele>767.4</ele>
        <time>2024-08-16T10:33:20Z</time>
      </trkpt>
      <trkpt lat="44.77895" lon="2.64081">
        <ele>767.5</ele>
        <time>2024-08-16T10:33:21Z</time>
      </trkpt>
      <trkpt lat="44.77896" lon="2.64079">
        <ele>767.6</ele>
        <time>2024-08-16T10:33:22Z</time>
      </trkpt>
      <trkpt lat="44.77899" lon="2.64074">
        <ele>767.8</ele>
        <time>2024-08-16T10:33:24Z</time>
      </trkpt>
      <trkpt lat="44.77902" lon="2.64068">
        <ele>768</ele>
        <time>2024-08-16T10:33:26Z</time>
      </trkpt>
      <trkpt lat="44.77903" lon="2.64065">
        <ele>768.1</ele>
        <time>2024-08-16T10:33:27Z</time>
      </trkpt>
      <trkpt lat="44.77905" lon="2.64063">
        <ele>768.2</ele>
        <time>2024-08-16T10:33:28Z</time>
      </trkpt>
      <trkpt lat="44.77907" lon="2.64058">
        <ele>768.3</ele>
        <time>2024-08-16T10:33:30Z</time>
      </trkpt>
      <trkpt lat="44.7791" lon="2.64053">
        <ele>768.5</ele>
        <time>2024-08-16T10:33:32Z</time>
      </trkpt>
      <trkpt lat="44.77911" lon="2.64047">
        <ele>768.7</ele>
        <time>2024-08-16T10:33:34Z</time>
      </trkpt>
      <trkpt lat="44.77912" lon="2.64044">
        <ele>768.8</ele>
        <time>2024-08-16T10:33:35Z</time>
      </trkpt>
      <trkpt lat="44.77913" lon="2.64041">
        <ele>768.8</ele>
        <time>2024-08-16T10:33:36Z</time>
      </trkpt>
      <trkpt lat="44.77915" lon="2.64036">
        <ele>769</ele>
        <time>2024-08-16T10:33:38Z</time>
      </trkpt>
      <trkpt lat="44.77915" lon="2.6403">
        <ele>769.1</ele>
        <time>2024-08-16T10:33:40Z</time>
      </trkpt>
      <trkpt lat="44.77917" lon="2.64025">
        <ele>769.3</ele>
        <time>2024-08-16T10:33:42Z</time>
      </trkpt>
      <trkpt lat="44.77918" lon="2.64019">
        <ele>769.4</ele>
        <time>2024-08-16T10:33:44Z</time>
      </trkpt>
      <trkpt lat="44.77919" lon="2.64014">
        <ele>769.6</ele>
        <time>2024-08-16T10:33:46Z</time>
      </trkpt>
      <trkpt lat="44.7792" lon="2.64007">
        <ele>769.8</ele>
        <time>2024-08-16T10:33:48Z</time>
      </trkpt>
      <trkpt lat="44.77921" lon="2.64001">
        <ele>769.9</ele>
        <time>2024-08-16T10:33:50Z</time>
      </trkpt>
      <trkpt lat="44.77921" lon="2.63996">
        <ele>770.1</ele>
        <time>2024-08-16T10:33:52Z</time>
      </trkpt>
      <trkpt lat="44.77921" lon="2.63989">
        <ele>770.2</ele>
        <time>2024-08-16T10:33:54Z</time>
      </trkpt>
      <trkpt lat="44.77921" lon="2.63983">
        <ele>770.4</ele>
        <time>2024-08-16T10:33:56Z</time>
      </trkpt>
      <trkpt lat="44.77922" lon="2.63975">
        <ele>770.5</ele>
        <time>2024-08-16T10:33:58Z</time>
      </trkpt>
      <trkpt lat="44.77922" lon="2.63967">
        <ele>770.6</ele>
        <time>2024-08-16T10:34:00Z</time>
      </trkpt>
      <trkpt lat="44.77923" lon="2.6396">
        <ele>770.7</ele>
        <time>2024-08-16T10:34:02Z</time>
      </trkpt>
      <trkpt lat="44.77924" lon="2.63952">
        <ele>770.7</ele>
        <time>2024-08-16T10:34:04Z</time>
      </trkpt>
      <trkpt lat="44.77925" lon="2.63944">
        <ele>770.8</ele>
        <time>2024-08-16T10:34:06Z</time>
      </trkpt>
      <trkpt lat="44.77926" lon="2.63936">
        <ele>770.9</ele>
        <time>2024-08-16T10:34:08Z</time>
      </trkpt>
      <trkpt lat="44.77927" lon="2.63927">
        <ele>771</ele>
        <time>2024-08-16T10:34:10Z</time>
      </trkpt>
      <trkpt lat="44.77928" lon="2.63918">
        <ele>771.1</ele>
        <time>2024-08-16T10:34:12Z</time>
      </trkpt>
      <trkpt lat="44.77929" lon="2.63909">
        <ele>771.2</ele>
        <time>2024-08-16T10:34:14Z</time>
      </trkpt>
      <trkpt lat="44.7793" lon="2.639">
        <ele>771.3</ele>
        <time>2024-08-16T10:34:16Z</time>
      </trkpt>
      <trkpt lat="44.77932" lon="2.6389">
        <ele>771.4</ele>
        <time>2024-08-16T10:34:18Z</time>
      </trkpt>
      <trkpt lat="44.77933" lon="2.6388">
        <ele>771.5</ele>
        <time>2024-08-16T10:34:20Z</time>
      </trkpt>
      <trkpt lat="44.77934" lon="2.63871">
        <ele>771.5</ele>
        <time>2024-08-16T10:34:22Z</time>
      </trkpt>
      <trkpt lat="44.77935" lon="2.63861">
        <ele>771.6</ele>
        <time>2024-08-16T10:34:24Z</time>
      </trkpt>
      <trkpt lat="44.77936" lon="2.63852">
        <ele>771.6</ele>
        <time>2024-08-16T10:34:26Z</time>
      </trkpt>
      <trkpt lat="44.77936" lon="2.63843">
        <ele>771.6</ele>
        <time>2024-08-16T10:34:28Z</time>
      </trkpt>
      <trkpt lat="44.77937" lon="2.63833">
        <ele>771.6</ele>
        <time>2024-08-16T10:34:30Z</time>
      </trkpt>
      <trkpt lat="44.77938" lon="2.63824">
        <ele>771.6</ele>
        <time>2024-08-16T10:34:32Z</time>
      </trkpt>
      <trkpt lat="44.77939" lon="2.63816">
        <ele>771.7</ele>
        <time>2024-08-16T10:34:34Z</time>
      </trkpt>
      <trkpt lat="44.7794" lon="2.63807">
        <ele>771.7</ele>
        <time>2024-08-16T10:34:36Z</time>
      </trkpt>
      <trkpt lat="44.77941" lon="2.63803">
        <ele>771.7</ele>
        <time>2024-08-16T10:34:37Z</time>
      </trkpt>
      <trkpt lat="44.77942" lon="2.63799">
        <ele>771.7</ele>
        <time>2024-08-16T10:34:38Z</time>
      </trkpt>
      <trkpt lat="44.77944" lon="2.6379">
        <ele>771.7</ele>
        <time>2024-08-16T10:34:40Z</time>
      </trkpt>
      <trkpt lat="44.77944" lon="2.63786">
        <ele>771.7</ele>
        <time>2024-08-16T10:34:41Z</time>
      </trkpt>
      <trkpt lat="44.77945" lon="2.63781">
        <ele>771.6</ele>
        <time>2024-08-16T10:34:42Z</time>
      </trkpt>
      <trkpt lat="44.77947" lon="2.63773">
        <ele>771.6</ele>
        <time>2024-08-16T10:34:44Z</time>
      </trkpt>
      <trkpt lat="44.77948" lon="2.63766">
        <ele>771.6</ele>
        <time>2024-08-16T10:34:46Z</time>
      </trkpt>
      <trkpt lat="44.7795" lon="2.63761">
        <ele>771.6</ele>
        <time>2024-08-16T10:34:48Z</time>
      </trkpt>
      <trkpt lat="44.77951" lon="2.6376">
        <ele>771.6</ele>
        <time>2024-08-16T10:34:49Z</time>
      </trkpt>
      <trkpt lat="44.77951" lon="2.63759">
        <ele>771.6</ele>
        <time>2024-08-16T10:34:50Z</time>
      </trkpt>
      <trkpt lat="44.77952" lon="2.63756">
        <ele>771.6</ele>
        <time>2024-08-16T10:34:51Z</time>
      </trkpt>
      <trkpt lat="44.77952" lon="2.63753">
        <ele>771.6</ele>
        <time>2024-08-16T10:34:52Z</time>
      </trkpt>
      <trkpt lat="44.77952" lon="2.6375">
        <ele>771.6</ele>
        <time>2024-08-16T10:34:53Z</time>
      </trkpt>
      <trkpt lat="44.77952" lon="2.63747">
        <ele>771.6</ele>
        <time>2024-08-16T10:34:54Z</time>
      </trkpt>
      <trkpt lat="44.77952" lon="2.63744">
        <ele>771.6</ele>
        <time>2024-08-16T10:34:55Z</time>
      </trkpt>
    </trkseg>
  </trk>
</gpx>